<?xml version="1.0" encoding="UTF-8" standalone="no" ?>
<gpx xmlns="http://www.topografix.com/GPX/1/1" xmlns:xsi="http://www.w3.org/2001/XMLSchema-instance" xsi:schemaLocation="http://www.topografix.com/GPX/1/1 http://www.topografix.com/GPX/1/1/gpx.xsd" version="1.1" creator="VisuGPX - https://www.visugpx.com">
  <metadata>
    <name>TARSACQ-OLORON-TARSACQ</name>
    <desc><![CDATA[parcours vtt entre Tarsacq et Oloron ]]></desc>
  </metadata>
  <trk>
    <name><![CDATA[TARSACQ-OLORON-TARSACQ_1]]></name>
    <trkseg>
      <trkpt lat="43.35779" lon="-0.53789">
        <ele>119</ele>
        <time>2016-05-05T07:23:44</time>
      </trkpt>
      <trkpt lat="43.35779" lon="-0.53789">
        <ele>118</ele>
        <time>2016-05-05T07:23:49</time>
      </trkpt>
      <trkpt lat="43.35779" lon="-0.53789">
        <ele>119</ele>
        <time>2016-05-05T07:23:54</time>
      </trkpt>
      <trkpt lat="43.35779" lon="-0.53788">
        <ele>120</ele>
        <time>2016-05-05T07:23:59</time>
      </trkpt>
      <trkpt lat="43.35778" lon="-0.53786">
        <ele>119</ele>
        <time>2016-05-05T07:24:04</time>
      </trkpt>
      <trkpt lat="43.35778" lon="-0.53786">
        <ele>119</ele>
        <time>2016-05-05T07:24:09</time>
      </trkpt>
      <trkpt lat="43.35779" lon="-0.53785">
        <ele>119</ele>
        <time>2016-05-05T07:24:14</time>
      </trkpt>
      <trkpt lat="43.3578" lon="-0.53784">
        <ele>119</ele>
        <time>2016-05-05T07:24:19</time>
      </trkpt>
      <trkpt lat="43.35781" lon="-0.53784">
        <ele>119</ele>
        <time>2016-05-05T07:24:24</time>
      </trkpt>
      <trkpt lat="43.35781" lon="-0.53784">
        <ele>120</ele>
        <time>2016-05-05T07:24:29</time>
      </trkpt>
      <trkpt lat="43.35781" lon="-0.53784">
        <ele>119</ele>
        <time>2016-05-05T07:24:34</time>
      </trkpt>
      <trkpt lat="43.35781" lon="-0.53784">
        <ele>119</ele>
        <time>2016-05-05T07:24:39</time>
      </trkpt>
      <trkpt lat="43.35781" lon="-0.53785">
        <ele>119</ele>
        <time>2016-05-05T07:24:44</time>
      </trkpt>
      <trkpt lat="43.35781" lon="-0.53785">
        <ele>119</ele>
        <time>2016-05-05T07:24:49</time>
      </trkpt>
      <trkpt lat="43.35781" lon="-0.53786">
        <ele>119</ele>
        <time>2016-05-05T07:24:54</time>
      </trkpt>
      <trkpt lat="43.35781" lon="-0.53786">
        <ele>118</ele>
        <time>2016-05-05T07:24:59</time>
      </trkpt>
      <trkpt lat="43.35782" lon="-0.53786">
        <ele>119</ele>
        <time>2016-05-05T07:25:04</time>
      </trkpt>
      <trkpt lat="43.35782" lon="-0.53787">
        <ele>119</ele>
        <time>2016-05-05T07:25:09</time>
      </trkpt>
      <trkpt lat="43.35782" lon="-0.53787">
        <ele>119</ele>
        <time>2016-05-05T07:25:14</time>
      </trkpt>
      <trkpt lat="43.35782" lon="-0.53787">
        <ele>119</ele>
        <time>2016-05-05T07:25:19</time>
      </trkpt>
      <trkpt lat="43.35782" lon="-0.53787">
        <ele>119</ele>
        <time>2016-05-05T07:25:24</time>
      </trkpt>
      <trkpt lat="43.35782" lon="-0.53787">
        <ele>119</ele>
        <time>2016-05-05T07:25:29</time>
      </trkpt>
      <trkpt lat="43.35782" lon="-0.53787">
        <ele>120</ele>
        <time>2016-05-05T07:25:34</time>
      </trkpt>
      <trkpt lat="43.35782" lon="-0.53788">
        <ele>119</ele>
        <time>2016-05-05T07:25:39</time>
      </trkpt>
      <trkpt lat="43.35781" lon="-0.53788">
        <ele>119</ele>
        <time>2016-05-05T07:25:44</time>
      </trkpt>
      <trkpt lat="43.35781" lon="-0.53788">
        <ele>119</ele>
        <time>2016-05-05T07:25:49</time>
      </trkpt>
      <trkpt lat="43.35781" lon="-0.53788">
        <ele>119</ele>
        <time>2016-05-05T07:25:55</time>
      </trkpt>
      <trkpt lat="43.35781" lon="-0.53788">
        <ele>119</ele>
        <time>2016-05-05T07:26:00</time>
      </trkpt>
      <trkpt lat="43.35781" lon="-0.53788">
        <ele>120</ele>
        <time>2016-05-05T07:26:05</time>
      </trkpt>
      <trkpt lat="43.35781" lon="-0.53788">
        <ele>119</ele>
        <time>2016-05-05T07:26:10</time>
      </trkpt>
      <trkpt lat="43.35781" lon="-0.53788">
        <ele>119</ele>
        <time>2016-05-05T07:26:15</time>
      </trkpt>
      <trkpt lat="43.35781" lon="-0.53788">
        <ele>119</ele>
        <time>2016-05-05T07:26:20</time>
      </trkpt>
      <trkpt lat="43.35781" lon="-0.53788">
        <ele>119</ele>
        <time>2016-05-05T07:26:25</time>
      </trkpt>
      <trkpt lat="43.35781" lon="-0.53788">
        <ele>118</ele>
        <time>2016-05-05T07:26:30</time>
      </trkpt>
      <trkpt lat="43.35781" lon="-0.53788">
        <ele>119</ele>
        <time>2016-05-05T07:26:35</time>
      </trkpt>
      <trkpt lat="43.35781" lon="-0.53788">
        <ele>119</ele>
        <time>2016-05-05T07:26:40</time>
      </trkpt>
      <trkpt lat="43.35781" lon="-0.53788">
        <ele>119</ele>
        <time>2016-05-05T07:26:45</time>
      </trkpt>
      <trkpt lat="43.3578" lon="-0.53788">
        <ele>119</ele>
        <time>2016-05-05T07:26:50</time>
      </trkpt>
      <trkpt lat="43.3578" lon="-0.53788">
        <ele>119</ele>
        <time>2016-05-05T07:26:55</time>
      </trkpt>
      <trkpt lat="43.3578" lon="-0.53789">
        <ele>119</ele>
        <time>2016-05-05T07:27:00</time>
      </trkpt>
      <trkpt lat="43.3578" lon="-0.53789">
        <ele>118</ele>
        <time>2016-05-05T07:27:05</time>
      </trkpt>
      <trkpt lat="43.3578" lon="-0.53789">
        <ele>118</ele>
        <time>2016-05-05T07:27:10</time>
      </trkpt>
      <trkpt lat="43.35781" lon="-0.53789">
        <ele>118</ele>
        <time>2016-05-05T07:27:15</time>
      </trkpt>
      <trkpt lat="43.35781" lon="-0.53789">
        <ele>120</ele>
        <time>2016-05-05T07:27:20</time>
      </trkpt>
      <trkpt lat="43.35781" lon="-0.53789">
        <ele>120</ele>
        <time>2016-05-05T07:27:25</time>
      </trkpt>
      <trkpt lat="43.3578" lon="-0.53791">
        <ele>118</ele>
        <time>2016-05-05T07:27:30</time>
      </trkpt>
      <trkpt lat="43.35779" lon="-0.53791">
        <ele>118</ele>
        <time>2016-05-05T07:27:35</time>
      </trkpt>
      <trkpt lat="43.35779" lon="-0.53791">
        <ele>119</ele>
        <time>2016-05-05T07:27:40</time>
      </trkpt>
      <trkpt lat="43.35779" lon="-0.53791">
        <ele>117</ele>
        <time>2016-05-05T07:27:45</time>
      </trkpt>
      <trkpt lat="43.35778" lon="-0.53791">
        <ele>118</ele>
        <time>2016-05-05T07:27:50</time>
      </trkpt>
      <trkpt lat="43.35774" lon="-0.53793">
        <ele>119</ele>
        <time>2016-05-05T07:27:55</time>
      </trkpt>
      <trkpt lat="43.3577" lon="-0.53796">
        <ele>119</ele>
        <time>2016-05-05T07:28:00</time>
      </trkpt>
      <trkpt lat="43.35769" lon="-0.53798">
        <ele>123</ele>
        <time>2016-05-05T07:28:05</time>
      </trkpt>
      <trkpt lat="43.35769" lon="-0.53798">
        <ele>120</ele>
        <time>2016-05-05T07:28:10</time>
      </trkpt>
      <trkpt lat="43.35769" lon="-0.53798">
        <ele>118</ele>
        <time>2016-05-05T07:28:15</time>
      </trkpt>
      <trkpt lat="43.3577" lon="-0.53797">
        <ele>119</ele>
        <time>2016-05-05T07:28:20</time>
      </trkpt>
      <trkpt lat="43.3577" lon="-0.53797">
        <ele>118</ele>
        <time>2016-05-05T07:28:26</time>
      </trkpt>
      <trkpt lat="43.3577" lon="-0.53797">
        <ele>121</ele>
        <time>2016-05-05T07:28:31</time>
      </trkpt>
      <trkpt lat="43.35771" lon="-0.53799">
        <ele>118</ele>
        <time>2016-05-05T07:28:36</time>
      </trkpt>
      <trkpt lat="43.3577" lon="-0.53799">
        <ele>119</ele>
        <time>2016-05-05T07:28:41</time>
      </trkpt>
      <trkpt lat="43.35769" lon="-0.53799">
        <ele>119</ele>
        <time>2016-05-05T07:28:46</time>
      </trkpt>
      <trkpt lat="43.35764" lon="-0.53793">
        <ele>119</ele>
        <time>2016-05-05T07:28:51</time>
      </trkpt>
      <trkpt lat="43.35752" lon="-0.53777">
        <ele>119</ele>
        <time>2016-05-05T07:28:56</time>
      </trkpt>
      <trkpt lat="43.3574" lon="-0.53757">
        <ele>119</ele>
        <time>2016-05-05T07:29:01</time>
      </trkpt>
      <trkpt lat="43.35727" lon="-0.53732">
        <ele>119</ele>
        <time>2016-05-05T07:29:06</time>
      </trkpt>
      <trkpt lat="43.35717" lon="-0.53707">
        <ele>119</ele>
        <time>2016-05-05T07:29:11</time>
      </trkpt>
      <trkpt lat="43.35713" lon="-0.53677">
        <ele>120</ele>
        <time>2016-05-05T07:29:16</time>
      </trkpt>
      <trkpt lat="43.35711" lon="-0.53649">
        <ele>121</ele>
        <time>2016-05-05T07:29:21</time>
      </trkpt>
      <trkpt lat="43.35708" lon="-0.5362">
        <ele>119</ele>
        <time>2016-05-05T07:29:26</time>
      </trkpt>
      <trkpt lat="43.35706" lon="-0.5359">
        <ele>121</ele>
        <time>2016-05-05T07:29:31</time>
      </trkpt>
      <trkpt lat="43.35703" lon="-0.5356">
        <ele>120</ele>
        <time>2016-05-05T07:29:36</time>
      </trkpt>
      <trkpt lat="43.35699" lon="-0.53524">
        <ele>120</ele>
        <time>2016-05-05T07:29:41</time>
      </trkpt>
      <trkpt lat="43.3569" lon="-0.53495">
        <ele>121</ele>
        <time>2016-05-05T07:29:46</time>
      </trkpt>
      <trkpt lat="43.35679" lon="-0.53467">
        <ele>120</ele>
        <time>2016-05-05T07:29:51</time>
      </trkpt>
      <trkpt lat="43.35667" lon="-0.53442">
        <ele>122</ele>
        <time>2016-05-05T07:29:56</time>
      </trkpt>
      <trkpt lat="43.35654" lon="-0.53418">
        <ele>121</ele>
        <time>2016-05-05T07:30:01</time>
      </trkpt>
      <trkpt lat="43.3564" lon="-0.53393">
        <ele>120</ele>
        <time>2016-05-05T07:30:06</time>
      </trkpt>
      <trkpt lat="43.35629" lon="-0.53373">
        <ele>122</ele>
        <time>2016-05-05T07:30:11</time>
      </trkpt>
      <trkpt lat="43.35615" lon="-0.53349">
        <ele>122</ele>
        <time>2016-05-05T07:30:16</time>
      </trkpt>
      <trkpt lat="43.35601" lon="-0.53325">
        <ele>122</ele>
        <time>2016-05-05T07:30:21</time>
      </trkpt>
      <trkpt lat="43.35588" lon="-0.53301">
        <ele>123</ele>
        <time>2016-05-05T07:30:26</time>
      </trkpt>
      <trkpt lat="43.35576" lon="-0.53275">
        <ele>122</ele>
        <time>2016-05-05T07:30:31</time>
      </trkpt>
      <trkpt lat="43.35568" lon="-0.53246">
        <ele>123</ele>
        <time>2016-05-05T07:30:36</time>
      </trkpt>
      <trkpt lat="43.35561" lon="-0.53216">
        <ele>122</ele>
        <time>2016-05-05T07:30:41</time>
      </trkpt>
      <trkpt lat="43.35555" lon="-0.53186">
        <ele>122</ele>
        <time>2016-05-05T07:30:46</time>
      </trkpt>
      <trkpt lat="43.35548" lon="-0.5315">
        <ele>123</ele>
        <time>2016-05-05T07:30:51</time>
      </trkpt>
      <trkpt lat="43.35542" lon="-0.5312">
        <ele>121</ele>
        <time>2016-05-05T07:30:56</time>
      </trkpt>
      <trkpt lat="43.35537" lon="-0.53091">
        <ele>123</ele>
        <time>2016-05-05T07:31:01</time>
      </trkpt>
      <trkpt lat="43.35529" lon="-0.53062">
        <ele>123</ele>
        <time>2016-05-05T07:31:07</time>
      </trkpt>
      <trkpt lat="43.35519" lon="-0.53035">
        <ele>123</ele>
        <time>2016-05-05T07:31:12</time>
      </trkpt>
      <trkpt lat="43.35505" lon="-0.53009">
        <ele>122</ele>
        <time>2016-05-05T07:31:17</time>
      </trkpt>
      <trkpt lat="43.35489" lon="-0.52987">
        <ele>123</ele>
        <time>2016-05-05T07:31:22</time>
      </trkpt>
      <trkpt lat="43.35472" lon="-0.52965">
        <ele>123</ele>
        <time>2016-05-05T07:31:27</time>
      </trkpt>
      <trkpt lat="43.35455" lon="-0.52944">
        <ele>124</ele>
        <time>2016-05-05T07:31:32</time>
      </trkpt>
      <trkpt lat="43.35439" lon="-0.52923">
        <ele>123</ele>
        <time>2016-05-05T07:31:37</time>
      </trkpt>
      <trkpt lat="43.35423" lon="-0.52902">
        <ele>123</ele>
        <time>2016-05-05T07:31:42</time>
      </trkpt>
      <trkpt lat="43.35407" lon="-0.52881">
        <ele>123</ele>
        <time>2016-05-05T07:31:47</time>
      </trkpt>
      <trkpt lat="43.35391" lon="-0.52859">
        <ele>123</ele>
        <time>2016-05-05T07:31:52</time>
      </trkpt>
      <trkpt lat="43.35376" lon="-0.52838">
        <ele>124</ele>
        <time>2016-05-05T07:31:57</time>
      </trkpt>
      <trkpt lat="43.35358" lon="-0.52817">
        <ele>123</ele>
        <time>2016-05-05T07:32:02</time>
      </trkpt>
      <trkpt lat="43.35342" lon="-0.52796">
        <ele>124</ele>
        <time>2016-05-05T07:32:07</time>
      </trkpt>
      <trkpt lat="43.35325" lon="-0.52775">
        <ele>124</ele>
        <time>2016-05-05T07:32:12</time>
      </trkpt>
      <trkpt lat="43.35309" lon="-0.52753">
        <ele>125</ele>
        <time>2016-05-05T07:32:17</time>
      </trkpt>
      <trkpt lat="43.35293" lon="-0.52732">
        <ele>123</ele>
        <time>2016-05-05T07:32:22</time>
      </trkpt>
      <trkpt lat="43.35276" lon="-0.52711">
        <ele>126</ele>
        <time>2016-05-05T07:32:27</time>
      </trkpt>
      <trkpt lat="43.3526" lon="-0.5269">
        <ele>125</ele>
        <time>2016-05-05T07:32:32</time>
      </trkpt>
      <trkpt lat="43.35243" lon="-0.52668">
        <ele>124</ele>
        <time>2016-05-05T07:32:37</time>
      </trkpt>
      <trkpt lat="43.35226" lon="-0.52646">
        <ele>125</ele>
        <time>2016-05-05T07:32:42</time>
      </trkpt>
      <trkpt lat="43.35211" lon="-0.52625">
        <ele>125</ele>
        <time>2016-05-05T07:32:47</time>
      </trkpt>
      <trkpt lat="43.35194" lon="-0.52604">
        <ele>125</ele>
        <time>2016-05-05T07:32:52</time>
      </trkpt>
      <trkpt lat="43.35174" lon="-0.52596">
        <ele>125</ele>
        <time>2016-05-05T07:32:57</time>
      </trkpt>
      <trkpt lat="43.35155" lon="-0.5262">
        <ele>124</ele>
        <time>2016-05-05T07:33:02</time>
      </trkpt>
      <trkpt lat="43.35133" lon="-0.52622">
        <ele>125</ele>
        <time>2016-05-05T07:33:07</time>
      </trkpt>
      <trkpt lat="43.35117" lon="-0.52644">
        <ele>124</ele>
        <time>2016-05-05T07:33:12</time>
      </trkpt>
      <trkpt lat="43.35103" lon="-0.5267">
        <ele>123</ele>
        <time>2016-05-05T07:33:17</time>
      </trkpt>
      <trkpt lat="43.35089" lon="-0.52696">
        <ele>125</ele>
        <time>2016-05-05T07:33:22</time>
      </trkpt>
      <trkpt lat="43.35078" lon="-0.52724">
        <ele>124</ele>
        <time>2016-05-05T07:33:27</time>
      </trkpt>
      <trkpt lat="43.35065" lon="-0.52751">
        <ele>125</ele>
        <time>2016-05-05T07:33:32</time>
      </trkpt>
      <trkpt lat="43.35053" lon="-0.5278">
        <ele>124</ele>
        <time>2016-05-05T07:33:37</time>
      </trkpt>
      <trkpt lat="43.35046" lon="-0.52801">
        <ele>123</ele>
        <time>2016-05-05T07:33:42</time>
      </trkpt>
      <trkpt lat="43.3504" lon="-0.5282">
        <ele>126</ele>
        <time>2016-05-05T07:33:47</time>
      </trkpt>
      <trkpt lat="43.35036" lon="-0.52838">
        <ele>129</ele>
        <time>2016-05-05T07:33:52</time>
      </trkpt>
      <trkpt lat="43.35032" lon="-0.52856">
        <ele>130</ele>
        <time>2016-05-05T07:33:58</time>
      </trkpt>
      <trkpt lat="43.35028" lon="-0.52874">
        <ele>130</ele>
        <time>2016-05-05T07:34:03</time>
      </trkpt>
      <trkpt lat="43.35018" lon="-0.52884">
        <ele>132</ele>
        <time>2016-05-05T07:34:08</time>
      </trkpt>
      <trkpt lat="43.35002" lon="-0.52882">
        <ele>131</ele>
        <time>2016-05-05T07:34:13</time>
      </trkpt>
      <trkpt lat="43.34984" lon="-0.52878">
        <ele>131</ele>
        <time>2016-05-05T07:34:18</time>
      </trkpt>
      <trkpt lat="43.34968" lon="-0.52869">
        <ele>132</ele>
        <time>2016-05-05T07:34:23</time>
      </trkpt>
      <trkpt lat="43.34954" lon="-0.52858">
        <ele>132</ele>
        <time>2016-05-05T07:34:28</time>
      </trkpt>
      <trkpt lat="43.34937" lon="-0.52856">
        <ele>131</ele>
        <time>2016-05-05T07:34:33</time>
      </trkpt>
      <trkpt lat="43.3492" lon="-0.52853">
        <ele>132</ele>
        <time>2016-05-05T07:34:38</time>
      </trkpt>
      <trkpt lat="43.34905" lon="-0.52851">
        <ele>133</ele>
        <time>2016-05-05T07:34:43</time>
      </trkpt>
      <trkpt lat="43.34891" lon="-0.52844">
        <ele>136</ele>
        <time>2016-05-05T07:34:48</time>
      </trkpt>
      <trkpt lat="43.34879" lon="-0.52829">
        <ele>135</ele>
        <time>2016-05-05T07:34:53</time>
      </trkpt>
      <trkpt lat="43.34864" lon="-0.52819">
        <ele>134</ele>
        <time>2016-05-05T07:34:58</time>
      </trkpt>
      <trkpt lat="43.34847" lon="-0.52808">
        <ele>134</ele>
        <time>2016-05-05T07:35:03</time>
      </trkpt>
      <trkpt lat="43.34836" lon="-0.52789">
        <ele>133</ele>
        <time>2016-05-05T07:35:08</time>
      </trkpt>
      <trkpt lat="43.34824" lon="-0.52766">
        <ele>135</ele>
        <time>2016-05-05T07:35:13</time>
      </trkpt>
      <trkpt lat="43.34813" lon="-0.5275">
        <ele>135</ele>
        <time>2016-05-05T07:35:18</time>
      </trkpt>
      <trkpt lat="43.34801" lon="-0.5274">
        <ele>137</ele>
        <time>2016-05-05T07:35:23</time>
      </trkpt>
      <trkpt lat="43.34793" lon="-0.52734">
        <ele>137</ele>
        <time>2016-05-05T07:35:28</time>
      </trkpt>
      <trkpt lat="43.34783" lon="-0.52732">
        <ele>138</ele>
        <time>2016-05-05T07:35:33</time>
      </trkpt>
      <trkpt lat="43.34775" lon="-0.52733">
        <ele>138</ele>
        <time>2016-05-05T07:35:38</time>
      </trkpt>
      <trkpt lat="43.34768" lon="-0.52733">
        <ele>140</ele>
        <time>2016-05-05T07:35:43</time>
      </trkpt>
      <trkpt lat="43.34759" lon="-0.5273">
        <ele>142</ele>
        <time>2016-05-05T07:35:48</time>
      </trkpt>
      <trkpt lat="43.34751" lon="-0.52721">
        <ele>144</ele>
        <time>2016-05-05T07:35:53</time>
      </trkpt>
      <trkpt lat="43.34742" lon="-0.52709">
        <ele>145</ele>
        <time>2016-05-05T07:35:58</time>
      </trkpt>
      <trkpt lat="43.34732" lon="-0.52697">
        <ele>145</ele>
        <time>2016-05-05T07:36:03</time>
      </trkpt>
      <trkpt lat="43.34724" lon="-0.52685">
        <ele>145</ele>
        <time>2016-05-05T07:36:08</time>
      </trkpt>
      <trkpt lat="43.34716" lon="-0.52674">
        <ele>145</ele>
        <time>2016-05-05T07:36:13</time>
      </trkpt>
      <trkpt lat="43.34708" lon="-0.5266">
        <ele>146</ele>
        <time>2016-05-05T07:36:18</time>
      </trkpt>
      <trkpt lat="43.34701" lon="-0.5265">
        <ele>149</ele>
        <time>2016-05-05T07:36:23</time>
      </trkpt>
      <trkpt lat="43.34693" lon="-0.52641">
        <ele>151</ele>
        <time>2016-05-05T07:36:28</time>
      </trkpt>
      <trkpt lat="43.34684" lon="-0.52637">
        <ele>151</ele>
        <time>2016-05-05T07:36:34</time>
      </trkpt>
      <trkpt lat="43.34676" lon="-0.52642">
        <ele>151</ele>
        <time>2016-05-05T07:36:39</time>
      </trkpt>
      <trkpt lat="43.34671" lon="-0.52651">
        <ele>152</ele>
        <time>2016-05-05T07:36:44</time>
      </trkpt>
      <trkpt lat="43.3467" lon="-0.52662">
        <ele>152</ele>
        <time>2016-05-05T07:36:49</time>
      </trkpt>
      <trkpt lat="43.34668" lon="-0.52674">
        <ele>155</ele>
        <time>2016-05-05T07:36:54</time>
      </trkpt>
      <trkpt lat="43.34667" lon="-0.52685">
        <ele>156</ele>
        <time>2016-05-05T07:36:59</time>
      </trkpt>
      <trkpt lat="43.34665" lon="-0.52696">
        <ele>156</ele>
        <time>2016-05-05T07:37:04</time>
      </trkpt>
      <trkpt lat="43.34663" lon="-0.52707">
        <ele>157</ele>
        <time>2016-05-05T07:37:09</time>
      </trkpt>
      <trkpt lat="43.34665" lon="-0.52719">
        <ele>158</ele>
        <time>2016-05-05T07:37:14</time>
      </trkpt>
      <trkpt lat="43.34669" lon="-0.52729">
        <ele>158</ele>
        <time>2016-05-05T07:37:19</time>
      </trkpt>
      <trkpt lat="43.34675" lon="-0.52737">
        <ele>160</ele>
        <time>2016-05-05T07:37:24</time>
      </trkpt>
      <trkpt lat="43.34681" lon="-0.52744">
        <ele>162</ele>
        <time>2016-05-05T07:37:29</time>
      </trkpt>
      <trkpt lat="43.3469" lon="-0.52754">
        <ele>162</ele>
        <time>2016-05-05T07:37:34</time>
      </trkpt>
      <trkpt lat="43.34696" lon="-0.52764">
        <ele>163</ele>
        <time>2016-05-05T07:37:39</time>
      </trkpt>
      <trkpt lat="43.34703" lon="-0.52776">
        <ele>164</ele>
        <time>2016-05-05T07:37:44</time>
      </trkpt>
      <trkpt lat="43.34709" lon="-0.52789">
        <ele>161</ele>
        <time>2016-05-05T07:37:49</time>
      </trkpt>
      <trkpt lat="43.34715" lon="-0.52803">
        <ele>164</ele>
        <time>2016-05-05T07:37:54</time>
      </trkpt>
      <trkpt lat="43.3472" lon="-0.52815">
        <ele>162</ele>
        <time>2016-05-05T07:37:59</time>
      </trkpt>
      <trkpt lat="43.34726" lon="-0.52829">
        <ele>164</ele>
        <time>2016-05-05T07:38:04</time>
      </trkpt>
      <trkpt lat="43.34731" lon="-0.52842">
        <ele>164</ele>
        <time>2016-05-05T07:38:09</time>
      </trkpt>
      <trkpt lat="43.34737" lon="-0.52856">
        <ele>165</ele>
        <time>2016-05-05T07:38:14</time>
      </trkpt>
      <trkpt lat="43.34742" lon="-0.5287">
        <ele>165</ele>
        <time>2016-05-05T07:38:19</time>
      </trkpt>
      <trkpt lat="43.34747" lon="-0.52883">
        <ele>165</ele>
        <time>2016-05-05T07:38:24</time>
      </trkpt>
      <trkpt lat="43.3475" lon="-0.52899">
        <ele>166</ele>
        <time>2016-05-05T07:38:29</time>
      </trkpt>
      <trkpt lat="43.34752" lon="-0.52914">
        <ele>166</ele>
        <time>2016-05-05T07:38:34</time>
      </trkpt>
      <trkpt lat="43.34754" lon="-0.52931">
        <ele>169</ele>
        <time>2016-05-05T07:38:39</time>
      </trkpt>
      <trkpt lat="43.34755" lon="-0.52947">
        <ele>169</ele>
        <time>2016-05-05T07:38:44</time>
      </trkpt>
      <trkpt lat="43.34755" lon="-0.52967">
        <ele>169</ele>
        <time>2016-05-05T07:38:49</time>
      </trkpt>
      <trkpt lat="43.34758" lon="-0.52982">
        <ele>170</ele>
        <time>2016-05-05T07:38:54</time>
      </trkpt>
      <trkpt lat="43.34764" lon="-0.52996">
        <ele>171</ele>
        <time>2016-05-05T07:39:00</time>
      </trkpt>
      <trkpt lat="43.34772" lon="-0.53006">
        <ele>171</ele>
        <time>2016-05-05T07:39:05</time>
      </trkpt>
      <trkpt lat="43.34779" lon="-0.53016">
        <ele>171</ele>
        <time>2016-05-05T07:39:10</time>
      </trkpt>
      <trkpt lat="43.34784" lon="-0.53027">
        <ele>173</ele>
        <time>2016-05-05T07:39:15</time>
      </trkpt>
      <trkpt lat="43.34786" lon="-0.53039">
        <ele>174</ele>
        <time>2016-05-05T07:39:20</time>
      </trkpt>
      <trkpt lat="43.34789" lon="-0.5305">
        <ele>175</ele>
        <time>2016-05-05T07:39:25</time>
      </trkpt>
      <trkpt lat="43.34793" lon="-0.53059">
        <ele>175</ele>
        <time>2016-05-05T07:39:30</time>
      </trkpt>
      <trkpt lat="43.34797" lon="-0.53067">
        <ele>177</ele>
        <time>2016-05-05T07:39:35</time>
      </trkpt>
      <trkpt lat="43.34803" lon="-0.53074">
        <ele>177</ele>
        <time>2016-05-05T07:39:40</time>
      </trkpt>
      <trkpt lat="43.34808" lon="-0.53081">
        <ele>180</ele>
        <time>2016-05-05T07:39:45</time>
      </trkpt>
      <trkpt lat="43.34812" lon="-0.53089">
        <ele>180</ele>
        <time>2016-05-05T07:39:50</time>
      </trkpt>
      <trkpt lat="43.34816" lon="-0.53099">
        <ele>182</ele>
        <time>2016-05-05T07:39:55</time>
      </trkpt>
      <trkpt lat="43.34818" lon="-0.53109">
        <ele>184</ele>
        <time>2016-05-05T07:40:00</time>
      </trkpt>
      <trkpt lat="43.34819" lon="-0.53119">
        <ele>185</ele>
        <time>2016-05-05T07:40:05</time>
      </trkpt>
      <trkpt lat="43.34819" lon="-0.53128">
        <ele>187</ele>
        <time>2016-05-05T07:40:10</time>
      </trkpt>
      <trkpt lat="43.34821" lon="-0.53138">
        <ele>187</ele>
        <time>2016-05-05T07:40:15</time>
      </trkpt>
      <trkpt lat="43.34822" lon="-0.53145">
        <ele>188</ele>
        <time>2016-05-05T07:40:20</time>
      </trkpt>
      <trkpt lat="43.34823" lon="-0.53155">
        <ele>189</ele>
        <time>2016-05-05T07:40:25</time>
      </trkpt>
      <trkpt lat="43.34819" lon="-0.53162">
        <ele>193</ele>
        <time>2016-05-05T07:40:30</time>
      </trkpt>
      <trkpt lat="43.34811" lon="-0.53165">
        <ele>192</ele>
        <time>2016-05-05T07:40:35</time>
      </trkpt>
      <trkpt lat="43.34801" lon="-0.5317">
        <ele>194</ele>
        <time>2016-05-05T07:40:40</time>
      </trkpt>
      <trkpt lat="43.34793" lon="-0.53176">
        <ele>194</ele>
        <time>2016-05-05T07:40:45</time>
      </trkpt>
      <trkpt lat="43.34784" lon="-0.53185">
        <ele>194</ele>
        <time>2016-05-05T07:40:50</time>
      </trkpt>
      <trkpt lat="43.34776" lon="-0.53194">
        <ele>194</ele>
        <time>2016-05-05T07:40:55</time>
      </trkpt>
      <trkpt lat="43.34768" lon="-0.53203">
        <ele>193</ele>
        <time>2016-05-05T07:41:00</time>
      </trkpt>
      <trkpt lat="43.34759" lon="-0.53213">
        <ele>196</ele>
        <time>2016-05-05T07:41:05</time>
      </trkpt>
      <trkpt lat="43.34752" lon="-0.53223">
        <ele>196</ele>
        <time>2016-05-05T07:41:10</time>
      </trkpt>
      <trkpt lat="43.34745" lon="-0.53233">
        <ele>197</ele>
        <time>2016-05-05T07:41:15</time>
      </trkpt>
      <trkpt lat="43.34737" lon="-0.53241">
        <ele>197</ele>
        <time>2016-05-05T07:41:21</time>
      </trkpt>
      <trkpt lat="43.34732" lon="-0.53251">
        <ele>198</ele>
        <time>2016-05-05T07:41:26</time>
      </trkpt>
      <trkpt lat="43.34727" lon="-0.53265">
        <ele>200</ele>
        <time>2016-05-05T07:41:31</time>
      </trkpt>
      <trkpt lat="43.34721" lon="-0.5328">
        <ele>200</ele>
        <time>2016-05-05T07:41:36</time>
      </trkpt>
      <trkpt lat="43.34715" lon="-0.53297">
        <ele>198</ele>
        <time>2016-05-05T07:41:41</time>
      </trkpt>
      <trkpt lat="43.3471" lon="-0.53313">
        <ele>197</ele>
        <time>2016-05-05T07:41:46</time>
      </trkpt>
      <trkpt lat="43.34704" lon="-0.53331">
        <ele>200</ele>
        <time>2016-05-05T07:41:51</time>
      </trkpt>
      <trkpt lat="43.34702" lon="-0.53348">
        <ele>198</ele>
        <time>2016-05-05T07:41:56</time>
      </trkpt>
      <trkpt lat="43.347" lon="-0.53365">
        <ele>198</ele>
        <time>2016-05-05T07:42:01</time>
      </trkpt>
      <trkpt lat="43.34697" lon="-0.53382">
        <ele>200</ele>
        <time>2016-05-05T07:42:06</time>
      </trkpt>
      <trkpt lat="43.3469" lon="-0.53401">
        <ele>201</ele>
        <time>2016-05-05T07:42:11</time>
      </trkpt>
      <trkpt lat="43.34686" lon="-0.53417">
        <ele>201</ele>
        <time>2016-05-05T07:42:16</time>
      </trkpt>
      <trkpt lat="43.34681" lon="-0.53428">
        <ele>202</ele>
        <time>2016-05-05T07:42:21</time>
      </trkpt>
      <trkpt lat="43.34675" lon="-0.53444">
        <ele>200</ele>
        <time>2016-05-05T07:42:26</time>
      </trkpt>
      <trkpt lat="43.34668" lon="-0.5346">
        <ele>202</ele>
        <time>2016-05-05T07:42:31</time>
      </trkpt>
      <trkpt lat="43.34661" lon="-0.53476">
        <ele>204</ele>
        <time>2016-05-05T07:42:36</time>
      </trkpt>
      <trkpt lat="43.34657" lon="-0.53492">
        <ele>206</ele>
        <time>2016-05-05T07:42:41</time>
      </trkpt>
      <trkpt lat="43.34652" lon="-0.53507">
        <ele>205</ele>
        <time>2016-05-05T07:42:46</time>
      </trkpt>
      <trkpt lat="43.34649" lon="-0.53519">
        <ele>207</ele>
        <time>2016-05-05T07:42:51</time>
      </trkpt>
      <trkpt lat="43.34646" lon="-0.53534">
        <ele>208</ele>
        <time>2016-05-05T07:42:56</time>
      </trkpt>
      <trkpt lat="43.34642" lon="-0.53547">
        <ele>208</ele>
        <time>2016-05-05T07:43:01</time>
      </trkpt>
      <trkpt lat="43.34637" lon="-0.53559">
        <ele>209</ele>
        <time>2016-05-05T07:43:06</time>
      </trkpt>
      <trkpt lat="43.34631" lon="-0.53571">
        <ele>211</ele>
        <time>2016-05-05T07:43:11</time>
      </trkpt>
      <trkpt lat="43.34626" lon="-0.53584">
        <ele>212</ele>
        <time>2016-05-05T07:43:16</time>
      </trkpt>
      <trkpt lat="43.34616" lon="-0.53599">
        <ele>212</ele>
        <time>2016-05-05T07:43:21</time>
      </trkpt>
      <trkpt lat="43.34607" lon="-0.53611">
        <ele>212</ele>
        <time>2016-05-05T07:43:26</time>
      </trkpt>
      <trkpt lat="43.346" lon="-0.5362">
        <ele>214</ele>
        <time>2016-05-05T07:43:31</time>
      </trkpt>
      <trkpt lat="43.3459" lon="-0.53628">
        <ele>215</ele>
        <time>2016-05-05T07:43:36</time>
      </trkpt>
      <trkpt lat="43.34579" lon="-0.53635">
        <ele>214</ele>
        <time>2016-05-05T07:43:41</time>
      </trkpt>
      <trkpt lat="43.34559" lon="-0.53624">
        <ele>213</ele>
        <time>2016-05-05T07:43:46</time>
      </trkpt>
      <trkpt lat="43.34543" lon="-0.53583">
        <ele>213</ele>
        <time>2016-05-05T07:43:51</time>
      </trkpt>
      <trkpt lat="43.34541" lon="-0.53539">
        <ele>210</ele>
        <time>2016-05-05T07:43:56</time>
      </trkpt>
      <trkpt lat="43.34541" lon="-0.53505">
        <ele>209</ele>
        <time>2016-05-05T07:44:02</time>
      </trkpt>
      <trkpt lat="43.34533" lon="-0.53473">
        <ele>208</ele>
        <time>2016-05-05T07:44:07</time>
      </trkpt>
      <trkpt lat="43.34524" lon="-0.53452">
        <ele>207</ele>
        <time>2016-05-05T07:44:12</time>
      </trkpt>
      <trkpt lat="43.34514" lon="-0.53431">
        <ele>206</ele>
        <time>2016-05-05T07:44:17</time>
      </trkpt>
      <trkpt lat="43.34503" lon="-0.53411">
        <ele>208</ele>
        <time>2016-05-05T07:44:22</time>
      </trkpt>
      <trkpt lat="43.34499" lon="-0.53391">
        <ele>209</ele>
        <time>2016-05-05T07:44:27</time>
      </trkpt>
      <trkpt lat="43.34499" lon="-0.53375">
        <ele>212</ele>
        <time>2016-05-05T07:44:32</time>
      </trkpt>
      <trkpt lat="43.34498" lon="-0.53359">
        <ele>212</ele>
        <time>2016-05-05T07:44:37</time>
      </trkpt>
      <trkpt lat="43.34495" lon="-0.53343">
        <ele>214</ele>
        <time>2016-05-05T07:44:42</time>
      </trkpt>
      <trkpt lat="43.34485" lon="-0.5332">
        <ele>213</ele>
        <time>2016-05-05T07:44:47</time>
      </trkpt>
      <trkpt lat="43.34472" lon="-0.53299">
        <ele>213</ele>
        <time>2016-05-05T07:44:52</time>
      </trkpt>
      <trkpt lat="43.34459" lon="-0.53271">
        <ele>211</ele>
        <time>2016-05-05T07:44:57</time>
      </trkpt>
      <trkpt lat="43.34449" lon="-0.53247">
        <ele>211</ele>
        <time>2016-05-05T07:45:02</time>
      </trkpt>
      <trkpt lat="43.3444" lon="-0.53217">
        <ele>209</ele>
        <time>2016-05-05T07:45:07</time>
      </trkpt>
      <trkpt lat="43.34434" lon="-0.53188">
        <ele>210</ele>
        <time>2016-05-05T07:45:12</time>
      </trkpt>
      <trkpt lat="43.34431" lon="-0.53167">
        <ele>212</ele>
        <time>2016-05-05T07:45:17</time>
      </trkpt>
      <trkpt lat="43.3443" lon="-0.53145">
        <ele>212</ele>
        <time>2016-05-05T07:45:22</time>
      </trkpt>
      <trkpt lat="43.34429" lon="-0.53121">
        <ele>211</ele>
        <time>2016-05-05T07:45:27</time>
      </trkpt>
      <trkpt lat="43.34426" lon="-0.53099">
        <ele>214</ele>
        <time>2016-05-05T07:45:32</time>
      </trkpt>
      <trkpt lat="43.3442" lon="-0.53069">
        <ele>213</ele>
        <time>2016-05-05T07:45:37</time>
      </trkpt>
      <trkpt lat="43.34408" lon="-0.53044">
        <ele>213</ele>
        <time>2016-05-05T07:45:42</time>
      </trkpt>
      <trkpt lat="43.34394" lon="-0.53017">
        <ele>210</ele>
        <time>2016-05-05T07:45:47</time>
      </trkpt>
      <trkpt lat="43.34372" lon="-0.52996">
        <ele>209</ele>
        <time>2016-05-05T07:45:52</time>
      </trkpt>
      <trkpt lat="43.34356" lon="-0.52997">
        <ele>210</ele>
        <time>2016-05-05T07:45:57</time>
      </trkpt>
      <trkpt lat="43.34341" lon="-0.52999">
        <ele>210</ele>
        <time>2016-05-05T07:46:02</time>
      </trkpt>
      <trkpt lat="43.34326" lon="-0.53004">
        <ele>211</ele>
        <time>2016-05-05T07:46:07</time>
      </trkpt>
      <trkpt lat="43.34313" lon="-0.53011">
        <ele>211</ele>
        <time>2016-05-05T07:46:12</time>
      </trkpt>
      <trkpt lat="43.34303" lon="-0.53019">
        <ele>213</ele>
        <time>2016-05-05T07:46:17</time>
      </trkpt>
      <trkpt lat="43.3429" lon="-0.53032">
        <ele>213</ele>
        <time>2016-05-05T07:46:22</time>
      </trkpt>
      <trkpt lat="43.34275" lon="-0.53057">
        <ele>212</ele>
        <time>2016-05-05T07:46:27</time>
      </trkpt>
      <trkpt lat="43.34261" lon="-0.5308">
        <ele>212</ele>
        <time>2016-05-05T07:46:33</time>
      </trkpt>
      <trkpt lat="43.34243" lon="-0.531">
        <ele>211</ele>
        <time>2016-05-05T07:46:38</time>
      </trkpt>
      <trkpt lat="43.34227" lon="-0.53117">
        <ele>211</ele>
        <time>2016-05-05T07:46:43</time>
      </trkpt>
      <trkpt lat="43.34217" lon="-0.53129">
        <ele>211</ele>
        <time>2016-05-05T07:46:48</time>
      </trkpt>
      <trkpt lat="43.34207" lon="-0.53143">
        <ele>212</ele>
        <time>2016-05-05T07:46:53</time>
      </trkpt>
      <trkpt lat="43.34193" lon="-0.53159">
        <ele>213</ele>
        <time>2016-05-05T07:46:58</time>
      </trkpt>
      <trkpt lat="43.34174" lon="-0.5317">
        <ele>212</ele>
        <time>2016-05-05T07:47:03</time>
      </trkpt>
      <trkpt lat="43.3415" lon="-0.53183">
        <ele>208</ele>
        <time>2016-05-05T07:47:08</time>
      </trkpt>
      <trkpt lat="43.34128" lon="-0.53227">
        <ele>204</ele>
        <time>2016-05-05T07:47:13</time>
      </trkpt>
      <trkpt lat="43.34089" lon="-0.53262">
        <ele>197</ele>
        <time>2016-05-05T07:47:18</time>
      </trkpt>
      <trkpt lat="43.34053" lon="-0.53292">
        <ele>191</ele>
        <time>2016-05-05T07:47:23</time>
      </trkpt>
      <trkpt lat="43.34007" lon="-0.53295">
        <ele>188</ele>
        <time>2016-05-05T07:47:28</time>
      </trkpt>
      <trkpt lat="43.33971" lon="-0.53295">
        <ele>182</ele>
        <time>2016-05-05T07:47:33</time>
      </trkpt>
      <trkpt lat="43.33951" lon="-0.53304">
        <ele>181</ele>
        <time>2016-05-05T07:47:38</time>
      </trkpt>
      <trkpt lat="43.33927" lon="-0.533">
        <ele>181</ele>
        <time>2016-05-05T07:47:43</time>
      </trkpt>
      <trkpt lat="43.33892" lon="-0.53294">
        <ele>176</ele>
        <time>2016-05-05T07:47:48</time>
      </trkpt>
      <trkpt lat="43.33854" lon="-0.5329">
        <ele>176</ele>
        <time>2016-05-05T07:47:53</time>
      </trkpt>
      <trkpt lat="43.33803" lon="-0.53297">
        <ele>166</ele>
        <time>2016-05-05T07:47:58</time>
      </trkpt>
      <trkpt lat="43.33753" lon="-0.53295">
        <ele>166</ele>
        <time>2016-05-05T07:48:03</time>
      </trkpt>
      <trkpt lat="43.33712" lon="-0.53305">
        <ele>158</ele>
        <time>2016-05-05T07:48:08</time>
      </trkpt>
      <trkpt lat="43.33686" lon="-0.53283">
        <ele>158</ele>
        <time>2016-05-05T07:48:13</time>
      </trkpt>
      <trkpt lat="43.33645" lon="-0.53252">
        <ele>157</ele>
        <time>2016-05-05T07:48:18</time>
      </trkpt>
      <trkpt lat="43.33604" lon="-0.53237">
        <ele>154</ele>
        <time>2016-05-05T07:48:23</time>
      </trkpt>
      <trkpt lat="43.33569" lon="-0.53233">
        <ele>146</ele>
        <time>2016-05-05T07:48:28</time>
      </trkpt>
      <trkpt lat="43.33527" lon="-0.53228">
        <ele>143</ele>
        <time>2016-05-05T07:48:33</time>
      </trkpt>
      <trkpt lat="43.33492" lon="-0.53228">
        <ele>138</ele>
        <time>2016-05-05T07:48:38</time>
      </trkpt>
      <trkpt lat="43.33465" lon="-0.53243">
        <ele>134</ele>
        <time>2016-05-05T07:48:43</time>
      </trkpt>
      <trkpt lat="43.3345" lon="-0.53247">
        <ele>133</ele>
        <time>2016-05-05T07:48:48</time>
      </trkpt>
      <trkpt lat="43.33434" lon="-0.53269">
        <ele>132</ele>
        <time>2016-05-05T07:48:53</time>
      </trkpt>
      <trkpt lat="43.33414" lon="-0.53293">
        <ele>130</ele>
        <time>2016-05-05T07:48:58</time>
      </trkpt>
      <trkpt lat="43.33395" lon="-0.53319">
        <ele>131</ele>
        <time>2016-05-05T07:49:03</time>
      </trkpt>
      <trkpt lat="43.33375" lon="-0.53345">
        <ele>131</ele>
        <time>2016-05-05T07:49:08</time>
      </trkpt>
      <trkpt lat="43.3335" lon="-0.53377">
        <ele>129</ele>
        <time>2016-05-05T07:49:14</time>
      </trkpt>
      <trkpt lat="43.33329" lon="-0.53404">
        <ele>129</ele>
        <time>2016-05-05T07:49:19</time>
      </trkpt>
      <trkpt lat="43.33309" lon="-0.53431">
        <ele>129</ele>
        <time>2016-05-05T07:49:24</time>
      </trkpt>
      <trkpt lat="43.33289" lon="-0.53457">
        <ele>127</ele>
        <time>2016-05-05T07:49:29</time>
      </trkpt>
      <trkpt lat="43.33269" lon="-0.53484">
        <ele>126</ele>
        <time>2016-05-05T07:49:34</time>
      </trkpt>
      <trkpt lat="43.33248" lon="-0.53512">
        <ele>128</ele>
        <time>2016-05-05T07:49:39</time>
      </trkpt>
      <trkpt lat="43.33228" lon="-0.53539">
        <ele>126</ele>
        <time>2016-05-05T07:49:44</time>
      </trkpt>
      <trkpt lat="43.33208" lon="-0.53565">
        <ele>127</ele>
        <time>2016-05-05T07:49:49</time>
      </trkpt>
      <trkpt lat="43.33189" lon="-0.53589">
        <ele>128</ele>
        <time>2016-05-05T07:49:54</time>
      </trkpt>
      <trkpt lat="43.33171" lon="-0.53613">
        <ele>126</ele>
        <time>2016-05-05T07:49:59</time>
      </trkpt>
      <trkpt lat="43.33152" lon="-0.53638">
        <ele>127</ele>
        <time>2016-05-05T07:50:04</time>
      </trkpt>
      <trkpt lat="43.3313" lon="-0.53664">
        <ele>127</ele>
        <time>2016-05-05T07:50:09</time>
      </trkpt>
      <trkpt lat="43.33107" lon="-0.53685">
        <ele>126</ele>
        <time>2016-05-05T07:50:14</time>
      </trkpt>
      <trkpt lat="43.33082" lon="-0.53702">
        <ele>127</ele>
        <time>2016-05-05T07:50:19</time>
      </trkpt>
      <trkpt lat="43.33058" lon="-0.53718">
        <ele>128</ele>
        <time>2016-05-05T07:50:24</time>
      </trkpt>
      <trkpt lat="43.33034" lon="-0.53733">
        <ele>126</ele>
        <time>2016-05-05T07:50:29</time>
      </trkpt>
      <trkpt lat="43.3301" lon="-0.53748">
        <ele>127</ele>
        <time>2016-05-05T07:50:34</time>
      </trkpt>
      <trkpt lat="43.32981" lon="-0.53766">
        <ele>127</ele>
        <time>2016-05-05T07:50:39</time>
      </trkpt>
      <trkpt lat="43.3296" lon="-0.53785">
        <ele>127</ele>
        <time>2016-05-05T07:50:44</time>
      </trkpt>
      <trkpt lat="43.32941" lon="-0.53807">
        <ele>128</ele>
        <time>2016-05-05T07:50:49</time>
      </trkpt>
      <trkpt lat="43.32928" lon="-0.53835">
        <ele>127</ele>
        <time>2016-05-05T07:50:54</time>
      </trkpt>
      <trkpt lat="43.32916" lon="-0.53866">
        <ele>128</ele>
        <time>2016-05-05T07:50:59</time>
      </trkpt>
      <trkpt lat="43.32904" lon="-0.53898">
        <ele>128</ele>
        <time>2016-05-05T07:51:04</time>
      </trkpt>
      <trkpt lat="43.32893" lon="-0.53928">
        <ele>128</ele>
        <time>2016-05-05T07:51:09</time>
      </trkpt>
      <trkpt lat="43.32883" lon="-0.53957">
        <ele>128</ele>
        <time>2016-05-05T07:51:14</time>
      </trkpt>
      <trkpt lat="43.32872" lon="-0.53985">
        <ele>129</ele>
        <time>2016-05-05T07:51:19</time>
      </trkpt>
      <trkpt lat="43.32862" lon="-0.54013">
        <ele>130</ele>
        <time>2016-05-05T07:51:24</time>
      </trkpt>
      <trkpt lat="43.32849" lon="-0.54038">
        <ele>130</ele>
        <time>2016-05-05T07:51:30</time>
      </trkpt>
      <trkpt lat="43.32838" lon="-0.54056">
        <ele>131</ele>
        <time>2016-05-05T07:51:35</time>
      </trkpt>
      <trkpt lat="43.32824" lon="-0.54079">
        <ele>131</ele>
        <time>2016-05-05T07:51:40</time>
      </trkpt>
      <trkpt lat="43.32809" lon="-0.54101">
        <ele>132</ele>
        <time>2016-05-05T07:51:45</time>
      </trkpt>
      <trkpt lat="43.32795" lon="-0.54123">
        <ele>132</ele>
        <time>2016-05-05T07:51:50</time>
      </trkpt>
      <trkpt lat="43.32778" lon="-0.54149">
        <ele>134</ele>
        <time>2016-05-05T07:51:55</time>
      </trkpt>
      <trkpt lat="43.32764" lon="-0.5417">
        <ele>136</ele>
        <time>2016-05-05T07:52:00</time>
      </trkpt>
      <trkpt lat="43.3275" lon="-0.54192">
        <ele>136</ele>
        <time>2016-05-05T07:52:05</time>
      </trkpt>
      <trkpt lat="43.32736" lon="-0.54212">
        <ele>135</ele>
        <time>2016-05-05T07:52:10</time>
      </trkpt>
      <trkpt lat="43.32722" lon="-0.5423">
        <ele>137</ele>
        <time>2016-05-05T07:52:15</time>
      </trkpt>
      <trkpt lat="43.32708" lon="-0.54248">
        <ele>139</ele>
        <time>2016-05-05T07:52:20</time>
      </trkpt>
      <trkpt lat="43.32693" lon="-0.54264">
        <ele>139</ele>
        <time>2016-05-05T07:52:25</time>
      </trkpt>
      <trkpt lat="43.32678" lon="-0.54281">
        <ele>139</ele>
        <time>2016-05-05T07:52:30</time>
      </trkpt>
      <trkpt lat="43.32663" lon="-0.54296">
        <ele>141</ele>
        <time>2016-05-05T07:52:35</time>
      </trkpt>
      <trkpt lat="43.32648" lon="-0.54311">
        <ele>139</ele>
        <time>2016-05-05T07:52:40</time>
      </trkpt>
      <trkpt lat="43.32634" lon="-0.54325">
        <ele>139</ele>
        <time>2016-05-05T07:52:45</time>
      </trkpt>
      <trkpt lat="43.3262" lon="-0.5434">
        <ele>141</ele>
        <time>2016-05-05T07:52:50</time>
      </trkpt>
      <trkpt lat="43.32606" lon="-0.54356">
        <ele>142</ele>
        <time>2016-05-05T07:52:55</time>
      </trkpt>
      <trkpt lat="43.32592" lon="-0.54355">
        <ele>143</ele>
        <time>2016-05-05T07:53:00</time>
      </trkpt>
      <trkpt lat="43.32588" lon="-0.54351">
        <ele>142</ele>
        <time>2016-05-05T07:53:05</time>
      </trkpt>
      <trkpt lat="43.32589" lon="-0.54351">
        <ele>141</ele>
        <time>2016-05-05T07:53:10</time>
      </trkpt>
      <trkpt lat="43.32589" lon="-0.54352">
        <ele>140</ele>
        <time>2016-05-05T07:53:15</time>
      </trkpt>
      <trkpt lat="43.32589" lon="-0.54351">
        <ele>140</ele>
        <time>2016-05-05T07:53:20</time>
      </trkpt>
      <trkpt lat="43.32588" lon="-0.54351">
        <ele>141</ele>
        <time>2016-05-05T07:53:25</time>
      </trkpt>
      <trkpt lat="43.32588" lon="-0.54349">
        <ele>144</ele>
        <time>2016-05-05T07:53:30</time>
      </trkpt>
      <trkpt lat="43.32589" lon="-0.54348">
        <ele>140</ele>
        <time>2016-05-05T07:53:35</time>
      </trkpt>
      <trkpt lat="43.32588" lon="-0.54347">
        <ele>141</ele>
        <time>2016-05-05T07:53:40</time>
      </trkpt>
      <trkpt lat="43.32587" lon="-0.54348">
        <ele>141</ele>
        <time>2016-05-05T07:53:45</time>
      </trkpt>
      <trkpt lat="43.32587" lon="-0.54349">
        <ele>141</ele>
        <time>2016-05-05T07:53:50</time>
      </trkpt>
      <trkpt lat="43.32583" lon="-0.54346">
        <ele>142</ele>
        <time>2016-05-05T07:53:56</time>
      </trkpt>
      <trkpt lat="43.32576" lon="-0.54331">
        <ele>142</ele>
        <time>2016-05-05T07:54:01</time>
      </trkpt>
      <trkpt lat="43.32568" lon="-0.54317">
        <ele>143</ele>
        <time>2016-05-05T07:54:06</time>
      </trkpt>
      <trkpt lat="43.32557" lon="-0.54298">
        <ele>144</ele>
        <time>2016-05-05T07:54:11</time>
      </trkpt>
      <trkpt lat="43.32549" lon="-0.54278">
        <ele>147</ele>
        <time>2016-05-05T07:54:16</time>
      </trkpt>
      <trkpt lat="43.32544" lon="-0.54264">
        <ele>148</ele>
        <time>2016-05-05T07:54:21</time>
      </trkpt>
      <trkpt lat="43.32538" lon="-0.54251">
        <ele>149</ele>
        <time>2016-05-05T07:54:26</time>
      </trkpt>
      <trkpt lat="43.32532" lon="-0.54241">
        <ele>149</ele>
        <time>2016-05-05T07:54:31</time>
      </trkpt>
      <trkpt lat="43.32523" lon="-0.54233">
        <ele>150</ele>
        <time>2016-05-05T07:54:36</time>
      </trkpt>
      <trkpt lat="43.32514" lon="-0.54228">
        <ele>150</ele>
        <time>2016-05-05T07:54:41</time>
      </trkpt>
      <trkpt lat="43.32505" lon="-0.54226">
        <ele>152</ele>
        <time>2016-05-05T07:54:46</time>
      </trkpt>
      <trkpt lat="43.32497" lon="-0.54228">
        <ele>154</ele>
        <time>2016-05-05T07:54:51</time>
      </trkpt>
      <trkpt lat="43.32489" lon="-0.54232">
        <ele>156</ele>
        <time>2016-05-05T07:54:56</time>
      </trkpt>
      <trkpt lat="43.3248" lon="-0.54234">
        <ele>156</ele>
        <time>2016-05-05T07:55:01</time>
      </trkpt>
      <trkpt lat="43.32471" lon="-0.54233">
        <ele>158</ele>
        <time>2016-05-05T07:55:06</time>
      </trkpt>
      <trkpt lat="43.32462" lon="-0.54232">
        <ele>157</ele>
        <time>2016-05-05T07:55:11</time>
      </trkpt>
      <trkpt lat="43.32454" lon="-0.54232">
        <ele>159</ele>
        <time>2016-05-05T07:55:16</time>
      </trkpt>
      <trkpt lat="43.32446" lon="-0.54234">
        <ele>162</ele>
        <time>2016-05-05T07:55:21</time>
      </trkpt>
      <trkpt lat="43.32437" lon="-0.5424">
        <ele>163</ele>
        <time>2016-05-05T07:55:26</time>
      </trkpt>
      <trkpt lat="43.32431" lon="-0.54247">
        <ele>163</ele>
        <time>2016-05-05T07:55:31</time>
      </trkpt>
      <trkpt lat="43.32424" lon="-0.54254">
        <ele>165</ele>
        <time>2016-05-05T07:55:36</time>
      </trkpt>
      <trkpt lat="43.32418" lon="-0.54259">
        <ele>167</ele>
        <time>2016-05-05T07:55:41</time>
      </trkpt>
      <trkpt lat="43.3241" lon="-0.54265">
        <ele>168</ele>
        <time>2016-05-05T07:55:46</time>
      </trkpt>
      <trkpt lat="43.32402" lon="-0.5427">
        <ele>169</ele>
        <time>2016-05-05T07:55:51</time>
      </trkpt>
      <trkpt lat="43.32394" lon="-0.54277">
        <ele>171</ele>
        <time>2016-05-05T07:55:56</time>
      </trkpt>
      <trkpt lat="43.32384" lon="-0.54283">
        <ele>171</ele>
        <time>2016-05-05T07:56:02</time>
      </trkpt>
      <trkpt lat="43.32377" lon="-0.54289">
        <ele>171</ele>
        <time>2016-05-05T07:56:07</time>
      </trkpt>
      <trkpt lat="43.3237" lon="-0.54295">
        <ele>172</ele>
        <time>2016-05-05T07:56:12</time>
      </trkpt>
      <trkpt lat="43.32363" lon="-0.54305">
        <ele>173</ele>
        <time>2016-05-05T07:56:17</time>
      </trkpt>
      <trkpt lat="43.32356" lon="-0.54315">
        <ele>174</ele>
        <time>2016-05-05T07:56:22</time>
      </trkpt>
      <trkpt lat="43.32349" lon="-0.54324">
        <ele>174</ele>
        <time>2016-05-05T07:56:27</time>
      </trkpt>
      <trkpt lat="43.32344" lon="-0.54332">
        <ele>175</ele>
        <time>2016-05-05T07:56:32</time>
      </trkpt>
      <trkpt lat="43.32336" lon="-0.54343">
        <ele>177</ele>
        <time>2016-05-05T07:56:37</time>
      </trkpt>
      <trkpt lat="43.32329" lon="-0.54351">
        <ele>178</ele>
        <time>2016-05-05T07:56:42</time>
      </trkpt>
      <trkpt lat="43.32322" lon="-0.54358">
        <ele>180</ele>
        <time>2016-05-05T07:56:47</time>
      </trkpt>
      <trkpt lat="43.32316" lon="-0.54361">
        <ele>179</ele>
        <time>2016-05-05T07:56:52</time>
      </trkpt>
      <trkpt lat="43.32309" lon="-0.54364">
        <ele>181</ele>
        <time>2016-05-05T07:56:57</time>
      </trkpt>
      <trkpt lat="43.32301" lon="-0.54367">
        <ele>181</ele>
        <time>2016-05-05T07:57:02</time>
      </trkpt>
      <trkpt lat="43.32293" lon="-0.54368">
        <ele>184</ele>
        <time>2016-05-05T07:57:07</time>
      </trkpt>
      <trkpt lat="43.32285" lon="-0.5437">
        <ele>184</ele>
        <time>2016-05-05T07:57:12</time>
      </trkpt>
      <trkpt lat="43.32277" lon="-0.5437">
        <ele>185</ele>
        <time>2016-05-05T07:57:17</time>
      </trkpt>
      <trkpt lat="43.32269" lon="-0.5437">
        <ele>186</ele>
        <time>2016-05-05T07:57:22</time>
      </trkpt>
      <trkpt lat="43.3226" lon="-0.5437">
        <ele>187</ele>
        <time>2016-05-05T07:57:27</time>
      </trkpt>
      <trkpt lat="43.32252" lon="-0.5437">
        <ele>189</ele>
        <time>2016-05-05T07:57:32</time>
      </trkpt>
      <trkpt lat="43.32244" lon="-0.54368">
        <ele>191</ele>
        <time>2016-05-05T07:57:37</time>
      </trkpt>
      <trkpt lat="43.32235" lon="-0.54366">
        <ele>193</ele>
        <time>2016-05-05T07:57:42</time>
      </trkpt>
      <trkpt lat="43.32226" lon="-0.54363">
        <ele>192</ele>
        <time>2016-05-05T07:57:47</time>
      </trkpt>
      <trkpt lat="43.32218" lon="-0.5436">
        <ele>194</ele>
        <time>2016-05-05T07:57:52</time>
      </trkpt>
      <trkpt lat="43.3221" lon="-0.54356">
        <ele>195</ele>
        <time>2016-05-05T07:57:57</time>
      </trkpt>
      <trkpt lat="43.32202" lon="-0.54353">
        <ele>197</ele>
        <time>2016-05-05T07:58:02</time>
      </trkpt>
      <trkpt lat="43.32195" lon="-0.54351">
        <ele>198</ele>
        <time>2016-05-05T07:58:07</time>
      </trkpt>
      <trkpt lat="43.32187" lon="-0.54347">
        <ele>199</ele>
        <time>2016-05-05T07:58:13</time>
      </trkpt>
      <trkpt lat="43.32179" lon="-0.54343">
        <ele>199</ele>
        <time>2016-05-05T07:58:18</time>
      </trkpt>
      <trkpt lat="43.32171" lon="-0.5434">
        <ele>201</ele>
        <time>2016-05-05T07:58:23</time>
      </trkpt>
      <trkpt lat="43.32164" lon="-0.54337">
        <ele>202</ele>
        <time>2016-05-05T07:58:28</time>
      </trkpt>
      <trkpt lat="43.32156" lon="-0.54333">
        <ele>203</ele>
        <time>2016-05-05T07:58:33</time>
      </trkpt>
      <trkpt lat="43.32148" lon="-0.54331">
        <ele>205</ele>
        <time>2016-05-05T07:58:38</time>
      </trkpt>
      <trkpt lat="43.3214" lon="-0.5433">
        <ele>205</ele>
        <time>2016-05-05T07:58:43</time>
      </trkpt>
      <trkpt lat="43.32132" lon="-0.54329">
        <ele>206</ele>
        <time>2016-05-05T07:58:48</time>
      </trkpt>
      <trkpt lat="43.32125" lon="-0.54328">
        <ele>207</ele>
        <time>2016-05-05T07:58:53</time>
      </trkpt>
      <trkpt lat="43.32114" lon="-0.54326">
        <ele>208</ele>
        <time>2016-05-05T07:58:58</time>
      </trkpt>
      <trkpt lat="43.32106" lon="-0.54325">
        <ele>210</ele>
        <time>2016-05-05T07:59:03</time>
      </trkpt>
      <trkpt lat="43.32098" lon="-0.54325">
        <ele>210</ele>
        <time>2016-05-05T07:59:08</time>
      </trkpt>
      <trkpt lat="43.32089" lon="-0.54325">
        <ele>211</ele>
        <time>2016-05-05T07:59:13</time>
      </trkpt>
      <trkpt lat="43.32081" lon="-0.54327">
        <ele>212</ele>
        <time>2016-05-05T07:59:18</time>
      </trkpt>
      <trkpt lat="43.32073" lon="-0.5433">
        <ele>212</ele>
        <time>2016-05-05T07:59:23</time>
      </trkpt>
      <trkpt lat="43.32065" lon="-0.54334">
        <ele>214</ele>
        <time>2016-05-05T07:59:28</time>
      </trkpt>
      <trkpt lat="43.32056" lon="-0.54336">
        <ele>214</ele>
        <time>2016-05-05T07:59:33</time>
      </trkpt>
      <trkpt lat="43.32048" lon="-0.54338">
        <ele>216</ele>
        <time>2016-05-05T07:59:38</time>
      </trkpt>
      <trkpt lat="43.32039" lon="-0.54338">
        <ele>216</ele>
        <time>2016-05-05T07:59:43</time>
      </trkpt>
      <trkpt lat="43.3203" lon="-0.54337">
        <ele>216</ele>
        <time>2016-05-05T07:59:48</time>
      </trkpt>
      <trkpt lat="43.32021" lon="-0.54335">
        <ele>217</ele>
        <time>2016-05-05T07:59:53</time>
      </trkpt>
      <trkpt lat="43.32012" lon="-0.54333">
        <ele>217</ele>
        <time>2016-05-05T07:59:58</time>
      </trkpt>
      <trkpt lat="43.32001" lon="-0.54333">
        <ele>219</ele>
        <time>2016-05-05T08:00:03</time>
      </trkpt>
      <trkpt lat="43.31992" lon="-0.54334">
        <ele>219</ele>
        <time>2016-05-05T08:00:08</time>
      </trkpt>
      <trkpt lat="43.31983" lon="-0.54336">
        <ele>220</ele>
        <time>2016-05-05T08:00:13</time>
      </trkpt>
      <trkpt lat="43.31974" lon="-0.54339">
        <ele>220</ele>
        <time>2016-05-05T08:00:18</time>
      </trkpt>
      <trkpt lat="43.31965" lon="-0.54341">
        <ele>221</ele>
        <time>2016-05-05T08:00:23</time>
      </trkpt>
      <trkpt lat="43.31956" lon="-0.54344">
        <ele>221</ele>
        <time>2016-05-05T08:00:28</time>
      </trkpt>
      <trkpt lat="43.31947" lon="-0.54346">
        <ele>221</ele>
        <time>2016-05-05T08:00:34</time>
      </trkpt>
      <trkpt lat="43.31939" lon="-0.54347">
        <ele>223</ele>
        <time>2016-05-05T08:00:39</time>
      </trkpt>
      <trkpt lat="43.3193" lon="-0.54349">
        <ele>222</ele>
        <time>2016-05-05T08:00:44</time>
      </trkpt>
      <trkpt lat="43.31921" lon="-0.54352">
        <ele>223</ele>
        <time>2016-05-05T08:00:49</time>
      </trkpt>
      <trkpt lat="43.31915" lon="-0.54354">
        <ele>225</ele>
        <time>2016-05-05T08:00:54</time>
      </trkpt>
      <trkpt lat="43.31907" lon="-0.5436">
        <ele>226</ele>
        <time>2016-05-05T08:00:59</time>
      </trkpt>
      <trkpt lat="43.319" lon="-0.54365">
        <ele>227</ele>
        <time>2016-05-05T08:01:04</time>
      </trkpt>
      <trkpt lat="43.3189" lon="-0.54373">
        <ele>227</ele>
        <time>2016-05-05T08:01:09</time>
      </trkpt>
      <trkpt lat="43.31881" lon="-0.54381">
        <ele>228</ele>
        <time>2016-05-05T08:01:14</time>
      </trkpt>
      <trkpt lat="43.31871" lon="-0.54389">
        <ele>228</ele>
        <time>2016-05-05T08:01:19</time>
      </trkpt>
      <trkpt lat="43.31863" lon="-0.54398">
        <ele>229</ele>
        <time>2016-05-05T08:01:24</time>
      </trkpt>
      <trkpt lat="43.31854" lon="-0.54406">
        <ele>230</ele>
        <time>2016-05-05T08:01:29</time>
      </trkpt>
      <trkpt lat="43.31845" lon="-0.54415">
        <ele>230</ele>
        <time>2016-05-05T08:01:34</time>
      </trkpt>
      <trkpt lat="43.31838" lon="-0.54424">
        <ele>233</ele>
        <time>2016-05-05T08:01:39</time>
      </trkpt>
      <trkpt lat="43.31829" lon="-0.54432">
        <ele>234</ele>
        <time>2016-05-05T08:01:44</time>
      </trkpt>
      <trkpt lat="43.31819" lon="-0.54433">
        <ele>236</ele>
        <time>2016-05-05T08:01:49</time>
      </trkpt>
      <trkpt lat="43.31807" lon="-0.54432">
        <ele>236</ele>
        <time>2016-05-05T08:01:54</time>
      </trkpt>
      <trkpt lat="43.31795" lon="-0.5443">
        <ele>236</ele>
        <time>2016-05-05T08:01:59</time>
      </trkpt>
      <trkpt lat="43.31784" lon="-0.54427">
        <ele>237</ele>
        <time>2016-05-05T08:02:04</time>
      </trkpt>
      <trkpt lat="43.3177" lon="-0.54424">
        <ele>237</ele>
        <time>2016-05-05T08:02:09</time>
      </trkpt>
      <trkpt lat="43.31759" lon="-0.54421">
        <ele>238</ele>
        <time>2016-05-05T08:02:14</time>
      </trkpt>
      <trkpt lat="43.31747" lon="-0.54418">
        <ele>238</ele>
        <time>2016-05-05T08:02:19</time>
      </trkpt>
      <trkpt lat="43.31736" lon="-0.54415">
        <ele>239</ele>
        <time>2016-05-05T08:02:24</time>
      </trkpt>
      <trkpt lat="43.31723" lon="-0.54406">
        <ele>239</ele>
        <time>2016-05-05T08:02:29</time>
      </trkpt>
      <trkpt lat="43.31714" lon="-0.54398">
        <ele>240</ele>
        <time>2016-05-05T08:02:34</time>
      </trkpt>
      <trkpt lat="43.31704" lon="-0.54391">
        <ele>240</ele>
        <time>2016-05-05T08:02:39</time>
      </trkpt>
      <trkpt lat="43.31693" lon="-0.5439">
        <ele>242</ele>
        <time>2016-05-05T08:02:44</time>
      </trkpt>
      <trkpt lat="43.31681" lon="-0.54389">
        <ele>243</ele>
        <time>2016-05-05T08:02:49</time>
      </trkpt>
      <trkpt lat="43.3167" lon="-0.54388">
        <ele>243</ele>
        <time>2016-05-05T08:02:55</time>
      </trkpt>
      <trkpt lat="43.31659" lon="-0.54387">
        <ele>246</ele>
        <time>2016-05-05T08:03:00</time>
      </trkpt>
      <trkpt lat="43.3165" lon="-0.54386">
        <ele>246</ele>
        <time>2016-05-05T08:03:05</time>
      </trkpt>
      <trkpt lat="43.31639" lon="-0.54384">
        <ele>247</ele>
        <time>2016-05-05T08:03:10</time>
      </trkpt>
      <trkpt lat="43.31627" lon="-0.54381">
        <ele>248</ele>
        <time>2016-05-05T08:03:15</time>
      </trkpt>
      <trkpt lat="43.31617" lon="-0.54379">
        <ele>248</ele>
        <time>2016-05-05T08:03:20</time>
      </trkpt>
      <trkpt lat="43.31606" lon="-0.54377">
        <ele>250</ele>
        <time>2016-05-05T08:03:25</time>
      </trkpt>
      <trkpt lat="43.31595" lon="-0.54377">
        <ele>251</ele>
        <time>2016-05-05T08:03:30</time>
      </trkpt>
      <trkpt lat="43.31585" lon="-0.54376">
        <ele>253</ele>
        <time>2016-05-05T08:03:35</time>
      </trkpt>
      <trkpt lat="43.31574" lon="-0.54375">
        <ele>252</ele>
        <time>2016-05-05T08:03:40</time>
      </trkpt>
      <trkpt lat="43.31565" lon="-0.54374">
        <ele>254</ele>
        <time>2016-05-05T08:03:45</time>
      </trkpt>
      <trkpt lat="43.31557" lon="-0.54373">
        <ele>254</ele>
        <time>2016-05-05T08:03:50</time>
      </trkpt>
      <trkpt lat="43.3155" lon="-0.54369">
        <ele>257</ele>
        <time>2016-05-05T08:03:55</time>
      </trkpt>
      <trkpt lat="43.31543" lon="-0.54365">
        <ele>259</ele>
        <time>2016-05-05T08:04:00</time>
      </trkpt>
      <trkpt lat="43.31533" lon="-0.54362">
        <ele>258</ele>
        <time>2016-05-05T08:04:05</time>
      </trkpt>
      <trkpt lat="43.31525" lon="-0.5436">
        <ele>260</ele>
        <time>2016-05-05T08:04:10</time>
      </trkpt>
      <trkpt lat="43.31516" lon="-0.54358">
        <ele>260</ele>
        <time>2016-05-05T08:04:15</time>
      </trkpt>
      <trkpt lat="43.31507" lon="-0.54356">
        <ele>263</ele>
        <time>2016-05-05T08:04:20</time>
      </trkpt>
      <trkpt lat="43.31499" lon="-0.54353">
        <ele>263</ele>
        <time>2016-05-05T08:04:25</time>
      </trkpt>
      <trkpt lat="43.31491" lon="-0.5435">
        <ele>265</ele>
        <time>2016-05-05T08:04:30</time>
      </trkpt>
      <trkpt lat="43.31482" lon="-0.54348">
        <ele>265</ele>
        <time>2016-05-05T08:04:35</time>
      </trkpt>
      <trkpt lat="43.31474" lon="-0.54344">
        <ele>267</ele>
        <time>2016-05-05T08:04:40</time>
      </trkpt>
      <trkpt lat="43.31466" lon="-0.54341">
        <ele>267</ele>
        <time>2016-05-05T08:04:45</time>
      </trkpt>
      <trkpt lat="43.31459" lon="-0.54338">
        <ele>269</ele>
        <time>2016-05-05T08:04:50</time>
      </trkpt>
      <trkpt lat="43.3145" lon="-0.54335">
        <ele>270</ele>
        <time>2016-05-05T08:04:56</time>
      </trkpt>
      <trkpt lat="43.3144" lon="-0.54335">
        <ele>270</ele>
        <time>2016-05-05T08:05:01</time>
      </trkpt>
      <trkpt lat="43.3143" lon="-0.54336">
        <ele>272</ele>
        <time>2016-05-05T08:05:06</time>
      </trkpt>
      <trkpt lat="43.31418" lon="-0.54335">
        <ele>272</ele>
        <time>2016-05-05T08:05:11</time>
      </trkpt>
      <trkpt lat="43.31407" lon="-0.54331">
        <ele>272</ele>
        <time>2016-05-05T08:05:16</time>
      </trkpt>
      <trkpt lat="43.31396" lon="-0.54326">
        <ele>272</ele>
        <time>2016-05-05T08:05:21</time>
      </trkpt>
      <trkpt lat="43.31385" lon="-0.54321">
        <ele>273</ele>
        <time>2016-05-05T08:05:26</time>
      </trkpt>
      <trkpt lat="43.31373" lon="-0.54317">
        <ele>273</ele>
        <time>2016-05-05T08:05:31</time>
      </trkpt>
      <trkpt lat="43.31361" lon="-0.54314">
        <ele>273</ele>
        <time>2016-05-05T08:05:36</time>
      </trkpt>
      <trkpt lat="43.31348" lon="-0.54309">
        <ele>272</ele>
        <time>2016-05-05T08:05:41</time>
      </trkpt>
      <trkpt lat="43.31335" lon="-0.54305">
        <ele>272</ele>
        <time>2016-05-05T08:05:46</time>
      </trkpt>
      <trkpt lat="43.31321" lon="-0.54301">
        <ele>274</ele>
        <time>2016-05-05T08:05:51</time>
      </trkpt>
      <trkpt lat="43.31307" lon="-0.54297">
        <ele>274</ele>
        <time>2016-05-05T08:05:56</time>
      </trkpt>
      <trkpt lat="43.31293" lon="-0.54292">
        <ele>274</ele>
        <time>2016-05-05T08:06:01</time>
      </trkpt>
      <trkpt lat="43.3128" lon="-0.54287">
        <ele>276</ele>
        <time>2016-05-05T08:06:06</time>
      </trkpt>
      <trkpt lat="43.31266" lon="-0.54283">
        <ele>277</ele>
        <time>2016-05-05T08:06:11</time>
      </trkpt>
      <trkpt lat="43.31252" lon="-0.54278">
        <ele>277</ele>
        <time>2016-05-05T08:06:16</time>
      </trkpt>
      <trkpt lat="43.31236" lon="-0.54271">
        <ele>276</ele>
        <time>2016-05-05T08:06:21</time>
      </trkpt>
      <trkpt lat="43.31222" lon="-0.54265">
        <ele>277</ele>
        <time>2016-05-05T08:06:26</time>
      </trkpt>
      <trkpt lat="43.31208" lon="-0.54259">
        <ele>276</ele>
        <time>2016-05-05T08:06:31</time>
      </trkpt>
      <trkpt lat="43.31195" lon="-0.54252">
        <ele>278</ele>
        <time>2016-05-05T08:06:36</time>
      </trkpt>
      <trkpt lat="43.31182" lon="-0.54246">
        <ele>280</ele>
        <time>2016-05-05T08:06:41</time>
      </trkpt>
      <trkpt lat="43.3117" lon="-0.54239">
        <ele>280</ele>
        <time>2016-05-05T08:06:46</time>
      </trkpt>
      <trkpt lat="43.31158" lon="-0.54233">
        <ele>280</ele>
        <time>2016-05-05T08:06:51</time>
      </trkpt>
      <trkpt lat="43.31143" lon="-0.54226">
        <ele>280</ele>
        <time>2016-05-05T08:06:56</time>
      </trkpt>
      <trkpt lat="43.31131" lon="-0.54219">
        <ele>280</ele>
        <time>2016-05-05T08:07:01</time>
      </trkpt>
      <trkpt lat="43.31116" lon="-0.5421">
        <ele>282</ele>
        <time>2016-05-05T08:07:06</time>
      </trkpt>
      <trkpt lat="43.31102" lon="-0.54198">
        <ele>282</ele>
        <time>2016-05-05T08:07:11</time>
      </trkpt>
      <trkpt lat="43.31087" lon="-0.54188">
        <ele>282</ele>
        <time>2016-05-05T08:07:16</time>
      </trkpt>
      <trkpt lat="43.31073" lon="-0.54181">
        <ele>282</ele>
        <time>2016-05-05T08:07:21</time>
      </trkpt>
      <trkpt lat="43.31059" lon="-0.54175">
        <ele>283</ele>
        <time>2016-05-05T08:07:27</time>
      </trkpt>
      <trkpt lat="43.31056" lon="-0.54156">
        <ele>283</ele>
        <time>2016-05-05T08:07:32</time>
      </trkpt>
      <trkpt lat="43.31064" lon="-0.54136">
        <ele>283</ele>
        <time>2016-05-05T08:07:37</time>
      </trkpt>
      <trkpt lat="43.31049" lon="-0.54106">
        <ele>282</ele>
        <time>2016-05-05T08:07:42</time>
      </trkpt>
      <trkpt lat="43.31023" lon="-0.54069">
        <ele>279</ele>
        <time>2016-05-05T08:07:47</time>
      </trkpt>
      <trkpt lat="43.31032" lon="-0.54002">
        <ele>274</ele>
        <time>2016-05-05T08:07:52</time>
      </trkpt>
      <trkpt lat="43.31061" lon="-0.53967">
        <ele>266</ele>
        <time>2016-05-05T08:07:57</time>
      </trkpt>
      <trkpt lat="43.31087" lon="-0.53912">
        <ele>260</ele>
        <time>2016-05-05T08:08:02</time>
      </trkpt>
      <trkpt lat="43.31099" lon="-0.5384">
        <ele>254</ele>
        <time>2016-05-05T08:08:07</time>
      </trkpt>
      <trkpt lat="43.31094" lon="-0.53806">
        <ele>244</ele>
        <time>2016-05-05T08:08:12</time>
      </trkpt>
      <trkpt lat="43.3108" lon="-0.53802">
        <ele>241</ele>
        <time>2016-05-05T08:08:17</time>
      </trkpt>
      <trkpt lat="43.31069" lon="-0.53794">
        <ele>241</ele>
        <time>2016-05-05T08:08:22</time>
      </trkpt>
      <trkpt lat="43.31058" lon="-0.53791">
        <ele>239</ele>
        <time>2016-05-05T08:08:27</time>
      </trkpt>
      <trkpt lat="43.31049" lon="-0.53788">
        <ele>240</ele>
        <time>2016-05-05T08:08:32</time>
      </trkpt>
      <trkpt lat="43.31036" lon="-0.53779">
        <ele>239</ele>
        <time>2016-05-05T08:08:37</time>
      </trkpt>
      <trkpt lat="43.3102" lon="-0.53764">
        <ele>240</ele>
        <time>2016-05-05T08:08:42</time>
      </trkpt>
      <trkpt lat="43.31001" lon="-0.53732">
        <ele>238</ele>
        <time>2016-05-05T08:08:47</time>
      </trkpt>
      <trkpt lat="43.31" lon="-0.53705">
        <ele>235</ele>
        <time>2016-05-05T08:08:52</time>
      </trkpt>
      <trkpt lat="43.30996" lon="-0.53671">
        <ele>230</ele>
        <time>2016-05-05T08:08:57</time>
      </trkpt>
      <trkpt lat="43.3097" lon="-0.53638">
        <ele>226</ele>
        <time>2016-05-05T08:09:02</time>
      </trkpt>
      <trkpt lat="43.30945" lon="-0.53612">
        <ele>218</ele>
        <time>2016-05-05T08:09:07</time>
      </trkpt>
      <trkpt lat="43.30931" lon="-0.53582">
        <ele>209</ele>
        <time>2016-05-05T08:09:12</time>
      </trkpt>
      <trkpt lat="43.30912" lon="-0.53555">
        <ele>205</ele>
        <time>2016-05-05T08:09:17</time>
      </trkpt>
      <trkpt lat="43.30906" lon="-0.53518">
        <ele>200</ele>
        <time>2016-05-05T08:09:22</time>
      </trkpt>
      <trkpt lat="43.30896" lon="-0.53491">
        <ele>193</ele>
        <time>2016-05-05T08:09:27</time>
      </trkpt>
      <trkpt lat="43.30891" lon="-0.53478">
        <ele>189</ele>
        <time>2016-05-05T08:09:32</time>
      </trkpt>
      <trkpt lat="43.30891" lon="-0.53464">
        <ele>189</ele>
        <time>2016-05-05T08:09:37</time>
      </trkpt>
      <trkpt lat="43.30894" lon="-0.53444">
        <ele>190</ele>
        <time>2016-05-05T08:09:42</time>
      </trkpt>
      <trkpt lat="43.30896" lon="-0.53418">
        <ele>187</ele>
        <time>2016-05-05T08:09:47</time>
      </trkpt>
      <trkpt lat="43.309" lon="-0.53402">
        <ele>185</ele>
        <time>2016-05-05T08:09:52</time>
      </trkpt>
      <trkpt lat="43.30909" lon="-0.53385">
        <ele>185</ele>
        <time>2016-05-05T08:09:57</time>
      </trkpt>
      <trkpt lat="43.30912" lon="-0.53371">
        <ele>186</ele>
        <time>2016-05-05T08:10:03</time>
      </trkpt>
      <trkpt lat="43.30912" lon="-0.53357">
        <ele>187</ele>
        <time>2016-05-05T08:10:08</time>
      </trkpt>
      <trkpt lat="43.30911" lon="-0.53345">
        <ele>190</ele>
        <time>2016-05-05T08:10:13</time>
      </trkpt>
      <trkpt lat="43.30907" lon="-0.53334">
        <ele>189</ele>
        <time>2016-05-05T08:10:18</time>
      </trkpt>
      <trkpt lat="43.30902" lon="-0.53328">
        <ele>192</ele>
        <time>2016-05-05T08:10:23</time>
      </trkpt>
      <trkpt lat="43.30896" lon="-0.53318">
        <ele>192</ele>
        <time>2016-05-05T08:10:28</time>
      </trkpt>
      <trkpt lat="43.30891" lon="-0.53308">
        <ele>194</ele>
        <time>2016-05-05T08:10:33</time>
      </trkpt>
      <trkpt lat="43.30882" lon="-0.53303">
        <ele>194</ele>
        <time>2016-05-05T08:10:38</time>
      </trkpt>
      <trkpt lat="43.30872" lon="-0.53304">
        <ele>196</ele>
        <time>2016-05-05T08:10:43</time>
      </trkpt>
      <trkpt lat="43.30863" lon="-0.53308">
        <ele>195</ele>
        <time>2016-05-05T08:10:48</time>
      </trkpt>
      <trkpt lat="43.30851" lon="-0.53316">
        <ele>195</ele>
        <time>2016-05-05T08:10:53</time>
      </trkpt>
      <trkpt lat="43.30841" lon="-0.53322">
        <ele>196</ele>
        <time>2016-05-05T08:10:58</time>
      </trkpt>
      <trkpt lat="43.3083" lon="-0.53327">
        <ele>198</ele>
        <time>2016-05-05T08:11:03</time>
      </trkpt>
      <trkpt lat="43.3082" lon="-0.53332">
        <ele>199</ele>
        <time>2016-05-05T08:11:08</time>
      </trkpt>
      <trkpt lat="43.30812" lon="-0.53338">
        <ele>200</ele>
        <time>2016-05-05T08:11:13</time>
      </trkpt>
      <trkpt lat="43.30805" lon="-0.53345">
        <ele>201</ele>
        <time>2016-05-05T08:11:18</time>
      </trkpt>
      <trkpt lat="43.30799" lon="-0.53351">
        <ele>201</ele>
        <time>2016-05-05T08:11:23</time>
      </trkpt>
      <trkpt lat="43.30794" lon="-0.53356">
        <ele>203</ele>
        <time>2016-05-05T08:11:28</time>
      </trkpt>
      <trkpt lat="43.3079" lon="-0.53362">
        <ele>204</ele>
        <time>2016-05-05T08:11:33</time>
      </trkpt>
      <trkpt lat="43.30788" lon="-0.53372">
        <ele>205</ele>
        <time>2016-05-05T08:11:38</time>
      </trkpt>
      <trkpt lat="43.30788" lon="-0.53382">
        <ele>205</ele>
        <time>2016-05-05T08:11:43</time>
      </trkpt>
      <trkpt lat="43.30783" lon="-0.53389">
        <ele>207</ele>
        <time>2016-05-05T08:11:48</time>
      </trkpt>
      <trkpt lat="43.30777" lon="-0.53395">
        <ele>208</ele>
        <time>2016-05-05T08:11:53</time>
      </trkpt>
      <trkpt lat="43.30772" lon="-0.534">
        <ele>210</ele>
        <time>2016-05-05T08:11:59</time>
      </trkpt>
      <trkpt lat="43.30763" lon="-0.53409">
        <ele>209</ele>
        <time>2016-05-05T08:12:04</time>
      </trkpt>
      <trkpt lat="43.30757" lon="-0.53418">
        <ele>210</ele>
        <time>2016-05-05T08:12:09</time>
      </trkpt>
      <trkpt lat="43.3075" lon="-0.53427">
        <ele>212</ele>
        <time>2016-05-05T08:12:14</time>
      </trkpt>
      <trkpt lat="43.30742" lon="-0.53437">
        <ele>213</ele>
        <time>2016-05-05T08:12:19</time>
      </trkpt>
      <trkpt lat="43.30734" lon="-0.53446">
        <ele>214</ele>
        <time>2016-05-05T08:12:24</time>
      </trkpt>
      <trkpt lat="43.30727" lon="-0.53454">
        <ele>214</ele>
        <time>2016-05-05T08:12:29</time>
      </trkpt>
      <trkpt lat="43.30719" lon="-0.53462">
        <ele>214</ele>
        <time>2016-05-05T08:12:34</time>
      </trkpt>
      <trkpt lat="43.30711" lon="-0.53474">
        <ele>215</ele>
        <time>2016-05-05T08:12:39</time>
      </trkpt>
      <trkpt lat="43.30705" lon="-0.53486">
        <ele>216</ele>
        <time>2016-05-05T08:12:44</time>
      </trkpt>
      <trkpt lat="43.30698" lon="-0.53498">
        <ele>215</ele>
        <time>2016-05-05T08:12:49</time>
      </trkpt>
      <trkpt lat="43.30692" lon="-0.53508">
        <ele>215</ele>
        <time>2016-05-05T08:12:54</time>
      </trkpt>
      <trkpt lat="43.30685" lon="-0.53515">
        <ele>216</ele>
        <time>2016-05-05T08:12:59</time>
      </trkpt>
      <trkpt lat="43.30675" lon="-0.53515">
        <ele>217</ele>
        <time>2016-05-05T08:13:04</time>
      </trkpt>
      <trkpt lat="43.30663" lon="-0.53512">
        <ele>217</ele>
        <time>2016-05-05T08:13:09</time>
      </trkpt>
      <trkpt lat="43.30654" lon="-0.5351">
        <ele>218</ele>
        <time>2016-05-05T08:13:14</time>
      </trkpt>
      <trkpt lat="43.30645" lon="-0.53508">
        <ele>220</ele>
        <time>2016-05-05T08:13:19</time>
      </trkpt>
      <trkpt lat="43.30635" lon="-0.53504">
        <ele>220</ele>
        <time>2016-05-05T08:13:24</time>
      </trkpt>
      <trkpt lat="43.30625" lon="-0.53501">
        <ele>221</ele>
        <time>2016-05-05T08:13:29</time>
      </trkpt>
      <trkpt lat="43.30614" lon="-0.53497">
        <ele>222</ele>
        <time>2016-05-05T08:13:34</time>
      </trkpt>
      <trkpt lat="43.30603" lon="-0.53495">
        <ele>223</ele>
        <time>2016-05-05T08:13:39</time>
      </trkpt>
      <trkpt lat="43.30594" lon="-0.53492">
        <ele>223</ele>
        <time>2016-05-05T08:13:44</time>
      </trkpt>
      <trkpt lat="43.30586" lon="-0.53488">
        <ele>225</ele>
        <time>2016-05-05T08:13:49</time>
      </trkpt>
      <trkpt lat="43.30578" lon="-0.53484">
        <ele>226</ele>
        <time>2016-05-05T08:13:55</time>
      </trkpt>
      <trkpt lat="43.3057" lon="-0.53482">
        <ele>228</ele>
        <time>2016-05-05T08:14:00</time>
      </trkpt>
      <trkpt lat="43.30563" lon="-0.53479">
        <ele>229</ele>
        <time>2016-05-05T08:14:05</time>
      </trkpt>
      <trkpt lat="43.30555" lon="-0.5348">
        <ele>228</ele>
        <time>2016-05-05T08:14:10</time>
      </trkpt>
      <trkpt lat="43.30549" lon="-0.53488">
        <ele>229</ele>
        <time>2016-05-05T08:14:15</time>
      </trkpt>
      <trkpt lat="43.30544" lon="-0.535">
        <ele>231</ele>
        <time>2016-05-05T08:14:20</time>
      </trkpt>
      <trkpt lat="43.3054" lon="-0.5351">
        <ele>233</ele>
        <time>2016-05-05T08:14:25</time>
      </trkpt>
      <trkpt lat="43.30535" lon="-0.53521">
        <ele>235</ele>
        <time>2016-05-05T08:14:30</time>
      </trkpt>
      <trkpt lat="43.3053" lon="-0.53531">
        <ele>236</ele>
        <time>2016-05-05T08:14:35</time>
      </trkpt>
      <trkpt lat="43.30524" lon="-0.53542">
        <ele>238</ele>
        <time>2016-05-05T08:14:40</time>
      </trkpt>
      <trkpt lat="43.30518" lon="-0.53552">
        <ele>238</ele>
        <time>2016-05-05T08:14:45</time>
      </trkpt>
      <trkpt lat="43.30512" lon="-0.53562">
        <ele>239</ele>
        <time>2016-05-05T08:14:50</time>
      </trkpt>
      <trkpt lat="43.30506" lon="-0.53572">
        <ele>239</ele>
        <time>2016-05-05T08:14:55</time>
      </trkpt>
      <trkpt lat="43.305" lon="-0.53583">
        <ele>241</ele>
        <time>2016-05-05T08:15:00</time>
      </trkpt>
      <trkpt lat="43.30494" lon="-0.53592">
        <ele>243</ele>
        <time>2016-05-05T08:15:05</time>
      </trkpt>
      <trkpt lat="43.30486" lon="-0.536">
        <ele>245</ele>
        <time>2016-05-05T08:15:10</time>
      </trkpt>
      <trkpt lat="43.30477" lon="-0.53598">
        <ele>244</ele>
        <time>2016-05-05T08:15:15</time>
      </trkpt>
      <trkpt lat="43.30461" lon="-0.53574">
        <ele>244</ele>
        <time>2016-05-05T08:15:20</time>
      </trkpt>
      <trkpt lat="43.30436" lon="-0.53538">
        <ele>242</ele>
        <time>2016-05-05T08:15:25</time>
      </trkpt>
      <trkpt lat="43.30415" lon="-0.53514">
        <ele>242</ele>
        <time>2016-05-05T08:15:30</time>
      </trkpt>
      <trkpt lat="43.30391" lon="-0.53488">
        <ele>240</ele>
        <time>2016-05-05T08:15:35</time>
      </trkpt>
      <trkpt lat="43.30368" lon="-0.53459">
        <ele>238</ele>
        <time>2016-05-05T08:15:40</time>
      </trkpt>
      <trkpt lat="43.30345" lon="-0.5343">
        <ele>236</ele>
        <time>2016-05-05T08:15:45</time>
      </trkpt>
      <trkpt lat="43.30322" lon="-0.53397">
        <ele>236</ele>
        <time>2016-05-05T08:15:50</time>
      </trkpt>
      <trkpt lat="43.30301" lon="-0.53367">
        <ele>234</ele>
        <time>2016-05-05T08:15:55</time>
      </trkpt>
      <trkpt lat="43.30281" lon="-0.53342">
        <ele>233</ele>
        <time>2016-05-05T08:16:00</time>
      </trkpt>
      <trkpt lat="43.30262" lon="-0.53324">
        <ele>231</ele>
        <time>2016-05-05T08:16:05</time>
      </trkpt>
      <trkpt lat="43.30244" lon="-0.53298">
        <ele>231</ele>
        <time>2016-05-05T08:16:10</time>
      </trkpt>
      <trkpt lat="43.30229" lon="-0.53281">
        <ele>231</ele>
        <time>2016-05-05T08:16:15</time>
      </trkpt>
      <trkpt lat="43.30217" lon="-0.53267">
        <ele>231</ele>
        <time>2016-05-05T08:16:20</time>
      </trkpt>
      <trkpt lat="43.30204" lon="-0.53255">
        <ele>232</ele>
        <time>2016-05-05T08:16:25</time>
      </trkpt>
      <trkpt lat="43.30192" lon="-0.53245">
        <ele>232</ele>
        <time>2016-05-05T08:16:31</time>
      </trkpt>
      <trkpt lat="43.30177" lon="-0.53234">
        <ele>233</ele>
        <time>2016-05-05T08:16:36</time>
      </trkpt>
      <trkpt lat="43.30165" lon="-0.53227">
        <ele>235</ele>
        <time>2016-05-05T08:16:41</time>
      </trkpt>
      <trkpt lat="43.30154" lon="-0.53221">
        <ele>234</ele>
        <time>2016-05-05T08:16:46</time>
      </trkpt>
      <trkpt lat="43.30142" lon="-0.53215">
        <ele>234</ele>
        <time>2016-05-05T08:16:51</time>
      </trkpt>
      <trkpt lat="43.3013" lon="-0.53211">
        <ele>237</ele>
        <time>2016-05-05T08:16:56</time>
      </trkpt>
      <trkpt lat="43.30119" lon="-0.53205">
        <ele>239</ele>
        <time>2016-05-05T08:17:01</time>
      </trkpt>
      <trkpt lat="43.30107" lon="-0.532">
        <ele>238</ele>
        <time>2016-05-05T08:17:06</time>
      </trkpt>
      <trkpt lat="43.30095" lon="-0.53195">
        <ele>240</ele>
        <time>2016-05-05T08:17:11</time>
      </trkpt>
      <trkpt lat="43.30083" lon="-0.53189">
        <ele>241</ele>
        <time>2016-05-05T08:17:16</time>
      </trkpt>
      <trkpt lat="43.30072" lon="-0.53184">
        <ele>242</ele>
        <time>2016-05-05T08:17:21</time>
      </trkpt>
      <trkpt lat="43.30059" lon="-0.53179">
        <ele>242</ele>
        <time>2016-05-05T08:17:26</time>
      </trkpt>
      <trkpt lat="43.30046" lon="-0.53172">
        <ele>242</ele>
        <time>2016-05-05T08:17:31</time>
      </trkpt>
      <trkpt lat="43.3003" lon="-0.53164">
        <ele>244</ele>
        <time>2016-05-05T08:17:36</time>
      </trkpt>
      <trkpt lat="43.30014" lon="-0.53156">
        <ele>243</ele>
        <time>2016-05-05T08:17:41</time>
      </trkpt>
      <trkpt lat="43.29999" lon="-0.53149">
        <ele>242</ele>
        <time>2016-05-05T08:17:46</time>
      </trkpt>
      <trkpt lat="43.29982" lon="-0.53141">
        <ele>242</ele>
        <time>2016-05-05T08:17:51</time>
      </trkpt>
      <trkpt lat="43.2997" lon="-0.53136">
        <ele>241</ele>
        <time>2016-05-05T08:17:56</time>
      </trkpt>
      <trkpt lat="43.29958" lon="-0.5313">
        <ele>240</ele>
        <time>2016-05-05T08:18:01</time>
      </trkpt>
      <trkpt lat="43.29943" lon="-0.53123">
        <ele>241</ele>
        <time>2016-05-05T08:18:06</time>
      </trkpt>
      <trkpt lat="43.29927" lon="-0.53114">
        <ele>241</ele>
        <time>2016-05-05T08:18:11</time>
      </trkpt>
      <trkpt lat="43.29912" lon="-0.53106">
        <ele>241</ele>
        <time>2016-05-05T08:18:16</time>
      </trkpt>
      <trkpt lat="43.29898" lon="-0.53098">
        <ele>241</ele>
        <time>2016-05-05T08:18:21</time>
      </trkpt>
      <trkpt lat="43.29884" lon="-0.53096">
        <ele>241</ele>
        <time>2016-05-05T08:18:27</time>
      </trkpt>
      <trkpt lat="43.29872" lon="-0.53102">
        <ele>241</ele>
        <time>2016-05-05T08:18:32</time>
      </trkpt>
      <trkpt lat="43.29864" lon="-0.53107">
        <ele>244</ele>
        <time>2016-05-05T08:18:37</time>
      </trkpt>
      <trkpt lat="43.29853" lon="-0.53104">
        <ele>245</ele>
        <time>2016-05-05T08:18:42</time>
      </trkpt>
      <trkpt lat="43.29839" lon="-0.53078">
        <ele>244</ele>
        <time>2016-05-05T08:18:47</time>
      </trkpt>
      <trkpt lat="43.29825" lon="-0.53053">
        <ele>243</ele>
        <time>2016-05-05T08:18:52</time>
      </trkpt>
      <trkpt lat="43.29812" lon="-0.5303">
        <ele>243</ele>
        <time>2016-05-05T08:18:57</time>
      </trkpt>
      <trkpt lat="43.29799" lon="-0.53009">
        <ele>243</ele>
        <time>2016-05-05T08:19:02</time>
      </trkpt>
      <trkpt lat="43.29786" lon="-0.52989">
        <ele>242</ele>
        <time>2016-05-05T08:19:07</time>
      </trkpt>
      <trkpt lat="43.29773" lon="-0.5297">
        <ele>243</ele>
        <time>2016-05-05T08:19:12</time>
      </trkpt>
      <trkpt lat="43.2976" lon="-0.52953">
        <ele>243</ele>
        <time>2016-05-05T08:19:17</time>
      </trkpt>
      <trkpt lat="43.29747" lon="-0.52936">
        <ele>244</ele>
        <time>2016-05-05T08:19:22</time>
      </trkpt>
      <trkpt lat="43.29735" lon="-0.52919">
        <ele>246</ele>
        <time>2016-05-05T08:19:27</time>
      </trkpt>
      <trkpt lat="43.29723" lon="-0.52902">
        <ele>245</ele>
        <time>2016-05-05T08:19:32</time>
      </trkpt>
      <trkpt lat="43.29709" lon="-0.52907">
        <ele>246</ele>
        <time>2016-05-05T08:19:37</time>
      </trkpt>
      <trkpt lat="43.297" lon="-0.52918">
        <ele>248</ele>
        <time>2016-05-05T08:19:42</time>
      </trkpt>
      <trkpt lat="43.29692" lon="-0.5293">
        <ele>249</ele>
        <time>2016-05-05T08:19:47</time>
      </trkpt>
      <trkpt lat="43.29681" lon="-0.52938">
        <ele>251</ele>
        <time>2016-05-05T08:19:52</time>
      </trkpt>
      <trkpt lat="43.29668" lon="-0.52945">
        <ele>252</ele>
        <time>2016-05-05T08:19:57</time>
      </trkpt>
      <trkpt lat="43.29656" lon="-0.52951">
        <ele>254</ele>
        <time>2016-05-05T08:20:02</time>
      </trkpt>
      <trkpt lat="43.29644" lon="-0.52955">
        <ele>254</ele>
        <time>2016-05-05T08:20:07</time>
      </trkpt>
      <trkpt lat="43.29631" lon="-0.52957">
        <ele>258</ele>
        <time>2016-05-05T08:20:12</time>
      </trkpt>
      <trkpt lat="43.2962" lon="-0.52954">
        <ele>259</ele>
        <time>2016-05-05T08:20:17</time>
      </trkpt>
      <trkpt lat="43.29609" lon="-0.5295">
        <ele>261</ele>
        <time>2016-05-05T08:20:22</time>
      </trkpt>
      <trkpt lat="43.29598" lon="-0.52946">
        <ele>263</ele>
        <time>2016-05-05T08:20:27</time>
      </trkpt>
      <trkpt lat="43.29586" lon="-0.52942">
        <ele>265</ele>
        <time>2016-05-05T08:20:32</time>
      </trkpt>
      <trkpt lat="43.29577" lon="-0.52938">
        <ele>267</ele>
        <time>2016-05-05T08:20:37</time>
      </trkpt>
      <trkpt lat="43.29565" lon="-0.52934">
        <ele>268</ele>
        <time>2016-05-05T08:20:42</time>
      </trkpt>
      <trkpt lat="43.29553" lon="-0.52929">
        <ele>271</ele>
        <time>2016-05-05T08:20:47</time>
      </trkpt>
      <trkpt lat="43.29541" lon="-0.52924">
        <ele>271</ele>
        <time>2016-05-05T08:20:52</time>
      </trkpt>
      <trkpt lat="43.29529" lon="-0.52919">
        <ele>273</ele>
        <time>2016-05-05T08:20:58</time>
      </trkpt>
      <trkpt lat="43.29516" lon="-0.52913">
        <ele>274</ele>
        <time>2016-05-05T08:21:03</time>
      </trkpt>
      <trkpt lat="43.29501" lon="-0.52906">
        <ele>275</ele>
        <time>2016-05-05T08:21:08</time>
      </trkpt>
      <trkpt lat="43.29487" lon="-0.529">
        <ele>274</ele>
        <time>2016-05-05T08:21:13</time>
      </trkpt>
      <trkpt lat="43.29472" lon="-0.52895">
        <ele>275</ele>
        <time>2016-05-05T08:21:18</time>
      </trkpt>
      <trkpt lat="43.29457" lon="-0.52891">
        <ele>277</ele>
        <time>2016-05-05T08:21:23</time>
      </trkpt>
      <trkpt lat="43.29442" lon="-0.52887">
        <ele>277</ele>
        <time>2016-05-05T08:21:28</time>
      </trkpt>
      <trkpt lat="43.29427" lon="-0.52885">
        <ele>278</ele>
        <time>2016-05-05T08:21:33</time>
      </trkpt>
      <trkpt lat="43.29412" lon="-0.52882">
        <ele>279</ele>
        <time>2016-05-05T08:21:38</time>
      </trkpt>
      <trkpt lat="43.29394" lon="-0.52879">
        <ele>278</ele>
        <time>2016-05-05T08:21:43</time>
      </trkpt>
      <trkpt lat="43.29373" lon="-0.52877">
        <ele>278</ele>
        <time>2016-05-05T08:21:48</time>
      </trkpt>
      <trkpt lat="43.2935" lon="-0.52875">
        <ele>277</ele>
        <time>2016-05-05T08:21:53</time>
      </trkpt>
      <trkpt lat="43.29326" lon="-0.52873">
        <ele>276</ele>
        <time>2016-05-05T08:21:58</time>
      </trkpt>
      <trkpt lat="43.293" lon="-0.52872">
        <ele>276</ele>
        <time>2016-05-05T08:22:03</time>
      </trkpt>
      <trkpt lat="43.29273" lon="-0.52867">
        <ele>275</ele>
        <time>2016-05-05T08:22:08</time>
      </trkpt>
      <trkpt lat="43.29244" lon="-0.52858">
        <ele>275</ele>
        <time>2016-05-05T08:22:13</time>
      </trkpt>
      <trkpt lat="43.29222" lon="-0.5285">
        <ele>275</ele>
        <time>2016-05-05T08:22:18</time>
      </trkpt>
      <trkpt lat="43.29202" lon="-0.52838">
        <ele>275</ele>
        <time>2016-05-05T08:22:23</time>
      </trkpt>
      <trkpt lat="43.29187" lon="-0.52827">
        <ele>276</ele>
        <time>2016-05-05T08:22:28</time>
      </trkpt>
      <trkpt lat="43.29169" lon="-0.52812">
        <ele>277</ele>
        <time>2016-05-05T08:22:33</time>
      </trkpt>
      <trkpt lat="43.29153" lon="-0.52797">
        <ele>279</ele>
        <time>2016-05-05T08:22:38</time>
      </trkpt>
      <trkpt lat="43.29137" lon="-0.52782">
        <ele>280</ele>
        <time>2016-05-05T08:22:43</time>
      </trkpt>
      <trkpt lat="43.29122" lon="-0.52766">
        <ele>281</ele>
        <time>2016-05-05T08:22:48</time>
      </trkpt>
      <trkpt lat="43.29107" lon="-0.52751">
        <ele>283</ele>
        <time>2016-05-05T08:22:53</time>
      </trkpt>
      <trkpt lat="43.29092" lon="-0.52734">
        <ele>284</ele>
        <time>2016-05-05T08:22:58</time>
      </trkpt>
      <trkpt lat="43.29077" lon="-0.52716">
        <ele>285</ele>
        <time>2016-05-05T08:23:03</time>
      </trkpt>
      <trkpt lat="43.29053" lon="-0.52694">
        <ele>284</ele>
        <time>2016-05-05T08:23:08</time>
      </trkpt>
      <trkpt lat="43.29016" lon="-0.52686">
        <ele>280</ele>
        <time>2016-05-05T08:23:13</time>
      </trkpt>
      <trkpt lat="43.28967" lon="-0.52692">
        <ele>279</ele>
        <time>2016-05-05T08:23:18</time>
      </trkpt>
      <trkpt lat="43.28934" lon="-0.52695">
        <ele>279</ele>
        <time>2016-05-05T08:23:23</time>
      </trkpt>
      <trkpt lat="43.2891" lon="-0.52694">
        <ele>280</ele>
        <time>2016-05-05T08:23:28</time>
      </trkpt>
      <trkpt lat="43.2889" lon="-0.5268">
        <ele>281</ele>
        <time>2016-05-05T08:23:33</time>
      </trkpt>
      <trkpt lat="43.28867" lon="-0.52664">
        <ele>281</ele>
        <time>2016-05-05T08:23:38</time>
      </trkpt>
      <trkpt lat="43.28843" lon="-0.52652">
        <ele>281</ele>
        <time>2016-05-05T08:23:43</time>
      </trkpt>
      <trkpt lat="43.28824" lon="-0.52642">
        <ele>282</ele>
        <time>2016-05-05T08:23:49</time>
      </trkpt>
      <trkpt lat="43.28807" lon="-0.52625">
        <ele>283</ele>
        <time>2016-05-05T08:23:54</time>
      </trkpt>
      <trkpt lat="43.28792" lon="-0.52605">
        <ele>282</ele>
        <time>2016-05-05T08:23:59</time>
      </trkpt>
      <trkpt lat="43.28778" lon="-0.52584">
        <ele>283</ele>
        <time>2016-05-05T08:24:04</time>
      </trkpt>
      <trkpt lat="43.28764" lon="-0.52563">
        <ele>285</ele>
        <time>2016-05-05T08:24:09</time>
      </trkpt>
      <trkpt lat="43.28751" lon="-0.52542">
        <ele>284</ele>
        <time>2016-05-05T08:24:14</time>
      </trkpt>
      <trkpt lat="43.28738" lon="-0.52526">
        <ele>284</ele>
        <time>2016-05-05T08:24:19</time>
      </trkpt>
      <trkpt lat="43.28719" lon="-0.52518">
        <ele>287</ele>
        <time>2016-05-05T08:24:24</time>
      </trkpt>
      <trkpt lat="43.28696" lon="-0.52541">
        <ele>286</ele>
        <time>2016-05-05T08:24:29</time>
      </trkpt>
      <trkpt lat="43.28681" lon="-0.52575">
        <ele>284</ele>
        <time>2016-05-05T08:24:34</time>
      </trkpt>
      <trkpt lat="43.28661" lon="-0.52599">
        <ele>286</ele>
        <time>2016-05-05T08:24:39</time>
      </trkpt>
      <trkpt lat="43.28644" lon="-0.52612">
        <ele>287</ele>
        <time>2016-05-05T08:24:44</time>
      </trkpt>
      <trkpt lat="43.28628" lon="-0.52626">
        <ele>289</ele>
        <time>2016-05-05T08:24:49</time>
      </trkpt>
      <trkpt lat="43.28611" lon="-0.52646">
        <ele>288</ele>
        <time>2016-05-05T08:24:54</time>
      </trkpt>
      <trkpt lat="43.28586" lon="-0.52671">
        <ele>287</ele>
        <time>2016-05-05T08:24:59</time>
      </trkpt>
      <trkpt lat="43.28551" lon="-0.52694">
        <ele>285</ele>
        <time>2016-05-05T08:25:04</time>
      </trkpt>
      <trkpt lat="43.2851" lon="-0.52709">
        <ele>283</ele>
        <time>2016-05-05T08:25:09</time>
      </trkpt>
      <trkpt lat="43.28478" lon="-0.52702">
        <ele>283</ele>
        <time>2016-05-05T08:25:14</time>
      </trkpt>
      <trkpt lat="43.28453" lon="-0.52693">
        <ele>282</ele>
        <time>2016-05-05T08:25:19</time>
      </trkpt>
      <trkpt lat="43.28431" lon="-0.52682">
        <ele>284</ele>
        <time>2016-05-05T08:25:24</time>
      </trkpt>
      <trkpt lat="43.28411" lon="-0.52669">
        <ele>284</ele>
        <time>2016-05-05T08:25:29</time>
      </trkpt>
      <trkpt lat="43.28387" lon="-0.5265">
        <ele>286</ele>
        <time>2016-05-05T08:25:34</time>
      </trkpt>
      <trkpt lat="43.28368" lon="-0.52636">
        <ele>288</ele>
        <time>2016-05-05T08:25:39</time>
      </trkpt>
      <trkpt lat="43.28345" lon="-0.52625">
        <ele>289</ele>
        <time>2016-05-05T08:25:44</time>
      </trkpt>
      <trkpt lat="43.28316" lon="-0.52623">
        <ele>288</ele>
        <time>2016-05-05T08:25:49</time>
      </trkpt>
      <trkpt lat="43.28289" lon="-0.52606">
        <ele>286</ele>
        <time>2016-05-05T08:25:54</time>
      </trkpt>
      <trkpt lat="43.28272" lon="-0.52572">
        <ele>286</ele>
        <time>2016-05-05T08:25:59</time>
      </trkpt>
      <trkpt lat="43.28258" lon="-0.52538">
        <ele>285</ele>
        <time>2016-05-05T08:26:04</time>
      </trkpt>
      <trkpt lat="43.28245" lon="-0.52507">
        <ele>286</ele>
        <time>2016-05-05T08:26:09</time>
      </trkpt>
      <trkpt lat="43.28228" lon="-0.52482">
        <ele>284</ele>
        <time>2016-05-05T08:26:15</time>
      </trkpt>
      <trkpt lat="43.28208" lon="-0.5248">
        <ele>287</ele>
        <time>2016-05-05T08:26:20</time>
      </trkpt>
      <trkpt lat="43.2819" lon="-0.52489">
        <ele>285</ele>
        <time>2016-05-05T08:26:25</time>
      </trkpt>
      <trkpt lat="43.28156" lon="-0.52504">
        <ele>285</ele>
        <time>2016-05-05T08:26:30</time>
      </trkpt>
      <trkpt lat="43.28118" lon="-0.52502">
        <ele>283</ele>
        <time>2016-05-05T08:26:35</time>
      </trkpt>
      <trkpt lat="43.28085" lon="-0.52507">
        <ele>285</ele>
        <time>2016-05-05T08:26:40</time>
      </trkpt>
      <trkpt lat="43.28062" lon="-0.5252">
        <ele>284</ele>
        <time>2016-05-05T08:26:45</time>
      </trkpt>
      <trkpt lat="43.28039" lon="-0.52531">
        <ele>285</ele>
        <time>2016-05-05T08:26:50</time>
      </trkpt>
      <trkpt lat="43.2802" lon="-0.52535">
        <ele>286</ele>
        <time>2016-05-05T08:26:55</time>
      </trkpt>
      <trkpt lat="43.28002" lon="-0.52539">
        <ele>286</ele>
        <time>2016-05-05T08:27:00</time>
      </trkpt>
      <trkpt lat="43.27985" lon="-0.52543">
        <ele>286</ele>
        <time>2016-05-05T08:27:05</time>
      </trkpt>
      <trkpt lat="43.27967" lon="-0.52548">
        <ele>288</ele>
        <time>2016-05-05T08:27:10</time>
      </trkpt>
      <trkpt lat="43.2795" lon="-0.52554">
        <ele>289</ele>
        <time>2016-05-05T08:27:15</time>
      </trkpt>
      <trkpt lat="43.27934" lon="-0.52563">
        <ele>291</ele>
        <time>2016-05-05T08:27:20</time>
      </trkpt>
      <trkpt lat="43.27917" lon="-0.5257">
        <ele>292</ele>
        <time>2016-05-05T08:27:25</time>
      </trkpt>
      <trkpt lat="43.27901" lon="-0.52577">
        <ele>292</ele>
        <time>2016-05-05T08:27:30</time>
      </trkpt>
      <trkpt lat="43.27879" lon="-0.52583">
        <ele>293</ele>
        <time>2016-05-05T08:27:35</time>
      </trkpt>
      <trkpt lat="43.27854" lon="-0.52593">
        <ele>291</ele>
        <time>2016-05-05T08:27:40</time>
      </trkpt>
      <trkpt lat="43.27826" lon="-0.52606">
        <ele>291</ele>
        <time>2016-05-05T08:27:45</time>
      </trkpt>
      <trkpt lat="43.27805" lon="-0.52613">
        <ele>291</ele>
        <time>2016-05-05T08:27:50</time>
      </trkpt>
      <trkpt lat="43.27784" lon="-0.52612">
        <ele>291</ele>
        <time>2016-05-05T08:27:55</time>
      </trkpt>
      <trkpt lat="43.27764" lon="-0.52607">
        <ele>291</ele>
        <time>2016-05-05T08:28:00</time>
      </trkpt>
      <trkpt lat="43.27745" lon="-0.52599">
        <ele>292</ele>
        <time>2016-05-05T08:28:05</time>
      </trkpt>
      <trkpt lat="43.27727" lon="-0.52591">
        <ele>292</ele>
        <time>2016-05-05T08:28:10</time>
      </trkpt>
      <trkpt lat="43.2771" lon="-0.52584">
        <ele>293</ele>
        <time>2016-05-05T08:28:15</time>
      </trkpt>
      <trkpt lat="43.27697" lon="-0.52578">
        <ele>293</ele>
        <time>2016-05-05T08:28:20</time>
      </trkpt>
      <trkpt lat="43.27684" lon="-0.52571">
        <ele>294</ele>
        <time>2016-05-05T08:28:25</time>
      </trkpt>
      <trkpt lat="43.27671" lon="-0.52563">
        <ele>295</ele>
        <time>2016-05-05T08:28:30</time>
      </trkpt>
      <trkpt lat="43.27659" lon="-0.52557">
        <ele>296</ele>
        <time>2016-05-05T08:28:35</time>
      </trkpt>
      <trkpt lat="43.27645" lon="-0.52549">
        <ele>297</ele>
        <time>2016-05-05T08:28:40</time>
      </trkpt>
      <trkpt lat="43.2763" lon="-0.52539">
        <ele>297</ele>
        <time>2016-05-05T08:28:45</time>
      </trkpt>
      <trkpt lat="43.27607" lon="-0.52524">
        <ele>297</ele>
        <time>2016-05-05T08:28:51</time>
      </trkpt>
      <trkpt lat="43.27585" lon="-0.52508">
        <ele>297</ele>
        <time>2016-05-05T08:28:56</time>
      </trkpt>
      <trkpt lat="43.27563" lon="-0.52494">
        <ele>297</ele>
        <time>2016-05-05T08:29:01</time>
      </trkpt>
      <trkpt lat="43.27541" lon="-0.52484">
        <ele>297</ele>
        <time>2016-05-05T08:29:06</time>
      </trkpt>
      <trkpt lat="43.2752" lon="-0.52476">
        <ele>298</ele>
        <time>2016-05-05T08:29:11</time>
      </trkpt>
      <trkpt lat="43.27499" lon="-0.52468">
        <ele>298</ele>
        <time>2016-05-05T08:29:16</time>
      </trkpt>
      <trkpt lat="43.27474" lon="-0.5246">
        <ele>298</ele>
        <time>2016-05-05T08:29:21</time>
      </trkpt>
      <trkpt lat="43.27441" lon="-0.52451">
        <ele>297</ele>
        <time>2016-05-05T08:29:26</time>
      </trkpt>
      <trkpt lat="43.27393" lon="-0.52441">
        <ele>295</ele>
        <time>2016-05-05T08:29:31</time>
      </trkpt>
      <trkpt lat="43.2734" lon="-0.5243">
        <ele>290</ele>
        <time>2016-05-05T08:29:36</time>
      </trkpt>
      <trkpt lat="43.2729" lon="-0.52404">
        <ele>286</ele>
        <time>2016-05-05T08:29:41</time>
      </trkpt>
      <trkpt lat="43.27236" lon="-0.5237">
        <ele>280</ele>
        <time>2016-05-05T08:29:46</time>
      </trkpt>
      <trkpt lat="43.27192" lon="-0.52342">
        <ele>278</ele>
        <time>2016-05-05T08:29:51</time>
      </trkpt>
      <trkpt lat="43.2715" lon="-0.52318">
        <ele>277</ele>
        <time>2016-05-05T08:29:56</time>
      </trkpt>
      <trkpt lat="43.27119" lon="-0.52317">
        <ele>277</ele>
        <time>2016-05-05T08:30:01</time>
      </trkpt>
      <trkpt lat="43.27098" lon="-0.52315">
        <ele>278</ele>
        <time>2016-05-05T08:30:06</time>
      </trkpt>
      <trkpt lat="43.27081" lon="-0.52307">
        <ele>278</ele>
        <time>2016-05-05T08:30:11</time>
      </trkpt>
      <trkpt lat="43.27054" lon="-0.52289">
        <ele>276</ele>
        <time>2016-05-05T08:30:16</time>
      </trkpt>
      <trkpt lat="43.27018" lon="-0.52263">
        <ele>274</ele>
        <time>2016-05-05T08:30:21</time>
      </trkpt>
      <trkpt lat="43.2698" lon="-0.52236">
        <ele>265</ele>
        <time>2016-05-05T08:30:26</time>
      </trkpt>
      <trkpt lat="43.26963" lon="-0.52216">
        <ele>260</ele>
        <time>2016-05-05T08:30:31</time>
      </trkpt>
      <trkpt lat="43.26938" lon="-0.52196">
        <ele>259</ele>
        <time>2016-05-05T08:30:36</time>
      </trkpt>
      <trkpt lat="43.26912" lon="-0.52175">
        <ele>257</ele>
        <time>2016-05-05T08:30:41</time>
      </trkpt>
      <trkpt lat="43.26898" lon="-0.52158">
        <ele>255</ele>
        <time>2016-05-05T08:30:46</time>
      </trkpt>
      <trkpt lat="43.26884" lon="-0.52146">
        <ele>255</ele>
        <time>2016-05-05T08:30:51</time>
      </trkpt>
      <trkpt lat="43.26868" lon="-0.52135">
        <ele>256</ele>
        <time>2016-05-05T08:30:56</time>
      </trkpt>
      <trkpt lat="43.26854" lon="-0.52126">
        <ele>256</ele>
        <time>2016-05-05T08:31:01</time>
      </trkpt>
      <trkpt lat="43.26842" lon="-0.52121">
        <ele>257</ele>
        <time>2016-05-05T08:31:06</time>
      </trkpt>
      <trkpt lat="43.26829" lon="-0.52108">
        <ele>257</ele>
        <time>2016-05-05T08:31:11</time>
      </trkpt>
      <trkpt lat="43.26815" lon="-0.52097">
        <ele>257</ele>
        <time>2016-05-05T08:31:16</time>
      </trkpt>
      <trkpt lat="43.26801" lon="-0.52089">
        <ele>258</ele>
        <time>2016-05-05T08:31:21</time>
      </trkpt>
      <trkpt lat="43.2679" lon="-0.52077">
        <ele>258</ele>
        <time>2016-05-05T08:31:26</time>
      </trkpt>
      <trkpt lat="43.2678" lon="-0.52065">
        <ele>258</ele>
        <time>2016-05-05T08:31:32</time>
      </trkpt>
      <trkpt lat="43.26772" lon="-0.5205">
        <ele>258</ele>
        <time>2016-05-05T08:31:37</time>
      </trkpt>
      <trkpt lat="43.26763" lon="-0.52035">
        <ele>259</ele>
        <time>2016-05-05T08:31:42</time>
      </trkpt>
      <trkpt lat="43.26752" lon="-0.52023">
        <ele>261</ele>
        <time>2016-05-05T08:31:47</time>
      </trkpt>
      <trkpt lat="43.2674" lon="-0.52012">
        <ele>261</ele>
        <time>2016-05-05T08:31:52</time>
      </trkpt>
      <trkpt lat="43.26728" lon="-0.52">
        <ele>262</ele>
        <time>2016-05-05T08:31:57</time>
      </trkpt>
      <trkpt lat="43.26713" lon="-0.51991">
        <ele>263</ele>
        <time>2016-05-05T08:32:02</time>
      </trkpt>
      <trkpt lat="43.26698" lon="-0.51976">
        <ele>261</ele>
        <time>2016-05-05T08:32:07</time>
      </trkpt>
      <trkpt lat="43.26685" lon="-0.51969">
        <ele>260</ele>
        <time>2016-05-05T08:32:12</time>
      </trkpt>
      <trkpt lat="43.26669" lon="-0.51961">
        <ele>261</ele>
        <time>2016-05-05T08:32:17</time>
      </trkpt>
      <trkpt lat="43.26651" lon="-0.51949">
        <ele>260</ele>
        <time>2016-05-05T08:32:22</time>
      </trkpt>
      <trkpt lat="43.26638" lon="-0.51936">
        <ele>259</ele>
        <time>2016-05-05T08:32:27</time>
      </trkpt>
      <trkpt lat="43.26619" lon="-0.51927">
        <ele>260</ele>
        <time>2016-05-05T08:32:32</time>
      </trkpt>
      <trkpt lat="43.26592" lon="-0.51923">
        <ele>257</ele>
        <time>2016-05-05T08:32:37</time>
      </trkpt>
      <trkpt lat="43.26581" lon="-0.51903">
        <ele>258</ele>
        <time>2016-05-05T08:32:42</time>
      </trkpt>
      <trkpt lat="43.26576" lon="-0.51888">
        <ele>259</ele>
        <time>2016-05-05T08:32:47</time>
      </trkpt>
      <trkpt lat="43.26568" lon="-0.51875">
        <ele>260</ele>
        <time>2016-05-05T08:32:52</time>
      </trkpt>
      <trkpt lat="43.26559" lon="-0.51862">
        <ele>262</ele>
        <time>2016-05-05T08:32:57</time>
      </trkpt>
      <trkpt lat="43.2655" lon="-0.51845">
        <ele>262</ele>
        <time>2016-05-05T08:33:02</time>
      </trkpt>
      <trkpt lat="43.26538" lon="-0.51833">
        <ele>260</ele>
        <time>2016-05-05T08:33:07</time>
      </trkpt>
      <trkpt lat="43.26522" lon="-0.51825">
        <ele>261</ele>
        <time>2016-05-05T08:33:12</time>
      </trkpt>
      <trkpt lat="43.26501" lon="-0.51819">
        <ele>260</ele>
        <time>2016-05-05T08:33:17</time>
      </trkpt>
      <trkpt lat="43.26484" lon="-0.51818">
        <ele>261</ele>
        <time>2016-05-05T08:33:22</time>
      </trkpt>
      <trkpt lat="43.26469" lon="-0.51811">
        <ele>261</ele>
        <time>2016-05-05T08:33:27</time>
      </trkpt>
      <trkpt lat="43.26457" lon="-0.51799">
        <ele>263</ele>
        <time>2016-05-05T08:33:32</time>
      </trkpt>
      <trkpt lat="43.26446" lon="-0.51791">
        <ele>264</ele>
        <time>2016-05-05T08:33:37</time>
      </trkpt>
      <trkpt lat="43.26438" lon="-0.51797">
        <ele>263</ele>
        <time>2016-05-05T08:33:43</time>
      </trkpt>
      <trkpt lat="43.26431" lon="-0.51815">
        <ele>264</ele>
        <time>2016-05-05T08:33:48</time>
      </trkpt>
      <trkpt lat="43.26437" lon="-0.51839">
        <ele>260</ele>
        <time>2016-05-05T08:33:53</time>
      </trkpt>
      <trkpt lat="43.26445" lon="-0.51852">
        <ele>258</ele>
        <time>2016-05-05T08:33:58</time>
      </trkpt>
      <trkpt lat="43.2646" lon="-0.51875">
        <ele>252</ele>
        <time>2016-05-05T08:34:03</time>
      </trkpt>
      <trkpt lat="43.26464" lon="-0.51898">
        <ele>247</ele>
        <time>2016-05-05T08:34:08</time>
      </trkpt>
      <trkpt lat="43.26434" lon="-0.5191">
        <ele>244</ele>
        <time>2016-05-05T08:34:13</time>
      </trkpt>
      <trkpt lat="43.26409" lon="-0.51923">
        <ele>238</ele>
        <time>2016-05-05T08:34:18</time>
      </trkpt>
      <trkpt lat="43.26381" lon="-0.51939">
        <ele>231</ele>
        <time>2016-05-05T08:34:23</time>
      </trkpt>
      <trkpt lat="43.26372" lon="-0.51943">
        <ele>226</ele>
        <time>2016-05-05T08:34:28</time>
      </trkpt>
      <trkpt lat="43.26371" lon="-0.51946">
        <ele>227</ele>
        <time>2016-05-05T08:34:33</time>
      </trkpt>
      <trkpt lat="43.26369" lon="-0.5195">
        <ele>227</ele>
        <time>2016-05-05T08:34:38</time>
      </trkpt>
      <trkpt lat="43.26361" lon="-0.51958">
        <ele>225</ele>
        <time>2016-05-05T08:34:43</time>
      </trkpt>
      <trkpt lat="43.26356" lon="-0.51962">
        <ele>222</ele>
        <time>2016-05-05T08:34:48</time>
      </trkpt>
      <trkpt lat="43.26353" lon="-0.51965">
        <ele>224</ele>
        <time>2016-05-05T08:34:53</time>
      </trkpt>
      <trkpt lat="43.26349" lon="-0.51968">
        <ele>224</ele>
        <time>2016-05-05T08:34:58</time>
      </trkpt>
      <trkpt lat="43.2635" lon="-0.51972">
        <ele>222</ele>
        <time>2016-05-05T08:35:03</time>
      </trkpt>
      <trkpt lat="43.26352" lon="-0.51981">
        <ele>225</ele>
        <time>2016-05-05T08:35:08</time>
      </trkpt>
      <trkpt lat="43.26349" lon="-0.51995">
        <ele>227</ele>
        <time>2016-05-05T08:35:13</time>
      </trkpt>
      <trkpt lat="43.26344" lon="-0.52012">
        <ele>225</ele>
        <time>2016-05-05T08:35:18</time>
      </trkpt>
      <trkpt lat="43.26339" lon="-0.52029">
        <ele>227</ele>
        <time>2016-05-05T08:35:23</time>
      </trkpt>
      <trkpt lat="43.26322" lon="-0.52034">
        <ele>227</ele>
        <time>2016-05-05T08:35:28</time>
      </trkpt>
      <trkpt lat="43.26306" lon="-0.52033">
        <ele>227</ele>
        <time>2016-05-05T08:35:33</time>
      </trkpt>
      <trkpt lat="43.26291" lon="-0.52031">
        <ele>227</ele>
        <time>2016-05-05T08:35:38</time>
      </trkpt>
      <trkpt lat="43.26275" lon="-0.52028">
        <ele>227</ele>
        <time>2016-05-05T08:35:43</time>
      </trkpt>
      <trkpt lat="43.2626" lon="-0.52019">
        <ele>227</ele>
        <time>2016-05-05T08:35:49</time>
      </trkpt>
      <trkpt lat="43.26245" lon="-0.52007">
        <ele>228</ele>
        <time>2016-05-05T08:35:54</time>
      </trkpt>
      <trkpt lat="43.26231" lon="-0.51992">
        <ele>229</ele>
        <time>2016-05-05T08:35:59</time>
      </trkpt>
      <trkpt lat="43.26218" lon="-0.51979">
        <ele>230</ele>
        <time>2016-05-05T08:36:04</time>
      </trkpt>
      <trkpt lat="43.26204" lon="-0.51968">
        <ele>230</ele>
        <time>2016-05-05T08:36:09</time>
      </trkpt>
      <trkpt lat="43.26191" lon="-0.5196">
        <ele>231</ele>
        <time>2016-05-05T08:36:14</time>
      </trkpt>
      <trkpt lat="43.26177" lon="-0.51954">
        <ele>234</ele>
        <time>2016-05-05T08:36:19</time>
      </trkpt>
      <trkpt lat="43.26165" lon="-0.51947">
        <ele>233</ele>
        <time>2016-05-05T08:36:24</time>
      </trkpt>
      <trkpt lat="43.26151" lon="-0.51938">
        <ele>235</ele>
        <time>2016-05-05T08:36:29</time>
      </trkpt>
      <trkpt lat="43.26136" lon="-0.51928">
        <ele>235</ele>
        <time>2016-05-05T08:36:34</time>
      </trkpt>
      <trkpt lat="43.26117" lon="-0.51915">
        <ele>235</ele>
        <time>2016-05-05T08:36:39</time>
      </trkpt>
      <trkpt lat="43.26102" lon="-0.51905">
        <ele>236</ele>
        <time>2016-05-05T08:36:44</time>
      </trkpt>
      <trkpt lat="43.26088" lon="-0.51898">
        <ele>236</ele>
        <time>2016-05-05T08:36:49</time>
      </trkpt>
      <trkpt lat="43.26081" lon="-0.51899">
        <ele>236</ele>
        <time>2016-05-05T08:36:54</time>
      </trkpt>
      <trkpt lat="43.26077" lon="-0.51905">
        <ele>237</ele>
        <time>2016-05-05T08:36:59</time>
      </trkpt>
      <trkpt lat="43.26069" lon="-0.51907">
        <ele>238</ele>
        <time>2016-05-05T08:37:04</time>
      </trkpt>
      <trkpt lat="43.26061" lon="-0.51907">
        <ele>242</ele>
        <time>2016-05-05T08:37:09</time>
      </trkpt>
      <trkpt lat="43.26054" lon="-0.5191">
        <ele>244</ele>
        <time>2016-05-05T08:37:14</time>
      </trkpt>
      <trkpt lat="43.26048" lon="-0.51913">
        <ele>246</ele>
        <time>2016-05-05T08:37:19</time>
      </trkpt>
      <trkpt lat="43.26043" lon="-0.51917">
        <ele>246</ele>
        <time>2016-05-05T08:37:24</time>
      </trkpt>
      <trkpt lat="43.26036" lon="-0.5192">
        <ele>246</ele>
        <time>2016-05-05T08:37:29</time>
      </trkpt>
      <trkpt lat="43.2603" lon="-0.51921">
        <ele>248</ele>
        <time>2016-05-05T08:37:34</time>
      </trkpt>
      <trkpt lat="43.26023" lon="-0.51921">
        <ele>248</ele>
        <time>2016-05-05T08:37:39</time>
      </trkpt>
      <trkpt lat="43.26016" lon="-0.51924">
        <ele>251</ele>
        <time>2016-05-05T08:37:44</time>
      </trkpt>
      <trkpt lat="43.26009" lon="-0.51924">
        <ele>250</ele>
        <time>2016-05-05T08:37:49</time>
      </trkpt>
      <trkpt lat="43.26004" lon="-0.51923">
        <ele>254</ele>
        <time>2016-05-05T08:37:54</time>
      </trkpt>
      <trkpt lat="43.25996" lon="-0.51925">
        <ele>254</ele>
        <time>2016-05-05T08:37:59</time>
      </trkpt>
      <trkpt lat="43.25989" lon="-0.51927">
        <ele>256</ele>
        <time>2016-05-05T08:38:05</time>
      </trkpt>
      <trkpt lat="43.25982" lon="-0.51928">
        <ele>256</ele>
        <time>2016-05-05T08:38:10</time>
      </trkpt>
      <trkpt lat="43.25975" lon="-0.51931">
        <ele>257</ele>
        <time>2016-05-05T08:38:15</time>
      </trkpt>
      <trkpt lat="43.2597" lon="-0.51936">
        <ele>259</ele>
        <time>2016-05-05T08:38:20</time>
      </trkpt>
      <trkpt lat="43.25966" lon="-0.51944">
        <ele>259</ele>
        <time>2016-05-05T08:38:25</time>
      </trkpt>
      <trkpt lat="43.25963" lon="-0.5195">
        <ele>263</ele>
        <time>2016-05-05T08:38:30</time>
      </trkpt>
      <trkpt lat="43.2596" lon="-0.51959">
        <ele>263</ele>
        <time>2016-05-05T08:38:35</time>
      </trkpt>
      <trkpt lat="43.25953" lon="-0.51967">
        <ele>263</ele>
        <time>2016-05-05T08:38:40</time>
      </trkpt>
      <trkpt lat="43.25949" lon="-0.51974">
        <ele>264</ele>
        <time>2016-05-05T08:38:45</time>
      </trkpt>
      <trkpt lat="43.25946" lon="-0.51983">
        <ele>264</ele>
        <time>2016-05-05T08:38:50</time>
      </trkpt>
      <trkpt lat="43.25941" lon="-0.51991">
        <ele>266</ele>
        <time>2016-05-05T08:38:55</time>
      </trkpt>
      <trkpt lat="43.25938" lon="-0.52002">
        <ele>265</ele>
        <time>2016-05-05T08:39:00</time>
      </trkpt>
      <trkpt lat="43.25935" lon="-0.52009">
        <ele>270</ele>
        <time>2016-05-05T08:39:05</time>
      </trkpt>
      <trkpt lat="43.25933" lon="-0.52014">
        <ele>270</ele>
        <time>2016-05-05T08:39:10</time>
      </trkpt>
      <trkpt lat="43.25932" lon="-0.52016">
        <ele>268</ele>
        <time>2016-05-05T08:39:15</time>
      </trkpt>
      <trkpt lat="43.2593" lon="-0.52018">
        <ele>268</ele>
        <time>2016-05-05T08:39:20</time>
      </trkpt>
      <trkpt lat="43.25929" lon="-0.5202">
        <ele>266</ele>
        <time>2016-05-05T08:39:25</time>
      </trkpt>
      <trkpt lat="43.25926" lon="-0.52023">
        <ele>267</ele>
        <time>2016-05-05T08:39:30</time>
      </trkpt>
      <trkpt lat="43.25925" lon="-0.52024">
        <ele>270</ele>
        <time>2016-05-05T08:39:35</time>
      </trkpt>
      <trkpt lat="43.25924" lon="-0.52031">
        <ele>268</ele>
        <time>2016-05-05T08:39:40</time>
      </trkpt>
      <trkpt lat="43.25923" lon="-0.5204">
        <ele>271</ele>
        <time>2016-05-05T08:39:45</time>
      </trkpt>
      <trkpt lat="43.2592" lon="-0.52048">
        <ele>274</ele>
        <time>2016-05-05T08:39:50</time>
      </trkpt>
      <trkpt lat="43.25918" lon="-0.52056">
        <ele>274</ele>
        <time>2016-05-05T08:39:55</time>
      </trkpt>
      <trkpt lat="43.25915" lon="-0.52065">
        <ele>276</ele>
        <time>2016-05-05T08:40:00</time>
      </trkpt>
      <trkpt lat="43.25911" lon="-0.52071">
        <ele>277</ele>
        <time>2016-05-05T08:40:05</time>
      </trkpt>
      <trkpt lat="43.25908" lon="-0.5208">
        <ele>277</ele>
        <time>2016-05-05T08:40:10</time>
      </trkpt>
      <trkpt lat="43.25905" lon="-0.52088">
        <ele>279</ele>
        <time>2016-05-05T08:40:15</time>
      </trkpt>
      <trkpt lat="43.259" lon="-0.52095">
        <ele>280</ele>
        <time>2016-05-05T08:40:21</time>
      </trkpt>
      <trkpt lat="43.25896" lon="-0.52103">
        <ele>282</ele>
        <time>2016-05-05T08:40:26</time>
      </trkpt>
      <trkpt lat="43.25893" lon="-0.52112">
        <ele>283</ele>
        <time>2016-05-05T08:40:31</time>
      </trkpt>
      <trkpt lat="43.2589" lon="-0.52121">
        <ele>283</ele>
        <time>2016-05-05T08:40:36</time>
      </trkpt>
      <trkpt lat="43.25888" lon="-0.52131">
        <ele>285</ele>
        <time>2016-05-05T08:40:41</time>
      </trkpt>
      <trkpt lat="43.25885" lon="-0.5214">
        <ele>286</ele>
        <time>2016-05-05T08:40:46</time>
      </trkpt>
      <trkpt lat="43.25882" lon="-0.5215">
        <ele>286</ele>
        <time>2016-05-05T08:40:51</time>
      </trkpt>
      <trkpt lat="43.25879" lon="-0.5216">
        <ele>289</ele>
        <time>2016-05-05T08:40:56</time>
      </trkpt>
      <trkpt lat="43.25875" lon="-0.52171">
        <ele>288</ele>
        <time>2016-05-05T08:41:01</time>
      </trkpt>
      <trkpt lat="43.2587" lon="-0.52182">
        <ele>290</ele>
        <time>2016-05-05T08:41:06</time>
      </trkpt>
      <trkpt lat="43.25867" lon="-0.52191">
        <ele>290</ele>
        <time>2016-05-05T08:41:11</time>
      </trkpt>
      <trkpt lat="43.25862" lon="-0.52204">
        <ele>291</ele>
        <time>2016-05-05T08:41:16</time>
      </trkpt>
      <trkpt lat="43.25857" lon="-0.52209">
        <ele>290</ele>
        <time>2016-05-05T08:41:21</time>
      </trkpt>
      <trkpt lat="43.2585" lon="-0.5221">
        <ele>292</ele>
        <time>2016-05-05T08:41:26</time>
      </trkpt>
      <trkpt lat="43.25843" lon="-0.52211">
        <ele>293</ele>
        <time>2016-05-05T08:41:31</time>
      </trkpt>
      <trkpt lat="43.25836" lon="-0.52212">
        <ele>295</ele>
        <time>2016-05-05T08:41:36</time>
      </trkpt>
      <trkpt lat="43.25828" lon="-0.52214">
        <ele>296</ele>
        <time>2016-05-05T08:41:41</time>
      </trkpt>
      <trkpt lat="43.25821" lon="-0.52218">
        <ele>297</ele>
        <time>2016-05-05T08:41:46</time>
      </trkpt>
      <trkpt lat="43.25815" lon="-0.52221">
        <ele>298</ele>
        <time>2016-05-05T08:41:51</time>
      </trkpt>
      <trkpt lat="43.25808" lon="-0.52223">
        <ele>300</ele>
        <time>2016-05-05T08:41:56</time>
      </trkpt>
      <trkpt lat="43.25801" lon="-0.52227">
        <ele>303</ele>
        <time>2016-05-05T08:42:01</time>
      </trkpt>
      <trkpt lat="43.25794" lon="-0.5223">
        <ele>304</ele>
        <time>2016-05-05T08:42:06</time>
      </trkpt>
      <trkpt lat="43.25787" lon="-0.52236">
        <ele>305</ele>
        <time>2016-05-05T08:42:11</time>
      </trkpt>
      <trkpt lat="43.25781" lon="-0.52241">
        <ele>304</ele>
        <time>2016-05-05T08:42:16</time>
      </trkpt>
      <trkpt lat="43.25774" lon="-0.52247">
        <ele>306</ele>
        <time>2016-05-05T08:42:22</time>
      </trkpt>
      <trkpt lat="43.25766" lon="-0.52253">
        <ele>307</ele>
        <time>2016-05-05T08:42:27</time>
      </trkpt>
      <trkpt lat="43.25757" lon="-0.52256">
        <ele>308</ele>
        <time>2016-05-05T08:42:32</time>
      </trkpt>
      <trkpt lat="43.25747" lon="-0.5226">
        <ele>307</ele>
        <time>2016-05-05T08:42:37</time>
      </trkpt>
      <trkpt lat="43.25737" lon="-0.52265">
        <ele>309</ele>
        <time>2016-05-05T08:42:42</time>
      </trkpt>
      <trkpt lat="43.25726" lon="-0.5227">
        <ele>307</ele>
        <time>2016-05-05T08:42:47</time>
      </trkpt>
      <trkpt lat="43.25714" lon="-0.52273">
        <ele>308</ele>
        <time>2016-05-05T08:42:52</time>
      </trkpt>
      <trkpt lat="43.25706" lon="-0.5227">
        <ele>307</ele>
        <time>2016-05-05T08:42:57</time>
      </trkpt>
      <trkpt lat="43.25698" lon="-0.52268">
        <ele>310</ele>
        <time>2016-05-05T08:43:02</time>
      </trkpt>
      <trkpt lat="43.2569" lon="-0.52264">
        <ele>312</ele>
        <time>2016-05-05T08:43:07</time>
      </trkpt>
      <trkpt lat="43.25683" lon="-0.5226">
        <ele>312</ele>
        <time>2016-05-05T08:43:12</time>
      </trkpt>
      <trkpt lat="43.25675" lon="-0.52257">
        <ele>311</ele>
        <time>2016-05-05T08:43:17</time>
      </trkpt>
      <trkpt lat="43.25666" lon="-0.52252">
        <ele>313</ele>
        <time>2016-05-05T08:43:22</time>
      </trkpt>
      <trkpt lat="43.25658" lon="-0.52243">
        <ele>312</ele>
        <time>2016-05-05T08:43:27</time>
      </trkpt>
      <trkpt lat="43.25652" lon="-0.52229">
        <ele>313</ele>
        <time>2016-05-05T08:43:32</time>
      </trkpt>
      <trkpt lat="43.25648" lon="-0.52217">
        <ele>314</ele>
        <time>2016-05-05T08:43:37</time>
      </trkpt>
      <trkpt lat="43.2564" lon="-0.52202">
        <ele>313</ele>
        <time>2016-05-05T08:43:42</time>
      </trkpt>
      <trkpt lat="43.25631" lon="-0.52189">
        <ele>313</ele>
        <time>2016-05-05T08:43:47</time>
      </trkpt>
      <trkpt lat="43.2562" lon="-0.52179">
        <ele>314</ele>
        <time>2016-05-05T08:43:52</time>
      </trkpt>
      <trkpt lat="43.2561" lon="-0.52168">
        <ele>315</ele>
        <time>2016-05-05T08:43:57</time>
      </trkpt>
      <trkpt lat="43.25603" lon="-0.52154">
        <ele>315</ele>
        <time>2016-05-05T08:44:02</time>
      </trkpt>
      <trkpt lat="43.25593" lon="-0.52145">
        <ele>315</ele>
        <time>2016-05-05T08:44:07</time>
      </trkpt>
      <trkpt lat="43.25582" lon="-0.52136">
        <ele>316</ele>
        <time>2016-05-05T08:44:12</time>
      </trkpt>
      <trkpt lat="43.25572" lon="-0.52126">
        <ele>316</ele>
        <time>2016-05-05T08:44:18</time>
      </trkpt>
      <trkpt lat="43.25561" lon="-0.52119">
        <ele>316</ele>
        <time>2016-05-05T08:44:23</time>
      </trkpt>
      <trkpt lat="43.25541" lon="-0.5211">
        <ele>316</ele>
        <time>2016-05-05T08:44:28</time>
      </trkpt>
      <trkpt lat="43.25518" lon="-0.521">
        <ele>315</ele>
        <time>2016-05-05T08:44:33</time>
      </trkpt>
      <trkpt lat="43.25486" lon="-0.5209">
        <ele>312</ele>
        <time>2016-05-05T08:44:38</time>
      </trkpt>
      <trkpt lat="43.25462" lon="-0.52084">
        <ele>310</ele>
        <time>2016-05-05T08:44:43</time>
      </trkpt>
      <trkpt lat="43.25451" lon="-0.52081">
        <ele>308</ele>
        <time>2016-05-05T08:44:48</time>
      </trkpt>
      <trkpt lat="43.25439" lon="-0.5208">
        <ele>311</ele>
        <time>2016-05-05T08:44:53</time>
      </trkpt>
      <trkpt lat="43.25424" lon="-0.52075">
        <ele>311</ele>
        <time>2016-05-05T08:44:58</time>
      </trkpt>
      <trkpt lat="43.25412" lon="-0.52066">
        <ele>311</ele>
        <time>2016-05-05T08:45:03</time>
      </trkpt>
      <trkpt lat="43.25399" lon="-0.52056">
        <ele>313</ele>
        <time>2016-05-05T08:45:08</time>
      </trkpt>
      <trkpt lat="43.25388" lon="-0.52047">
        <ele>313</ele>
        <time>2016-05-05T08:45:13</time>
      </trkpt>
      <trkpt lat="43.25378" lon="-0.52037">
        <ele>314</ele>
        <time>2016-05-05T08:45:18</time>
      </trkpt>
      <trkpt lat="43.25367" lon="-0.52027">
        <ele>315</ele>
        <time>2016-05-05T08:45:23</time>
      </trkpt>
      <trkpt lat="43.25357" lon="-0.52018">
        <ele>315</ele>
        <time>2016-05-05T08:45:28</time>
      </trkpt>
      <trkpt lat="43.25348" lon="-0.52012">
        <ele>317</ele>
        <time>2016-05-05T08:45:33</time>
      </trkpt>
      <trkpt lat="43.2534" lon="-0.52006">
        <ele>320</ele>
        <time>2016-05-05T08:45:38</time>
      </trkpt>
      <trkpt lat="43.2533" lon="-0.52">
        <ele>319</ele>
        <time>2016-05-05T08:45:43</time>
      </trkpt>
      <trkpt lat="43.25318" lon="-0.51996">
        <ele>322</ele>
        <time>2016-05-05T08:45:48</time>
      </trkpt>
      <trkpt lat="43.2531" lon="-0.5199">
        <ele>322</ele>
        <time>2016-05-05T08:45:53</time>
      </trkpt>
      <trkpt lat="43.25299" lon="-0.51986">
        <ele>324</ele>
        <time>2016-05-05T08:45:58</time>
      </trkpt>
      <trkpt lat="43.25287" lon="-0.51985">
        <ele>325</ele>
        <time>2016-05-05T08:46:03</time>
      </trkpt>
      <trkpt lat="43.25275" lon="-0.51986">
        <ele>325</ele>
        <time>2016-05-05T08:46:08</time>
      </trkpt>
      <trkpt lat="43.25264" lon="-0.51988">
        <ele>326</ele>
        <time>2016-05-05T08:46:14</time>
      </trkpt>
      <trkpt lat="43.25254" lon="-0.51991">
        <ele>327</ele>
        <time>2016-05-05T08:46:19</time>
      </trkpt>
      <trkpt lat="43.25248" lon="-0.51993">
        <ele>328</ele>
        <time>2016-05-05T08:46:24</time>
      </trkpt>
      <trkpt lat="43.25236" lon="-0.51997">
        <ele>327</ele>
        <time>2016-05-05T08:46:29</time>
      </trkpt>
      <trkpt lat="43.25224" lon="-0.52003">
        <ele>328</ele>
        <time>2016-05-05T08:46:34</time>
      </trkpt>
      <trkpt lat="43.25204" lon="-0.52011">
        <ele>328</ele>
        <time>2016-05-05T08:46:39</time>
      </trkpt>
      <trkpt lat="43.25189" lon="-0.52021">
        <ele>328</ele>
        <time>2016-05-05T08:46:44</time>
      </trkpt>
      <trkpt lat="43.2517" lon="-0.52034">
        <ele>326</ele>
        <time>2016-05-05T08:46:49</time>
      </trkpt>
      <trkpt lat="43.25145" lon="-0.52038">
        <ele>325</ele>
        <time>2016-05-05T08:46:54</time>
      </trkpt>
      <trkpt lat="43.25116" lon="-0.52042">
        <ele>323</ele>
        <time>2016-05-05T08:46:59</time>
      </trkpt>
      <trkpt lat="43.25085" lon="-0.52049">
        <ele>322</ele>
        <time>2016-05-05T08:47:04</time>
      </trkpt>
      <trkpt lat="43.25055" lon="-0.52058">
        <ele>321</ele>
        <time>2016-05-05T08:47:09</time>
      </trkpt>
      <trkpt lat="43.2503" lon="-0.52072">
        <ele>320</ele>
        <time>2016-05-05T08:47:14</time>
      </trkpt>
      <trkpt lat="43.25012" lon="-0.52083">
        <ele>318</ele>
        <time>2016-05-05T08:47:19</time>
      </trkpt>
      <trkpt lat="43.24996" lon="-0.52082">
        <ele>318</ele>
        <time>2016-05-05T08:47:24</time>
      </trkpt>
      <trkpt lat="43.24982" lon="-0.52078">
        <ele>319</ele>
        <time>2016-05-05T08:47:29</time>
      </trkpt>
      <trkpt lat="43.24968" lon="-0.52085">
        <ele>319</ele>
        <time>2016-05-05T08:47:34</time>
      </trkpt>
      <trkpt lat="43.2495" lon="-0.52082">
        <ele>318</ele>
        <time>2016-05-05T08:47:39</time>
      </trkpt>
      <trkpt lat="43.24924" lon="-0.52072">
        <ele>316</ele>
        <time>2016-05-05T08:47:44</time>
      </trkpt>
      <trkpt lat="43.24908" lon="-0.52086">
        <ele>317</ele>
        <time>2016-05-05T08:47:49</time>
      </trkpt>
      <trkpt lat="43.24899" lon="-0.52099">
        <ele>317</ele>
        <time>2016-05-05T08:47:54</time>
      </trkpt>
      <trkpt lat="43.24891" lon="-0.52113">
        <ele>319</ele>
        <time>2016-05-05T08:47:59</time>
      </trkpt>
      <trkpt lat="43.24883" lon="-0.52128">
        <ele>323</ele>
        <time>2016-05-05T08:48:04</time>
      </trkpt>
      <trkpt lat="43.24875" lon="-0.52144">
        <ele>325</ele>
        <time>2016-05-05T08:48:09</time>
      </trkpt>
      <trkpt lat="43.24868" lon="-0.52159">
        <ele>325</ele>
        <time>2016-05-05T08:48:14</time>
      </trkpt>
      <trkpt lat="43.24862" lon="-0.52172">
        <ele>326</ele>
        <time>2016-05-05T08:48:19</time>
      </trkpt>
      <trkpt lat="43.24854" lon="-0.52188">
        <ele>326</ele>
        <time>2016-05-05T08:48:24</time>
      </trkpt>
      <trkpt lat="43.24847" lon="-0.52205">
        <ele>327</ele>
        <time>2016-05-05T08:48:29</time>
      </trkpt>
      <trkpt lat="43.2484" lon="-0.52222">
        <ele>327</ele>
        <time>2016-05-05T08:48:34</time>
      </trkpt>
      <trkpt lat="43.24833" lon="-0.52237">
        <ele>329</ele>
        <time>2016-05-05T08:48:39</time>
      </trkpt>
      <trkpt lat="43.24826" lon="-0.52254">
        <ele>328</ele>
        <time>2016-05-05T08:48:44</time>
      </trkpt>
      <trkpt lat="43.24815" lon="-0.52275">
        <ele>329</ele>
        <time>2016-05-05T08:48:49</time>
      </trkpt>
      <trkpt lat="43.24816" lon="-0.52297">
        <ele>329</ele>
        <time>2016-05-05T08:48:54</time>
      </trkpt>
      <trkpt lat="43.2485" lon="-0.52327">
        <ele>324</ele>
        <time>2016-05-05T08:49:00</time>
      </trkpt>
      <trkpt lat="43.24883" lon="-0.52349">
        <ele>323</ele>
        <time>2016-05-05T08:49:05</time>
      </trkpt>
      <trkpt lat="43.24911" lon="-0.52369">
        <ele>323</ele>
        <time>2016-05-05T08:49:10</time>
      </trkpt>
      <trkpt lat="43.2494" lon="-0.52392">
        <ele>320</ele>
        <time>2016-05-05T08:49:15</time>
      </trkpt>
      <trkpt lat="43.24966" lon="-0.52407">
        <ele>320</ele>
        <time>2016-05-05T08:49:20</time>
      </trkpt>
      <trkpt lat="43.24991" lon="-0.52421">
        <ele>319</ele>
        <time>2016-05-05T08:49:25</time>
      </trkpt>
      <trkpt lat="43.25014" lon="-0.52436">
        <ele>320</ele>
        <time>2016-05-05T08:49:30</time>
      </trkpt>
      <trkpt lat="43.25032" lon="-0.52444">
        <ele>321</ele>
        <time>2016-05-05T08:49:35</time>
      </trkpt>
      <trkpt lat="43.2505" lon="-0.52456">
        <ele>321</ele>
        <time>2016-05-05T08:49:40</time>
      </trkpt>
      <trkpt lat="43.25065" lon="-0.52475">
        <ele>323</ele>
        <time>2016-05-05T08:49:45</time>
      </trkpt>
      <trkpt lat="43.25075" lon="-0.52497">
        <ele>323</ele>
        <time>2016-05-05T08:49:50</time>
      </trkpt>
      <trkpt lat="43.25087" lon="-0.52525">
        <ele>324</ele>
        <time>2016-05-05T08:49:55</time>
      </trkpt>
      <trkpt lat="43.25098" lon="-0.52549">
        <ele>324</ele>
        <time>2016-05-05T08:50:00</time>
      </trkpt>
      <trkpt lat="43.25105" lon="-0.52574">
        <ele>324</ele>
        <time>2016-05-05T08:50:05</time>
      </trkpt>
      <trkpt lat="43.25109" lon="-0.52601">
        <ele>324</ele>
        <time>2016-05-05T08:50:10</time>
      </trkpt>
      <trkpt lat="43.25115" lon="-0.52621">
        <ele>324</ele>
        <time>2016-05-05T08:50:15</time>
      </trkpt>
      <trkpt lat="43.25121" lon="-0.52643">
        <ele>325</ele>
        <time>2016-05-05T08:50:20</time>
      </trkpt>
      <trkpt lat="43.2513" lon="-0.52666">
        <ele>325</ele>
        <time>2016-05-05T08:50:25</time>
      </trkpt>
      <trkpt lat="43.25142" lon="-0.52689">
        <ele>325</ele>
        <time>2016-05-05T08:50:30</time>
      </trkpt>
      <trkpt lat="43.25154" lon="-0.52709">
        <ele>325</ele>
        <time>2016-05-05T08:50:35</time>
      </trkpt>
      <trkpt lat="43.25167" lon="-0.52728">
        <ele>326</ele>
        <time>2016-05-05T08:50:40</time>
      </trkpt>
      <trkpt lat="43.2518" lon="-0.52749">
        <ele>328</ele>
        <time>2016-05-05T08:50:45</time>
      </trkpt>
      <trkpt lat="43.25193" lon="-0.52767">
        <ele>328</ele>
        <time>2016-05-05T08:50:50</time>
      </trkpt>
      <trkpt lat="43.25209" lon="-0.52785">
        <ele>330</ele>
        <time>2016-05-05T08:50:55</time>
      </trkpt>
      <trkpt lat="43.25227" lon="-0.52808">
        <ele>328</ele>
        <time>2016-05-05T08:51:00</time>
      </trkpt>
      <trkpt lat="43.25241" lon="-0.52827">
        <ele>330</ele>
        <time>2016-05-05T08:51:05</time>
      </trkpt>
      <trkpt lat="43.25256" lon="-0.5285">
        <ele>328</ele>
        <time>2016-05-05T08:51:10</time>
      </trkpt>
      <trkpt lat="43.2527" lon="-0.5287">
        <ele>328</ele>
        <time>2016-05-05T08:51:15</time>
      </trkpt>
      <trkpt lat="43.25288" lon="-0.52888">
        <ele>329</ele>
        <time>2016-05-05T08:51:20</time>
      </trkpt>
      <trkpt lat="43.25307" lon="-0.52907">
        <ele>328</ele>
        <time>2016-05-05T08:51:25</time>
      </trkpt>
      <trkpt lat="43.25323" lon="-0.52929">
        <ele>329</ele>
        <time>2016-05-05T08:51:30</time>
      </trkpt>
      <trkpt lat="43.25338" lon="-0.52955">
        <ele>330</ele>
        <time>2016-05-05T08:51:35</time>
      </trkpt>
      <trkpt lat="43.25359" lon="-0.52983">
        <ele>329</ele>
        <time>2016-05-05T08:51:41</time>
      </trkpt>
      <trkpt lat="43.25387" lon="-0.53001">
        <ele>330</ele>
        <time>2016-05-05T08:51:46</time>
      </trkpt>
      <trkpt lat="43.25415" lon="-0.53032">
        <ele>328</ele>
        <time>2016-05-05T08:51:51</time>
      </trkpt>
      <trkpt lat="43.25444" lon="-0.53052">
        <ele>325</ele>
        <time>2016-05-05T08:51:56</time>
      </trkpt>
      <trkpt lat="43.25478" lon="-0.53061">
        <ele>324</ele>
        <time>2016-05-05T08:52:01</time>
      </trkpt>
      <trkpt lat="43.25508" lon="-0.53064">
        <ele>323</ele>
        <time>2016-05-05T08:52:06</time>
      </trkpt>
      <trkpt lat="43.25541" lon="-0.53066">
        <ele>322</ele>
        <time>2016-05-05T08:52:11</time>
      </trkpt>
      <trkpt lat="43.25572" lon="-0.53076">
        <ele>322</ele>
        <time>2016-05-05T08:52:16</time>
      </trkpt>
      <trkpt lat="43.25599" lon="-0.53097">
        <ele>319</ele>
        <time>2016-05-05T08:52:21</time>
      </trkpt>
      <trkpt lat="43.2561" lon="-0.5311">
        <ele>317</ele>
        <time>2016-05-05T08:52:26</time>
      </trkpt>
      <trkpt lat="43.25601" lon="-0.53116">
        <ele>316</ele>
        <time>2016-05-05T08:52:31</time>
      </trkpt>
      <trkpt lat="43.25584" lon="-0.53118">
        <ele>316</ele>
        <time>2016-05-05T08:52:36</time>
      </trkpt>
      <trkpt lat="43.25567" lon="-0.53129">
        <ele>317</ele>
        <time>2016-05-05T08:52:41</time>
      </trkpt>
      <trkpt lat="43.25549" lon="-0.53156">
        <ele>316</ele>
        <time>2016-05-05T08:52:46</time>
      </trkpt>
      <trkpt lat="43.25529" lon="-0.53183">
        <ele>315</ele>
        <time>2016-05-05T08:52:51</time>
      </trkpt>
      <trkpt lat="43.2551" lon="-0.53203">
        <ele>315</ele>
        <time>2016-05-05T08:52:56</time>
      </trkpt>
      <trkpt lat="43.25494" lon="-0.53219">
        <ele>314</ele>
        <time>2016-05-05T08:53:01</time>
      </trkpt>
      <trkpt lat="43.25478" lon="-0.53235">
        <ele>314</ele>
        <time>2016-05-05T08:53:06</time>
      </trkpt>
      <trkpt lat="43.25465" lon="-0.53249">
        <ele>313</ele>
        <time>2016-05-05T08:53:11</time>
      </trkpt>
      <trkpt lat="43.25448" lon="-0.53265">
        <ele>313</ele>
        <time>2016-05-05T08:53:16</time>
      </trkpt>
      <trkpt lat="43.25417" lon="-0.53267">
        <ele>311</ele>
        <time>2016-05-05T08:53:21</time>
      </trkpt>
      <trkpt lat="43.25377" lon="-0.53258">
        <ele>307</ele>
        <time>2016-05-05T08:53:26</time>
      </trkpt>
      <trkpt lat="43.2535" lon="-0.53254">
        <ele>307</ele>
        <time>2016-05-05T08:53:31</time>
      </trkpt>
      <trkpt lat="43.25331" lon="-0.53278">
        <ele>304</ele>
        <time>2016-05-05T08:53:36</time>
      </trkpt>
      <trkpt lat="43.25318" lon="-0.53303">
        <ele>303</ele>
        <time>2016-05-05T08:53:41</time>
      </trkpt>
      <trkpt lat="43.25302" lon="-0.53326">
        <ele>302</ele>
        <time>2016-05-05T08:53:46</time>
      </trkpt>
      <trkpt lat="43.2529" lon="-0.53376">
        <ele>298</ele>
        <time>2016-05-05T08:53:51</time>
      </trkpt>
      <trkpt lat="43.25281" lon="-0.53425">
        <ele>293</ele>
        <time>2016-05-05T08:53:56</time>
      </trkpt>
      <trkpt lat="43.25271" lon="-0.53466">
        <ele>292</ele>
        <time>2016-05-05T08:54:01</time>
      </trkpt>
      <trkpt lat="43.25259" lon="-0.53513">
        <ele>289</ele>
        <time>2016-05-05T08:54:06</time>
      </trkpt>
      <trkpt lat="43.25252" lon="-0.53549">
        <ele>288</ele>
        <time>2016-05-05T08:54:12</time>
      </trkpt>
      <trkpt lat="43.25248" lon="-0.53594">
        <ele>285</ele>
        <time>2016-05-05T08:54:17</time>
      </trkpt>
      <trkpt lat="43.25241" lon="-0.53635">
        <ele>283</ele>
        <time>2016-05-05T08:54:22</time>
      </trkpt>
      <trkpt lat="43.25234" lon="-0.53684">
        <ele>280</ele>
        <time>2016-05-05T08:54:27</time>
      </trkpt>
      <trkpt lat="43.25219" lon="-0.5374">
        <ele>273</ele>
        <time>2016-05-05T08:54:32</time>
      </trkpt>
      <trkpt lat="43.25208" lon="-0.53766">
        <ele>268</ele>
        <time>2016-05-05T08:54:37</time>
      </trkpt>
      <trkpt lat="43.25201" lon="-0.53787">
        <ele>264</ele>
        <time>2016-05-05T08:54:42</time>
      </trkpt>
      <trkpt lat="43.25192" lon="-0.53798">
        <ele>261</ele>
        <time>2016-05-05T08:54:47</time>
      </trkpt>
      <trkpt lat="43.2518" lon="-0.53796">
        <ele>257</ele>
        <time>2016-05-05T08:54:52</time>
      </trkpt>
      <trkpt lat="43.25176" lon="-0.53796">
        <ele>257</ele>
        <time>2016-05-05T08:54:57</time>
      </trkpt>
      <trkpt lat="43.25173" lon="-0.538">
        <ele>256</ele>
        <time>2016-05-05T08:55:02</time>
      </trkpt>
      <trkpt lat="43.2517" lon="-0.53801">
        <ele>254</ele>
        <time>2016-05-05T08:55:07</time>
      </trkpt>
      <trkpt lat="43.25165" lon="-0.53801">
        <ele>255</ele>
        <time>2016-05-05T08:55:12</time>
      </trkpt>
      <trkpt lat="43.25148" lon="-0.53794">
        <ele>252</ele>
        <time>2016-05-05T08:55:17</time>
      </trkpt>
      <trkpt lat="43.25128" lon="-0.53787">
        <ele>250</ele>
        <time>2016-05-05T08:55:22</time>
      </trkpt>
      <trkpt lat="43.25115" lon="-0.53783">
        <ele>248</ele>
        <time>2016-05-05T08:55:27</time>
      </trkpt>
      <trkpt lat="43.25105" lon="-0.53776">
        <ele>245</ele>
        <time>2016-05-05T08:55:32</time>
      </trkpt>
      <trkpt lat="43.25094" lon="-0.53755">
        <ele>243</ele>
        <time>2016-05-05T08:55:37</time>
      </trkpt>
      <trkpt lat="43.25099" lon="-0.5373">
        <ele>242</ele>
        <time>2016-05-05T08:55:42</time>
      </trkpt>
      <trkpt lat="43.25105" lon="-0.53714">
        <ele>240</ele>
        <time>2016-05-05T08:55:47</time>
      </trkpt>
      <trkpt lat="43.25103" lon="-0.53711">
        <ele>238</ele>
        <time>2016-05-05T08:55:52</time>
      </trkpt>
      <trkpt lat="43.25104" lon="-0.53704">
        <ele>239</ele>
        <time>2016-05-05T08:55:57</time>
      </trkpt>
      <trkpt lat="43.25103" lon="-0.53697">
        <ele>236</ele>
        <time>2016-05-05T08:56:02</time>
      </trkpt>
      <trkpt lat="43.25104" lon="-0.5369">
        <ele>237</ele>
        <time>2016-05-05T08:56:08</time>
      </trkpt>
      <trkpt lat="43.25105" lon="-0.53683">
        <ele>236</ele>
        <time>2016-05-05T08:56:13</time>
      </trkpt>
      <trkpt lat="43.25108" lon="-0.53676">
        <ele>234</ele>
        <time>2016-05-05T08:56:18</time>
      </trkpt>
      <trkpt lat="43.25108" lon="-0.53658">
        <ele>233</ele>
        <time>2016-05-05T08:56:23</time>
      </trkpt>
      <trkpt lat="43.25104" lon="-0.53636">
        <ele>230</ele>
        <time>2016-05-05T08:56:28</time>
      </trkpt>
      <trkpt lat="43.25091" lon="-0.53644">
        <ele>228</ele>
        <time>2016-05-05T08:56:33</time>
      </trkpt>
      <trkpt lat="43.25074" lon="-0.53661">
        <ele>225</ele>
        <time>2016-05-05T08:56:38</time>
      </trkpt>
      <trkpt lat="43.25048" lon="-0.53675">
        <ele>224</ele>
        <time>2016-05-05T08:56:43</time>
      </trkpt>
      <trkpt lat="43.25021" lon="-0.53706">
        <ele>219</ele>
        <time>2016-05-05T08:56:48</time>
      </trkpt>
      <trkpt lat="43.25" lon="-0.53732">
        <ele>217</ele>
        <time>2016-05-05T08:56:53</time>
      </trkpt>
      <trkpt lat="43.24977" lon="-0.5376">
        <ele>214</ele>
        <time>2016-05-05T08:56:58</time>
      </trkpt>
      <trkpt lat="43.24967" lon="-0.53776">
        <ele>212</ele>
        <time>2016-05-05T08:57:03</time>
      </trkpt>
      <trkpt lat="43.24947" lon="-0.53806">
        <ele>211</ele>
        <time>2016-05-05T08:57:08</time>
      </trkpt>
      <trkpt lat="43.24924" lon="-0.53838">
        <ele>208</ele>
        <time>2016-05-05T08:57:13</time>
      </trkpt>
      <trkpt lat="43.24909" lon="-0.53849">
        <ele>209</ele>
        <time>2016-05-05T08:57:18</time>
      </trkpt>
      <trkpt lat="43.249" lon="-0.5385">
        <ele>208</ele>
        <time>2016-05-05T08:57:23</time>
      </trkpt>
      <trkpt lat="43.24883" lon="-0.53847">
        <ele>208</ele>
        <time>2016-05-05T08:57:28</time>
      </trkpt>
      <trkpt lat="43.24868" lon="-0.5385">
        <ele>209</ele>
        <time>2016-05-05T08:57:33</time>
      </trkpt>
      <trkpt lat="43.24854" lon="-0.53853">
        <ele>209</ele>
        <time>2016-05-05T08:57:38</time>
      </trkpt>
      <trkpt lat="43.24843" lon="-0.53857">
        <ele>210</ele>
        <time>2016-05-05T08:57:43</time>
      </trkpt>
      <trkpt lat="43.2483" lon="-0.53863">
        <ele>210</ele>
        <time>2016-05-05T08:57:48</time>
      </trkpt>
      <trkpt lat="43.24817" lon="-0.5387">
        <ele>211</ele>
        <time>2016-05-05T08:57:53</time>
      </trkpt>
      <trkpt lat="43.24807" lon="-0.53882">
        <ele>211</ele>
        <time>2016-05-05T08:57:58</time>
      </trkpt>
      <trkpt lat="43.248" lon="-0.53891">
        <ele>213</ele>
        <time>2016-05-05T08:58:03</time>
      </trkpt>
      <trkpt lat="43.24794" lon="-0.53902">
        <ele>215</ele>
        <time>2016-05-05T08:58:09</time>
      </trkpt>
      <trkpt lat="43.24785" lon="-0.53914">
        <ele>215</ele>
        <time>2016-05-05T08:58:14</time>
      </trkpt>
      <trkpt lat="43.24775" lon="-0.5392">
        <ele>216</ele>
        <time>2016-05-05T08:58:19</time>
      </trkpt>
      <trkpt lat="43.24765" lon="-0.53925">
        <ele>216</ele>
        <time>2016-05-05T08:58:24</time>
      </trkpt>
      <trkpt lat="43.24754" lon="-0.53931">
        <ele>216</ele>
        <time>2016-05-05T08:58:29</time>
      </trkpt>
      <trkpt lat="43.24746" lon="-0.53936">
        <ele>218</ele>
        <time>2016-05-05T08:58:34</time>
      </trkpt>
      <trkpt lat="43.24736" lon="-0.53936">
        <ele>219</ele>
        <time>2016-05-05T08:58:39</time>
      </trkpt>
      <trkpt lat="43.24725" lon="-0.53936">
        <ele>220</ele>
        <time>2016-05-05T08:58:44</time>
      </trkpt>
      <trkpt lat="43.24713" lon="-0.53937">
        <ele>219</ele>
        <time>2016-05-05T08:58:49</time>
      </trkpt>
      <trkpt lat="43.24701" lon="-0.53935">
        <ele>220</ele>
        <time>2016-05-05T08:58:54</time>
      </trkpt>
      <trkpt lat="43.24688" lon="-0.53932">
        <ele>220</ele>
        <time>2016-05-05T08:58:59</time>
      </trkpt>
      <trkpt lat="43.24675" lon="-0.53931">
        <ele>220</ele>
        <time>2016-05-05T08:59:04</time>
      </trkpt>
      <trkpt lat="43.24665" lon="-0.5393">
        <ele>221</ele>
        <time>2016-05-05T08:59:09</time>
      </trkpt>
      <trkpt lat="43.24651" lon="-0.53927">
        <ele>222</ele>
        <time>2016-05-05T08:59:14</time>
      </trkpt>
      <trkpt lat="43.24639" lon="-0.53927">
        <ele>224</ele>
        <time>2016-05-05T08:59:19</time>
      </trkpt>
      <trkpt lat="43.24628" lon="-0.53925">
        <ele>224</ele>
        <time>2016-05-05T08:59:24</time>
      </trkpt>
      <trkpt lat="43.24619" lon="-0.53921">
        <ele>225</ele>
        <time>2016-05-05T08:59:29</time>
      </trkpt>
      <trkpt lat="43.24609" lon="-0.5392">
        <ele>225</ele>
        <time>2016-05-05T08:59:34</time>
      </trkpt>
      <trkpt lat="43.24597" lon="-0.5392">
        <ele>226</ele>
        <time>2016-05-05T08:59:39</time>
      </trkpt>
      <trkpt lat="43.24585" lon="-0.53922">
        <ele>229</ele>
        <time>2016-05-05T08:59:44</time>
      </trkpt>
      <trkpt lat="43.2457" lon="-0.53926">
        <ele>228</ele>
        <time>2016-05-05T08:59:49</time>
      </trkpt>
      <trkpt lat="43.24556" lon="-0.53929">
        <ele>229</ele>
        <time>2016-05-05T08:59:54</time>
      </trkpt>
      <trkpt lat="43.24541" lon="-0.53931">
        <ele>229</ele>
        <time>2016-05-05T08:59:59</time>
      </trkpt>
      <trkpt lat="43.24527" lon="-0.53935">
        <ele>229</ele>
        <time>2016-05-05T09:00:04</time>
      </trkpt>
      <trkpt lat="43.24517" lon="-0.53939">
        <ele>229</ele>
        <time>2016-05-05T09:00:09</time>
      </trkpt>
      <trkpt lat="43.24511" lon="-0.53942">
        <ele>230</ele>
        <time>2016-05-05T09:00:14</time>
      </trkpt>
      <trkpt lat="43.24497" lon="-0.53944">
        <ele>230</ele>
        <time>2016-05-05T09:00:20</time>
      </trkpt>
      <trkpt lat="43.24484" lon="-0.53945">
        <ele>231</ele>
        <time>2016-05-05T09:00:25</time>
      </trkpt>
      <trkpt lat="43.24472" lon="-0.53946">
        <ele>233</ele>
        <time>2016-05-05T09:00:30</time>
      </trkpt>
      <trkpt lat="43.24461" lon="-0.53949">
        <ele>233</ele>
        <time>2016-05-05T09:00:35</time>
      </trkpt>
      <trkpt lat="43.2445" lon="-0.53951">
        <ele>234</ele>
        <time>2016-05-05T09:00:40</time>
      </trkpt>
      <trkpt lat="43.2444" lon="-0.53951">
        <ele>233</ele>
        <time>2016-05-05T09:00:45</time>
      </trkpt>
      <trkpt lat="43.2443" lon="-0.53954">
        <ele>235</ele>
        <time>2016-05-05T09:00:50</time>
      </trkpt>
      <trkpt lat="43.24421" lon="-0.53957">
        <ele>236</ele>
        <time>2016-05-05T09:00:55</time>
      </trkpt>
      <trkpt lat="43.24413" lon="-0.5396">
        <ele>238</ele>
        <time>2016-05-05T09:01:00</time>
      </trkpt>
      <trkpt lat="43.24406" lon="-0.53962">
        <ele>240</ele>
        <time>2016-05-05T09:01:05</time>
      </trkpt>
      <trkpt lat="43.24401" lon="-0.53964">
        <ele>240</ele>
        <time>2016-05-05T09:01:10</time>
      </trkpt>
      <trkpt lat="43.24398" lon="-0.53966">
        <ele>243</ele>
        <time>2016-05-05T09:01:15</time>
      </trkpt>
      <trkpt lat="43.24392" lon="-0.53966">
        <ele>243</ele>
        <time>2016-05-05T09:01:20</time>
      </trkpt>
      <trkpt lat="43.2439" lon="-0.53966">
        <ele>243</ele>
        <time>2016-05-05T09:01:25</time>
      </trkpt>
      <trkpt lat="43.24387" lon="-0.53966">
        <ele>243</ele>
        <time>2016-05-05T09:01:30</time>
      </trkpt>
      <trkpt lat="43.24385" lon="-0.53966">
        <ele>244</ele>
        <time>2016-05-05T09:01:35</time>
      </trkpt>
      <trkpt lat="43.24382" lon="-0.53965">
        <ele>244</ele>
        <time>2016-05-05T09:01:40</time>
      </trkpt>
      <trkpt lat="43.24378" lon="-0.53963">
        <ele>243</ele>
        <time>2016-05-05T09:01:45</time>
      </trkpt>
      <trkpt lat="43.24372" lon="-0.53961">
        <ele>245</ele>
        <time>2016-05-05T09:01:50</time>
      </trkpt>
      <trkpt lat="43.24366" lon="-0.53958">
        <ele>248</ele>
        <time>2016-05-05T09:01:55</time>
      </trkpt>
      <trkpt lat="43.24361" lon="-0.53957">
        <ele>248</ele>
        <time>2016-05-05T09:02:00</time>
      </trkpt>
      <trkpt lat="43.24355" lon="-0.53955">
        <ele>251</ele>
        <time>2016-05-05T09:02:05</time>
      </trkpt>
      <trkpt lat="43.2435" lon="-0.53952">
        <ele>251</ele>
        <time>2016-05-05T09:02:10</time>
      </trkpt>
      <trkpt lat="43.24348" lon="-0.5395">
        <ele>253</ele>
        <time>2016-05-05T09:02:16</time>
      </trkpt>
      <trkpt lat="43.24343" lon="-0.53948">
        <ele>254</ele>
        <time>2016-05-05T09:02:21</time>
      </trkpt>
      <trkpt lat="43.24339" lon="-0.53944">
        <ele>254</ele>
        <time>2016-05-05T09:02:26</time>
      </trkpt>
      <trkpt lat="43.24334" lon="-0.5394">
        <ele>256</ele>
        <time>2016-05-05T09:02:31</time>
      </trkpt>
      <trkpt lat="43.24329" lon="-0.53934">
        <ele>259</ele>
        <time>2016-05-05T09:02:36</time>
      </trkpt>
      <trkpt lat="43.24324" lon="-0.53925">
        <ele>260</ele>
        <time>2016-05-05T09:02:41</time>
      </trkpt>
      <trkpt lat="43.24322" lon="-0.53917">
        <ele>262</ele>
        <time>2016-05-05T09:02:46</time>
      </trkpt>
      <trkpt lat="43.24321" lon="-0.53908">
        <ele>262</ele>
        <time>2016-05-05T09:02:51</time>
      </trkpt>
      <trkpt lat="43.24321" lon="-0.539">
        <ele>266</ele>
        <time>2016-05-05T09:02:56</time>
      </trkpt>
      <trkpt lat="43.24322" lon="-0.53895">
        <ele>266</ele>
        <time>2016-05-05T09:03:01</time>
      </trkpt>
      <trkpt lat="43.24323" lon="-0.53887">
        <ele>267</ele>
        <time>2016-05-05T09:03:06</time>
      </trkpt>
      <trkpt lat="43.24324" lon="-0.5388">
        <ele>268</ele>
        <time>2016-05-05T09:03:11</time>
      </trkpt>
      <trkpt lat="43.24326" lon="-0.53873">
        <ele>270</ele>
        <time>2016-05-05T09:03:16</time>
      </trkpt>
      <trkpt lat="43.24327" lon="-0.53866">
        <ele>269</ele>
        <time>2016-05-05T09:03:21</time>
      </trkpt>
      <trkpt lat="43.24327" lon="-0.53862">
        <ele>271</ele>
        <time>2016-05-05T09:03:26</time>
      </trkpt>
      <trkpt lat="43.24327" lon="-0.53857">
        <ele>272</ele>
        <time>2016-05-05T09:03:31</time>
      </trkpt>
      <trkpt lat="43.24328" lon="-0.53852">
        <ele>272</ele>
        <time>2016-05-05T09:03:36</time>
      </trkpt>
      <trkpt lat="43.24328" lon="-0.53846">
        <ele>273</ele>
        <time>2016-05-05T09:03:41</time>
      </trkpt>
      <trkpt lat="43.24328" lon="-0.53842">
        <ele>274</ele>
        <time>2016-05-05T09:03:46</time>
      </trkpt>
      <trkpt lat="43.24327" lon="-0.53836">
        <ele>276</ele>
        <time>2016-05-05T09:03:51</time>
      </trkpt>
      <trkpt lat="43.24327" lon="-0.53832">
        <ele>276</ele>
        <time>2016-05-05T09:03:56</time>
      </trkpt>
      <trkpt lat="43.24327" lon="-0.53827">
        <ele>277</ele>
        <time>2016-05-05T09:04:01</time>
      </trkpt>
      <trkpt lat="43.24327" lon="-0.53822">
        <ele>278</ele>
        <time>2016-05-05T09:04:06</time>
      </trkpt>
      <trkpt lat="43.24326" lon="-0.53817">
        <ele>280</ele>
        <time>2016-05-05T09:04:11</time>
      </trkpt>
      <trkpt lat="43.24325" lon="-0.53813">
        <ele>280</ele>
        <time>2016-05-05T09:04:16</time>
      </trkpt>
      <trkpt lat="43.24324" lon="-0.53809">
        <ele>282</ele>
        <time>2016-05-05T09:04:22</time>
      </trkpt>
      <trkpt lat="43.24324" lon="-0.53805">
        <ele>282</ele>
        <time>2016-05-05T09:04:27</time>
      </trkpt>
      <trkpt lat="43.24323" lon="-0.53804">
        <ele>283</ele>
        <time>2016-05-05T09:04:32</time>
      </trkpt>
      <trkpt lat="43.24317" lon="-0.53803">
        <ele>284</ele>
        <time>2016-05-05T09:04:37</time>
      </trkpt>
      <trkpt lat="43.24313" lon="-0.53797">
        <ele>283</ele>
        <time>2016-05-05T09:04:42</time>
      </trkpt>
      <trkpt lat="43.24308" lon="-0.53791">
        <ele>285</ele>
        <time>2016-05-05T09:04:47</time>
      </trkpt>
      <trkpt lat="43.24305" lon="-0.53786">
        <ele>286</ele>
        <time>2016-05-05T09:04:52</time>
      </trkpt>
      <trkpt lat="43.243" lon="-0.5378">
        <ele>287</ele>
        <time>2016-05-05T09:04:57</time>
      </trkpt>
      <trkpt lat="43.24295" lon="-0.53777">
        <ele>289</ele>
        <time>2016-05-05T09:05:02</time>
      </trkpt>
      <trkpt lat="43.2429" lon="-0.53774">
        <ele>290</ele>
        <time>2016-05-05T09:05:07</time>
      </trkpt>
      <trkpt lat="43.24286" lon="-0.53772">
        <ele>292</ele>
        <time>2016-05-05T09:05:12</time>
      </trkpt>
      <trkpt lat="43.24282" lon="-0.53771">
        <ele>293</ele>
        <time>2016-05-05T09:05:17</time>
      </trkpt>
      <trkpt lat="43.24278" lon="-0.53768">
        <ele>293</ele>
        <time>2016-05-05T09:05:22</time>
      </trkpt>
      <trkpt lat="43.24274" lon="-0.53768">
        <ele>295</ele>
        <time>2016-05-05T09:05:27</time>
      </trkpt>
      <trkpt lat="43.24269" lon="-0.53768">
        <ele>296</ele>
        <time>2016-05-05T09:05:32</time>
      </trkpt>
      <trkpt lat="43.24264" lon="-0.53767">
        <ele>297</ele>
        <time>2016-05-05T09:05:37</time>
      </trkpt>
      <trkpt lat="43.24258" lon="-0.53764">
        <ele>297</ele>
        <time>2016-05-05T09:05:42</time>
      </trkpt>
      <trkpt lat="43.24252" lon="-0.53761">
        <ele>298</ele>
        <time>2016-05-05T09:05:47</time>
      </trkpt>
      <trkpt lat="43.24245" lon="-0.53757">
        <ele>300</ele>
        <time>2016-05-05T09:05:52</time>
      </trkpt>
      <trkpt lat="43.2424" lon="-0.53754">
        <ele>302</ele>
        <time>2016-05-05T09:05:57</time>
      </trkpt>
      <trkpt lat="43.24234" lon="-0.53752">
        <ele>302</ele>
        <time>2016-05-05T09:06:02</time>
      </trkpt>
      <trkpt lat="43.24227" lon="-0.5375">
        <ele>302</ele>
        <time>2016-05-05T09:06:07</time>
      </trkpt>
      <trkpt lat="43.2422" lon="-0.53748">
        <ele>302</ele>
        <time>2016-05-05T09:06:12</time>
      </trkpt>
      <trkpt lat="43.24212" lon="-0.53748">
        <ele>303</ele>
        <time>2016-05-05T09:06:17</time>
      </trkpt>
      <trkpt lat="43.24202" lon="-0.5375">
        <ele>304</ele>
        <time>2016-05-05T09:06:23</time>
      </trkpt>
      <trkpt lat="43.24195" lon="-0.53752">
        <ele>304</ele>
        <time>2016-05-05T09:06:28</time>
      </trkpt>
      <trkpt lat="43.24189" lon="-0.53757">
        <ele>306</ele>
        <time>2016-05-05T09:06:33</time>
      </trkpt>
      <trkpt lat="43.24183" lon="-0.53764">
        <ele>307</ele>
        <time>2016-05-05T09:06:38</time>
      </trkpt>
      <trkpt lat="43.24178" lon="-0.53771">
        <ele>308</ele>
        <time>2016-05-05T09:06:43</time>
      </trkpt>
      <trkpt lat="43.24171" lon="-0.53777">
        <ele>308</ele>
        <time>2016-05-05T09:06:48</time>
      </trkpt>
      <trkpt lat="43.24163" lon="-0.53782">
        <ele>309</ele>
        <time>2016-05-05T09:06:53</time>
      </trkpt>
      <trkpt lat="43.24156" lon="-0.53787">
        <ele>309</ele>
        <time>2016-05-05T09:06:58</time>
      </trkpt>
      <trkpt lat="43.24149" lon="-0.53791">
        <ele>310</ele>
        <time>2016-05-05T09:07:03</time>
      </trkpt>
      <trkpt lat="43.2414" lon="-0.53791">
        <ele>308</ele>
        <time>2016-05-05T09:07:08</time>
      </trkpt>
      <trkpt lat="43.2413" lon="-0.5379">
        <ele>310</ele>
        <time>2016-05-05T09:07:13</time>
      </trkpt>
      <trkpt lat="43.24114" lon="-0.53785">
        <ele>310</ele>
        <time>2016-05-05T09:07:18</time>
      </trkpt>
      <trkpt lat="43.24101" lon="-0.53777">
        <ele>309</ele>
        <time>2016-05-05T09:07:23</time>
      </trkpt>
      <trkpt lat="43.24083" lon="-0.5377">
        <ele>308</ele>
        <time>2016-05-05T09:07:28</time>
      </trkpt>
      <trkpt lat="43.24068" lon="-0.53768">
        <ele>310</ele>
        <time>2016-05-05T09:07:33</time>
      </trkpt>
      <trkpt lat="43.24051" lon="-0.53764">
        <ele>308</ele>
        <time>2016-05-05T09:07:38</time>
      </trkpt>
      <trkpt lat="43.24036" lon="-0.53758">
        <ele>308</ele>
        <time>2016-05-05T09:07:43</time>
      </trkpt>
      <trkpt lat="43.24021" lon="-0.53756">
        <ele>310</ele>
        <time>2016-05-05T09:07:48</time>
      </trkpt>
      <trkpt lat="43.24002" lon="-0.53758">
        <ele>309</ele>
        <time>2016-05-05T09:07:53</time>
      </trkpt>
      <trkpt lat="43.23986" lon="-0.5376">
        <ele>310</ele>
        <time>2016-05-05T09:07:58</time>
      </trkpt>
      <trkpt lat="43.23969" lon="-0.53758">
        <ele>310</ele>
        <time>2016-05-05T09:08:03</time>
      </trkpt>
      <trkpt lat="43.23956" lon="-0.53757">
        <ele>313</ele>
        <time>2016-05-05T09:08:08</time>
      </trkpt>
      <trkpt lat="43.23943" lon="-0.53755">
        <ele>313</ele>
        <time>2016-05-05T09:08:13</time>
      </trkpt>
      <trkpt lat="43.23934" lon="-0.53754">
        <ele>316</ele>
        <time>2016-05-05T09:08:18</time>
      </trkpt>
      <trkpt lat="43.23921" lon="-0.53751">
        <ele>316</ele>
        <time>2016-05-05T09:08:23</time>
      </trkpt>
      <trkpt lat="43.23909" lon="-0.53747">
        <ele>318</ele>
        <time>2016-05-05T09:08:29</time>
      </trkpt>
      <trkpt lat="43.23897" lon="-0.53741">
        <ele>317</ele>
        <time>2016-05-05T09:08:34</time>
      </trkpt>
      <trkpt lat="43.23885" lon="-0.53736">
        <ele>318</ele>
        <time>2016-05-05T09:08:39</time>
      </trkpt>
      <trkpt lat="43.23872" lon="-0.53732">
        <ele>318</ele>
        <time>2016-05-05T09:08:44</time>
      </trkpt>
      <trkpt lat="43.23856" lon="-0.5373">
        <ele>319</ele>
        <time>2016-05-05T09:08:49</time>
      </trkpt>
      <trkpt lat="43.23836" lon="-0.53723">
        <ele>318</ele>
        <time>2016-05-05T09:08:54</time>
      </trkpt>
      <trkpt lat="43.23815" lon="-0.53712">
        <ele>317</ele>
        <time>2016-05-05T09:08:59</time>
      </trkpt>
      <trkpt lat="43.23795" lon="-0.53702">
        <ele>317</ele>
        <time>2016-05-05T09:09:04</time>
      </trkpt>
      <trkpt lat="43.23777" lon="-0.53694">
        <ele>316</ele>
        <time>2016-05-05T09:09:09</time>
      </trkpt>
      <trkpt lat="43.2376" lon="-0.53697">
        <ele>316</ele>
        <time>2016-05-05T09:09:14</time>
      </trkpt>
      <trkpt lat="43.23745" lon="-0.537">
        <ele>317</ele>
        <time>2016-05-05T09:09:19</time>
      </trkpt>
      <trkpt lat="43.23727" lon="-0.53702">
        <ele>316</ele>
        <time>2016-05-05T09:09:24</time>
      </trkpt>
      <trkpt lat="43.23711" lon="-0.53699">
        <ele>317</ele>
        <time>2016-05-05T09:09:29</time>
      </trkpt>
      <trkpt lat="43.23696" lon="-0.53698">
        <ele>318</ele>
        <time>2016-05-05T09:09:34</time>
      </trkpt>
      <trkpt lat="43.23679" lon="-0.53699">
        <ele>319</ele>
        <time>2016-05-05T09:09:39</time>
      </trkpt>
      <trkpt lat="43.23663" lon="-0.53703">
        <ele>319</ele>
        <time>2016-05-05T09:09:44</time>
      </trkpt>
      <trkpt lat="43.23645" lon="-0.53702">
        <ele>318</ele>
        <time>2016-05-05T09:09:49</time>
      </trkpt>
      <trkpt lat="43.23627" lon="-0.53698">
        <ele>317</ele>
        <time>2016-05-05T09:09:54</time>
      </trkpt>
      <trkpt lat="43.23598" lon="-0.5369">
        <ele>316</ele>
        <time>2016-05-05T09:09:59</time>
      </trkpt>
      <trkpt lat="43.23572" lon="-0.53678">
        <ele>316</ele>
        <time>2016-05-05T09:10:04</time>
      </trkpt>
      <trkpt lat="43.23549" lon="-0.53676">
        <ele>316</ele>
        <time>2016-05-05T09:10:09</time>
      </trkpt>
      <trkpt lat="43.23525" lon="-0.53678">
        <ele>316</ele>
        <time>2016-05-05T09:10:14</time>
      </trkpt>
      <trkpt lat="43.23502" lon="-0.53679">
        <ele>316</ele>
        <time>2016-05-05T09:10:19</time>
      </trkpt>
      <trkpt lat="43.2348" lon="-0.53678">
        <ele>317</ele>
        <time>2016-05-05T09:10:24</time>
      </trkpt>
      <trkpt lat="43.23459" lon="-0.53676">
        <ele>317</ele>
        <time>2016-05-05T09:10:29</time>
      </trkpt>
      <trkpt lat="43.23441" lon="-0.53678">
        <ele>317</ele>
        <time>2016-05-05T09:10:34</time>
      </trkpt>
      <trkpt lat="43.23421" lon="-0.53681">
        <ele>317</ele>
        <time>2016-05-05T09:10:39</time>
      </trkpt>
      <trkpt lat="43.23399" lon="-0.53683">
        <ele>318</ele>
        <time>2016-05-05T09:10:44</time>
      </trkpt>
      <trkpt lat="43.2338" lon="-0.53683">
        <ele>319</ele>
        <time>2016-05-05T09:10:49</time>
      </trkpt>
      <trkpt lat="43.23362" lon="-0.53683">
        <ele>319</ele>
        <time>2016-05-05T09:10:54</time>
      </trkpt>
      <trkpt lat="43.23344" lon="-0.53684">
        <ele>319</ele>
        <time>2016-05-05T09:10:59</time>
      </trkpt>
      <trkpt lat="43.23326" lon="-0.53685">
        <ele>319</ele>
        <time>2016-05-05T09:11:04</time>
      </trkpt>
      <trkpt lat="43.23309" lon="-0.53686">
        <ele>323</ele>
        <time>2016-05-05T09:11:09</time>
      </trkpt>
      <trkpt lat="43.23287" lon="-0.53688">
        <ele>321</ele>
        <time>2016-05-05T09:11:14</time>
      </trkpt>
      <trkpt lat="43.23257" lon="-0.53686">
        <ele>318</ele>
        <time>2016-05-05T09:11:20</time>
      </trkpt>
      <trkpt lat="43.23221" lon="-0.53682">
        <ele>318</ele>
        <time>2016-05-05T09:11:25</time>
      </trkpt>
      <trkpt lat="43.23188" lon="-0.53693">
        <ele>315</ele>
        <time>2016-05-05T09:11:30</time>
      </trkpt>
      <trkpt lat="43.23174" lon="-0.53705">
        <ele>315</ele>
        <time>2016-05-05T09:11:35</time>
      </trkpt>
      <trkpt lat="43.23159" lon="-0.53719">
        <ele>315</ele>
        <time>2016-05-05T09:11:40</time>
      </trkpt>
      <trkpt lat="43.23143" lon="-0.5373">
        <ele>314</ele>
        <time>2016-05-05T09:11:45</time>
      </trkpt>
      <trkpt lat="43.23127" lon="-0.53737">
        <ele>316</ele>
        <time>2016-05-05T09:11:50</time>
      </trkpt>
      <trkpt lat="43.23107" lon="-0.53744">
        <ele>317</ele>
        <time>2016-05-05T09:11:55</time>
      </trkpt>
      <trkpt lat="43.23093" lon="-0.53749">
        <ele>318</ele>
        <time>2016-05-05T09:12:00</time>
      </trkpt>
      <trkpt lat="43.23078" lon="-0.53754">
        <ele>318</ele>
        <time>2016-05-05T09:12:05</time>
      </trkpt>
      <trkpt lat="43.23066" lon="-0.53758">
        <ele>318</ele>
        <time>2016-05-05T09:12:10</time>
      </trkpt>
      <trkpt lat="43.23051" lon="-0.53764">
        <ele>321</ele>
        <time>2016-05-05T09:12:15</time>
      </trkpt>
      <trkpt lat="43.23036" lon="-0.53769">
        <ele>321</ele>
        <time>2016-05-05T09:12:20</time>
      </trkpt>
      <trkpt lat="43.23021" lon="-0.53774">
        <ele>322</ele>
        <time>2016-05-05T09:12:25</time>
      </trkpt>
      <trkpt lat="43.23005" lon="-0.53777">
        <ele>323</ele>
        <time>2016-05-05T09:12:30</time>
      </trkpt>
      <trkpt lat="43.2299" lon="-0.53778">
        <ele>323</ele>
        <time>2016-05-05T09:12:35</time>
      </trkpt>
      <trkpt lat="43.22974" lon="-0.53775">
        <ele>323</ele>
        <time>2016-05-05T09:12:40</time>
      </trkpt>
      <trkpt lat="43.22958" lon="-0.5377">
        <ele>324</ele>
        <time>2016-05-05T09:12:45</time>
      </trkpt>
      <trkpt lat="43.2294" lon="-0.53766">
        <ele>325</ele>
        <time>2016-05-05T09:12:50</time>
      </trkpt>
      <trkpt lat="43.22916" lon="-0.53767">
        <ele>323</ele>
        <time>2016-05-05T09:12:55</time>
      </trkpt>
      <trkpt lat="43.22898" lon="-0.53776">
        <ele>324</ele>
        <time>2016-05-05T09:13:00</time>
      </trkpt>
      <trkpt lat="43.22882" lon="-0.5379">
        <ele>324</ele>
        <time>2016-05-05T09:13:05</time>
      </trkpt>
      <trkpt lat="43.22869" lon="-0.53807">
        <ele>325</ele>
        <time>2016-05-05T09:13:10</time>
      </trkpt>
      <trkpt lat="43.22855" lon="-0.53825">
        <ele>325</ele>
        <time>2016-05-05T09:13:15</time>
      </trkpt>
      <trkpt lat="43.22841" lon="-0.53845">
        <ele>325</ele>
        <time>2016-05-05T09:13:20</time>
      </trkpt>
      <trkpt lat="43.22826" lon="-0.53862">
        <ele>325</ele>
        <time>2016-05-05T09:13:25</time>
      </trkpt>
      <trkpt lat="43.22806" lon="-0.53885">
        <ele>322</ele>
        <time>2016-05-05T09:13:31</time>
      </trkpt>
      <trkpt lat="43.22779" lon="-0.53916">
        <ele>318</ele>
        <time>2016-05-05T09:13:36</time>
      </trkpt>
      <trkpt lat="43.22748" lon="-0.53946">
        <ele>318</ele>
        <time>2016-05-05T09:13:41</time>
      </trkpt>
      <trkpt lat="43.22721" lon="-0.53973">
        <ele>319</ele>
        <time>2016-05-05T09:13:46</time>
      </trkpt>
      <trkpt lat="43.22697" lon="-0.53994">
        <ele>319</ele>
        <time>2016-05-05T09:13:51</time>
      </trkpt>
      <trkpt lat="43.22677" lon="-0.54013">
        <ele>319</ele>
        <time>2016-05-05T09:13:56</time>
      </trkpt>
      <trkpt lat="43.22661" lon="-0.54027">
        <ele>317</ele>
        <time>2016-05-05T09:14:01</time>
      </trkpt>
      <trkpt lat="43.22639" lon="-0.54044">
        <ele>317</ele>
        <time>2016-05-05T09:14:06</time>
      </trkpt>
      <trkpt lat="43.22623" lon="-0.54056">
        <ele>319</ele>
        <time>2016-05-05T09:14:11</time>
      </trkpt>
      <trkpt lat="43.2261" lon="-0.54066">
        <ele>320</ele>
        <time>2016-05-05T09:14:16</time>
      </trkpt>
      <trkpt lat="43.22598" lon="-0.54074">
        <ele>320</ele>
        <time>2016-05-05T09:14:21</time>
      </trkpt>
      <trkpt lat="43.22586" lon="-0.54082">
        <ele>323</ele>
        <time>2016-05-05T09:14:26</time>
      </trkpt>
      <trkpt lat="43.22575" lon="-0.5409">
        <ele>323</ele>
        <time>2016-05-05T09:14:31</time>
      </trkpt>
      <trkpt lat="43.22564" lon="-0.54098">
        <ele>325</ele>
        <time>2016-05-05T09:14:36</time>
      </trkpt>
      <trkpt lat="43.22552" lon="-0.54105">
        <ele>326</ele>
        <time>2016-05-05T09:14:41</time>
      </trkpt>
      <trkpt lat="43.22541" lon="-0.54113">
        <ele>327</ele>
        <time>2016-05-05T09:14:46</time>
      </trkpt>
      <trkpt lat="43.22529" lon="-0.54119">
        <ele>328</ele>
        <time>2016-05-05T09:14:51</time>
      </trkpt>
      <trkpt lat="43.22516" lon="-0.54126">
        <ele>329</ele>
        <time>2016-05-05T09:14:56</time>
      </trkpt>
      <trkpt lat="43.22504" lon="-0.54132">
        <ele>329</ele>
        <time>2016-05-05T09:15:01</time>
      </trkpt>
      <trkpt lat="43.22489" lon="-0.54143">
        <ele>330</ele>
        <time>2016-05-05T09:15:06</time>
      </trkpt>
      <trkpt lat="43.22475" lon="-0.54159">
        <ele>329</ele>
        <time>2016-05-05T09:15:11</time>
      </trkpt>
      <trkpt lat="43.22462" lon="-0.54174">
        <ele>330</ele>
        <time>2016-05-05T09:15:16</time>
      </trkpt>
      <trkpt lat="43.22451" lon="-0.54185">
        <ele>331</ele>
        <time>2016-05-05T09:15:21</time>
      </trkpt>
      <trkpt lat="43.22441" lon="-0.54191">
        <ele>330</ele>
        <time>2016-05-05T09:15:26</time>
      </trkpt>
      <trkpt lat="43.22432" lon="-0.54199">
        <ele>331</ele>
        <time>2016-05-05T09:15:31</time>
      </trkpt>
      <trkpt lat="43.22438" lon="-0.54208">
        <ele>333</ele>
        <time>2016-05-05T09:15:36</time>
      </trkpt>
      <trkpt lat="43.22446" lon="-0.54217">
        <ele>334</ele>
        <time>2016-05-05T09:15:41</time>
      </trkpt>
      <trkpt lat="43.22455" lon="-0.54229">
        <ele>337</ele>
        <time>2016-05-05T09:15:46</time>
      </trkpt>
      <trkpt lat="43.2246" lon="-0.54247">
        <ele>336</ele>
        <time>2016-05-05T09:15:51</time>
      </trkpt>
      <trkpt lat="43.22465" lon="-0.54267">
        <ele>338</ele>
        <time>2016-05-05T09:15:56</time>
      </trkpt>
      <trkpt lat="43.22467" lon="-0.54288">
        <ele>339</ele>
        <time>2016-05-05T09:16:01</time>
      </trkpt>
      <trkpt lat="43.22468" lon="-0.5431">
        <ele>339</ele>
        <time>2016-05-05T09:16:06</time>
      </trkpt>
      <trkpt lat="43.22468" lon="-0.54331">
        <ele>338</ele>
        <time>2016-05-05T09:16:12</time>
      </trkpt>
      <trkpt lat="43.22469" lon="-0.54352">
        <ele>340</ele>
        <time>2016-05-05T09:16:17</time>
      </trkpt>
      <trkpt lat="43.22472" lon="-0.54374">
        <ele>341</ele>
        <time>2016-05-05T09:16:22</time>
      </trkpt>
      <trkpt lat="43.22481" lon="-0.54394">
        <ele>341</ele>
        <time>2016-05-05T09:16:27</time>
      </trkpt>
      <trkpt lat="43.22489" lon="-0.54409">
        <ele>342</ele>
        <time>2016-05-05T09:16:32</time>
      </trkpt>
      <trkpt lat="43.22493" lon="-0.54427">
        <ele>345</ele>
        <time>2016-05-05T09:16:37</time>
      </trkpt>
      <trkpt lat="43.22495" lon="-0.54446">
        <ele>347</ele>
        <time>2016-05-05T09:16:42</time>
      </trkpt>
      <trkpt lat="43.22495" lon="-0.54461">
        <ele>346</ele>
        <time>2016-05-05T09:16:47</time>
      </trkpt>
      <trkpt lat="43.22495" lon="-0.54484">
        <ele>346</ele>
        <time>2016-05-05T09:16:52</time>
      </trkpt>
      <trkpt lat="43.22494" lon="-0.54512">
        <ele>345</ele>
        <time>2016-05-05T09:16:57</time>
      </trkpt>
      <trkpt lat="43.22495" lon="-0.54549">
        <ele>345</ele>
        <time>2016-05-05T09:17:02</time>
      </trkpt>
      <trkpt lat="43.22498" lon="-0.54593">
        <ele>343</ele>
        <time>2016-05-05T09:17:07</time>
      </trkpt>
      <trkpt lat="43.22501" lon="-0.54633">
        <ele>340</ele>
        <time>2016-05-05T09:17:12</time>
      </trkpt>
      <trkpt lat="43.22504" lon="-0.54682">
        <ele>338</ele>
        <time>2016-05-05T09:17:17</time>
      </trkpt>
      <trkpt lat="43.22504" lon="-0.54744">
        <ele>336</ele>
        <time>2016-05-05T09:17:22</time>
      </trkpt>
      <trkpt lat="43.22497" lon="-0.54807">
        <ele>333</ele>
        <time>2016-05-05T09:17:27</time>
      </trkpt>
      <trkpt lat="43.22492" lon="-0.54853">
        <ele>331</ele>
        <time>2016-05-05T09:17:32</time>
      </trkpt>
      <trkpt lat="43.2249" lon="-0.54893">
        <ele>331</ele>
        <time>2016-05-05T09:17:37</time>
      </trkpt>
      <trkpt lat="43.22496" lon="-0.54921">
        <ele>331</ele>
        <time>2016-05-05T09:17:42</time>
      </trkpt>
      <trkpt lat="43.22504" lon="-0.54944">
        <ele>332</ele>
        <time>2016-05-05T09:17:47</time>
      </trkpt>
      <trkpt lat="43.22515" lon="-0.54965">
        <ele>332</ele>
        <time>2016-05-05T09:17:52</time>
      </trkpt>
      <trkpt lat="43.22525" lon="-0.54987">
        <ele>333</ele>
        <time>2016-05-05T09:17:57</time>
      </trkpt>
      <trkpt lat="43.22531" lon="-0.55009">
        <ele>334</ele>
        <time>2016-05-05T09:18:03</time>
      </trkpt>
      <trkpt lat="43.22533" lon="-0.5503">
        <ele>333</ele>
        <time>2016-05-05T09:18:08</time>
      </trkpt>
      <trkpt lat="43.22533" lon="-0.55053">
        <ele>336</ele>
        <time>2016-05-05T09:18:13</time>
      </trkpt>
      <trkpt lat="43.22533" lon="-0.55074">
        <ele>336</ele>
        <time>2016-05-05T09:18:18</time>
      </trkpt>
      <trkpt lat="43.22532" lon="-0.55095">
        <ele>339</ele>
        <time>2016-05-05T09:18:23</time>
      </trkpt>
      <trkpt lat="43.22532" lon="-0.55117">
        <ele>339</ele>
        <time>2016-05-05T09:18:28</time>
      </trkpt>
      <trkpt lat="43.22534" lon="-0.55138">
        <ele>338</ele>
        <time>2016-05-05T09:18:33</time>
      </trkpt>
      <trkpt lat="43.22538" lon="-0.55162">
        <ele>339</ele>
        <time>2016-05-05T09:18:38</time>
      </trkpt>
      <trkpt lat="43.22544" lon="-0.55181">
        <ele>340</ele>
        <time>2016-05-05T09:18:43</time>
      </trkpt>
      <trkpt lat="43.22554" lon="-0.55198">
        <ele>341</ele>
        <time>2016-05-05T09:18:48</time>
      </trkpt>
      <trkpt lat="43.22564" lon="-0.55213">
        <ele>343</ele>
        <time>2016-05-05T09:18:53</time>
      </trkpt>
      <trkpt lat="43.22571" lon="-0.55226">
        <ele>345</ele>
        <time>2016-05-05T09:18:58</time>
      </trkpt>
      <trkpt lat="43.22579" lon="-0.55245">
        <ele>346</ele>
        <time>2016-05-05T09:19:03</time>
      </trkpt>
      <trkpt lat="43.22585" lon="-0.55265">
        <ele>347</ele>
        <time>2016-05-05T09:19:08</time>
      </trkpt>
      <trkpt lat="43.22589" lon="-0.55285">
        <ele>347</ele>
        <time>2016-05-05T09:19:13</time>
      </trkpt>
      <trkpt lat="43.22592" lon="-0.55305">
        <ele>349</ele>
        <time>2016-05-05T09:19:18</time>
      </trkpt>
      <trkpt lat="43.22593" lon="-0.55323">
        <ele>350</ele>
        <time>2016-05-05T09:19:23</time>
      </trkpt>
      <trkpt lat="43.22594" lon="-0.55337">
        <ele>350</ele>
        <time>2016-05-05T09:19:28</time>
      </trkpt>
      <trkpt lat="43.22595" lon="-0.5535">
        <ele>352</ele>
        <time>2016-05-05T09:19:33</time>
      </trkpt>
      <trkpt lat="43.22598" lon="-0.55363">
        <ele>352</ele>
        <time>2016-05-05T09:19:38</time>
      </trkpt>
      <trkpt lat="43.22603" lon="-0.55374">
        <ele>354</ele>
        <time>2016-05-05T09:19:43</time>
      </trkpt>
      <trkpt lat="43.22609" lon="-0.55388">
        <ele>355</ele>
        <time>2016-05-05T09:19:48</time>
      </trkpt>
      <trkpt lat="43.22616" lon="-0.55401">
        <ele>357</ele>
        <time>2016-05-05T09:19:53</time>
      </trkpt>
      <trkpt lat="43.22623" lon="-0.55413">
        <ele>358</ele>
        <time>2016-05-05T09:19:58</time>
      </trkpt>
      <trkpt lat="43.2263" lon="-0.55426">
        <ele>358</ele>
        <time>2016-05-05T09:20:04</time>
      </trkpt>
      <trkpt lat="43.22638" lon="-0.55438">
        <ele>358</ele>
        <time>2016-05-05T09:20:09</time>
      </trkpt>
      <trkpt lat="43.22646" lon="-0.55449">
        <ele>359</ele>
        <time>2016-05-05T09:20:14</time>
      </trkpt>
      <trkpt lat="43.22654" lon="-0.5546">
        <ele>360</ele>
        <time>2016-05-05T09:20:19</time>
      </trkpt>
      <trkpt lat="43.22664" lon="-0.55474">
        <ele>360</ele>
        <time>2016-05-05T09:20:24</time>
      </trkpt>
      <trkpt lat="43.22673" lon="-0.5549">
        <ele>360</ele>
        <time>2016-05-05T09:20:29</time>
      </trkpt>
      <trkpt lat="43.22683" lon="-0.55512">
        <ele>361</ele>
        <time>2016-05-05T09:20:34</time>
      </trkpt>
      <trkpt lat="43.22697" lon="-0.55542">
        <ele>360</ele>
        <time>2016-05-05T09:20:39</time>
      </trkpt>
      <trkpt lat="43.22712" lon="-0.55578">
        <ele>358</ele>
        <time>2016-05-05T09:20:44</time>
      </trkpt>
      <trkpt lat="43.22729" lon="-0.55624">
        <ele>357</ele>
        <time>2016-05-05T09:20:49</time>
      </trkpt>
      <trkpt lat="43.22746" lon="-0.55664">
        <ele>356</ele>
        <time>2016-05-05T09:20:54</time>
      </trkpt>
      <trkpt lat="43.22757" lon="-0.55694">
        <ele>356</ele>
        <time>2016-05-05T09:20:59</time>
      </trkpt>
      <trkpt lat="43.2276" lon="-0.55706">
        <ele>357</ele>
        <time>2016-05-05T09:21:04</time>
      </trkpt>
      <trkpt lat="43.22755" lon="-0.5572">
        <ele>356</ele>
        <time>2016-05-05T09:21:09</time>
      </trkpt>
      <trkpt lat="43.22752" lon="-0.55737">
        <ele>355</ele>
        <time>2016-05-05T09:21:14</time>
      </trkpt>
      <trkpt lat="43.22745" lon="-0.55762">
        <ele>350</ele>
        <time>2016-05-05T09:21:19</time>
      </trkpt>
      <trkpt lat="43.22747" lon="-0.55783">
        <ele>346</ele>
        <time>2016-05-05T09:21:24</time>
      </trkpt>
      <trkpt lat="43.22754" lon="-0.55801">
        <ele>342</ele>
        <time>2016-05-05T09:21:29</time>
      </trkpt>
      <trkpt lat="43.22751" lon="-0.55813">
        <ele>339</ele>
        <time>2016-05-05T09:21:34</time>
      </trkpt>
      <trkpt lat="43.22737" lon="-0.55812">
        <ele>334</ele>
        <time>2016-05-05T09:21:39</time>
      </trkpt>
      <trkpt lat="43.22723" lon="-0.55813">
        <ele>329</ele>
        <time>2016-05-05T09:21:44</time>
      </trkpt>
      <trkpt lat="43.22712" lon="-0.55814">
        <ele>327</ele>
        <time>2016-05-05T09:21:49</time>
      </trkpt>
      <trkpt lat="43.22701" lon="-0.55818">
        <ele>321</ele>
        <time>2016-05-05T09:21:54</time>
      </trkpt>
      <trkpt lat="43.22686" lon="-0.5582">
        <ele>317</ele>
        <time>2016-05-05T09:21:59</time>
      </trkpt>
      <trkpt lat="43.22665" lon="-0.55822">
        <ele>313</ele>
        <time>2016-05-05T09:22:04</time>
      </trkpt>
      <trkpt lat="43.22637" lon="-0.55821">
        <ele>309</ele>
        <time>2016-05-05T09:22:09</time>
      </trkpt>
      <trkpt lat="43.22605" lon="-0.55825">
        <ele>303</ele>
        <time>2016-05-05T09:22:14</time>
      </trkpt>
      <trkpt lat="43.22579" lon="-0.5583">
        <ele>300</ele>
        <time>2016-05-05T09:22:19</time>
      </trkpt>
      <trkpt lat="43.22555" lon="-0.55844">
        <ele>293</ele>
        <time>2016-05-05T09:22:24</time>
      </trkpt>
      <trkpt lat="43.22537" lon="-0.55862">
        <ele>290</ele>
        <time>2016-05-05T09:22:29</time>
      </trkpt>
      <trkpt lat="43.22522" lon="-0.55893">
        <ele>289</ele>
        <time>2016-05-05T09:22:34</time>
      </trkpt>
      <trkpt lat="43.22525" lon="-0.55927">
        <ele>288</ele>
        <time>2016-05-05T09:22:40</time>
      </trkpt>
      <trkpt lat="43.22537" lon="-0.55954">
        <ele>287</ele>
        <time>2016-05-05T09:22:45</time>
      </trkpt>
      <trkpt lat="43.22551" lon="-0.55976">
        <ele>287</ele>
        <time>2016-05-05T09:22:50</time>
      </trkpt>
      <trkpt lat="43.22567" lon="-0.55995">
        <ele>287</ele>
        <time>2016-05-05T09:22:55</time>
      </trkpt>
      <trkpt lat="43.22581" lon="-0.5602">
        <ele>286</ele>
        <time>2016-05-05T09:23:00</time>
      </trkpt>
      <trkpt lat="43.22578" lon="-0.5606">
        <ele>285</ele>
        <time>2016-05-05T09:23:05</time>
      </trkpt>
      <trkpt lat="43.22574" lon="-0.56119">
        <ele>277</ele>
        <time>2016-05-05T09:23:10</time>
      </trkpt>
      <trkpt lat="43.22569" lon="-0.56187">
        <ele>271</ele>
        <time>2016-05-05T09:23:15</time>
      </trkpt>
      <trkpt lat="43.22546" lon="-0.56239">
        <ele>266</ele>
        <time>2016-05-05T09:23:20</time>
      </trkpt>
      <trkpt lat="43.22529" lon="-0.56275">
        <ele>262</ele>
        <time>2016-05-05T09:23:25</time>
      </trkpt>
      <trkpt lat="43.22527" lon="-0.56295">
        <ele>262</ele>
        <time>2016-05-05T09:23:30</time>
      </trkpt>
      <trkpt lat="43.22526" lon="-0.56313">
        <ele>261</ele>
        <time>2016-05-05T09:23:35</time>
      </trkpt>
      <trkpt lat="43.22499" lon="-0.56308">
        <ele>259</ele>
        <time>2016-05-05T09:23:40</time>
      </trkpt>
      <trkpt lat="43.22471" lon="-0.56269">
        <ele>255</ele>
        <time>2016-05-05T09:23:45</time>
      </trkpt>
      <trkpt lat="43.22432" lon="-0.56257">
        <ele>250</ele>
        <time>2016-05-05T09:23:50</time>
      </trkpt>
      <trkpt lat="43.22394" lon="-0.56258">
        <ele>248</ele>
        <time>2016-05-05T09:23:55</time>
      </trkpt>
      <trkpt lat="43.22363" lon="-0.5625">
        <ele>247</ele>
        <time>2016-05-05T09:24:00</time>
      </trkpt>
      <trkpt lat="43.22337" lon="-0.56254">
        <ele>247</ele>
        <time>2016-05-05T09:24:05</time>
      </trkpt>
      <trkpt lat="43.22318" lon="-0.56282">
        <ele>246</ele>
        <time>2016-05-05T09:24:10</time>
      </trkpt>
      <trkpt lat="43.22298" lon="-0.56307">
        <ele>246</ele>
        <time>2016-05-05T09:24:15</time>
      </trkpt>
      <trkpt lat="43.22278" lon="-0.56333">
        <ele>244</ele>
        <time>2016-05-05T09:24:20</time>
      </trkpt>
      <trkpt lat="43.22256" lon="-0.56365">
        <ele>245</ele>
        <time>2016-05-05T09:24:25</time>
      </trkpt>
      <trkpt lat="43.22236" lon="-0.56392">
        <ele>245</ele>
        <time>2016-05-05T09:24:30</time>
      </trkpt>
      <trkpt lat="43.22217" lon="-0.5642">
        <ele>244</ele>
        <time>2016-05-05T09:24:35</time>
      </trkpt>
      <trkpt lat="43.22198" lon="-0.56448">
        <ele>243</ele>
        <time>2016-05-05T09:24:40</time>
      </trkpt>
      <trkpt lat="43.22189" lon="-0.56475">
        <ele>244</ele>
        <time>2016-05-05T09:24:45</time>
      </trkpt>
      <trkpt lat="43.22188" lon="-0.5648">
        <ele>243</ele>
        <time>2016-05-05T09:24:50</time>
      </trkpt>
      <trkpt lat="43.22188" lon="-0.56482">
        <ele>243</ele>
        <time>2016-05-05T09:24:56</time>
      </trkpt>
      <trkpt lat="43.22188" lon="-0.56482">
        <ele>243</ele>
        <time>2016-05-05T09:25:01</time>
      </trkpt>
      <trkpt lat="43.22188" lon="-0.56483">
        <ele>242</ele>
        <time>2016-05-05T09:25:06</time>
      </trkpt>
      <trkpt lat="43.22189" lon="-0.56484">
        <ele>242</ele>
        <time>2016-05-05T09:25:11</time>
      </trkpt>
      <trkpt lat="43.22188" lon="-0.56485">
        <ele>243</ele>
        <time>2016-05-05T09:25:16</time>
      </trkpt>
      <trkpt lat="43.22188" lon="-0.56486">
        <ele>241</ele>
        <time>2016-05-05T09:25:21</time>
      </trkpt>
      <trkpt lat="43.22188" lon="-0.56486">
        <ele>242</ele>
        <time>2016-05-05T09:25:26</time>
      </trkpt>
      <trkpt lat="43.22188" lon="-0.56487">
        <ele>242</ele>
        <time>2016-05-05T09:25:31</time>
      </trkpt>
      <trkpt lat="43.22187" lon="-0.56487">
        <ele>242</ele>
        <time>2016-05-05T09:25:36</time>
      </trkpt>
      <trkpt lat="43.22188" lon="-0.56487">
        <ele>242</ele>
        <time>2016-05-05T09:25:41</time>
      </trkpt>
      <trkpt lat="43.22188" lon="-0.56487">
        <ele>242</ele>
        <time>2016-05-05T09:25:46</time>
      </trkpt>
      <trkpt lat="43.22188" lon="-0.56488">
        <ele>242</ele>
        <time>2016-05-05T09:25:51</time>
      </trkpt>
      <trkpt lat="43.22188" lon="-0.56488">
        <ele>242</ele>
        <time>2016-05-05T09:25:56</time>
      </trkpt>
      <trkpt lat="43.22188" lon="-0.56487">
        <ele>241</ele>
        <time>2016-05-05T09:26:01</time>
      </trkpt>
      <trkpt lat="43.22188" lon="-0.56487">
        <ele>242</ele>
        <time>2016-05-05T09:26:06</time>
      </trkpt>
      <trkpt lat="43.22187" lon="-0.56486">
        <ele>242</ele>
        <time>2016-05-05T09:26:11</time>
      </trkpt>
      <trkpt lat="43.22187" lon="-0.56486">
        <ele>242</ele>
        <time>2016-05-05T09:26:16</time>
      </trkpt>
      <trkpt lat="43.22187" lon="-0.56485">
        <ele>242</ele>
        <time>2016-05-05T09:26:21</time>
      </trkpt>
      <trkpt lat="43.22186" lon="-0.56485">
        <ele>243</ele>
        <time>2016-05-05T09:26:26</time>
      </trkpt>
      <trkpt lat="43.22186" lon="-0.56485">
        <ele>245</ele>
        <time>2016-05-05T09:26:31</time>
      </trkpt>
      <trkpt lat="43.22187" lon="-0.56484">
        <ele>244</ele>
        <time>2016-05-05T09:26:36</time>
      </trkpt>
      <trkpt lat="43.22187" lon="-0.56484">
        <ele>238</ele>
        <time>2016-05-05T09:26:41</time>
      </trkpt>
      <trkpt lat="43.22187" lon="-0.56484">
        <ele>243</ele>
        <time>2016-05-05T09:26:46</time>
      </trkpt>
      <trkpt lat="43.22187" lon="-0.56484">
        <ele>243</ele>
        <time>2016-05-05T09:26:51</time>
      </trkpt>
      <trkpt lat="43.22188" lon="-0.56485">
        <ele>243</ele>
        <time>2016-05-05T09:26:56</time>
      </trkpt>
      <trkpt lat="43.22186" lon="-0.56495">
        <ele>243</ele>
        <time>2016-05-05T09:27:01</time>
      </trkpt>
      <trkpt lat="43.22175" lon="-0.5651">
        <ele>244</ele>
        <time>2016-05-05T09:27:06</time>
      </trkpt>
      <trkpt lat="43.2216" lon="-0.56519">
        <ele>243</ele>
        <time>2016-05-05T09:27:11</time>
      </trkpt>
      <trkpt lat="43.22145" lon="-0.56529">
        <ele>245</ele>
        <time>2016-05-05T09:27:17</time>
      </trkpt>
      <trkpt lat="43.2213" lon="-0.56537">
        <ele>244</ele>
        <time>2016-05-05T09:27:22</time>
      </trkpt>
      <trkpt lat="43.22121" lon="-0.56545">
        <ele>245</ele>
        <time>2016-05-05T09:27:27</time>
      </trkpt>
      <trkpt lat="43.22131" lon="-0.56556">
        <ele>246</ele>
        <time>2016-05-05T09:27:32</time>
      </trkpt>
      <trkpt lat="43.22152" lon="-0.56571">
        <ele>246</ele>
        <time>2016-05-05T09:27:37</time>
      </trkpt>
      <trkpt lat="43.22171" lon="-0.56586">
        <ele>244</ele>
        <time>2016-05-05T09:27:42</time>
      </trkpt>
      <trkpt lat="43.22187" lon="-0.56601">
        <ele>246</ele>
        <time>2016-05-05T09:27:47</time>
      </trkpt>
      <trkpt lat="43.22202" lon="-0.56618">
        <ele>245</ele>
        <time>2016-05-05T09:27:52</time>
      </trkpt>
      <trkpt lat="43.22213" lon="-0.56638">
        <ele>246</ele>
        <time>2016-05-05T09:27:57</time>
      </trkpt>
      <trkpt lat="43.22224" lon="-0.56661">
        <ele>247</ele>
        <time>2016-05-05T09:28:02</time>
      </trkpt>
      <trkpt lat="43.22234" lon="-0.56689">
        <ele>245</ele>
        <time>2016-05-05T09:28:07</time>
      </trkpt>
      <trkpt lat="43.22242" lon="-0.56716">
        <ele>246</ele>
        <time>2016-05-05T09:28:12</time>
      </trkpt>
      <trkpt lat="43.22248" lon="-0.56744">
        <ele>245</ele>
        <time>2016-05-05T09:28:17</time>
      </trkpt>
      <trkpt lat="43.22252" lon="-0.5678">
        <ele>244</ele>
        <time>2016-05-05T09:28:22</time>
      </trkpt>
      <trkpt lat="43.22258" lon="-0.5681">
        <ele>244</ele>
        <time>2016-05-05T09:28:27</time>
      </trkpt>
      <trkpt lat="43.22269" lon="-0.56837">
        <ele>244</ele>
        <time>2016-05-05T09:28:32</time>
      </trkpt>
      <trkpt lat="43.22269" lon="-0.56865">
        <ele>243</ele>
        <time>2016-05-05T09:28:37</time>
      </trkpt>
      <trkpt lat="43.22268" lon="-0.56891">
        <ele>244</ele>
        <time>2016-05-05T09:28:42</time>
      </trkpt>
      <trkpt lat="43.22272" lon="-0.56912">
        <ele>244</ele>
        <time>2016-05-05T09:28:47</time>
      </trkpt>
      <trkpt lat="43.22281" lon="-0.56929">
        <ele>246</ele>
        <time>2016-05-05T09:28:52</time>
      </trkpt>
      <trkpt lat="43.22288" lon="-0.56945">
        <ele>246</ele>
        <time>2016-05-05T09:28:57</time>
      </trkpt>
      <trkpt lat="43.22296" lon="-0.56966">
        <ele>245</ele>
        <time>2016-05-05T09:29:02</time>
      </trkpt>
      <trkpt lat="43.22303" lon="-0.56984">
        <ele>246</ele>
        <time>2016-05-05T09:29:07</time>
      </trkpt>
      <trkpt lat="43.2231" lon="-0.57003">
        <ele>245</ele>
        <time>2016-05-05T09:29:12</time>
      </trkpt>
      <trkpt lat="43.22324" lon="-0.57026">
        <ele>245</ele>
        <time>2016-05-05T09:29:17</time>
      </trkpt>
      <trkpt lat="43.22337" lon="-0.57049">
        <ele>244</ele>
        <time>2016-05-05T09:29:22</time>
      </trkpt>
      <trkpt lat="43.2234" lon="-0.57073">
        <ele>245</ele>
        <time>2016-05-05T09:29:27</time>
      </trkpt>
      <trkpt lat="43.22346" lon="-0.57091">
        <ele>247</ele>
        <time>2016-05-05T09:29:32</time>
      </trkpt>
      <trkpt lat="43.2235" lon="-0.57103">
        <ele>246</ele>
        <time>2016-05-05T09:29:37</time>
      </trkpt>
      <trkpt lat="43.22352" lon="-0.57114">
        <ele>248</ele>
        <time>2016-05-05T09:29:42</time>
      </trkpt>
      <trkpt lat="43.22352" lon="-0.57125">
        <ele>252</ele>
        <time>2016-05-05T09:29:48</time>
      </trkpt>
      <trkpt lat="43.2235" lon="-0.57135">
        <ele>251</ele>
        <time>2016-05-05T09:29:53</time>
      </trkpt>
      <trkpt lat="43.22345" lon="-0.57144">
        <ele>254</ele>
        <time>2016-05-05T09:29:58</time>
      </trkpt>
      <trkpt lat="43.22341" lon="-0.57153">
        <ele>254</ele>
        <time>2016-05-05T09:30:03</time>
      </trkpt>
      <trkpt lat="43.22337" lon="-0.57162">
        <ele>254</ele>
        <time>2016-05-05T09:30:08</time>
      </trkpt>
      <trkpt lat="43.22335" lon="-0.57171">
        <ele>256</ele>
        <time>2016-05-05T09:30:13</time>
      </trkpt>
      <trkpt lat="43.2233" lon="-0.5718">
        <ele>256</ele>
        <time>2016-05-05T09:30:18</time>
      </trkpt>
      <trkpt lat="43.22326" lon="-0.57188">
        <ele>258</ele>
        <time>2016-05-05T09:30:23</time>
      </trkpt>
      <trkpt lat="43.22321" lon="-0.57196">
        <ele>260</ele>
        <time>2016-05-05T09:30:28</time>
      </trkpt>
      <trkpt lat="43.22317" lon="-0.57202">
        <ele>261</ele>
        <time>2016-05-05T09:30:33</time>
      </trkpt>
      <trkpt lat="43.22311" lon="-0.5721">
        <ele>262</ele>
        <time>2016-05-05T09:30:38</time>
      </trkpt>
      <trkpt lat="43.22306" lon="-0.57215">
        <ele>263</ele>
        <time>2016-05-05T09:30:43</time>
      </trkpt>
      <trkpt lat="43.22302" lon="-0.5722">
        <ele>263</ele>
        <time>2016-05-05T09:30:48</time>
      </trkpt>
      <trkpt lat="43.22297" lon="-0.57225">
        <ele>265</ele>
        <time>2016-05-05T09:30:53</time>
      </trkpt>
      <trkpt lat="43.22292" lon="-0.57229">
        <ele>268</ele>
        <time>2016-05-05T09:30:58</time>
      </trkpt>
      <trkpt lat="43.22287" lon="-0.57234">
        <ele>268</ele>
        <time>2016-05-05T09:31:03</time>
      </trkpt>
      <trkpt lat="43.22282" lon="-0.57239">
        <ele>272</ele>
        <time>2016-05-05T09:31:08</time>
      </trkpt>
      <trkpt lat="43.22279" lon="-0.57244">
        <ele>270</ele>
        <time>2016-05-05T09:31:13</time>
      </trkpt>
      <trkpt lat="43.22274" lon="-0.57249">
        <ele>272</ele>
        <time>2016-05-05T09:31:18</time>
      </trkpt>
      <trkpt lat="43.22269" lon="-0.57254">
        <ele>273</ele>
        <time>2016-05-05T09:31:23</time>
      </trkpt>
      <trkpt lat="43.22264" lon="-0.57258">
        <ele>273</ele>
        <time>2016-05-05T09:31:28</time>
      </trkpt>
      <trkpt lat="43.22258" lon="-0.57261">
        <ele>273</ele>
        <time>2016-05-05T09:31:33</time>
      </trkpt>
      <trkpt lat="43.22253" lon="-0.57264">
        <ele>276</ele>
        <time>2016-05-05T09:31:38</time>
      </trkpt>
      <trkpt lat="43.22246" lon="-0.57267">
        <ele>278</ele>
        <time>2016-05-05T09:31:43</time>
      </trkpt>
      <trkpt lat="43.2224" lon="-0.57269">
        <ele>278</ele>
        <time>2016-05-05T09:31:48</time>
      </trkpt>
      <trkpt lat="43.22235" lon="-0.57272">
        <ele>277</ele>
        <time>2016-05-05T09:31:54</time>
      </trkpt>
      <trkpt lat="43.2223" lon="-0.57274">
        <ele>277</ele>
        <time>2016-05-05T09:31:59</time>
      </trkpt>
      <trkpt lat="43.22225" lon="-0.57275">
        <ele>280</ele>
        <time>2016-05-05T09:32:04</time>
      </trkpt>
      <trkpt lat="43.2222" lon="-0.57277">
        <ele>281</ele>
        <time>2016-05-05T09:32:09</time>
      </trkpt>
      <trkpt lat="43.22215" lon="-0.57278">
        <ele>282</ele>
        <time>2016-05-05T09:32:14</time>
      </trkpt>
      <trkpt lat="43.22208" lon="-0.57278">
        <ele>283</ele>
        <time>2016-05-05T09:32:19</time>
      </trkpt>
      <trkpt lat="43.22201" lon="-0.57279">
        <ele>285</ele>
        <time>2016-05-05T09:32:24</time>
      </trkpt>
      <trkpt lat="43.22194" lon="-0.57279">
        <ele>285</ele>
        <time>2016-05-05T09:32:29</time>
      </trkpt>
      <trkpt lat="43.22187" lon="-0.57279">
        <ele>287</ele>
        <time>2016-05-05T09:32:34</time>
      </trkpt>
      <trkpt lat="43.2218" lon="-0.57276">
        <ele>287</ele>
        <time>2016-05-05T09:32:39</time>
      </trkpt>
      <trkpt lat="43.22174" lon="-0.57273">
        <ele>290</ele>
        <time>2016-05-05T09:32:44</time>
      </trkpt>
      <trkpt lat="43.22166" lon="-0.57269">
        <ele>289</ele>
        <time>2016-05-05T09:32:49</time>
      </trkpt>
      <trkpt lat="43.2216" lon="-0.57265">
        <ele>291</ele>
        <time>2016-05-05T09:32:54</time>
      </trkpt>
      <trkpt lat="43.22153" lon="-0.5726">
        <ele>291</ele>
        <time>2016-05-05T09:32:59</time>
      </trkpt>
      <trkpt lat="43.22145" lon="-0.57256">
        <ele>293</ele>
        <time>2016-05-05T09:33:04</time>
      </trkpt>
      <trkpt lat="43.22139" lon="-0.57252">
        <ele>292</ele>
        <time>2016-05-05T09:33:09</time>
      </trkpt>
      <trkpt lat="43.22132" lon="-0.57248">
        <ele>295</ele>
        <time>2016-05-05T09:33:14</time>
      </trkpt>
      <trkpt lat="43.22125" lon="-0.57244">
        <ele>293</ele>
        <time>2016-05-05T09:33:19</time>
      </trkpt>
      <trkpt lat="43.2212" lon="-0.57241">
        <ele>294</ele>
        <time>2016-05-05T09:33:24</time>
      </trkpt>
      <trkpt lat="43.22113" lon="-0.57237">
        <ele>296</ele>
        <time>2016-05-05T09:33:29</time>
      </trkpt>
      <trkpt lat="43.22107" lon="-0.57234">
        <ele>298</ele>
        <time>2016-05-05T09:33:34</time>
      </trkpt>
      <trkpt lat="43.221" lon="-0.5723">
        <ele>297</ele>
        <time>2016-05-05T09:33:39</time>
      </trkpt>
      <trkpt lat="43.22094" lon="-0.57227">
        <ele>297</ele>
        <time>2016-05-05T09:33:44</time>
      </trkpt>
      <trkpt lat="43.22087" lon="-0.57227">
        <ele>299</ele>
        <time>2016-05-05T09:33:49</time>
      </trkpt>
      <trkpt lat="43.2208" lon="-0.57231">
        <ele>299</ele>
        <time>2016-05-05T09:33:54</time>
      </trkpt>
      <trkpt lat="43.22075" lon="-0.5724">
        <ele>302</ele>
        <time>2016-05-05T09:33:59</time>
      </trkpt>
      <trkpt lat="43.2207" lon="-0.57246">
        <ele>303</ele>
        <time>2016-05-05T09:34:04</time>
      </trkpt>
      <trkpt lat="43.22064" lon="-0.57251">
        <ele>302</ele>
        <time>2016-05-05T09:34:09</time>
      </trkpt>
      <trkpt lat="43.22059" lon="-0.57257">
        <ele>305</ele>
        <time>2016-05-05T09:34:14</time>
      </trkpt>
      <trkpt lat="43.22055" lon="-0.57263">
        <ele>305</ele>
        <time>2016-05-05T09:34:20</time>
      </trkpt>
      <trkpt lat="43.2205" lon="-0.5727">
        <ele>305</ele>
        <time>2016-05-05T09:34:25</time>
      </trkpt>
      <trkpt lat="43.22046" lon="-0.57276">
        <ele>310</ele>
        <time>2016-05-05T09:34:30</time>
      </trkpt>
      <trkpt lat="43.22041" lon="-0.57282">
        <ele>308</ele>
        <time>2016-05-05T09:34:35</time>
      </trkpt>
      <trkpt lat="43.22037" lon="-0.57288">
        <ele>310</ele>
        <time>2016-05-05T09:34:40</time>
      </trkpt>
      <trkpt lat="43.22033" lon="-0.57294">
        <ele>313</ele>
        <time>2016-05-05T09:34:45</time>
      </trkpt>
      <trkpt lat="43.22028" lon="-0.573">
        <ele>313</ele>
        <time>2016-05-05T09:34:50</time>
      </trkpt>
      <trkpt lat="43.22024" lon="-0.57306">
        <ele>311</ele>
        <time>2016-05-05T09:34:55</time>
      </trkpt>
      <trkpt lat="43.22019" lon="-0.57313">
        <ele>314</ele>
        <time>2016-05-05T09:35:00</time>
      </trkpt>
      <trkpt lat="43.22014" lon="-0.57321">
        <ele>317</ele>
        <time>2016-05-05T09:35:05</time>
      </trkpt>
      <trkpt lat="43.22009" lon="-0.57328">
        <ele>319</ele>
        <time>2016-05-05T09:35:10</time>
      </trkpt>
      <trkpt lat="43.22004" lon="-0.57334">
        <ele>318</ele>
        <time>2016-05-05T09:35:15</time>
      </trkpt>
      <trkpt lat="43.21998" lon="-0.5734">
        <ele>318</ele>
        <time>2016-05-05T09:35:20</time>
      </trkpt>
      <trkpt lat="43.21992" lon="-0.57341">
        <ele>320</ele>
        <time>2016-05-05T09:35:25</time>
      </trkpt>
      <trkpt lat="43.21987" lon="-0.57338">
        <ele>320</ele>
        <time>2016-05-05T09:35:30</time>
      </trkpt>
      <trkpt lat="43.21981" lon="-0.57334">
        <ele>321</ele>
        <time>2016-05-05T09:35:35</time>
      </trkpt>
      <trkpt lat="43.21972" lon="-0.57328">
        <ele>322</ele>
        <time>2016-05-05T09:35:40</time>
      </trkpt>
      <trkpt lat="43.21961" lon="-0.5732">
        <ele>320</ele>
        <time>2016-05-05T09:35:45</time>
      </trkpt>
      <trkpt lat="43.2195" lon="-0.57305">
        <ele>322</ele>
        <time>2016-05-05T09:35:50</time>
      </trkpt>
      <trkpt lat="43.21939" lon="-0.57289">
        <ele>322</ele>
        <time>2016-05-05T09:35:55</time>
      </trkpt>
      <trkpt lat="43.21928" lon="-0.57275">
        <ele>323</ele>
        <time>2016-05-05T09:36:00</time>
      </trkpt>
      <trkpt lat="43.21917" lon="-0.5726">
        <ele>323</ele>
        <time>2016-05-05T09:36:05</time>
      </trkpt>
      <trkpt lat="43.21905" lon="-0.57245">
        <ele>322</ele>
        <time>2016-05-05T09:36:10</time>
      </trkpt>
      <trkpt lat="43.21887" lon="-0.57232">
        <ele>323</ele>
        <time>2016-05-05T09:36:15</time>
      </trkpt>
      <trkpt lat="43.21875" lon="-0.57231">
        <ele>322</ele>
        <time>2016-05-05T09:36:20</time>
      </trkpt>
      <trkpt lat="43.21865" lon="-0.57233">
        <ele>323</ele>
        <time>2016-05-05T09:36:26</time>
      </trkpt>
      <trkpt lat="43.21855" lon="-0.57234">
        <ele>326</ele>
        <time>2016-05-05T09:36:31</time>
      </trkpt>
      <trkpt lat="43.21847" lon="-0.57236">
        <ele>328</ele>
        <time>2016-05-05T09:36:36</time>
      </trkpt>
      <trkpt lat="43.21841" lon="-0.57236">
        <ele>328</ele>
        <time>2016-05-05T09:36:41</time>
      </trkpt>
      <trkpt lat="43.21834" lon="-0.57238">
        <ele>332</ele>
        <time>2016-05-05T09:36:46</time>
      </trkpt>
      <trkpt lat="43.21827" lon="-0.5724">
        <ele>334</ele>
        <time>2016-05-05T09:36:51</time>
      </trkpt>
      <trkpt lat="43.2182" lon="-0.57243">
        <ele>333</ele>
        <time>2016-05-05T09:36:56</time>
      </trkpt>
      <trkpt lat="43.21813" lon="-0.57245">
        <ele>333</ele>
        <time>2016-05-05T09:37:01</time>
      </trkpt>
      <trkpt lat="43.21807" lon="-0.57247">
        <ele>335</ele>
        <time>2016-05-05T09:37:06</time>
      </trkpt>
      <trkpt lat="43.218" lon="-0.57249">
        <ele>338</ele>
        <time>2016-05-05T09:37:11</time>
      </trkpt>
      <trkpt lat="43.21792" lon="-0.57252">
        <ele>336</ele>
        <time>2016-05-05T09:37:16</time>
      </trkpt>
      <trkpt lat="43.21782" lon="-0.57254">
        <ele>337</ele>
        <time>2016-05-05T09:37:21</time>
      </trkpt>
      <trkpt lat="43.21773" lon="-0.57256">
        <ele>340</ele>
        <time>2016-05-05T09:37:26</time>
      </trkpt>
      <trkpt lat="43.21765" lon="-0.57259">
        <ele>341</ele>
        <time>2016-05-05T09:37:31</time>
      </trkpt>
      <trkpt lat="43.21759" lon="-0.5726">
        <ele>341</ele>
        <time>2016-05-05T09:37:36</time>
      </trkpt>
      <trkpt lat="43.21752" lon="-0.57262">
        <ele>340</ele>
        <time>2016-05-05T09:37:41</time>
      </trkpt>
      <trkpt lat="43.21744" lon="-0.57263">
        <ele>343</ele>
        <time>2016-05-05T09:37:46</time>
      </trkpt>
      <trkpt lat="43.21736" lon="-0.57265">
        <ele>343</ele>
        <time>2016-05-05T09:37:51</time>
      </trkpt>
      <trkpt lat="43.21728" lon="-0.57265">
        <ele>346</ele>
        <time>2016-05-05T09:37:56</time>
      </trkpt>
      <trkpt lat="43.21722" lon="-0.57252">
        <ele>349</ele>
        <time>2016-05-05T09:38:01</time>
      </trkpt>
      <trkpt lat="43.21713" lon="-0.57235">
        <ele>347</ele>
        <time>2016-05-05T09:38:06</time>
      </trkpt>
      <trkpt lat="43.21705" lon="-0.57217">
        <ele>346</ele>
        <time>2016-05-05T09:38:11</time>
      </trkpt>
      <trkpt lat="43.21699" lon="-0.572">
        <ele>346</ele>
        <time>2016-05-05T09:38:16</time>
      </trkpt>
      <trkpt lat="43.21691" lon="-0.57182">
        <ele>345</ele>
        <time>2016-05-05T09:38:21</time>
      </trkpt>
      <trkpt lat="43.2168" lon="-0.57163">
        <ele>346</ele>
        <time>2016-05-05T09:38:26</time>
      </trkpt>
      <trkpt lat="43.2167" lon="-0.57137">
        <ele>348</ele>
        <time>2016-05-05T09:38:31</time>
      </trkpt>
      <trkpt lat="43.2166" lon="-0.57113">
        <ele>346</ele>
        <time>2016-05-05T09:38:36</time>
      </trkpt>
      <trkpt lat="43.21649" lon="-0.57091">
        <ele>345</ele>
        <time>2016-05-05T09:38:41</time>
      </trkpt>
      <trkpt lat="43.21634" lon="-0.57076">
        <ele>345</ele>
        <time>2016-05-05T09:38:46</time>
      </trkpt>
      <trkpt lat="43.21618" lon="-0.5707">
        <ele>345</ele>
        <time>2016-05-05T09:38:51</time>
      </trkpt>
      <trkpt lat="43.21601" lon="-0.57068">
        <ele>346</ele>
        <time>2016-05-05T09:38:56</time>
      </trkpt>
      <trkpt lat="43.21585" lon="-0.57061">
        <ele>348</ele>
        <time>2016-05-05T09:39:02</time>
      </trkpt>
      <trkpt lat="43.21571" lon="-0.57057">
        <ele>349</ele>
        <time>2016-05-05T09:39:07</time>
      </trkpt>
      <trkpt lat="43.21565" lon="-0.57058">
        <ele>349</ele>
        <time>2016-05-05T09:39:12</time>
      </trkpt>
      <trkpt lat="43.21564" lon="-0.5706">
        <ele>347</ele>
        <time>2016-05-05T09:39:17</time>
      </trkpt>
      <trkpt lat="43.21563" lon="-0.57059">
        <ele>348</ele>
        <time>2016-05-05T09:39:22</time>
      </trkpt>
      <trkpt lat="43.21563" lon="-0.57057">
        <ele>348</ele>
        <time>2016-05-05T09:39:27</time>
      </trkpt>
      <trkpt lat="43.21563" lon="-0.57056">
        <ele>350</ele>
        <time>2016-05-05T09:39:32</time>
      </trkpt>
      <trkpt lat="43.21563" lon="-0.57056">
        <ele>347</ele>
        <time>2016-05-05T09:39:37</time>
      </trkpt>
      <trkpt lat="43.21563" lon="-0.57056">
        <ele>348</ele>
        <time>2016-05-05T09:39:42</time>
      </trkpt>
      <trkpt lat="43.21563" lon="-0.57056">
        <ele>347</ele>
        <time>2016-05-05T09:39:47</time>
      </trkpt>
      <trkpt lat="43.21563" lon="-0.57056">
        <ele>347</ele>
        <time>2016-05-05T09:39:52</time>
      </trkpt>
      <trkpt lat="43.21564" lon="-0.57056">
        <ele>347</ele>
        <time>2016-05-05T09:39:57</time>
      </trkpt>
      <trkpt lat="43.21564" lon="-0.57056">
        <ele>347</ele>
        <time>2016-05-05T09:40:02</time>
      </trkpt>
      <trkpt lat="43.21565" lon="-0.57057">
        <ele>347</ele>
        <time>2016-05-05T09:40:07</time>
      </trkpt>
      <trkpt lat="43.21565" lon="-0.57057">
        <ele>347</ele>
        <time>2016-05-05T09:40:12</time>
      </trkpt>
      <trkpt lat="43.21565" lon="-0.57058">
        <ele>347</ele>
        <time>2016-05-05T09:40:17</time>
      </trkpt>
      <trkpt lat="43.21565" lon="-0.57058">
        <ele>348</ele>
        <time>2016-05-05T09:40:22</time>
      </trkpt>
      <trkpt lat="43.21565" lon="-0.57059">
        <ele>347</ele>
        <time>2016-05-05T09:40:27</time>
      </trkpt>
      <trkpt lat="43.21565" lon="-0.57059">
        <ele>347</ele>
        <time>2016-05-05T09:40:32</time>
      </trkpt>
      <trkpt lat="43.21565" lon="-0.57059">
        <ele>347</ele>
        <time>2016-05-05T09:40:37</time>
      </trkpt>
      <trkpt lat="43.21565" lon="-0.5706">
        <ele>346</ele>
        <time>2016-05-05T09:40:42</time>
      </trkpt>
      <trkpt lat="43.21565" lon="-0.5706">
        <ele>346</ele>
        <time>2016-05-05T09:40:47</time>
      </trkpt>
      <trkpt lat="43.21565" lon="-0.5706">
        <ele>347</ele>
        <time>2016-05-05T09:40:52</time>
      </trkpt>
      <trkpt lat="43.21565" lon="-0.5706">
        <ele>347</ele>
        <time>2016-05-05T09:40:57</time>
      </trkpt>
      <trkpt lat="43.21566" lon="-0.5706">
        <ele>344</ele>
        <time>2016-05-05T09:41:02</time>
      </trkpt>
      <trkpt lat="43.21565" lon="-0.5706">
        <ele>348</ele>
        <time>2016-05-05T09:41:07</time>
      </trkpt>
      <trkpt lat="43.21564" lon="-0.5706">
        <ele>348</ele>
        <time>2016-05-05T09:41:12</time>
      </trkpt>
      <trkpt lat="43.21559" lon="-0.57067">
        <ele>349</ele>
        <time>2016-05-05T09:41:17</time>
      </trkpt>
      <trkpt lat="43.21548" lon="-0.57083">
        <ele>348</ele>
        <time>2016-05-05T09:41:22</time>
      </trkpt>
      <trkpt lat="43.21538" lon="-0.57121">
        <ele>344</ele>
        <time>2016-05-05T09:41:28</time>
      </trkpt>
      <trkpt lat="43.21532" lon="-0.57169">
        <ele>337</ele>
        <time>2016-05-05T09:41:33</time>
      </trkpt>
      <trkpt lat="43.21521" lon="-0.57196">
        <ele>332</ele>
        <time>2016-05-05T09:41:38</time>
      </trkpt>
      <trkpt lat="43.21495" lon="-0.57198">
        <ele>326</ele>
        <time>2016-05-05T09:41:43</time>
      </trkpt>
      <trkpt lat="43.21464" lon="-0.57201">
        <ele>318</ele>
        <time>2016-05-05T09:41:48</time>
      </trkpt>
      <trkpt lat="43.21439" lon="-0.57233">
        <ele>313</ele>
        <time>2016-05-05T09:41:53</time>
      </trkpt>
      <trkpt lat="43.21418" lon="-0.57277">
        <ele>309</ele>
        <time>2016-05-05T09:41:58</time>
      </trkpt>
      <trkpt lat="43.21389" lon="-0.57323">
        <ele>301</ele>
        <time>2016-05-05T09:42:03</time>
      </trkpt>
      <trkpt lat="43.21362" lon="-0.57367">
        <ele>299</ele>
        <time>2016-05-05T09:42:08</time>
      </trkpt>
      <trkpt lat="43.21338" lon="-0.5738">
        <ele>296</ele>
        <time>2016-05-05T09:42:13</time>
      </trkpt>
      <trkpt lat="43.21297" lon="-0.57384">
        <ele>295</ele>
        <time>2016-05-05T09:42:18</time>
      </trkpt>
      <trkpt lat="43.21258" lon="-0.57399">
        <ele>295</ele>
        <time>2016-05-05T09:42:23</time>
      </trkpt>
      <trkpt lat="43.21221" lon="-0.57423">
        <ele>286</ele>
        <time>2016-05-05T09:42:28</time>
      </trkpt>
      <trkpt lat="43.21209" lon="-0.57431">
        <ele>284</ele>
        <time>2016-05-05T09:42:33</time>
      </trkpt>
      <trkpt lat="43.21208" lon="-0.57432">
        <ele>284</ele>
        <time>2016-05-05T09:42:38</time>
      </trkpt>
      <trkpt lat="43.21207" lon="-0.57432">
        <ele>284</ele>
        <time>2016-05-05T09:42:43</time>
      </trkpt>
      <trkpt lat="43.21206" lon="-0.57432">
        <ele>283</ele>
        <time>2016-05-05T09:42:48</time>
      </trkpt>
      <trkpt lat="43.21205" lon="-0.5743">
        <ele>284</ele>
        <time>2016-05-05T09:42:53</time>
      </trkpt>
      <trkpt lat="43.21203" lon="-0.57431">
        <ele>283</ele>
        <time>2016-05-05T09:42:58</time>
      </trkpt>
      <trkpt lat="43.21198" lon="-0.57435">
        <ele>283</ele>
        <time>2016-05-05T09:43:03</time>
      </trkpt>
      <trkpt lat="43.21179" lon="-0.57444">
        <ele>281</ele>
        <time>2016-05-05T09:43:08</time>
      </trkpt>
      <trkpt lat="43.21152" lon="-0.57453">
        <ele>281</ele>
        <time>2016-05-05T09:43:13</time>
      </trkpt>
      <trkpt lat="43.21127" lon="-0.5747">
        <ele>278</ele>
        <time>2016-05-05T09:43:18</time>
      </trkpt>
      <trkpt lat="43.21091" lon="-0.57493">
        <ele>272</ele>
        <time>2016-05-05T09:43:23</time>
      </trkpt>
      <trkpt lat="43.21059" lon="-0.57528">
        <ele>267</ele>
        <time>2016-05-05T09:43:28</time>
      </trkpt>
      <trkpt lat="43.21051" lon="-0.57578">
        <ele>261</ele>
        <time>2016-05-05T09:43:33</time>
      </trkpt>
      <trkpt lat="43.21069" lon="-0.57626">
        <ele>261</ele>
        <time>2016-05-05T09:43:39</time>
      </trkpt>
      <trkpt lat="43.21092" lon="-0.57671">
        <ele>260</ele>
        <time>2016-05-05T09:43:44</time>
      </trkpt>
      <trkpt lat="43.21109" lon="-0.57732">
        <ele>253</ele>
        <time>2016-05-05T09:43:49</time>
      </trkpt>
      <trkpt lat="43.21133" lon="-0.57779">
        <ele>253</ele>
        <time>2016-05-05T09:43:54</time>
      </trkpt>
      <trkpt lat="43.21136" lon="-0.57811">
        <ele>252</ele>
        <time>2016-05-05T09:43:59</time>
      </trkpt>
      <trkpt lat="43.21124" lon="-0.57809">
        <ele>251</ele>
        <time>2016-05-05T09:44:04</time>
      </trkpt>
      <trkpt lat="43.21111" lon="-0.57806">
        <ele>249</ele>
        <time>2016-05-05T09:44:09</time>
      </trkpt>
      <trkpt lat="43.21099" lon="-0.57804">
        <ele>251</ele>
        <time>2016-05-05T09:44:14</time>
      </trkpt>
      <trkpt lat="43.21087" lon="-0.57803">
        <ele>253</ele>
        <time>2016-05-05T09:44:19</time>
      </trkpt>
      <trkpt lat="43.21077" lon="-0.57802">
        <ele>253</ele>
        <time>2016-05-05T09:44:24</time>
      </trkpt>
      <trkpt lat="43.21069" lon="-0.57803">
        <ele>253</ele>
        <time>2016-05-05T09:44:29</time>
      </trkpt>
      <trkpt lat="43.21059" lon="-0.57805">
        <ele>257</ele>
        <time>2016-05-05T09:44:34</time>
      </trkpt>
      <trkpt lat="43.21048" lon="-0.57806">
        <ele>260</ele>
        <time>2016-05-05T09:44:39</time>
      </trkpt>
      <trkpt lat="43.21038" lon="-0.57808">
        <ele>261</ele>
        <time>2016-05-05T09:44:44</time>
      </trkpt>
      <trkpt lat="43.21027" lon="-0.5781">
        <ele>261</ele>
        <time>2016-05-05T09:44:49</time>
      </trkpt>
      <trkpt lat="43.21018" lon="-0.57813">
        <ele>263</ele>
        <time>2016-05-05T09:44:54</time>
      </trkpt>
      <trkpt lat="43.21009" lon="-0.57815">
        <ele>266</ele>
        <time>2016-05-05T09:44:59</time>
      </trkpt>
      <trkpt lat="43.21001" lon="-0.57815">
        <ele>265</ele>
        <time>2016-05-05T09:45:04</time>
      </trkpt>
      <trkpt lat="43.20991" lon="-0.57812">
        <ele>264</ele>
        <time>2016-05-05T09:45:09</time>
      </trkpt>
      <trkpt lat="43.2098" lon="-0.57809">
        <ele>265</ele>
        <time>2016-05-05T09:45:14</time>
      </trkpt>
      <trkpt lat="43.20968" lon="-0.57809">
        <ele>267</ele>
        <time>2016-05-05T09:45:19</time>
      </trkpt>
      <trkpt lat="43.2096" lon="-0.57808">
        <ele>267</ele>
        <time>2016-05-05T09:45:24</time>
      </trkpt>
      <trkpt lat="43.20952" lon="-0.5781">
        <ele>272</ele>
        <time>2016-05-05T09:45:29</time>
      </trkpt>
      <trkpt lat="43.20943" lon="-0.57812">
        <ele>269</ele>
        <time>2016-05-05T09:45:34</time>
      </trkpt>
      <trkpt lat="43.20935" lon="-0.57814">
        <ele>273</ele>
        <time>2016-05-05T09:45:39</time>
      </trkpt>
      <trkpt lat="43.20927" lon="-0.57814">
        <ele>272</ele>
        <time>2016-05-05T09:45:44</time>
      </trkpt>
      <trkpt lat="43.20918" lon="-0.57813">
        <ele>274</ele>
        <time>2016-05-05T09:45:49</time>
      </trkpt>
      <trkpt lat="43.20908" lon="-0.5781">
        <ele>275</ele>
        <time>2016-05-05T09:45:55</time>
      </trkpt>
      <trkpt lat="43.209" lon="-0.57807">
        <ele>276</ele>
        <time>2016-05-05T09:46:00</time>
      </trkpt>
      <trkpt lat="43.2089" lon="-0.57808">
        <ele>276</ele>
        <time>2016-05-05T09:46:05</time>
      </trkpt>
      <trkpt lat="43.20882" lon="-0.5781">
        <ele>277</ele>
        <time>2016-05-05T09:46:10</time>
      </trkpt>
      <trkpt lat="43.20873" lon="-0.57812">
        <ele>280</ele>
        <time>2016-05-05T09:46:15</time>
      </trkpt>
      <trkpt lat="43.20867" lon="-0.57814">
        <ele>280</ele>
        <time>2016-05-05T09:46:20</time>
      </trkpt>
      <trkpt lat="43.20856" lon="-0.57818">
        <ele>281</ele>
        <time>2016-05-05T09:46:25</time>
      </trkpt>
      <trkpt lat="43.20847" lon="-0.57821">
        <ele>279</ele>
        <time>2016-05-05T09:46:30</time>
      </trkpt>
      <trkpt lat="43.20838" lon="-0.57826">
        <ele>284</ele>
        <time>2016-05-05T09:46:35</time>
      </trkpt>
      <trkpt lat="43.20829" lon="-0.57832">
        <ele>283</ele>
        <time>2016-05-05T09:46:40</time>
      </trkpt>
      <trkpt lat="43.20821" lon="-0.57838">
        <ele>284</ele>
        <time>2016-05-05T09:46:45</time>
      </trkpt>
      <trkpt lat="43.20814" lon="-0.57845">
        <ele>285</ele>
        <time>2016-05-05T09:46:50</time>
      </trkpt>
      <trkpt lat="43.20805" lon="-0.57851">
        <ele>287</ele>
        <time>2016-05-05T09:46:55</time>
      </trkpt>
      <trkpt lat="43.20797" lon="-0.57858">
        <ele>286</ele>
        <time>2016-05-05T09:47:00</time>
      </trkpt>
      <trkpt lat="43.20797" lon="-0.57872">
        <ele>287</ele>
        <time>2016-05-05T09:47:05</time>
      </trkpt>
      <trkpt lat="43.20801" lon="-0.57886">
        <ele>289</ele>
        <time>2016-05-05T09:47:10</time>
      </trkpt>
      <trkpt lat="43.20808" lon="-0.57901">
        <ele>289</ele>
        <time>2016-05-05T09:47:15</time>
      </trkpt>
      <trkpt lat="43.20816" lon="-0.57907">
        <ele>290</ele>
        <time>2016-05-05T09:47:20</time>
      </trkpt>
      <trkpt lat="43.20824" lon="-0.57911">
        <ele>291</ele>
        <time>2016-05-05T09:47:25</time>
      </trkpt>
      <trkpt lat="43.20836" lon="-0.57917">
        <ele>291</ele>
        <time>2016-05-05T09:47:30</time>
      </trkpt>
      <trkpt lat="43.20847" lon="-0.57916">
        <ele>291</ele>
        <time>2016-05-05T09:47:35</time>
      </trkpt>
      <trkpt lat="43.20858" lon="-0.57919">
        <ele>292</ele>
        <time>2016-05-05T09:47:40</time>
      </trkpt>
      <trkpt lat="43.20869" lon="-0.57926">
        <ele>293</ele>
        <time>2016-05-05T09:47:45</time>
      </trkpt>
      <trkpt lat="43.20876" lon="-0.57939">
        <ele>293</ele>
        <time>2016-05-05T09:47:50</time>
      </trkpt>
      <trkpt lat="43.20879" lon="-0.57957">
        <ele>295</ele>
        <time>2016-05-05T09:47:55</time>
      </trkpt>
      <trkpt lat="43.20881" lon="-0.57977">
        <ele>293</ele>
        <time>2016-05-05T09:48:00</time>
      </trkpt>
      <trkpt lat="43.20883" lon="-0.57999">
        <ele>293</ele>
        <time>2016-05-05T09:48:05</time>
      </trkpt>
      <trkpt lat="43.20886" lon="-0.58025">
        <ele>292</ele>
        <time>2016-05-05T09:48:11</time>
      </trkpt>
      <trkpt lat="43.20885" lon="-0.58044">
        <ele>294</ele>
        <time>2016-05-05T09:48:16</time>
      </trkpt>
      <trkpt lat="43.20882" lon="-0.58063">
        <ele>293</ele>
        <time>2016-05-05T09:48:21</time>
      </trkpt>
      <trkpt lat="43.20874" lon="-0.58078">
        <ele>293</ele>
        <time>2016-05-05T09:48:26</time>
      </trkpt>
      <trkpt lat="43.20866" lon="-0.581">
        <ele>293</ele>
        <time>2016-05-05T09:48:31</time>
      </trkpt>
      <trkpt lat="43.20858" lon="-0.5812">
        <ele>293</ele>
        <time>2016-05-05T09:48:36</time>
      </trkpt>
      <trkpt lat="43.20853" lon="-0.58142">
        <ele>294</ele>
        <time>2016-05-05T09:48:41</time>
      </trkpt>
      <trkpt lat="43.2085" lon="-0.58164">
        <ele>298</ele>
        <time>2016-05-05T09:48:46</time>
      </trkpt>
      <trkpt lat="43.20847" lon="-0.58186">
        <ele>296</ele>
        <time>2016-05-05T09:48:51</time>
      </trkpt>
      <trkpt lat="43.20844" lon="-0.58208">
        <ele>297</ele>
        <time>2016-05-05T09:48:56</time>
      </trkpt>
      <trkpt lat="43.20842" lon="-0.58229">
        <ele>297</ele>
        <time>2016-05-05T09:49:01</time>
      </trkpt>
      <trkpt lat="43.2084" lon="-0.58249">
        <ele>298</ele>
        <time>2016-05-05T09:49:06</time>
      </trkpt>
      <trkpt lat="43.20842" lon="-0.58268">
        <ele>294</ele>
        <time>2016-05-05T09:49:11</time>
      </trkpt>
      <trkpt lat="43.20844" lon="-0.58289">
        <ele>296</ele>
        <time>2016-05-05T09:49:16</time>
      </trkpt>
      <trkpt lat="43.20845" lon="-0.58307">
        <ele>297</ele>
        <time>2016-05-05T09:49:21</time>
      </trkpt>
      <trkpt lat="43.20846" lon="-0.58327">
        <ele>298</ele>
        <time>2016-05-05T09:49:26</time>
      </trkpt>
      <trkpt lat="43.2085" lon="-0.58345">
        <ele>296</ele>
        <time>2016-05-05T09:49:31</time>
      </trkpt>
      <trkpt lat="43.20855" lon="-0.58361">
        <ele>297</ele>
        <time>2016-05-05T09:49:36</time>
      </trkpt>
      <trkpt lat="43.20857" lon="-0.58372">
        <ele>303</ele>
        <time>2016-05-05T09:49:41</time>
      </trkpt>
      <trkpt lat="43.20859" lon="-0.58384">
        <ele>305</ele>
        <time>2016-05-05T09:49:46</time>
      </trkpt>
      <trkpt lat="43.20861" lon="-0.58396">
        <ele>304</ele>
        <time>2016-05-05T09:49:51</time>
      </trkpt>
      <trkpt lat="43.20858" lon="-0.58406">
        <ele>305</ele>
        <time>2016-05-05T09:49:56</time>
      </trkpt>
      <trkpt lat="43.20857" lon="-0.58417">
        <ele>309</ele>
        <time>2016-05-05T09:50:01</time>
      </trkpt>
      <trkpt lat="43.20859" lon="-0.58428">
        <ele>309</ele>
        <time>2016-05-05T09:50:06</time>
      </trkpt>
      <trkpt lat="43.20859" lon="-0.58435">
        <ele>307</ele>
        <time>2016-05-05T09:50:11</time>
      </trkpt>
      <trkpt lat="43.2086" lon="-0.58445">
        <ele>310</ele>
        <time>2016-05-05T09:50:16</time>
      </trkpt>
      <trkpt lat="43.20859" lon="-0.58454">
        <ele>312</ele>
        <time>2016-05-05T09:50:21</time>
      </trkpt>
      <trkpt lat="43.20856" lon="-0.58464">
        <ele>314</ele>
        <time>2016-05-05T09:50:26</time>
      </trkpt>
      <trkpt lat="43.20856" lon="-0.58474">
        <ele>313</ele>
        <time>2016-05-05T09:50:31</time>
      </trkpt>
      <trkpt lat="43.20857" lon="-0.58485">
        <ele>317</ele>
        <time>2016-05-05T09:50:36</time>
      </trkpt>
      <trkpt lat="43.20857" lon="-0.58498">
        <ele>314</ele>
        <time>2016-05-05T09:50:41</time>
      </trkpt>
      <trkpt lat="43.20856" lon="-0.58509">
        <ele>315</ele>
        <time>2016-05-05T09:50:47</time>
      </trkpt>
      <trkpt lat="43.20857" lon="-0.58521">
        <ele>318</ele>
        <time>2016-05-05T09:50:52</time>
      </trkpt>
      <trkpt lat="43.2086" lon="-0.58531">
        <ele>318</ele>
        <time>2016-05-05T09:50:57</time>
      </trkpt>
      <trkpt lat="43.20861" lon="-0.5854">
        <ele>319</ele>
        <time>2016-05-05T09:51:02</time>
      </trkpt>
      <trkpt lat="43.20864" lon="-0.5855">
        <ele>319</ele>
        <time>2016-05-05T09:51:07</time>
      </trkpt>
      <trkpt lat="43.20866" lon="-0.5856">
        <ele>319</ele>
        <time>2016-05-05T09:51:12</time>
      </trkpt>
      <trkpt lat="43.20872" lon="-0.58569">
        <ele>322</ele>
        <time>2016-05-05T09:51:17</time>
      </trkpt>
      <trkpt lat="43.20878" lon="-0.58577">
        <ele>325</ele>
        <time>2016-05-05T09:51:22</time>
      </trkpt>
      <trkpt lat="43.20882" lon="-0.58586">
        <ele>323</ele>
        <time>2016-05-05T09:51:27</time>
      </trkpt>
      <trkpt lat="43.20885" lon="-0.58599">
        <ele>320</ele>
        <time>2016-05-05T09:51:32</time>
      </trkpt>
      <trkpt lat="43.20889" lon="-0.58611">
        <ele>323</ele>
        <time>2016-05-05T09:51:37</time>
      </trkpt>
      <trkpt lat="43.20892" lon="-0.58624">
        <ele>323</ele>
        <time>2016-05-05T09:51:42</time>
      </trkpt>
      <trkpt lat="43.20897" lon="-0.58637">
        <ele>323</ele>
        <time>2016-05-05T09:51:47</time>
      </trkpt>
      <trkpt lat="43.20899" lon="-0.58648">
        <ele>324</ele>
        <time>2016-05-05T09:51:52</time>
      </trkpt>
      <trkpt lat="43.20901" lon="-0.58658">
        <ele>329</ele>
        <time>2016-05-05T09:51:57</time>
      </trkpt>
      <trkpt lat="43.20902" lon="-0.5867">
        <ele>330</ele>
        <time>2016-05-05T09:52:02</time>
      </trkpt>
      <trkpt lat="43.20902" lon="-0.58679">
        <ele>332</ele>
        <time>2016-05-05T09:52:07</time>
      </trkpt>
      <trkpt lat="43.20899" lon="-0.58687">
        <ele>333</ele>
        <time>2016-05-05T09:52:12</time>
      </trkpt>
      <trkpt lat="43.20894" lon="-0.58695">
        <ele>333</ele>
        <time>2016-05-05T09:52:17</time>
      </trkpt>
      <trkpt lat="43.20891" lon="-0.58703">
        <ele>335</ele>
        <time>2016-05-05T09:52:22</time>
      </trkpt>
      <trkpt lat="43.20887" lon="-0.58712">
        <ele>333</ele>
        <time>2016-05-05T09:52:27</time>
      </trkpt>
      <trkpt lat="43.20885" lon="-0.58723">
        <ele>334</ele>
        <time>2016-05-05T09:52:32</time>
      </trkpt>
      <trkpt lat="43.20884" lon="-0.58733">
        <ele>338</ele>
        <time>2016-05-05T09:52:37</time>
      </trkpt>
      <trkpt lat="43.20884" lon="-0.58746">
        <ele>338</ele>
        <time>2016-05-05T09:52:42</time>
      </trkpt>
      <trkpt lat="43.20884" lon="-0.58758">
        <ele>337</ele>
        <time>2016-05-05T09:52:47</time>
      </trkpt>
      <trkpt lat="43.20887" lon="-0.58774">
        <ele>337</ele>
        <time>2016-05-05T09:52:52</time>
      </trkpt>
      <trkpt lat="43.20892" lon="-0.5879">
        <ele>335</ele>
        <time>2016-05-05T09:52:57</time>
      </trkpt>
      <trkpt lat="43.20901" lon="-0.58816">
        <ele>337</ele>
        <time>2016-05-05T09:53:02</time>
      </trkpt>
      <trkpt lat="43.20904" lon="-0.58837">
        <ele>334</ele>
        <time>2016-05-05T09:53:07</time>
      </trkpt>
      <trkpt lat="43.20901" lon="-0.58847">
        <ele>331</ele>
        <time>2016-05-05T09:53:13</time>
      </trkpt>
      <trkpt lat="43.20902" lon="-0.5885">
        <ele>333</ele>
        <time>2016-05-05T09:53:18</time>
      </trkpt>
      <trkpt lat="43.20904" lon="-0.58851">
        <ele>333</ele>
        <time>2016-05-05T09:53:23</time>
      </trkpt>
      <trkpt lat="43.2091" lon="-0.58851">
        <ele>330</ele>
        <time>2016-05-05T09:53:28</time>
      </trkpt>
      <trkpt lat="43.20922" lon="-0.58883">
        <ele>332</ele>
        <time>2016-05-05T09:53:33</time>
      </trkpt>
      <trkpt lat="43.2094" lon="-0.58927">
        <ele>323</ele>
        <time>2016-05-05T09:53:38</time>
      </trkpt>
      <trkpt lat="43.20953" lon="-0.58964">
        <ele>323</ele>
        <time>2016-05-05T09:53:43</time>
      </trkpt>
      <trkpt lat="43.20958" lon="-0.59001">
        <ele>320</ele>
        <time>2016-05-05T09:53:48</time>
      </trkpt>
      <trkpt lat="43.20961" lon="-0.59041">
        <ele>321</ele>
        <time>2016-05-05T09:53:53</time>
      </trkpt>
      <trkpt lat="43.20966" lon="-0.59077">
        <ele>316</ele>
        <time>2016-05-05T09:53:58</time>
      </trkpt>
      <trkpt lat="43.20963" lon="-0.59127">
        <ele>316</ele>
        <time>2016-05-05T09:54:03</time>
      </trkpt>
      <trkpt lat="43.20958" lon="-0.59166">
        <ele>315</ele>
        <time>2016-05-05T09:54:08</time>
      </trkpt>
      <trkpt lat="43.20958" lon="-0.59184">
        <ele>314</ele>
        <time>2016-05-05T09:54:13</time>
      </trkpt>
      <trkpt lat="43.20958" lon="-0.59204">
        <ele>316</ele>
        <time>2016-05-05T09:54:18</time>
      </trkpt>
      <trkpt lat="43.20957" lon="-0.59225">
        <ele>319</ele>
        <time>2016-05-05T09:54:23</time>
      </trkpt>
      <trkpt lat="43.20953" lon="-0.59244">
        <ele>319</ele>
        <time>2016-05-05T09:54:28</time>
      </trkpt>
      <trkpt lat="43.20947" lon="-0.59263">
        <ele>319</ele>
        <time>2016-05-05T09:54:33</time>
      </trkpt>
      <trkpt lat="43.20937" lon="-0.59285">
        <ele>320</ele>
        <time>2016-05-05T09:54:38</time>
      </trkpt>
      <trkpt lat="43.20924" lon="-0.59315">
        <ele>321</ele>
        <time>2016-05-05T09:54:43</time>
      </trkpt>
      <trkpt lat="43.20906" lon="-0.59358">
        <ele>315</ele>
        <time>2016-05-05T09:54:48</time>
      </trkpt>
      <trkpt lat="43.20886" lon="-0.59403">
        <ele>311</ele>
        <time>2016-05-05T09:54:53</time>
      </trkpt>
      <trkpt lat="43.20869" lon="-0.59451">
        <ele>306</ele>
        <time>2016-05-05T09:54:58</time>
      </trkpt>
      <trkpt lat="43.20853" lon="-0.59483">
        <ele>301</ele>
        <time>2016-05-05T09:55:03</time>
      </trkpt>
      <trkpt lat="43.20835" lon="-0.59526">
        <ele>298</ele>
        <time>2016-05-05T09:55:08</time>
      </trkpt>
      <trkpt lat="43.20818" lon="-0.59566">
        <ele>296</ele>
        <time>2016-05-05T09:55:13</time>
      </trkpt>
      <trkpt lat="43.20808" lon="-0.59589">
        <ele>294</ele>
        <time>2016-05-05T09:55:18</time>
      </trkpt>
      <trkpt lat="43.20803" lon="-0.59608">
        <ele>291</ele>
        <time>2016-05-05T09:55:23</time>
      </trkpt>
      <trkpt lat="43.208" lon="-0.59614">
        <ele>292</ele>
        <time>2016-05-05T09:55:29</time>
      </trkpt>
      <trkpt lat="43.20796" lon="-0.59618">
        <ele>293</ele>
        <time>2016-05-05T09:55:34</time>
      </trkpt>
      <trkpt lat="43.20789" lon="-0.59625">
        <ele>292</ele>
        <time>2016-05-05T09:55:39</time>
      </trkpt>
      <trkpt lat="43.20778" lon="-0.59643">
        <ele>292</ele>
        <time>2016-05-05T09:55:44</time>
      </trkpt>
      <trkpt lat="43.20776" lon="-0.59674">
        <ele>291</ele>
        <time>2016-05-05T09:55:49</time>
      </trkpt>
      <trkpt lat="43.20771" lon="-0.59713">
        <ele>288</ele>
        <time>2016-05-05T09:55:54</time>
      </trkpt>
      <trkpt lat="43.20766" lon="-0.59758">
        <ele>288</ele>
        <time>2016-05-05T09:55:59</time>
      </trkpt>
      <trkpt lat="43.2076" lon="-0.59795">
        <ele>282</ele>
        <time>2016-05-05T09:56:04</time>
      </trkpt>
      <trkpt lat="43.20752" lon="-0.59816">
        <ele>276</ele>
        <time>2016-05-05T09:56:09</time>
      </trkpt>
      <trkpt lat="43.20735" lon="-0.59839">
        <ele>274</ele>
        <time>2016-05-05T09:56:14</time>
      </trkpt>
      <trkpt lat="43.20722" lon="-0.59861">
        <ele>269</ele>
        <time>2016-05-05T09:56:19</time>
      </trkpt>
      <trkpt lat="43.20717" lon="-0.59903">
        <ele>265</ele>
        <time>2016-05-05T09:56:24</time>
      </trkpt>
      <trkpt lat="43.2071" lon="-0.59943">
        <ele>262</ele>
        <time>2016-05-05T09:56:29</time>
      </trkpt>
      <trkpt lat="43.20703" lon="-0.5996">
        <ele>256</ele>
        <time>2016-05-05T09:56:34</time>
      </trkpt>
      <trkpt lat="43.20702" lon="-0.59964">
        <ele>254</ele>
        <time>2016-05-05T09:56:39</time>
      </trkpt>
      <trkpt lat="43.20701" lon="-0.59967">
        <ele>255</ele>
        <time>2016-05-05T09:56:44</time>
      </trkpt>
      <trkpt lat="43.20699" lon="-0.59968">
        <ele>255</ele>
        <time>2016-05-05T09:56:49</time>
      </trkpt>
      <trkpt lat="43.20699" lon="-0.5997">
        <ele>255</ele>
        <time>2016-05-05T09:56:54</time>
      </trkpt>
      <trkpt lat="43.20697" lon="-0.59973">
        <ele>254</ele>
        <time>2016-05-05T09:56:59</time>
      </trkpt>
      <trkpt lat="43.2069" lon="-0.59991">
        <ele>252</ele>
        <time>2016-05-05T09:57:04</time>
      </trkpt>
      <trkpt lat="43.20686" lon="-0.60015">
        <ele>251</ele>
        <time>2016-05-05T09:57:09</time>
      </trkpt>
      <trkpt lat="43.20682" lon="-0.6004">
        <ele>246</ele>
        <time>2016-05-05T09:57:14</time>
      </trkpt>
      <trkpt lat="43.20692" lon="-0.60071">
        <ele>244</ele>
        <time>2016-05-05T09:57:19</time>
      </trkpt>
      <trkpt lat="43.20705" lon="-0.60079">
        <ele>241</ele>
        <time>2016-05-05T09:57:24</time>
      </trkpt>
      <trkpt lat="43.20712" lon="-0.60081">
        <ele>241</ele>
        <time>2016-05-05T09:57:29</time>
      </trkpt>
      <trkpt lat="43.20701" lon="-0.60096">
        <ele>242</ele>
        <time>2016-05-05T09:57:35</time>
      </trkpt>
      <trkpt lat="43.2068" lon="-0.60114">
        <ele>240</ele>
        <time>2016-05-05T09:57:40</time>
      </trkpt>
      <trkpt lat="43.20657" lon="-0.60133">
        <ele>238</ele>
        <time>2016-05-05T09:57:45</time>
      </trkpt>
      <trkpt lat="43.20636" lon="-0.60154">
        <ele>237</ele>
        <time>2016-05-05T09:57:50</time>
      </trkpt>
      <trkpt lat="43.20617" lon="-0.60174">
        <ele>237</ele>
        <time>2016-05-05T09:57:55</time>
      </trkpt>
      <trkpt lat="43.20598" lon="-0.60192">
        <ele>236</ele>
        <time>2016-05-05T09:58:00</time>
      </trkpt>
      <trkpt lat="43.20578" lon="-0.60211">
        <ele>237</ele>
        <time>2016-05-05T09:58:05</time>
      </trkpt>
      <trkpt lat="43.20553" lon="-0.60232">
        <ele>236</ele>
        <time>2016-05-05T09:58:10</time>
      </trkpt>
      <trkpt lat="43.20533" lon="-0.60248">
        <ele>237</ele>
        <time>2016-05-05T09:58:15</time>
      </trkpt>
      <trkpt lat="43.20514" lon="-0.60237">
        <ele>236</ele>
        <time>2016-05-05T09:58:20</time>
      </trkpt>
      <trkpt lat="43.20499" lon="-0.60217">
        <ele>233</ele>
        <time>2016-05-05T09:58:25</time>
      </trkpt>
      <trkpt lat="43.20484" lon="-0.60196">
        <ele>236</ele>
        <time>2016-05-05T09:58:30</time>
      </trkpt>
      <trkpt lat="43.20469" lon="-0.60175">
        <ele>235</ele>
        <time>2016-05-05T09:58:35</time>
      </trkpt>
      <trkpt lat="43.20452" lon="-0.60154">
        <ele>235</ele>
        <time>2016-05-05T09:58:40</time>
      </trkpt>
      <trkpt lat="43.20439" lon="-0.60138">
        <ele>236</ele>
        <time>2016-05-05T09:58:45</time>
      </trkpt>
      <trkpt lat="43.20421" lon="-0.60122">
        <ele>236</ele>
        <time>2016-05-05T09:58:50</time>
      </trkpt>
      <trkpt lat="43.20401" lon="-0.60109">
        <ele>236</ele>
        <time>2016-05-05T09:58:55</time>
      </trkpt>
      <trkpt lat="43.2038" lon="-0.60095">
        <ele>236</ele>
        <time>2016-05-05T09:59:00</time>
      </trkpt>
      <trkpt lat="43.2036" lon="-0.60082">
        <ele>238</ele>
        <time>2016-05-05T09:59:05</time>
      </trkpt>
      <trkpt lat="43.2034" lon="-0.60069">
        <ele>237</ele>
        <time>2016-05-05T09:59:10</time>
      </trkpt>
      <trkpt lat="43.20317" lon="-0.60052">
        <ele>239</ele>
        <time>2016-05-05T09:59:15</time>
      </trkpt>
      <trkpt lat="43.203" lon="-0.60036">
        <ele>238</ele>
        <time>2016-05-05T09:59:20</time>
      </trkpt>
      <trkpt lat="43.20282" lon="-0.60019">
        <ele>238</ele>
        <time>2016-05-05T09:59:25</time>
      </trkpt>
      <trkpt lat="43.20265" lon="-0.59997">
        <ele>237</ele>
        <time>2016-05-05T09:59:30</time>
      </trkpt>
      <trkpt lat="43.20251" lon="-0.59974">
        <ele>238</ele>
        <time>2016-05-05T09:59:36</time>
      </trkpt>
      <trkpt lat="43.20237" lon="-0.59949">
        <ele>237</ele>
        <time>2016-05-05T09:59:41</time>
      </trkpt>
      <trkpt lat="43.20228" lon="-0.59924">
        <ele>238</ele>
        <time>2016-05-05T09:59:46</time>
      </trkpt>
      <trkpt lat="43.20219" lon="-0.59896">
        <ele>238</ele>
        <time>2016-05-05T09:59:51</time>
      </trkpt>
      <trkpt lat="43.20209" lon="-0.59868">
        <ele>240</ele>
        <time>2016-05-05T09:59:56</time>
      </trkpt>
      <trkpt lat="43.202" lon="-0.5984">
        <ele>242</ele>
        <time>2016-05-05T10:00:01</time>
      </trkpt>
      <trkpt lat="43.20187" lon="-0.59812">
        <ele>239</ele>
        <time>2016-05-05T10:00:06</time>
      </trkpt>
      <trkpt lat="43.20173" lon="-0.59787">
        <ele>240</ele>
        <time>2016-05-05T10:00:11</time>
      </trkpt>
      <trkpt lat="43.20156" lon="-0.59757">
        <ele>240</ele>
        <time>2016-05-05T10:00:16</time>
      </trkpt>
      <trkpt lat="43.20144" lon="-0.5973">
        <ele>238</ele>
        <time>2016-05-05T10:00:21</time>
      </trkpt>
      <trkpt lat="43.20134" lon="-0.59701">
        <ele>239</ele>
        <time>2016-05-05T10:00:26</time>
      </trkpt>
      <trkpt lat="43.20125" lon="-0.59673">
        <ele>241</ele>
        <time>2016-05-05T10:00:31</time>
      </trkpt>
      <trkpt lat="43.20118" lon="-0.5965">
        <ele>241</ele>
        <time>2016-05-05T10:00:36</time>
      </trkpt>
      <trkpt lat="43.20109" lon="-0.59622">
        <ele>241</ele>
        <time>2016-05-05T10:00:41</time>
      </trkpt>
      <trkpt lat="43.20099" lon="-0.59594">
        <ele>242</ele>
        <time>2016-05-05T10:00:46</time>
      </trkpt>
      <trkpt lat="43.20089" lon="-0.59566">
        <ele>240</ele>
        <time>2016-05-05T10:00:51</time>
      </trkpt>
      <trkpt lat="43.20084" lon="-0.59537">
        <ele>242</ele>
        <time>2016-05-05T10:00:56</time>
      </trkpt>
      <trkpt lat="43.2008" lon="-0.59509">
        <ele>242</ele>
        <time>2016-05-05T10:01:01</time>
      </trkpt>
      <trkpt lat="43.2008" lon="-0.5948">
        <ele>242</ele>
        <time>2016-05-05T10:01:06</time>
      </trkpt>
      <trkpt lat="43.20084" lon="-0.59449">
        <ele>243</ele>
        <time>2016-05-05T10:01:11</time>
      </trkpt>
      <trkpt lat="43.2009" lon="-0.5942">
        <ele>243</ele>
        <time>2016-05-05T10:01:16</time>
      </trkpt>
      <trkpt lat="43.20096" lon="-0.59391">
        <ele>242</ele>
        <time>2016-05-05T10:01:21</time>
      </trkpt>
      <trkpt lat="43.201" lon="-0.59356">
        <ele>243</ele>
        <time>2016-05-05T10:01:26</time>
      </trkpt>
      <trkpt lat="43.20103" lon="-0.59328">
        <ele>243</ele>
        <time>2016-05-05T10:01:31</time>
      </trkpt>
      <trkpt lat="43.20102" lon="-0.59299">
        <ele>243</ele>
        <time>2016-05-05T10:01:36</time>
      </trkpt>
      <trkpt lat="43.201" lon="-0.5927">
        <ele>242</ele>
        <time>2016-05-05T10:01:41</time>
      </trkpt>
      <trkpt lat="43.20092" lon="-0.59242">
        <ele>241</ele>
        <time>2016-05-05T10:01:46</time>
      </trkpt>
      <trkpt lat="43.20079" lon="-0.59219">
        <ele>241</ele>
        <time>2016-05-05T10:01:51</time>
      </trkpt>
      <trkpt lat="43.20066" lon="-0.59202">
        <ele>244</ele>
        <time>2016-05-05T10:01:56</time>
      </trkpt>
      <trkpt lat="43.20068" lon="-0.59177">
        <ele>245</ele>
        <time>2016-05-05T10:02:01</time>
      </trkpt>
      <trkpt lat="43.2008" lon="-0.59152">
        <ele>245</ele>
        <time>2016-05-05T10:02:06</time>
      </trkpt>
      <trkpt lat="43.20088" lon="-0.59129">
        <ele>244</ele>
        <time>2016-05-05T10:02:12</time>
      </trkpt>
      <trkpt lat="43.20093" lon="-0.59099">
        <ele>244</ele>
        <time>2016-05-05T10:02:17</time>
      </trkpt>
      <trkpt lat="43.20098" lon="-0.59069">
        <ele>245</ele>
        <time>2016-05-05T10:02:22</time>
      </trkpt>
      <trkpt lat="43.20107" lon="-0.59035">
        <ele>245</ele>
        <time>2016-05-05T10:02:27</time>
      </trkpt>
      <trkpt lat="43.2012" lon="-0.59012">
        <ele>244</ele>
        <time>2016-05-05T10:02:32</time>
      </trkpt>
      <trkpt lat="43.20135" lon="-0.5899">
        <ele>244</ele>
        <time>2016-05-05T10:02:37</time>
      </trkpt>
      <trkpt lat="43.20148" lon="-0.58965">
        <ele>245</ele>
        <time>2016-05-05T10:02:42</time>
      </trkpt>
      <trkpt lat="43.20155" lon="-0.58939">
        <ele>245</ele>
        <time>2016-05-05T10:02:47</time>
      </trkpt>
      <trkpt lat="43.2016" lon="-0.58917">
        <ele>246</ele>
        <time>2016-05-05T10:02:52</time>
      </trkpt>
      <trkpt lat="43.20167" lon="-0.58895">
        <ele>244</ele>
        <time>2016-05-05T10:02:57</time>
      </trkpt>
      <trkpt lat="43.20183" lon="-0.58878">
        <ele>246</ele>
        <time>2016-05-05T10:03:02</time>
      </trkpt>
      <trkpt lat="43.20201" lon="-0.58863">
        <ele>246</ele>
        <time>2016-05-05T10:03:07</time>
      </trkpt>
      <trkpt lat="43.2022" lon="-0.58847">
        <ele>245</ele>
        <time>2016-05-05T10:03:12</time>
      </trkpt>
      <trkpt lat="43.20239" lon="-0.58831">
        <ele>245</ele>
        <time>2016-05-05T10:03:17</time>
      </trkpt>
      <trkpt lat="43.20259" lon="-0.58815">
        <ele>246</ele>
        <time>2016-05-05T10:03:22</time>
      </trkpt>
      <trkpt lat="43.20279" lon="-0.58799">
        <ele>246</ele>
        <time>2016-05-05T10:03:27</time>
      </trkpt>
      <trkpt lat="43.20303" lon="-0.5878">
        <ele>248</ele>
        <time>2016-05-05T10:03:32</time>
      </trkpt>
      <trkpt lat="43.20322" lon="-0.58764">
        <ele>245</ele>
        <time>2016-05-05T10:03:37</time>
      </trkpt>
      <trkpt lat="43.2034" lon="-0.58748">
        <ele>248</ele>
        <time>2016-05-05T10:03:42</time>
      </trkpt>
      <trkpt lat="43.2036" lon="-0.58739">
        <ele>248</ele>
        <time>2016-05-05T10:03:47</time>
      </trkpt>
      <trkpt lat="43.20372" lon="-0.58746">
        <ele>245</ele>
        <time>2016-05-05T10:03:52</time>
      </trkpt>
      <trkpt lat="43.20373" lon="-0.58747">
        <ele>245</ele>
        <time>2016-05-05T10:03:57</time>
      </trkpt>
      <trkpt lat="43.20373" lon="-0.5875">
        <ele>246</ele>
        <time>2016-05-05T10:04:02</time>
      </trkpt>
      <trkpt lat="43.20374" lon="-0.5875">
        <ele>246</ele>
        <time>2016-05-05T10:04:07</time>
      </trkpt>
      <trkpt lat="43.20375" lon="-0.58756">
        <ele>247</ele>
        <time>2016-05-05T10:04:12</time>
      </trkpt>
      <trkpt lat="43.20372" lon="-0.58763">
        <ele>246</ele>
        <time>2016-05-05T10:04:17</time>
      </trkpt>
      <trkpt lat="43.20372" lon="-0.58764">
        <ele>245</ele>
        <time>2016-05-05T10:04:22</time>
      </trkpt>
      <trkpt lat="43.20371" lon="-0.58765">
        <ele>246</ele>
        <time>2016-05-05T10:04:27</time>
      </trkpt>
      <trkpt lat="43.20371" lon="-0.58765">
        <ele>246</ele>
        <time>2016-05-05T10:04:32</time>
      </trkpt>
      <trkpt lat="43.20371" lon="-0.58765">
        <ele>246</ele>
        <time>2016-05-05T10:04:37</time>
      </trkpt>
      <trkpt lat="43.20371" lon="-0.58766">
        <ele>246</ele>
        <time>2016-05-05T10:04:43</time>
      </trkpt>
      <trkpt lat="43.20371" lon="-0.58765">
        <ele>246</ele>
        <time>2016-05-05T10:04:48</time>
      </trkpt>
      <trkpt lat="43.2037" lon="-0.58763">
        <ele>246</ele>
        <time>2016-05-05T10:04:53</time>
      </trkpt>
      <trkpt lat="43.20372" lon="-0.58763">
        <ele>247</ele>
        <time>2016-05-05T10:04:58</time>
      </trkpt>
      <trkpt lat="43.20372" lon="-0.58762">
        <ele>247</ele>
        <time>2016-05-05T10:05:03</time>
      </trkpt>
      <trkpt lat="43.20373" lon="-0.58762">
        <ele>246</ele>
        <time>2016-05-05T10:05:08</time>
      </trkpt>
      <trkpt lat="43.20373" lon="-0.58762">
        <ele>246</ele>
        <time>2016-05-05T10:05:13</time>
      </trkpt>
      <trkpt lat="43.20373" lon="-0.58762">
        <ele>246</ele>
        <time>2016-05-05T10:05:18</time>
      </trkpt>
      <trkpt lat="43.20374" lon="-0.58761">
        <ele>247</ele>
        <time>2016-05-05T10:05:23</time>
      </trkpt>
      <trkpt lat="43.20373" lon="-0.58761">
        <ele>245</ele>
        <time>2016-05-05T10:05:28</time>
      </trkpt>
      <trkpt lat="43.20374" lon="-0.58761">
        <ele>246</ele>
        <time>2016-05-05T10:05:33</time>
      </trkpt>
      <trkpt lat="43.20374" lon="-0.5876">
        <ele>245</ele>
        <time>2016-05-05T10:05:38</time>
      </trkpt>
      <trkpt lat="43.20374" lon="-0.5876">
        <ele>246</ele>
        <time>2016-05-05T10:05:43</time>
      </trkpt>
      <trkpt lat="43.20375" lon="-0.58759">
        <ele>245</ele>
        <time>2016-05-05T10:05:48</time>
      </trkpt>
      <trkpt lat="43.20375" lon="-0.58759">
        <ele>245</ele>
        <time>2016-05-05T10:05:53</time>
      </trkpt>
      <trkpt lat="43.20375" lon="-0.58759">
        <ele>246</ele>
        <time>2016-05-05T10:05:58</time>
      </trkpt>
      <trkpt lat="43.20376" lon="-0.58759">
        <ele>245</ele>
        <time>2016-05-05T10:06:03</time>
      </trkpt>
      <trkpt lat="43.20377" lon="-0.58759">
        <ele>246</ele>
        <time>2016-05-05T10:06:08</time>
      </trkpt>
      <trkpt lat="43.20377" lon="-0.58759">
        <ele>246</ele>
        <time>2016-05-05T10:06:13</time>
      </trkpt>
      <trkpt lat="43.20377" lon="-0.5876">
        <ele>246</ele>
        <time>2016-05-05T10:06:18</time>
      </trkpt>
      <trkpt lat="43.20377" lon="-0.5876">
        <ele>246</ele>
        <time>2016-05-05T10:06:23</time>
      </trkpt>
      <trkpt lat="43.20377" lon="-0.5876">
        <ele>246</ele>
        <time>2016-05-05T10:06:28</time>
      </trkpt>
      <trkpt lat="43.20376" lon="-0.5876">
        <ele>247</ele>
        <time>2016-05-05T10:06:33</time>
      </trkpt>
      <trkpt lat="43.20375" lon="-0.5876">
        <ele>247</ele>
        <time>2016-05-05T10:06:38</time>
      </trkpt>
      <trkpt lat="43.20374" lon="-0.5876">
        <ele>246</ele>
        <time>2016-05-05T10:06:43</time>
      </trkpt>
      <trkpt lat="43.20374" lon="-0.5876">
        <ele>246</ele>
        <time>2016-05-05T10:06:48</time>
      </trkpt>
      <trkpt lat="43.20373" lon="-0.5876">
        <ele>246</ele>
        <time>2016-05-05T10:06:53</time>
      </trkpt>
      <trkpt lat="43.20374" lon="-0.58759">
        <ele>246</ele>
        <time>2016-05-05T10:06:58</time>
      </trkpt>
      <trkpt lat="43.20374" lon="-0.58753">
        <ele>247</ele>
        <time>2016-05-05T10:07:03</time>
      </trkpt>
      <trkpt lat="43.20374" lon="-0.5875">
        <ele>244</ele>
        <time>2016-05-05T10:07:09</time>
      </trkpt>
      <trkpt lat="43.20374" lon="-0.5875">
        <ele>247</ele>
        <time>2016-05-05T10:07:14</time>
      </trkpt>
      <trkpt lat="43.20375" lon="-0.58747">
        <ele>247</ele>
        <time>2016-05-05T10:07:19</time>
      </trkpt>
      <trkpt lat="43.20374" lon="-0.58747">
        <ele>247</ele>
        <time>2016-05-05T10:07:24</time>
      </trkpt>
      <trkpt lat="43.20375" lon="-0.58738">
        <ele>244</ele>
        <time>2016-05-05T10:07:29</time>
      </trkpt>
      <trkpt lat="43.20386" lon="-0.5872">
        <ele>248</ele>
        <time>2016-05-05T10:07:34</time>
      </trkpt>
      <trkpt lat="43.20401" lon="-0.58706">
        <ele>247</ele>
        <time>2016-05-05T10:07:39</time>
      </trkpt>
      <trkpt lat="43.20416" lon="-0.58692">
        <ele>248</ele>
        <time>2016-05-05T10:07:44</time>
      </trkpt>
      <trkpt lat="43.2043" lon="-0.58679">
        <ele>247</ele>
        <time>2016-05-05T10:07:49</time>
      </trkpt>
      <trkpt lat="43.20443" lon="-0.58666">
        <ele>249</ele>
        <time>2016-05-05T10:07:54</time>
      </trkpt>
      <trkpt lat="43.20452" lon="-0.58654">
        <ele>250</ele>
        <time>2016-05-05T10:07:59</time>
      </trkpt>
      <trkpt lat="43.20464" lon="-0.58644">
        <ele>248</ele>
        <time>2016-05-05T10:08:04</time>
      </trkpt>
      <trkpt lat="43.20475" lon="-0.58638">
        <ele>249</ele>
        <time>2016-05-05T10:08:09</time>
      </trkpt>
      <trkpt lat="43.20486" lon="-0.58631">
        <ele>252</ele>
        <time>2016-05-05T10:08:14</time>
      </trkpt>
      <trkpt lat="43.20496" lon="-0.58626">
        <ele>253</ele>
        <time>2016-05-05T10:08:19</time>
      </trkpt>
      <trkpt lat="43.20506" lon="-0.58619">
        <ele>251</ele>
        <time>2016-05-05T10:08:24</time>
      </trkpt>
      <trkpt lat="43.20516" lon="-0.58615">
        <ele>253</ele>
        <time>2016-05-05T10:08:29</time>
      </trkpt>
      <trkpt lat="43.20526" lon="-0.58613">
        <ele>256</ele>
        <time>2016-05-05T10:08:34</time>
      </trkpt>
      <trkpt lat="43.20536" lon="-0.5861">
        <ele>258</ele>
        <time>2016-05-05T10:08:39</time>
      </trkpt>
      <trkpt lat="43.20544" lon="-0.58608">
        <ele>258</ele>
        <time>2016-05-05T10:08:44</time>
      </trkpt>
      <trkpt lat="43.20552" lon="-0.58606">
        <ele>258</ele>
        <time>2016-05-05T10:08:49</time>
      </trkpt>
      <trkpt lat="43.20561" lon="-0.58603">
        <ele>260</ele>
        <time>2016-05-05T10:08:54</time>
      </trkpt>
      <trkpt lat="43.20568" lon="-0.586">
        <ele>260</ele>
        <time>2016-05-05T10:08:59</time>
      </trkpt>
      <trkpt lat="43.20572" lon="-0.58597">
        <ele>261</ele>
        <time>2016-05-05T10:09:04</time>
      </trkpt>
      <trkpt lat="43.20581" lon="-0.5859">
        <ele>260</ele>
        <time>2016-05-05T10:09:09</time>
      </trkpt>
      <trkpt lat="43.20583" lon="-0.58588">
        <ele>259</ele>
        <time>2016-05-05T10:09:14</time>
      </trkpt>
      <trkpt lat="43.20583" lon="-0.58586">
        <ele>259</ele>
        <time>2016-05-05T10:09:20</time>
      </trkpt>
      <trkpt lat="43.20581" lon="-0.58584">
        <ele>260</ele>
        <time>2016-05-05T10:09:25</time>
      </trkpt>
      <trkpt lat="43.20581" lon="-0.58582">
        <ele>260</ele>
        <time>2016-05-05T10:09:30</time>
      </trkpt>
      <trkpt lat="43.20583" lon="-0.58583">
        <ele>260</ele>
        <time>2016-05-05T10:09:35</time>
      </trkpt>
      <trkpt lat="43.20583" lon="-0.58582">
        <ele>260</ele>
        <time>2016-05-05T10:09:40</time>
      </trkpt>
      <trkpt lat="43.20584" lon="-0.58579">
        <ele>259</ele>
        <time>2016-05-05T10:09:45</time>
      </trkpt>
      <trkpt lat="43.20584" lon="-0.58579">
        <ele>259</ele>
        <time>2016-05-05T10:09:50</time>
      </trkpt>
      <trkpt lat="43.20584" lon="-0.58578">
        <ele>258</ele>
        <time>2016-05-05T10:09:55</time>
      </trkpt>
      <trkpt lat="43.20585" lon="-0.58576">
        <ele>259</ele>
        <time>2016-05-05T10:10:00</time>
      </trkpt>
      <trkpt lat="43.20585" lon="-0.58574">
        <ele>259</ele>
        <time>2016-05-05T10:10:05</time>
      </trkpt>
      <trkpt lat="43.20583" lon="-0.58572">
        <ele>259</ele>
        <time>2016-05-05T10:10:10</time>
      </trkpt>
      <trkpt lat="43.20582" lon="-0.58572">
        <ele>258</ele>
        <time>2016-05-05T10:10:15</time>
      </trkpt>
      <trkpt lat="43.20581" lon="-0.58571">
        <ele>259</ele>
        <time>2016-05-05T10:10:20</time>
      </trkpt>
      <trkpt lat="43.20578" lon="-0.58568">
        <ele>260</ele>
        <time>2016-05-05T10:10:25</time>
      </trkpt>
      <trkpt lat="43.20574" lon="-0.58565">
        <ele>261</ele>
        <time>2016-05-05T10:10:30</time>
      </trkpt>
      <trkpt lat="43.20572" lon="-0.58563">
        <ele>261</ele>
        <time>2016-05-05T10:10:35</time>
      </trkpt>
      <trkpt lat="43.20564" lon="-0.58561">
        <ele>261</ele>
        <time>2016-05-05T10:10:40</time>
      </trkpt>
      <trkpt lat="43.20553" lon="-0.58549">
        <ele>262</ele>
        <time>2016-05-05T10:10:45</time>
      </trkpt>
      <trkpt lat="43.20547" lon="-0.58531">
        <ele>261</ele>
        <time>2016-05-05T10:10:50</time>
      </trkpt>
      <trkpt lat="43.20542" lon="-0.5852">
        <ele>265</ele>
        <time>2016-05-05T10:10:55</time>
      </trkpt>
      <trkpt lat="43.20537" lon="-0.5851">
        <ele>267</ele>
        <time>2016-05-05T10:11:00</time>
      </trkpt>
      <trkpt lat="43.20533" lon="-0.58496">
        <ele>266</ele>
        <time>2016-05-05T10:11:05</time>
      </trkpt>
      <trkpt lat="43.2053" lon="-0.58484">
        <ele>267</ele>
        <time>2016-05-05T10:11:10</time>
      </trkpt>
      <trkpt lat="43.20527" lon="-0.58473">
        <ele>269</ele>
        <time>2016-05-05T10:11:15</time>
      </trkpt>
      <trkpt lat="43.20526" lon="-0.5846">
        <ele>269</ele>
        <time>2016-05-05T10:11:20</time>
      </trkpt>
      <trkpt lat="43.20527" lon="-0.5845">
        <ele>269</ele>
        <time>2016-05-05T10:11:25</time>
      </trkpt>
      <trkpt lat="43.20525" lon="-0.58436">
        <ele>267</ele>
        <time>2016-05-05T10:11:30</time>
      </trkpt>
      <trkpt lat="43.20522" lon="-0.58419">
        <ele>269</ele>
        <time>2016-05-05T10:11:35</time>
      </trkpt>
      <trkpt lat="43.20522" lon="-0.58394">
        <ele>268</ele>
        <time>2016-05-05T10:11:40</time>
      </trkpt>
      <trkpt lat="43.20523" lon="-0.58369">
        <ele>267</ele>
        <time>2016-05-05T10:11:46</time>
      </trkpt>
      <trkpt lat="43.20527" lon="-0.58332">
        <ele>266</ele>
        <time>2016-05-05T10:11:51</time>
      </trkpt>
      <trkpt lat="43.20534" lon="-0.58298">
        <ele>266</ele>
        <time>2016-05-05T10:11:56</time>
      </trkpt>
      <trkpt lat="43.20538" lon="-0.58282">
        <ele>266</ele>
        <time>2016-05-05T10:12:01</time>
      </trkpt>
      <trkpt lat="43.20541" lon="-0.58268">
        <ele>269</ele>
        <time>2016-05-05T10:12:06</time>
      </trkpt>
      <trkpt lat="43.20547" lon="-0.58256">
        <ele>269</ele>
        <time>2016-05-05T10:12:11</time>
      </trkpt>
      <trkpt lat="43.20553" lon="-0.58258">
        <ele>271</ele>
        <time>2016-05-05T10:12:16</time>
      </trkpt>
      <trkpt lat="43.20558" lon="-0.58261">
        <ele>271</ele>
        <time>2016-05-05T10:12:21</time>
      </trkpt>
      <trkpt lat="43.20563" lon="-0.58264">
        <ele>271</ele>
        <time>2016-05-05T10:12:26</time>
      </trkpt>
      <trkpt lat="43.20567" lon="-0.58267">
        <ele>273</ele>
        <time>2016-05-05T10:12:31</time>
      </trkpt>
      <trkpt lat="43.20572" lon="-0.58269">
        <ele>274</ele>
        <time>2016-05-05T10:12:36</time>
      </trkpt>
      <trkpt lat="43.20576" lon="-0.58274">
        <ele>277</ele>
        <time>2016-05-05T10:12:41</time>
      </trkpt>
      <trkpt lat="43.20582" lon="-0.58276">
        <ele>279</ele>
        <time>2016-05-05T10:12:46</time>
      </trkpt>
      <trkpt lat="43.20588" lon="-0.58279">
        <ele>281</ele>
        <time>2016-05-05T10:12:51</time>
      </trkpt>
      <trkpt lat="43.20594" lon="-0.58283">
        <ele>279</ele>
        <time>2016-05-05T10:12:56</time>
      </trkpt>
      <trkpt lat="43.20599" lon="-0.58287">
        <ele>279</ele>
        <time>2016-05-05T10:13:01</time>
      </trkpt>
      <trkpt lat="43.20605" lon="-0.58293">
        <ele>281</ele>
        <time>2016-05-05T10:13:06</time>
      </trkpt>
      <trkpt lat="43.2061" lon="-0.583">
        <ele>283</ele>
        <time>2016-05-05T10:13:11</time>
      </trkpt>
      <trkpt lat="43.20613" lon="-0.58303">
        <ele>283</ele>
        <time>2016-05-05T10:13:16</time>
      </trkpt>
      <trkpt lat="43.20618" lon="-0.58309">
        <ele>284</ele>
        <time>2016-05-05T10:13:21</time>
      </trkpt>
      <trkpt lat="43.20622" lon="-0.58314">
        <ele>282</ele>
        <time>2016-05-05T10:13:26</time>
      </trkpt>
      <trkpt lat="43.20624" lon="-0.5832">
        <ele>282</ele>
        <time>2016-05-05T10:13:31</time>
      </trkpt>
      <trkpt lat="43.20625" lon="-0.58326">
        <ele>289</ele>
        <time>2016-05-05T10:13:37</time>
      </trkpt>
      <trkpt lat="43.20627" lon="-0.58331">
        <ele>288</ele>
        <time>2016-05-05T10:13:42</time>
      </trkpt>
      <trkpt lat="43.20629" lon="-0.58339">
        <ele>288</ele>
        <time>2016-05-05T10:13:47</time>
      </trkpt>
      <trkpt lat="43.20631" lon="-0.58349">
        <ele>289</ele>
        <time>2016-05-05T10:13:52</time>
      </trkpt>
      <trkpt lat="43.20633" lon="-0.58359">
        <ele>289</ele>
        <time>2016-05-05T10:13:57</time>
      </trkpt>
      <trkpt lat="43.20636" lon="-0.58367">
        <ele>294</ele>
        <time>2016-05-05T10:14:02</time>
      </trkpt>
      <trkpt lat="43.20638" lon="-0.58376">
        <ele>294</ele>
        <time>2016-05-05T10:14:07</time>
      </trkpt>
      <trkpt lat="43.20641" lon="-0.58384">
        <ele>292</ele>
        <time>2016-05-05T10:14:12</time>
      </trkpt>
      <trkpt lat="43.20645" lon="-0.58388">
        <ele>296</ele>
        <time>2016-05-05T10:14:17</time>
      </trkpt>
      <trkpt lat="43.20649" lon="-0.58392">
        <ele>296</ele>
        <time>2016-05-05T10:14:22</time>
      </trkpt>
      <trkpt lat="43.20656" lon="-0.58392">
        <ele>296</ele>
        <time>2016-05-05T10:14:27</time>
      </trkpt>
      <trkpt lat="43.20663" lon="-0.58391">
        <ele>296</ele>
        <time>2016-05-05T10:14:32</time>
      </trkpt>
      <trkpt lat="43.2067" lon="-0.58394">
        <ele>299</ele>
        <time>2016-05-05T10:14:37</time>
      </trkpt>
      <trkpt lat="43.20672" lon="-0.58397">
        <ele>299</ele>
        <time>2016-05-05T10:14:42</time>
      </trkpt>
      <trkpt lat="43.20676" lon="-0.58402">
        <ele>298</ele>
        <time>2016-05-05T10:14:47</time>
      </trkpt>
      <trkpt lat="43.20684" lon="-0.58413">
        <ele>300</ele>
        <time>2016-05-05T10:14:52</time>
      </trkpt>
      <trkpt lat="43.20687" lon="-0.58433">
        <ele>296</ele>
        <time>2016-05-05T10:14:57</time>
      </trkpt>
      <trkpt lat="43.20691" lon="-0.58443">
        <ele>298</ele>
        <time>2016-05-05T10:15:02</time>
      </trkpt>
      <trkpt lat="43.20698" lon="-0.58451">
        <ele>299</ele>
        <time>2016-05-05T10:15:07</time>
      </trkpt>
      <trkpt lat="43.20704" lon="-0.58457">
        <ele>299</ele>
        <time>2016-05-05T10:15:12</time>
      </trkpt>
      <trkpt lat="43.20708" lon="-0.5846">
        <ele>301</ele>
        <time>2016-05-05T10:15:17</time>
      </trkpt>
      <trkpt lat="43.20714" lon="-0.58464">
        <ele>303</ele>
        <time>2016-05-05T10:15:22</time>
      </trkpt>
      <trkpt lat="43.20723" lon="-0.58466">
        <ele>305</ele>
        <time>2016-05-05T10:15:27</time>
      </trkpt>
      <trkpt lat="43.20732" lon="-0.58469">
        <ele>307</ele>
        <time>2016-05-05T10:15:32</time>
      </trkpt>
      <trkpt lat="43.20741" lon="-0.58471">
        <ele>306</ele>
        <time>2016-05-05T10:15:37</time>
      </trkpt>
      <trkpt lat="43.2075" lon="-0.58473">
        <ele>306</ele>
        <time>2016-05-05T10:15:42</time>
      </trkpt>
      <trkpt lat="43.20758" lon="-0.58473">
        <ele>308</ele>
        <time>2016-05-05T10:15:48</time>
      </trkpt>
      <trkpt lat="43.20766" lon="-0.58468">
        <ele>309</ele>
        <time>2016-05-05T10:15:53</time>
      </trkpt>
      <trkpt lat="43.20773" lon="-0.58464">
        <ele>308</ele>
        <time>2016-05-05T10:15:58</time>
      </trkpt>
      <trkpt lat="43.20776" lon="-0.58461">
        <ele>309</ele>
        <time>2016-05-05T10:16:03</time>
      </trkpt>
      <trkpt lat="43.20776" lon="-0.58465">
        <ele>306</ele>
        <time>2016-05-05T10:16:08</time>
      </trkpt>
      <trkpt lat="43.20777" lon="-0.58476">
        <ele>309</ele>
        <time>2016-05-05T10:16:13</time>
      </trkpt>
      <trkpt lat="43.20782" lon="-0.58481">
        <ele>310</ele>
        <time>2016-05-05T10:16:18</time>
      </trkpt>
      <trkpt lat="43.20789" lon="-0.58486">
        <ele>310</ele>
        <time>2016-05-05T10:16:23</time>
      </trkpt>
      <trkpt lat="43.20796" lon="-0.58489">
        <ele>310</ele>
        <time>2016-05-05T10:16:28</time>
      </trkpt>
      <trkpt lat="43.20803" lon="-0.58495">
        <ele>310</ele>
        <time>2016-05-05T10:16:33</time>
      </trkpt>
      <trkpt lat="43.20808" lon="-0.58498">
        <ele>311</ele>
        <time>2016-05-05T10:16:38</time>
      </trkpt>
      <trkpt lat="43.20812" lon="-0.58505">
        <ele>313</ele>
        <time>2016-05-05T10:16:43</time>
      </trkpt>
      <trkpt lat="43.20817" lon="-0.58514">
        <ele>313</ele>
        <time>2016-05-05T10:16:48</time>
      </trkpt>
      <trkpt lat="43.20822" lon="-0.58523">
        <ele>317</ele>
        <time>2016-05-05T10:16:53</time>
      </trkpt>
      <trkpt lat="43.20826" lon="-0.58533">
        <ele>315</ele>
        <time>2016-05-05T10:16:58</time>
      </trkpt>
      <trkpt lat="43.2083" lon="-0.58542">
        <ele>316</ele>
        <time>2016-05-05T10:17:03</time>
      </trkpt>
      <trkpt lat="43.20835" lon="-0.58553">
        <ele>316</ele>
        <time>2016-05-05T10:17:08</time>
      </trkpt>
      <trkpt lat="43.20842" lon="-0.58561">
        <ele>317</ele>
        <time>2016-05-05T10:17:13</time>
      </trkpt>
      <trkpt lat="43.20848" lon="-0.58565">
        <ele>318</ele>
        <time>2016-05-05T10:17:18</time>
      </trkpt>
      <trkpt lat="43.20857" lon="-0.58567">
        <ele>321</ele>
        <time>2016-05-05T10:17:23</time>
      </trkpt>
      <trkpt lat="43.20863" lon="-0.58567">
        <ele>323</ele>
        <time>2016-05-05T10:17:28</time>
      </trkpt>
      <trkpt lat="43.20859" lon="-0.58549">
        <ele>323</ele>
        <time>2016-05-05T10:17:33</time>
      </trkpt>
      <trkpt lat="43.20852" lon="-0.58505">
        <ele>319</ele>
        <time>2016-05-05T10:17:38</time>
      </trkpt>
      <trkpt lat="43.20855" lon="-0.58462">
        <ele>317</ele>
        <time>2016-05-05T10:17:43</time>
      </trkpt>
      <trkpt lat="43.2086" lon="-0.58416">
        <ele>309</ele>
        <time>2016-05-05T10:17:49</time>
      </trkpt>
      <trkpt lat="43.20854" lon="-0.58363">
        <ele>306</ele>
        <time>2016-05-05T10:17:54</time>
      </trkpt>
      <trkpt lat="43.20846" lon="-0.5833">
        <ele>297</ele>
        <time>2016-05-05T10:17:59</time>
      </trkpt>
      <trkpt lat="43.20844" lon="-0.58297">
        <ele>300</ele>
        <time>2016-05-05T10:18:04</time>
      </trkpt>
      <trkpt lat="43.20839" lon="-0.58261">
        <ele>298</ele>
        <time>2016-05-05T10:18:09</time>
      </trkpt>
      <trkpt lat="43.20842" lon="-0.58225">
        <ele>299</ele>
        <time>2016-05-05T10:18:14</time>
      </trkpt>
      <trkpt lat="43.20846" lon="-0.58184">
        <ele>296</ele>
        <time>2016-05-05T10:18:19</time>
      </trkpt>
      <trkpt lat="43.20853" lon="-0.58144">
        <ele>294</ele>
        <time>2016-05-05T10:18:24</time>
      </trkpt>
      <trkpt lat="43.20868" lon="-0.58113">
        <ele>294</ele>
        <time>2016-05-05T10:18:29</time>
      </trkpt>
      <trkpt lat="43.2088" lon="-0.58086">
        <ele>295</ele>
        <time>2016-05-05T10:18:34</time>
      </trkpt>
      <trkpt lat="43.20883" lon="-0.58059">
        <ele>295</ele>
        <time>2016-05-05T10:18:39</time>
      </trkpt>
      <trkpt lat="43.20881" lon="-0.58033">
        <ele>294</ele>
        <time>2016-05-05T10:18:44</time>
      </trkpt>
      <trkpt lat="43.20882" lon="-0.58007">
        <ele>296</ele>
        <time>2016-05-05T10:18:49</time>
      </trkpt>
      <trkpt lat="43.20881" lon="-0.57985">
        <ele>294</ele>
        <time>2016-05-05T10:18:54</time>
      </trkpt>
      <trkpt lat="43.20879" lon="-0.57965">
        <ele>291</ele>
        <time>2016-05-05T10:18:59</time>
      </trkpt>
      <trkpt lat="43.20873" lon="-0.57946">
        <ele>290</ele>
        <time>2016-05-05T10:19:04</time>
      </trkpt>
      <trkpt lat="43.20858" lon="-0.57936">
        <ele>295</ele>
        <time>2016-05-05T10:19:09</time>
      </trkpt>
      <trkpt lat="43.20836" lon="-0.57929">
        <ele>293</ele>
        <time>2016-05-05T10:19:14</time>
      </trkpt>
      <trkpt lat="43.20816" lon="-0.57907">
        <ele>293</ele>
        <time>2016-05-05T10:19:19</time>
      </trkpt>
      <trkpt lat="43.20801" lon="-0.57872">
        <ele>289</ele>
        <time>2016-05-05T10:19:24</time>
      </trkpt>
      <trkpt lat="43.20814" lon="-0.57854">
        <ele>291</ele>
        <time>2016-05-05T10:19:29</time>
      </trkpt>
      <trkpt lat="43.20837" lon="-0.57828">
        <ele>287</ele>
        <time>2016-05-05T10:19:34</time>
      </trkpt>
      <trkpt lat="43.20875" lon="-0.57815">
        <ele>283</ele>
        <time>2016-05-05T10:19:39</time>
      </trkpt>
      <trkpt lat="43.20919" lon="-0.57816">
        <ele>278</ele>
        <time>2016-05-05T10:19:44</time>
      </trkpt>
      <trkpt lat="43.20982" lon="-0.57815">
        <ele>275</ele>
        <time>2016-05-05T10:19:49</time>
      </trkpt>
      <trkpt lat="43.21032" lon="-0.57811">
        <ele>268</ele>
        <time>2016-05-05T10:19:54</time>
      </trkpt>
      <trkpt lat="43.21091" lon="-0.57808">
        <ele>261</ele>
        <time>2016-05-05T10:19:59</time>
      </trkpt>
      <trkpt lat="43.21128" lon="-0.57817">
        <ele>253</ele>
        <time>2016-05-05T10:20:04</time>
      </trkpt>
      <trkpt lat="43.21137" lon="-0.57802">
        <ele>253</ele>
        <time>2016-05-05T10:20:09</time>
      </trkpt>
      <trkpt lat="43.21133" lon="-0.57779">
        <ele>253</ele>
        <time>2016-05-05T10:20:14</time>
      </trkpt>
      <trkpt lat="43.21125" lon="-0.57759">
        <ele>252</ele>
        <time>2016-05-05T10:20:19</time>
      </trkpt>
      <trkpt lat="43.21114" lon="-0.57738">
        <ele>252</ele>
        <time>2016-05-05T10:20:24</time>
      </trkpt>
      <trkpt lat="43.21107" lon="-0.57717">
        <ele>254</ele>
        <time>2016-05-05T10:20:30</time>
      </trkpt>
      <trkpt lat="43.21101" lon="-0.57698">
        <ele>253</ele>
        <time>2016-05-05T10:20:35</time>
      </trkpt>
      <trkpt lat="43.21096" lon="-0.57685">
        <ele>254</ele>
        <time>2016-05-05T10:20:40</time>
      </trkpt>
      <trkpt lat="43.21092" lon="-0.57675">
        <ele>257</ele>
        <time>2016-05-05T10:20:45</time>
      </trkpt>
      <trkpt lat="43.21088" lon="-0.57665">
        <ele>258</ele>
        <time>2016-05-05T10:20:50</time>
      </trkpt>
      <trkpt lat="43.21082" lon="-0.57656">
        <ele>259</ele>
        <time>2016-05-05T10:20:55</time>
      </trkpt>
      <trkpt lat="43.21076" lon="-0.57648">
        <ele>261</ele>
        <time>2016-05-05T10:21:00</time>
      </trkpt>
      <trkpt lat="43.21069" lon="-0.57639">
        <ele>259</ele>
        <time>2016-05-05T10:21:05</time>
      </trkpt>
      <trkpt lat="43.21064" lon="-0.57631">
        <ele>263</ele>
        <time>2016-05-05T10:21:10</time>
      </trkpt>
      <trkpt lat="43.21059" lon="-0.57619">
        <ele>262</ele>
        <time>2016-05-05T10:21:15</time>
      </trkpt>
      <trkpt lat="43.21054" lon="-0.57605">
        <ele>262</ele>
        <time>2016-05-05T10:21:20</time>
      </trkpt>
      <trkpt lat="43.21053" lon="-0.57591">
        <ele>264</ele>
        <time>2016-05-05T10:21:25</time>
      </trkpt>
      <trkpt lat="43.21053" lon="-0.57579">
        <ele>264</ele>
        <time>2016-05-05T10:21:30</time>
      </trkpt>
      <trkpt lat="43.21053" lon="-0.57569">
        <ele>266</ele>
        <time>2016-05-05T10:21:35</time>
      </trkpt>
      <trkpt lat="43.21053" lon="-0.57559">
        <ele>267</ele>
        <time>2016-05-05T10:21:40</time>
      </trkpt>
      <trkpt lat="43.21055" lon="-0.57549">
        <ele>269</ele>
        <time>2016-05-05T10:21:45</time>
      </trkpt>
      <trkpt lat="43.21056" lon="-0.5754">
        <ele>269</ele>
        <time>2016-05-05T10:21:50</time>
      </trkpt>
      <trkpt lat="43.2106" lon="-0.57531">
        <ele>270</ele>
        <time>2016-05-05T10:21:55</time>
      </trkpt>
      <trkpt lat="43.21066" lon="-0.57524">
        <ele>270</ele>
        <time>2016-05-05T10:22:00</time>
      </trkpt>
      <trkpt lat="43.21071" lon="-0.57516">
        <ele>271</ele>
        <time>2016-05-05T10:22:05</time>
      </trkpt>
      <trkpt lat="43.21075" lon="-0.5751">
        <ele>272</ele>
        <time>2016-05-05T10:22:10</time>
      </trkpt>
      <trkpt lat="43.21082" lon="-0.57504">
        <ele>274</ele>
        <time>2016-05-05T10:22:15</time>
      </trkpt>
      <trkpt lat="43.21088" lon="-0.57499">
        <ele>278</ele>
        <time>2016-05-05T10:22:20</time>
      </trkpt>
      <trkpt lat="43.21095" lon="-0.57493">
        <ele>275</ele>
        <time>2016-05-05T10:22:26</time>
      </trkpt>
      <trkpt lat="43.21103" lon="-0.57487">
        <ele>276</ele>
        <time>2016-05-05T10:22:31</time>
      </trkpt>
      <trkpt lat="43.21109" lon="-0.57481">
        <ele>275</ele>
        <time>2016-05-05T10:22:36</time>
      </trkpt>
      <trkpt lat="43.21117" lon="-0.57475">
        <ele>277</ele>
        <time>2016-05-05T10:22:41</time>
      </trkpt>
      <trkpt lat="43.21126" lon="-0.57469">
        <ele>281</ele>
        <time>2016-05-05T10:22:46</time>
      </trkpt>
      <trkpt lat="43.21135" lon="-0.57464">
        <ele>278</ele>
        <time>2016-05-05T10:22:51</time>
      </trkpt>
      <trkpt lat="43.21144" lon="-0.57458">
        <ele>280</ele>
        <time>2016-05-05T10:22:56</time>
      </trkpt>
      <trkpt lat="43.21152" lon="-0.57453">
        <ele>280</ele>
        <time>2016-05-05T10:23:01</time>
      </trkpt>
      <trkpt lat="43.2116" lon="-0.5745">
        <ele>281</ele>
        <time>2016-05-05T10:23:06</time>
      </trkpt>
      <trkpt lat="43.21169" lon="-0.57449">
        <ele>281</ele>
        <time>2016-05-05T10:23:11</time>
      </trkpt>
      <trkpt lat="43.21176" lon="-0.57446">
        <ele>283</ele>
        <time>2016-05-05T10:23:16</time>
      </trkpt>
      <trkpt lat="43.21183" lon="-0.57443">
        <ele>285</ele>
        <time>2016-05-05T10:23:21</time>
      </trkpt>
      <trkpt lat="43.21191" lon="-0.57437">
        <ele>286</ele>
        <time>2016-05-05T10:23:26</time>
      </trkpt>
      <trkpt lat="43.212" lon="-0.57433">
        <ele>285</ele>
        <time>2016-05-05T10:23:31</time>
      </trkpt>
      <trkpt lat="43.21208" lon="-0.57428">
        <ele>287</ele>
        <time>2016-05-05T10:23:36</time>
      </trkpt>
      <trkpt lat="43.21214" lon="-0.57424">
        <ele>287</ele>
        <time>2016-05-05T10:23:41</time>
      </trkpt>
      <trkpt lat="43.2122" lon="-0.57419">
        <ele>290</ele>
        <time>2016-05-05T10:23:46</time>
      </trkpt>
      <trkpt lat="43.21228" lon="-0.57414">
        <ele>291</ele>
        <time>2016-05-05T10:23:51</time>
      </trkpt>
      <trkpt lat="43.21236" lon="-0.57408">
        <ele>293</ele>
        <time>2016-05-05T10:23:56</time>
      </trkpt>
      <trkpt lat="43.21244" lon="-0.57404">
        <ele>293</ele>
        <time>2016-05-05T10:24:01</time>
      </trkpt>
      <trkpt lat="43.21251" lon="-0.57401">
        <ele>292</ele>
        <time>2016-05-05T10:24:06</time>
      </trkpt>
      <trkpt lat="43.21261" lon="-0.57397">
        <ele>294</ele>
        <time>2016-05-05T10:24:11</time>
      </trkpt>
      <trkpt lat="43.21269" lon="-0.57394">
        <ele>294</ele>
        <time>2016-05-05T10:24:16</time>
      </trkpt>
      <trkpt lat="43.21278" lon="-0.57391">
        <ele>295</ele>
        <time>2016-05-05T10:24:22</time>
      </trkpt>
      <trkpt lat="43.21287" lon="-0.57388">
        <ele>295</ele>
        <time>2016-05-05T10:24:27</time>
      </trkpt>
      <trkpt lat="43.21297" lon="-0.57387">
        <ele>296</ele>
        <time>2016-05-05T10:24:32</time>
      </trkpt>
      <trkpt lat="43.21306" lon="-0.57386">
        <ele>296</ele>
        <time>2016-05-05T10:24:37</time>
      </trkpt>
      <trkpt lat="43.21315" lon="-0.57385">
        <ele>298</ele>
        <time>2016-05-05T10:24:42</time>
      </trkpt>
      <trkpt lat="43.21324" lon="-0.57384">
        <ele>298</ele>
        <time>2016-05-05T10:24:47</time>
      </trkpt>
      <trkpt lat="43.21334" lon="-0.57382">
        <ele>298</ele>
        <time>2016-05-05T10:24:52</time>
      </trkpt>
      <trkpt lat="43.21344" lon="-0.57378">
        <ele>301</ele>
        <time>2016-05-05T10:24:57</time>
      </trkpt>
      <trkpt lat="43.21352" lon="-0.5737">
        <ele>302</ele>
        <time>2016-05-05T10:25:02</time>
      </trkpt>
      <trkpt lat="43.21358" lon="-0.57361">
        <ele>300</ele>
        <time>2016-05-05T10:25:07</time>
      </trkpt>
      <trkpt lat="43.21364" lon="-0.57353">
        <ele>303</ele>
        <time>2016-05-05T10:25:12</time>
      </trkpt>
      <trkpt lat="43.2137" lon="-0.57343">
        <ele>303</ele>
        <time>2016-05-05T10:25:17</time>
      </trkpt>
      <trkpt lat="43.21377" lon="-0.57333">
        <ele>301</ele>
        <time>2016-05-05T10:25:22</time>
      </trkpt>
      <trkpt lat="43.21383" lon="-0.57324">
        <ele>303</ele>
        <time>2016-05-05T10:25:27</time>
      </trkpt>
      <trkpt lat="43.2139" lon="-0.57314">
        <ele>304</ele>
        <time>2016-05-05T10:25:32</time>
      </trkpt>
      <trkpt lat="43.21396" lon="-0.57305">
        <ele>304</ele>
        <time>2016-05-05T10:25:37</time>
      </trkpt>
      <trkpt lat="43.21402" lon="-0.57296">
        <ele>306</ele>
        <time>2016-05-05T10:25:42</time>
      </trkpt>
      <trkpt lat="43.21408" lon="-0.57287">
        <ele>306</ele>
        <time>2016-05-05T10:25:47</time>
      </trkpt>
      <trkpt lat="43.21413" lon="-0.57279">
        <ele>307</ele>
        <time>2016-05-05T10:25:52</time>
      </trkpt>
      <trkpt lat="43.21416" lon="-0.57272">
        <ele>308</ele>
        <time>2016-05-05T10:25:57</time>
      </trkpt>
      <trkpt lat="43.21418" lon="-0.57264">
        <ele>311</ele>
        <time>2016-05-05T10:26:02</time>
      </trkpt>
      <trkpt lat="43.21421" lon="-0.57256">
        <ele>312</ele>
        <time>2016-05-05T10:26:07</time>
      </trkpt>
      <trkpt lat="43.21424" lon="-0.57247">
        <ele>313</ele>
        <time>2016-05-05T10:26:12</time>
      </trkpt>
      <trkpt lat="43.21428" lon="-0.57239">
        <ele>313</ele>
        <time>2016-05-05T10:26:17</time>
      </trkpt>
      <trkpt lat="43.2143" lon="-0.57232">
        <ele>315</ele>
        <time>2016-05-05T10:26:22</time>
      </trkpt>
      <trkpt lat="43.21433" lon="-0.57226">
        <ele>316</ele>
        <time>2016-05-05T10:26:27</time>
      </trkpt>
      <trkpt lat="43.21438" lon="-0.5722">
        <ele>317</ele>
        <time>2016-05-05T10:26:32</time>
      </trkpt>
      <trkpt lat="43.21443" lon="-0.57216">
        <ele>319</ele>
        <time>2016-05-05T10:26:38</time>
      </trkpt>
      <trkpt lat="43.21449" lon="-0.57213">
        <ele>321</ele>
        <time>2016-05-05T10:26:43</time>
      </trkpt>
      <trkpt lat="43.21453" lon="-0.5721">
        <ele>321</ele>
        <time>2016-05-05T10:26:48</time>
      </trkpt>
      <trkpt lat="43.21459" lon="-0.57209">
        <ele>321</ele>
        <time>2016-05-05T10:26:53</time>
      </trkpt>
      <trkpt lat="43.21465" lon="-0.57207">
        <ele>322</ele>
        <time>2016-05-05T10:26:58</time>
      </trkpt>
      <trkpt lat="43.2147" lon="-0.57204">
        <ele>326</ele>
        <time>2016-05-05T10:27:03</time>
      </trkpt>
      <trkpt lat="43.21475" lon="-0.57203">
        <ele>326</ele>
        <time>2016-05-05T10:27:08</time>
      </trkpt>
      <trkpt lat="43.2148" lon="-0.57201">
        <ele>327</ele>
        <time>2016-05-05T10:27:13</time>
      </trkpt>
      <trkpt lat="43.21487" lon="-0.572">
        <ele>329</ele>
        <time>2016-05-05T10:27:18</time>
      </trkpt>
      <trkpt lat="43.21493" lon="-0.572">
        <ele>328</ele>
        <time>2016-05-05T10:27:23</time>
      </trkpt>
      <trkpt lat="43.21498" lon="-0.572">
        <ele>331</ele>
        <time>2016-05-05T10:27:28</time>
      </trkpt>
      <trkpt lat="43.21504" lon="-0.57199">
        <ele>331</ele>
        <time>2016-05-05T10:27:33</time>
      </trkpt>
      <trkpt lat="43.21511" lon="-0.57197">
        <ele>333</ele>
        <time>2016-05-05T10:27:38</time>
      </trkpt>
      <trkpt lat="43.21516" lon="-0.57191">
        <ele>332</ele>
        <time>2016-05-05T10:27:43</time>
      </trkpt>
      <trkpt lat="43.21519" lon="-0.57186">
        <ele>337</ele>
        <time>2016-05-05T10:27:48</time>
      </trkpt>
      <trkpt lat="43.21521" lon="-0.5718">
        <ele>337</ele>
        <time>2016-05-05T10:27:53</time>
      </trkpt>
      <trkpt lat="43.21523" lon="-0.57174">
        <ele>338</ele>
        <time>2016-05-05T10:27:58</time>
      </trkpt>
      <trkpt lat="43.21524" lon="-0.57167">
        <ele>340</ele>
        <time>2016-05-05T10:28:03</time>
      </trkpt>
      <trkpt lat="43.21527" lon="-0.5716">
        <ele>341</ele>
        <time>2016-05-05T10:28:08</time>
      </trkpt>
      <trkpt lat="43.21529" lon="-0.57151">
        <ele>342</ele>
        <time>2016-05-05T10:28:13</time>
      </trkpt>
      <trkpt lat="43.21531" lon="-0.57144">
        <ele>342</ele>
        <time>2016-05-05T10:28:18</time>
      </trkpt>
      <trkpt lat="43.21532" lon="-0.57135">
        <ele>345</ele>
        <time>2016-05-05T10:28:23</time>
      </trkpt>
      <trkpt lat="43.21532" lon="-0.57127">
        <ele>345</ele>
        <time>2016-05-05T10:28:28</time>
      </trkpt>
      <trkpt lat="43.21534" lon="-0.5712">
        <ele>347</ele>
        <time>2016-05-05T10:28:33</time>
      </trkpt>
      <trkpt lat="43.21536" lon="-0.57111">
        <ele>348</ele>
        <time>2016-05-05T10:28:39</time>
      </trkpt>
      <trkpt lat="43.21538" lon="-0.57099">
        <ele>349</ele>
        <time>2016-05-05T10:28:44</time>
      </trkpt>
      <trkpt lat="43.21542" lon="-0.57089">
        <ele>350</ele>
        <time>2016-05-05T10:28:49</time>
      </trkpt>
      <trkpt lat="43.21548" lon="-0.5708">
        <ele>351</ele>
        <time>2016-05-05T10:28:54</time>
      </trkpt>
      <trkpt lat="43.21555" lon="-0.5707">
        <ele>352</ele>
        <time>2016-05-05T10:28:59</time>
      </trkpt>
      <trkpt lat="43.21561" lon="-0.57059">
        <ele>352</ele>
        <time>2016-05-05T10:29:04</time>
      </trkpt>
      <trkpt lat="43.21556" lon="-0.57046">
        <ele>350</ele>
        <time>2016-05-05T10:29:09</time>
      </trkpt>
      <trkpt lat="43.21544" lon="-0.57039">
        <ele>351</ele>
        <time>2016-05-05T10:29:14</time>
      </trkpt>
      <trkpt lat="43.2153" lon="-0.5703">
        <ele>351</ele>
        <time>2016-05-05T10:29:19</time>
      </trkpt>
      <trkpt lat="43.21511" lon="-0.57017">
        <ele>350</ele>
        <time>2016-05-05T10:29:24</time>
      </trkpt>
      <trkpt lat="43.21489" lon="-0.57004">
        <ele>350</ele>
        <time>2016-05-05T10:29:29</time>
      </trkpt>
      <trkpt lat="43.21481" lon="-0.57001">
        <ele>346</ele>
        <time>2016-05-05T10:29:34</time>
      </trkpt>
      <trkpt lat="43.2148" lon="-0.57002">
        <ele>347</ele>
        <time>2016-05-05T10:29:39</time>
      </trkpt>
      <trkpt lat="43.2148" lon="-0.57">
        <ele>346</ele>
        <time>2016-05-05T10:29:44</time>
      </trkpt>
      <trkpt lat="43.2148" lon="-0.57001">
        <ele>346</ele>
        <time>2016-05-05T10:29:49</time>
      </trkpt>
      <trkpt lat="43.2148" lon="-0.57002">
        <ele>348</ele>
        <time>2016-05-05T10:29:54</time>
      </trkpt>
      <trkpt lat="43.21479" lon="-0.57003">
        <ele>346</ele>
        <time>2016-05-05T10:29:59</time>
      </trkpt>
      <trkpt lat="43.2148" lon="-0.57003">
        <ele>345</ele>
        <time>2016-05-05T10:30:04</time>
      </trkpt>
      <trkpt lat="43.2148" lon="-0.57003">
        <ele>345</ele>
        <time>2016-05-05T10:30:09</time>
      </trkpt>
      <trkpt lat="43.2148" lon="-0.57003">
        <ele>345</ele>
        <time>2016-05-05T10:30:14</time>
      </trkpt>
      <trkpt lat="43.2148" lon="-0.57002">
        <ele>347</ele>
        <time>2016-05-05T10:30:19</time>
      </trkpt>
      <trkpt lat="43.21479" lon="-0.57002">
        <ele>346</ele>
        <time>2016-05-05T10:30:25</time>
      </trkpt>
      <trkpt lat="43.21479" lon="-0.57002">
        <ele>346</ele>
        <time>2016-05-05T10:30:30</time>
      </trkpt>
      <trkpt lat="43.21479" lon="-0.57002">
        <ele>346</ele>
        <time>2016-05-05T10:30:35</time>
      </trkpt>
      <trkpt lat="43.21478" lon="-0.57003">
        <ele>347</ele>
        <time>2016-05-05T10:30:40</time>
      </trkpt>
      <trkpt lat="43.21478" lon="-0.57003">
        <ele>348</ele>
        <time>2016-05-05T10:30:45</time>
      </trkpt>
      <trkpt lat="43.21479" lon="-0.57002">
        <ele>347</ele>
        <time>2016-05-05T10:30:50</time>
      </trkpt>
      <trkpt lat="43.21477" lon="-0.56996">
        <ele>348</ele>
        <time>2016-05-05T10:30:55</time>
      </trkpt>
      <trkpt lat="43.21478" lon="-0.56989">
        <ele>347</ele>
        <time>2016-05-05T10:31:00</time>
      </trkpt>
      <trkpt lat="43.21476" lon="-0.56982">
        <ele>348</ele>
        <time>2016-05-05T10:31:05</time>
      </trkpt>
      <trkpt lat="43.21475" lon="-0.56978">
        <ele>345</ele>
        <time>2016-05-05T10:31:10</time>
      </trkpt>
      <trkpt lat="43.21475" lon="-0.56976">
        <ele>347</ele>
        <time>2016-05-05T10:31:15</time>
      </trkpt>
      <trkpt lat="43.21476" lon="-0.56975">
        <ele>348</ele>
        <time>2016-05-05T10:31:20</time>
      </trkpt>
      <trkpt lat="43.21477" lon="-0.56973">
        <ele>347</ele>
        <time>2016-05-05T10:31:25</time>
      </trkpt>
      <trkpt lat="43.21476" lon="-0.56973">
        <ele>346</ele>
        <time>2016-05-05T10:31:30</time>
      </trkpt>
      <trkpt lat="43.21476" lon="-0.56974">
        <ele>347</ele>
        <time>2016-05-05T10:31:35</time>
      </trkpt>
      <trkpt lat="43.21476" lon="-0.56974">
        <ele>347</ele>
        <time>2016-05-05T10:31:40</time>
      </trkpt>
      <trkpt lat="43.21476" lon="-0.56975">
        <ele>347</ele>
        <time>2016-05-05T10:31:45</time>
      </trkpt>
      <trkpt lat="43.21477" lon="-0.56974">
        <ele>347</ele>
        <time>2016-05-05T10:31:50</time>
      </trkpt>
      <trkpt lat="43.21478" lon="-0.56974">
        <ele>347</ele>
        <time>2016-05-05T10:31:55</time>
      </trkpt>
      <trkpt lat="43.21479" lon="-0.56972">
        <ele>347</ele>
        <time>2016-05-05T10:32:00</time>
      </trkpt>
      <trkpt lat="43.2148" lon="-0.56972">
        <ele>347</ele>
        <time>2016-05-05T10:32:05</time>
      </trkpt>
      <trkpt lat="43.21481" lon="-0.56971">
        <ele>347</ele>
        <time>2016-05-05T10:32:10</time>
      </trkpt>
      <trkpt lat="43.2148" lon="-0.56971">
        <ele>346</ele>
        <time>2016-05-05T10:32:15</time>
      </trkpt>
      <trkpt lat="43.2148" lon="-0.56971">
        <ele>347</ele>
        <time>2016-05-05T10:32:20</time>
      </trkpt>
      <trkpt lat="43.2148" lon="-0.56971">
        <ele>346</ele>
        <time>2016-05-05T10:32:25</time>
      </trkpt>
      <trkpt lat="43.21479" lon="-0.56971">
        <ele>347</ele>
        <time>2016-05-05T10:32:31</time>
      </trkpt>
      <trkpt lat="43.21479" lon="-0.56971">
        <ele>347</ele>
        <time>2016-05-05T10:32:36</time>
      </trkpt>
      <trkpt lat="43.21478" lon="-0.56972">
        <ele>346</ele>
        <time>2016-05-05T10:32:41</time>
      </trkpt>
      <trkpt lat="43.21477" lon="-0.56972">
        <ele>347</ele>
        <time>2016-05-05T10:32:46</time>
      </trkpt>
      <trkpt lat="43.21476" lon="-0.56973">
        <ele>346</ele>
        <time>2016-05-05T10:32:51</time>
      </trkpt>
      <trkpt lat="43.21476" lon="-0.56973">
        <ele>347</ele>
        <time>2016-05-05T10:32:56</time>
      </trkpt>
      <trkpt lat="43.21475" lon="-0.56973">
        <ele>347</ele>
        <time>2016-05-05T10:33:01</time>
      </trkpt>
      <trkpt lat="43.21475" lon="-0.56973">
        <ele>347</ele>
        <time>2016-05-05T10:33:06</time>
      </trkpt>
      <trkpt lat="43.21475" lon="-0.56973">
        <ele>346</ele>
        <time>2016-05-05T10:33:11</time>
      </trkpt>
      <trkpt lat="43.21475" lon="-0.56972">
        <ele>346</ele>
        <time>2016-05-05T10:33:16</time>
      </trkpt>
      <trkpt lat="43.21475" lon="-0.56972">
        <ele>347</ele>
        <time>2016-05-05T10:33:21</time>
      </trkpt>
      <trkpt lat="43.21476" lon="-0.56971">
        <ele>346</ele>
        <time>2016-05-05T10:33:26</time>
      </trkpt>
      <trkpt lat="43.21476" lon="-0.56971">
        <ele>347</ele>
        <time>2016-05-05T10:33:31</time>
      </trkpt>
      <trkpt lat="43.21476" lon="-0.5697">
        <ele>346</ele>
        <time>2016-05-05T10:33:36</time>
      </trkpt>
      <trkpt lat="43.21476" lon="-0.56969">
        <ele>347</ele>
        <time>2016-05-05T10:33:41</time>
      </trkpt>
      <trkpt lat="43.21476" lon="-0.56969">
        <ele>347</ele>
        <time>2016-05-05T10:33:46</time>
      </trkpt>
      <trkpt lat="43.21476" lon="-0.56968">
        <ele>347</ele>
        <time>2016-05-05T10:33:51</time>
      </trkpt>
      <trkpt lat="43.21476" lon="-0.56968">
        <ele>347</ele>
        <time>2016-05-05T10:33:56</time>
      </trkpt>
      <trkpt lat="43.21476" lon="-0.56969">
        <ele>346</ele>
        <time>2016-05-05T10:34:01</time>
      </trkpt>
      <trkpt lat="43.21474" lon="-0.56969">
        <ele>347</ele>
        <time>2016-05-05T10:34:06</time>
      </trkpt>
      <trkpt lat="43.21474" lon="-0.5697">
        <ele>346</ele>
        <time>2016-05-05T10:34:11</time>
      </trkpt>
      <trkpt lat="43.21473" lon="-0.5697">
        <ele>346</ele>
        <time>2016-05-05T10:34:16</time>
      </trkpt>
      <trkpt lat="43.21473" lon="-0.5697">
        <ele>346</ele>
        <time>2016-05-05T10:34:21</time>
      </trkpt>
      <trkpt lat="43.21472" lon="-0.56971">
        <ele>347</ele>
        <time>2016-05-05T10:34:26</time>
      </trkpt>
      <trkpt lat="43.21471" lon="-0.56971">
        <ele>348</ele>
        <time>2016-05-05T10:34:31</time>
      </trkpt>
      <trkpt lat="43.21471" lon="-0.56971">
        <ele>348</ele>
        <time>2016-05-05T10:34:37</time>
      </trkpt>
      <trkpt lat="43.21471" lon="-0.56971">
        <ele>348</ele>
        <time>2016-05-05T10:34:42</time>
      </trkpt>
      <trkpt lat="43.21471" lon="-0.56971">
        <ele>346</ele>
        <time>2016-05-05T10:34:47</time>
      </trkpt>
      <trkpt lat="43.21472" lon="-0.56971">
        <ele>347</ele>
        <time>2016-05-05T10:34:52</time>
      </trkpt>
      <trkpt lat="43.21473" lon="-0.56971">
        <ele>347</ele>
        <time>2016-05-05T10:34:57</time>
      </trkpt>
      <trkpt lat="43.21474" lon="-0.56972">
        <ele>347</ele>
        <time>2016-05-05T10:35:02</time>
      </trkpt>
      <trkpt lat="43.21474" lon="-0.56973">
        <ele>347</ele>
        <time>2016-05-05T10:35:07</time>
      </trkpt>
      <trkpt lat="43.21474" lon="-0.56975">
        <ele>346</ele>
        <time>2016-05-05T10:35:12</time>
      </trkpt>
      <trkpt lat="43.21474" lon="-0.56976">
        <ele>346</ele>
        <time>2016-05-05T10:35:17</time>
      </trkpt>
      <trkpt lat="43.21475" lon="-0.56976">
        <ele>347</ele>
        <time>2016-05-05T10:35:22</time>
      </trkpt>
      <trkpt lat="43.21476" lon="-0.56976">
        <ele>347</ele>
        <time>2016-05-05T10:35:27</time>
      </trkpt>
      <trkpt lat="43.21477" lon="-0.56976">
        <ele>347</ele>
        <time>2016-05-05T10:35:32</time>
      </trkpt>
      <trkpt lat="43.21478" lon="-0.56975">
        <ele>347</ele>
        <time>2016-05-05T10:35:37</time>
      </trkpt>
      <trkpt lat="43.21478" lon="-0.56975">
        <ele>347</ele>
        <time>2016-05-05T10:35:42</time>
      </trkpt>
      <trkpt lat="43.21478" lon="-0.56974">
        <ele>347</ele>
        <time>2016-05-05T10:35:47</time>
      </trkpt>
      <trkpt lat="43.21478" lon="-0.56974">
        <ele>345</ele>
        <time>2016-05-05T10:35:52</time>
      </trkpt>
      <trkpt lat="43.21479" lon="-0.56973">
        <ele>347</ele>
        <time>2016-05-05T10:35:57</time>
      </trkpt>
      <trkpt lat="43.21479" lon="-0.56972">
        <ele>347</ele>
        <time>2016-05-05T10:36:02</time>
      </trkpt>
      <trkpt lat="43.21481" lon="-0.56971">
        <ele>347</ele>
        <time>2016-05-05T10:36:07</time>
      </trkpt>
      <trkpt lat="43.21482" lon="-0.5697">
        <ele>346</ele>
        <time>2016-05-05T10:36:12</time>
      </trkpt>
      <trkpt lat="43.21483" lon="-0.56969">
        <ele>346</ele>
        <time>2016-05-05T10:36:17</time>
      </trkpt>
      <trkpt lat="43.21483" lon="-0.56969">
        <ele>347</ele>
        <time>2016-05-05T10:36:22</time>
      </trkpt>
      <trkpt lat="43.21483" lon="-0.56968">
        <ele>346</ele>
        <time>2016-05-05T10:36:27</time>
      </trkpt>
      <trkpt lat="43.21483" lon="-0.56968">
        <ele>347</ele>
        <time>2016-05-05T10:36:32</time>
      </trkpt>
      <trkpt lat="43.21485" lon="-0.56968">
        <ele>347</ele>
        <time>2016-05-05T10:36:37</time>
      </trkpt>
      <trkpt lat="43.21486" lon="-0.56969">
        <ele>347</ele>
        <time>2016-05-05T10:36:43</time>
      </trkpt>
      <trkpt lat="43.21485" lon="-0.5697">
        <ele>347</ele>
        <time>2016-05-05T10:36:48</time>
      </trkpt>
      <trkpt lat="43.21484" lon="-0.56971">
        <ele>346</ele>
        <time>2016-05-05T10:36:53</time>
      </trkpt>
      <trkpt lat="43.21482" lon="-0.56972">
        <ele>347</ele>
        <time>2016-05-05T10:36:58</time>
      </trkpt>
      <trkpt lat="43.21481" lon="-0.56973">
        <ele>347</ele>
        <time>2016-05-05T10:37:03</time>
      </trkpt>
      <trkpt lat="43.2148" lon="-0.56973">
        <ele>347</ele>
        <time>2016-05-05T10:37:08</time>
      </trkpt>
      <trkpt lat="43.2148" lon="-0.56971">
        <ele>348</ele>
        <time>2016-05-05T10:37:13</time>
      </trkpt>
      <trkpt lat="43.21481" lon="-0.56969">
        <ele>347</ele>
        <time>2016-05-05T10:37:18</time>
      </trkpt>
      <trkpt lat="43.21481" lon="-0.56969">
        <ele>347</ele>
        <time>2016-05-05T10:37:23</time>
      </trkpt>
      <trkpt lat="43.21481" lon="-0.56969">
        <ele>347</ele>
        <time>2016-05-05T10:37:28</time>
      </trkpt>
      <trkpt lat="43.21481" lon="-0.56968">
        <ele>347</ele>
        <time>2016-05-05T10:37:33</time>
      </trkpt>
      <trkpt lat="43.21481" lon="-0.56967">
        <ele>347</ele>
        <time>2016-05-05T10:37:38</time>
      </trkpt>
      <trkpt lat="43.21481" lon="-0.56966">
        <ele>348</ele>
        <time>2016-05-05T10:37:43</time>
      </trkpt>
      <trkpt lat="43.21481" lon="-0.56966">
        <ele>347</ele>
        <time>2016-05-05T10:37:48</time>
      </trkpt>
      <trkpt lat="43.2148" lon="-0.56967">
        <ele>348</ele>
        <time>2016-05-05T10:37:53</time>
      </trkpt>
      <trkpt lat="43.21479" lon="-0.5697">
        <ele>348</ele>
        <time>2016-05-05T10:37:58</time>
      </trkpt>
      <trkpt lat="43.21479" lon="-0.56972">
        <ele>346</ele>
        <time>2016-05-05T10:38:03</time>
      </trkpt>
      <trkpt lat="43.21479" lon="-0.56974">
        <ele>349</ele>
        <time>2016-05-05T10:38:08</time>
      </trkpt>
      <trkpt lat="43.21474" lon="-0.56984">
        <ele>348</ele>
        <time>2016-05-05T10:38:13</time>
      </trkpt>
      <trkpt lat="43.21484" lon="-0.56995">
        <ele>346</ele>
        <time>2016-05-05T10:38:18</time>
      </trkpt>
      <trkpt lat="43.21498" lon="-0.57003">
        <ele>347</ele>
        <time>2016-05-05T10:38:23</time>
      </trkpt>
      <trkpt lat="43.21513" lon="-0.57013">
        <ele>348</ele>
        <time>2016-05-05T10:38:28</time>
      </trkpt>
      <trkpt lat="43.21526" lon="-0.57021">
        <ele>351</ele>
        <time>2016-05-05T10:38:33</time>
      </trkpt>
      <trkpt lat="43.21538" lon="-0.57029">
        <ele>350</ele>
        <time>2016-05-05T10:38:38</time>
      </trkpt>
      <trkpt lat="43.21552" lon="-0.57037">
        <ele>353</ele>
        <time>2016-05-05T10:38:43</time>
      </trkpt>
      <trkpt lat="43.21566" lon="-0.57046">
        <ele>351</ele>
        <time>2016-05-05T10:38:48</time>
      </trkpt>
      <trkpt lat="43.21581" lon="-0.57055">
        <ele>352</ele>
        <time>2016-05-05T10:38:53</time>
      </trkpt>
      <trkpt lat="43.216" lon="-0.57061">
        <ele>351</ele>
        <time>2016-05-05T10:38:58</time>
      </trkpt>
      <trkpt lat="43.21624" lon="-0.57068">
        <ele>351</ele>
        <time>2016-05-05T10:39:03</time>
      </trkpt>
      <trkpt lat="43.21648" lon="-0.57089">
        <ele>349</ele>
        <time>2016-05-05T10:39:09</time>
      </trkpt>
      <trkpt lat="43.21661" lon="-0.57117">
        <ele>347</ele>
        <time>2016-05-05T10:39:14</time>
      </trkpt>
      <trkpt lat="43.21671" lon="-0.57142">
        <ele>347</ele>
        <time>2016-05-05T10:39:19</time>
      </trkpt>
      <trkpt lat="43.21682" lon="-0.57167">
        <ele>348</ele>
        <time>2016-05-05T10:39:24</time>
      </trkpt>
      <trkpt lat="43.21692" lon="-0.57193">
        <ele>351</ele>
        <time>2016-05-05T10:39:29</time>
      </trkpt>
      <trkpt lat="43.21703" lon="-0.5722">
        <ele>348</ele>
        <time>2016-05-05T10:39:34</time>
      </trkpt>
      <trkpt lat="43.21717" lon="-0.5725">
        <ele>349</ele>
        <time>2016-05-05T10:39:39</time>
      </trkpt>
      <trkpt lat="43.21727" lon="-0.57266">
        <ele>350</ele>
        <time>2016-05-05T10:39:44</time>
      </trkpt>
      <trkpt lat="43.21758" lon="-0.57263">
        <ele>348</ele>
        <time>2016-05-05T10:39:49</time>
      </trkpt>
      <trkpt lat="43.2179" lon="-0.57257">
        <ele>345</ele>
        <time>2016-05-05T10:39:54</time>
      </trkpt>
      <trkpt lat="43.21824" lon="-0.57245">
        <ele>339</ele>
        <time>2016-05-05T10:39:59</time>
      </trkpt>
      <trkpt lat="43.21864" lon="-0.57237">
        <ele>332</ele>
        <time>2016-05-05T10:40:04</time>
      </trkpt>
      <trkpt lat="43.21899" lon="-0.57257">
        <ele>325</ele>
        <time>2016-05-05T10:40:09</time>
      </trkpt>
      <trkpt lat="43.21922" lon="-0.57284">
        <ele>327</ele>
        <time>2016-05-05T10:40:14</time>
      </trkpt>
      <trkpt lat="43.21945" lon="-0.5731">
        <ele>325</ele>
        <time>2016-05-05T10:40:19</time>
      </trkpt>
      <trkpt lat="43.21966" lon="-0.57332">
        <ele>324</ele>
        <time>2016-05-05T10:40:24</time>
      </trkpt>
      <trkpt lat="43.21989" lon="-0.57346">
        <ele>324</ele>
        <time>2016-05-05T10:40:29</time>
      </trkpt>
      <trkpt lat="43.22016" lon="-0.57326">
        <ele>324</ele>
        <time>2016-05-05T10:40:34</time>
      </trkpt>
      <trkpt lat="43.22046" lon="-0.57286">
        <ele>320</ele>
        <time>2016-05-05T10:40:39</time>
      </trkpt>
      <trkpt lat="43.22078" lon="-0.5724">
        <ele>310</ele>
        <time>2016-05-05T10:40:44</time>
      </trkpt>
      <trkpt lat="43.22108" lon="-0.57244">
        <ele>304</ele>
        <time>2016-05-05T10:40:49</time>
      </trkpt>
      <trkpt lat="43.22149" lon="-0.57266">
        <ele>301</ele>
        <time>2016-05-05T10:40:54</time>
      </trkpt>
      <trkpt lat="43.22186" lon="-0.57287">
        <ele>295</ele>
        <time>2016-05-05T10:40:59</time>
      </trkpt>
      <trkpt lat="43.22227" lon="-0.57286">
        <ele>290</ele>
        <time>2016-05-05T10:41:04</time>
      </trkpt>
      <trkpt lat="43.22269" lon="-0.57265">
        <ele>284</ele>
        <time>2016-05-05T10:41:09</time>
      </trkpt>
      <trkpt lat="43.22306" lon="-0.57228">
        <ele>276</ele>
        <time>2016-05-05T10:41:14</time>
      </trkpt>
      <trkpt lat="43.22338" lon="-0.57181">
        <ele>266</ele>
        <time>2016-05-05T10:41:19</time>
      </trkpt>
      <trkpt lat="43.22355" lon="-0.57129">
        <ele>259</ele>
        <time>2016-05-05T10:41:24</time>
      </trkpt>
      <trkpt lat="43.22344" lon="-0.5707">
        <ele>252</ele>
        <time>2016-05-05T10:41:29</time>
      </trkpt>
      <trkpt lat="43.22328" lon="-0.57031">
        <ele>250</ele>
        <time>2016-05-05T10:41:34</time>
      </trkpt>
      <trkpt lat="43.22311" lon="-0.56997">
        <ele>250</ele>
        <time>2016-05-05T10:41:40</time>
      </trkpt>
      <trkpt lat="43.223" lon="-0.56965">
        <ele>246</ele>
        <time>2016-05-05T10:41:45</time>
      </trkpt>
      <trkpt lat="43.22284" lon="-0.56928">
        <ele>251</ele>
        <time>2016-05-05T10:41:50</time>
      </trkpt>
      <trkpt lat="43.22274" lon="-0.56893">
        <ele>247</ele>
        <time>2016-05-05T10:41:55</time>
      </trkpt>
      <trkpt lat="43.22276" lon="-0.5685">
        <ele>248</ele>
        <time>2016-05-05T10:42:00</time>
      </trkpt>
      <trkpt lat="43.22268" lon="-0.56819">
        <ele>246</ele>
        <time>2016-05-05T10:42:05</time>
      </trkpt>
      <trkpt lat="43.2226" lon="-0.56789">
        <ele>248</ele>
        <time>2016-05-05T10:42:10</time>
      </trkpt>
      <trkpt lat="43.22256" lon="-0.56758">
        <ele>248</ele>
        <time>2016-05-05T10:42:15</time>
      </trkpt>
      <trkpt lat="43.22252" lon="-0.56727">
        <ele>249</ele>
        <time>2016-05-05T10:42:20</time>
      </trkpt>
      <trkpt lat="43.22244" lon="-0.56699">
        <ele>249</ele>
        <time>2016-05-05T10:42:25</time>
      </trkpt>
      <trkpt lat="43.22234" lon="-0.56672">
        <ele>250</ele>
        <time>2016-05-05T10:42:30</time>
      </trkpt>
      <trkpt lat="43.22223" lon="-0.56647">
        <ele>251</ele>
        <time>2016-05-05T10:42:35</time>
      </trkpt>
      <trkpt lat="43.2221" lon="-0.56622">
        <ele>250</ele>
        <time>2016-05-05T10:42:40</time>
      </trkpt>
      <trkpt lat="43.2219" lon="-0.56599">
        <ele>250</ele>
        <time>2016-05-05T10:42:45</time>
      </trkpt>
      <trkpt lat="43.22169" lon="-0.5658">
        <ele>249</ele>
        <time>2016-05-05T10:42:50</time>
      </trkpt>
      <trkpt lat="43.22146" lon="-0.56563">
        <ele>248</ele>
        <time>2016-05-05T10:42:55</time>
      </trkpt>
      <trkpt lat="43.2213" lon="-0.56552">
        <ele>249</ele>
        <time>2016-05-05T10:43:00</time>
      </trkpt>
      <trkpt lat="43.22128" lon="-0.56537">
        <ele>248</ele>
        <time>2016-05-05T10:43:05</time>
      </trkpt>
      <trkpt lat="43.22149" lon="-0.56527">
        <ele>251</ele>
        <time>2016-05-05T10:43:10</time>
      </trkpt>
      <trkpt lat="43.2217" lon="-0.56514">
        <ele>248</ele>
        <time>2016-05-05T10:43:15</time>
      </trkpt>
      <trkpt lat="43.22187" lon="-0.56499">
        <ele>248</ele>
        <time>2016-05-05T10:43:20</time>
      </trkpt>
      <trkpt lat="43.22193" lon="-0.56471">
        <ele>246</ele>
        <time>2016-05-05T10:43:25</time>
      </trkpt>
      <trkpt lat="43.22204" lon="-0.56447">
        <ele>249</ele>
        <time>2016-05-05T10:43:30</time>
      </trkpt>
      <trkpt lat="43.22222" lon="-0.56423">
        <ele>246</ele>
        <time>2016-05-05T10:43:35</time>
      </trkpt>
      <trkpt lat="43.22238" lon="-0.56399">
        <ele>248</ele>
        <time>2016-05-05T10:43:40</time>
      </trkpt>
      <trkpt lat="43.22254" lon="-0.56376">
        <ele>248</ele>
        <time>2016-05-05T10:43:45</time>
      </trkpt>
      <trkpt lat="43.2227" lon="-0.56354">
        <ele>248</ele>
        <time>2016-05-05T10:43:50</time>
      </trkpt>
      <trkpt lat="43.22286" lon="-0.56331">
        <ele>247</ele>
        <time>2016-05-05T10:43:55</time>
      </trkpt>
      <trkpt lat="43.22302" lon="-0.5631">
        <ele>249</ele>
        <time>2016-05-05T10:44:00</time>
      </trkpt>
      <trkpt lat="43.2232" lon="-0.56289">
        <ele>249</ele>
        <time>2016-05-05T10:44:05</time>
      </trkpt>
      <trkpt lat="43.22331" lon="-0.56269">
        <ele>248</ele>
        <time>2016-05-05T10:44:10</time>
      </trkpt>
      <trkpt lat="43.22342" lon="-0.56253">
        <ele>251</ele>
        <time>2016-05-05T10:44:15</time>
      </trkpt>
      <trkpt lat="43.22359" lon="-0.5625">
        <ele>251</ele>
        <time>2016-05-05T10:44:21</time>
      </trkpt>
      <trkpt lat="43.22378" lon="-0.56256">
        <ele>250</ele>
        <time>2016-05-05T10:44:26</time>
      </trkpt>
      <trkpt lat="43.22397" lon="-0.5626">
        <ele>251</ele>
        <time>2016-05-05T10:44:31</time>
      </trkpt>
      <trkpt lat="43.22417" lon="-0.5626">
        <ele>249</ele>
        <time>2016-05-05T10:44:36</time>
      </trkpt>
      <trkpt lat="43.22435" lon="-0.56261">
        <ele>252</ele>
        <time>2016-05-05T10:44:41</time>
      </trkpt>
      <trkpt lat="43.22452" lon="-0.56261">
        <ele>252</ele>
        <time>2016-05-05T10:44:46</time>
      </trkpt>
      <trkpt lat="43.22465" lon="-0.56263">
        <ele>253</ele>
        <time>2016-05-05T10:44:51</time>
      </trkpt>
      <trkpt lat="43.22475" lon="-0.56271">
        <ele>255</ele>
        <time>2016-05-05T10:44:56</time>
      </trkpt>
      <trkpt lat="43.22481" lon="-0.56284">
        <ele>254</ele>
        <time>2016-05-05T10:45:01</time>
      </trkpt>
      <trkpt lat="43.22485" lon="-0.56296">
        <ele>257</ele>
        <time>2016-05-05T10:45:06</time>
      </trkpt>
      <trkpt lat="43.22492" lon="-0.56308">
        <ele>257</ele>
        <time>2016-05-05T10:45:11</time>
      </trkpt>
      <trkpt lat="43.22498" lon="-0.56313">
        <ele>257</ele>
        <time>2016-05-05T10:45:16</time>
      </trkpt>
      <trkpt lat="43.22505" lon="-0.56318">
        <ele>258</ele>
        <time>2016-05-05T10:45:21</time>
      </trkpt>
      <trkpt lat="43.22511" lon="-0.56321">
        <ele>262</ele>
        <time>2016-05-05T10:45:26</time>
      </trkpt>
      <trkpt lat="43.22519" lon="-0.56324">
        <ele>261</ele>
        <time>2016-05-05T10:45:31</time>
      </trkpt>
      <trkpt lat="43.22526" lon="-0.56321">
        <ele>264</ele>
        <time>2016-05-05T10:45:36</time>
      </trkpt>
      <trkpt lat="43.22527" lon="-0.56309">
        <ele>263</ele>
        <time>2016-05-05T10:45:41</time>
      </trkpt>
      <trkpt lat="43.22525" lon="-0.56296">
        <ele>263</ele>
        <time>2016-05-05T10:45:46</time>
      </trkpt>
      <trkpt lat="43.22528" lon="-0.56285">
        <ele>263</ele>
        <time>2016-05-05T10:45:51</time>
      </trkpt>
      <trkpt lat="43.22534" lon="-0.56275">
        <ele>265</ele>
        <time>2016-05-05T10:45:56</time>
      </trkpt>
      <trkpt lat="43.2254" lon="-0.56266">
        <ele>266</ele>
        <time>2016-05-05T10:46:01</time>
      </trkpt>
      <trkpt lat="43.22545" lon="-0.56257">
        <ele>268</ele>
        <time>2016-05-05T10:46:06</time>
      </trkpt>
      <trkpt lat="43.22549" lon="-0.56246">
        <ele>269</ele>
        <time>2016-05-05T10:46:11</time>
      </trkpt>
      <trkpt lat="43.22551" lon="-0.56231">
        <ele>269</ele>
        <time>2016-05-05T10:46:16</time>
      </trkpt>
      <trkpt lat="43.22557" lon="-0.5622">
        <ele>270</ele>
        <time>2016-05-05T10:46:21</time>
      </trkpt>
      <trkpt lat="43.22562" lon="-0.5621">
        <ele>271</ele>
        <time>2016-05-05T10:46:26</time>
      </trkpt>
      <trkpt lat="43.22569" lon="-0.56201">
        <ele>272</ele>
        <time>2016-05-05T10:46:31</time>
      </trkpt>
      <trkpt lat="43.22574" lon="-0.56191">
        <ele>273</ele>
        <time>2016-05-05T10:46:36</time>
      </trkpt>
      <trkpt lat="43.22578" lon="-0.56181">
        <ele>275</ele>
        <time>2016-05-05T10:46:41</time>
      </trkpt>
      <trkpt lat="43.22579" lon="-0.5617">
        <ele>275</ele>
        <time>2016-05-05T10:46:46</time>
      </trkpt>
      <trkpt lat="43.2258" lon="-0.56159">
        <ele>276</ele>
        <time>2016-05-05T10:46:52</time>
      </trkpt>
      <trkpt lat="43.22579" lon="-0.56148">
        <ele>277</ele>
        <time>2016-05-05T10:46:57</time>
      </trkpt>
      <trkpt lat="43.22578" lon="-0.56138">
        <ele>278</ele>
        <time>2016-05-05T10:47:02</time>
      </trkpt>
      <trkpt lat="43.22578" lon="-0.56127">
        <ele>280</ele>
        <time>2016-05-05T10:47:07</time>
      </trkpt>
      <trkpt lat="43.22577" lon="-0.56117">
        <ele>282</ele>
        <time>2016-05-05T10:47:12</time>
      </trkpt>
      <trkpt lat="43.22576" lon="-0.56107">
        <ele>281</ele>
        <time>2016-05-05T10:47:17</time>
      </trkpt>
      <trkpt lat="43.22576" lon="-0.56097">
        <ele>281</ele>
        <time>2016-05-05T10:47:22</time>
      </trkpt>
      <trkpt lat="43.22576" lon="-0.56087">
        <ele>286</ele>
        <time>2016-05-05T10:47:27</time>
      </trkpt>
      <trkpt lat="43.22577" lon="-0.56075">
        <ele>287</ele>
        <time>2016-05-05T10:47:32</time>
      </trkpt>
      <trkpt lat="43.2258" lon="-0.56065">
        <ele>287</ele>
        <time>2016-05-05T10:47:37</time>
      </trkpt>
      <trkpt lat="43.22583" lon="-0.56054">
        <ele>287</ele>
        <time>2016-05-05T10:47:42</time>
      </trkpt>
      <trkpt lat="43.22585" lon="-0.56042">
        <ele>286</ele>
        <time>2016-05-05T10:47:47</time>
      </trkpt>
      <trkpt lat="43.22585" lon="-0.5603">
        <ele>286</ele>
        <time>2016-05-05T10:47:52</time>
      </trkpt>
      <trkpt lat="43.22583" lon="-0.56019">
        <ele>288</ele>
        <time>2016-05-05T10:47:57</time>
      </trkpt>
      <trkpt lat="43.22578" lon="-0.5601">
        <ele>291</ele>
        <time>2016-05-05T10:48:02</time>
      </trkpt>
      <trkpt lat="43.22573" lon="-0.56002">
        <ele>291</ele>
        <time>2016-05-05T10:48:07</time>
      </trkpt>
      <trkpt lat="43.22566" lon="-0.55992">
        <ele>292</ele>
        <time>2016-05-05T10:48:12</time>
      </trkpt>
      <trkpt lat="43.22556" lon="-0.55981">
        <ele>292</ele>
        <time>2016-05-05T10:48:17</time>
      </trkpt>
      <trkpt lat="43.22547" lon="-0.5597">
        <ele>290</ele>
        <time>2016-05-05T10:48:22</time>
      </trkpt>
      <trkpt lat="43.22538" lon="-0.55957">
        <ele>289</ele>
        <time>2016-05-05T10:48:27</time>
      </trkpt>
      <trkpt lat="43.2253" lon="-0.55945">
        <ele>291</ele>
        <time>2016-05-05T10:48:32</time>
      </trkpt>
      <trkpt lat="43.22522" lon="-0.55932">
        <ele>288</ele>
        <time>2016-05-05T10:48:37</time>
      </trkpt>
      <trkpt lat="43.22517" lon="-0.55914">
        <ele>291</ele>
        <time>2016-05-05T10:48:42</time>
      </trkpt>
      <trkpt lat="43.22516" lon="-0.55898">
        <ele>291</ele>
        <time>2016-05-05T10:48:47</time>
      </trkpt>
      <trkpt lat="43.22519" lon="-0.55885">
        <ele>292</ele>
        <time>2016-05-05T10:48:53</time>
      </trkpt>
      <trkpt lat="43.22525" lon="-0.55875">
        <ele>294</ele>
        <time>2016-05-05T10:48:58</time>
      </trkpt>
      <trkpt lat="43.2253" lon="-0.55867">
        <ele>295</ele>
        <time>2016-05-05T10:49:03</time>
      </trkpt>
      <trkpt lat="43.22537" lon="-0.55861">
        <ele>295</ele>
        <time>2016-05-05T10:49:08</time>
      </trkpt>
      <trkpt lat="43.22543" lon="-0.55856">
        <ele>297</ele>
        <time>2016-05-05T10:49:13</time>
      </trkpt>
      <trkpt lat="43.22549" lon="-0.55851">
        <ele>297</ele>
        <time>2016-05-05T10:49:18</time>
      </trkpt>
      <trkpt lat="43.22553" lon="-0.55849">
        <ele>298</ele>
        <time>2016-05-05T10:49:23</time>
      </trkpt>
      <trkpt lat="43.22558" lon="-0.55849">
        <ele>302</ele>
        <time>2016-05-05T10:49:28</time>
      </trkpt>
      <trkpt lat="43.22564" lon="-0.55848">
        <ele>302</ele>
        <time>2016-05-05T10:49:33</time>
      </trkpt>
      <trkpt lat="43.2257" lon="-0.55848">
        <ele>301</ele>
        <time>2016-05-05T10:49:38</time>
      </trkpt>
      <trkpt lat="43.22577" lon="-0.55849">
        <ele>306</ele>
        <time>2016-05-05T10:49:43</time>
      </trkpt>
      <trkpt lat="43.22584" lon="-0.5585">
        <ele>307</ele>
        <time>2016-05-05T10:49:48</time>
      </trkpt>
      <trkpt lat="43.2259" lon="-0.5585">
        <ele>307</ele>
        <time>2016-05-05T10:49:53</time>
      </trkpt>
      <trkpt lat="43.22596" lon="-0.55849">
        <ele>307</ele>
        <time>2016-05-05T10:49:58</time>
      </trkpt>
      <trkpt lat="43.22602" lon="-0.55848">
        <ele>310</ele>
        <time>2016-05-05T10:50:03</time>
      </trkpt>
      <trkpt lat="43.22607" lon="-0.55848">
        <ele>308</ele>
        <time>2016-05-05T10:50:08</time>
      </trkpt>
      <trkpt lat="43.22612" lon="-0.55848">
        <ele>311</ele>
        <time>2016-05-05T10:50:13</time>
      </trkpt>
      <trkpt lat="43.22617" lon="-0.55848">
        <ele>313</ele>
        <time>2016-05-05T10:50:18</time>
      </trkpt>
      <trkpt lat="43.22621" lon="-0.55849">
        <ele>313</ele>
        <time>2016-05-05T10:50:23</time>
      </trkpt>
      <trkpt lat="43.22627" lon="-0.55851">
        <ele>314</ele>
        <time>2016-05-05T10:50:28</time>
      </trkpt>
      <trkpt lat="43.22633" lon="-0.55854">
        <ele>316</ele>
        <time>2016-05-05T10:50:33</time>
      </trkpt>
      <trkpt lat="43.22641" lon="-0.5586">
        <ele>316</ele>
        <time>2016-05-05T10:50:38</time>
      </trkpt>
      <trkpt lat="43.2265" lon="-0.55865">
        <ele>315</ele>
        <time>2016-05-05T10:50:43</time>
      </trkpt>
      <trkpt lat="43.22658" lon="-0.5587">
        <ele>315</ele>
        <time>2016-05-05T10:50:48</time>
      </trkpt>
      <trkpt lat="43.22666" lon="-0.55876">
        <ele>316</ele>
        <time>2016-05-05T10:50:53</time>
      </trkpt>
      <trkpt lat="43.22676" lon="-0.55884">
        <ele>317</ele>
        <time>2016-05-05T10:50:58</time>
      </trkpt>
      <trkpt lat="43.22684" lon="-0.55888">
        <ele>316</ele>
        <time>2016-05-05T10:51:04</time>
      </trkpt>
      <trkpt lat="43.22693" lon="-0.55897">
        <ele>318</ele>
        <time>2016-05-05T10:51:09</time>
      </trkpt>
      <trkpt lat="43.22702" lon="-0.55906">
        <ele>320</ele>
        <time>2016-05-05T10:51:14</time>
      </trkpt>
      <trkpt lat="43.2271" lon="-0.55914">
        <ele>318</ele>
        <time>2016-05-05T10:51:19</time>
      </trkpt>
      <trkpt lat="43.22718" lon="-0.55921">
        <ele>321</ele>
        <time>2016-05-05T10:51:24</time>
      </trkpt>
      <trkpt lat="43.22727" lon="-0.55928">
        <ele>319</ele>
        <time>2016-05-05T10:51:29</time>
      </trkpt>
      <trkpt lat="43.22736" lon="-0.55936">
        <ele>323</ele>
        <time>2016-05-05T10:51:34</time>
      </trkpt>
      <trkpt lat="43.22746" lon="-0.55944">
        <ele>320</ele>
        <time>2016-05-05T10:51:39</time>
      </trkpt>
      <trkpt lat="43.22754" lon="-0.5595">
        <ele>324</ele>
        <time>2016-05-05T10:51:44</time>
      </trkpt>
      <trkpt lat="43.22762" lon="-0.55955">
        <ele>325</ele>
        <time>2016-05-05T10:51:49</time>
      </trkpt>
      <trkpt lat="43.2277" lon="-0.55961">
        <ele>324</ele>
        <time>2016-05-05T10:51:54</time>
      </trkpt>
      <trkpt lat="43.22778" lon="-0.55968">
        <ele>326</ele>
        <time>2016-05-05T10:51:59</time>
      </trkpt>
      <trkpt lat="43.22785" lon="-0.55976">
        <ele>328</ele>
        <time>2016-05-05T10:52:04</time>
      </trkpt>
      <trkpt lat="43.22792" lon="-0.55983">
        <ele>328</ele>
        <time>2016-05-05T10:52:09</time>
      </trkpt>
      <trkpt lat="43.22798" lon="-0.5599">
        <ele>330</ele>
        <time>2016-05-05T10:52:14</time>
      </trkpt>
      <trkpt lat="43.22804" lon="-0.55998">
        <ele>328</ele>
        <time>2016-05-05T10:52:19</time>
      </trkpt>
      <trkpt lat="43.2281" lon="-0.56004">
        <ele>331</ele>
        <time>2016-05-05T10:52:24</time>
      </trkpt>
      <trkpt lat="43.22818" lon="-0.56011">
        <ele>331</ele>
        <time>2016-05-05T10:52:29</time>
      </trkpt>
      <trkpt lat="43.22824" lon="-0.56018">
        <ele>333</ele>
        <time>2016-05-05T10:52:34</time>
      </trkpt>
      <trkpt lat="43.2283" lon="-0.56023">
        <ele>335</ele>
        <time>2016-05-05T10:52:39</time>
      </trkpt>
      <trkpt lat="43.22836" lon="-0.56027">
        <ele>333</ele>
        <time>2016-05-05T10:52:44</time>
      </trkpt>
      <trkpt lat="43.22842" lon="-0.56031">
        <ele>335</ele>
        <time>2016-05-05T10:52:49</time>
      </trkpt>
      <trkpt lat="43.22849" lon="-0.56035">
        <ele>337</ele>
        <time>2016-05-05T10:52:54</time>
      </trkpt>
      <trkpt lat="43.22857" lon="-0.56038">
        <ele>340</ele>
        <time>2016-05-05T10:52:59</time>
      </trkpt>
      <trkpt lat="43.22864" lon="-0.56037">
        <ele>340</ele>
        <time>2016-05-05T10:53:04</time>
      </trkpt>
      <trkpt lat="43.22873" lon="-0.56037">
        <ele>342</ele>
        <time>2016-05-05T10:53:09</time>
      </trkpt>
      <trkpt lat="43.22879" lon="-0.56041">
        <ele>342</ele>
        <time>2016-05-05T10:53:14</time>
      </trkpt>
      <trkpt lat="43.2289" lon="-0.56061">
        <ele>342</ele>
        <time>2016-05-05T10:53:19</time>
      </trkpt>
      <trkpt lat="43.22904" lon="-0.56072">
        <ele>338</ele>
        <time>2016-05-05T10:53:24</time>
      </trkpt>
      <trkpt lat="43.22917" lon="-0.56087">
        <ele>339</ele>
        <time>2016-05-05T10:53:29</time>
      </trkpt>
      <trkpt lat="43.22945" lon="-0.56125">
        <ele>335</ele>
        <time>2016-05-05T10:53:35</time>
      </trkpt>
      <trkpt lat="43.2298" lon="-0.5618">
        <ele>331</ele>
        <time>2016-05-05T10:53:40</time>
      </trkpt>
      <trkpt lat="43.23003" lon="-0.56235">
        <ele>331</ele>
        <time>2016-05-05T10:53:45</time>
      </trkpt>
      <trkpt lat="43.23015" lon="-0.56287">
        <ele>328</ele>
        <time>2016-05-05T10:53:50</time>
      </trkpt>
      <trkpt lat="43.2303" lon="-0.56335">
        <ele>328</ele>
        <time>2016-05-05T10:53:55</time>
      </trkpt>
      <trkpt lat="43.2305" lon="-0.5637">
        <ele>327</ele>
        <time>2016-05-05T10:54:00</time>
      </trkpt>
      <trkpt lat="43.23072" lon="-0.56397">
        <ele>327</ele>
        <time>2016-05-05T10:54:05</time>
      </trkpt>
      <trkpt lat="43.23098" lon="-0.5642">
        <ele>327</ele>
        <time>2016-05-05T10:54:10</time>
      </trkpt>
      <trkpt lat="43.23125" lon="-0.56441">
        <ele>325</ele>
        <time>2016-05-05T10:54:15</time>
      </trkpt>
      <trkpt lat="43.23156" lon="-0.56458">
        <ele>326</ele>
        <time>2016-05-05T10:54:20</time>
      </trkpt>
      <trkpt lat="43.23178" lon="-0.56472">
        <ele>325</ele>
        <time>2016-05-05T10:54:25</time>
      </trkpt>
      <trkpt lat="43.23195" lon="-0.56485">
        <ele>324</ele>
        <time>2016-05-05T10:54:30</time>
      </trkpt>
      <trkpt lat="43.23211" lon="-0.56498">
        <ele>324</ele>
        <time>2016-05-05T10:54:35</time>
      </trkpt>
      <trkpt lat="43.23229" lon="-0.5651">
        <ele>324</ele>
        <time>2016-05-05T10:54:40</time>
      </trkpt>
      <trkpt lat="43.23248" lon="-0.56521">
        <ele>323</ele>
        <time>2016-05-05T10:54:45</time>
      </trkpt>
      <trkpt lat="43.23274" lon="-0.56535">
        <ele>322</ele>
        <time>2016-05-05T10:54:50</time>
      </trkpt>
      <trkpt lat="43.23306" lon="-0.56552">
        <ele>321</ele>
        <time>2016-05-05T10:54:55</time>
      </trkpt>
      <trkpt lat="43.23333" lon="-0.56568">
        <ele>318</ele>
        <time>2016-05-05T10:55:00</time>
      </trkpt>
      <trkpt lat="43.2337" lon="-0.56587">
        <ele>317</ele>
        <time>2016-05-05T10:55:05</time>
      </trkpt>
      <trkpt lat="43.23388" lon="-0.56573">
        <ele>317</ele>
        <time>2016-05-05T10:55:10</time>
      </trkpt>
      <trkpt lat="43.23376" lon="-0.56521">
        <ele>310</ele>
        <time>2016-05-05T10:55:15</time>
      </trkpt>
      <trkpt lat="43.23379" lon="-0.56451">
        <ele>303</ele>
        <time>2016-05-05T10:55:20</time>
      </trkpt>
      <trkpt lat="43.23381" lon="-0.56389">
        <ele>295</ele>
        <time>2016-05-05T10:55:25</time>
      </trkpt>
      <trkpt lat="43.23347" lon="-0.56326">
        <ele>287</ele>
        <time>2016-05-05T10:55:30</time>
      </trkpt>
      <trkpt lat="43.23353" lon="-0.56282">
        <ele>285</ele>
        <time>2016-05-05T10:55:35</time>
      </trkpt>
      <trkpt lat="43.2337" lon="-0.56279">
        <ele>287</ele>
        <time>2016-05-05T10:55:40</time>
      </trkpt>
      <trkpt lat="43.23378" lon="-0.56283">
        <ele>287</ele>
        <time>2016-05-05T10:55:45</time>
      </trkpt>
      <trkpt lat="43.23384" lon="-0.56284">
        <ele>286</ele>
        <time>2016-05-05T10:55:50</time>
      </trkpt>
      <trkpt lat="43.23391" lon="-0.56285">
        <ele>289</ele>
        <time>2016-05-05T10:55:56</time>
      </trkpt>
      <trkpt lat="43.23398" lon="-0.56286">
        <ele>290</ele>
        <time>2016-05-05T10:56:01</time>
      </trkpt>
      <trkpt lat="43.23405" lon="-0.56286">
        <ele>292</ele>
        <time>2016-05-05T10:56:06</time>
      </trkpt>
      <trkpt lat="43.23413" lon="-0.56286">
        <ele>293</ele>
        <time>2016-05-05T10:56:11</time>
      </trkpt>
      <trkpt lat="43.23421" lon="-0.56285">
        <ele>293</ele>
        <time>2016-05-05T10:56:16</time>
      </trkpt>
      <trkpt lat="43.23429" lon="-0.56285">
        <ele>293</ele>
        <time>2016-05-05T10:56:21</time>
      </trkpt>
      <trkpt lat="43.23437" lon="-0.56285">
        <ele>295</ele>
        <time>2016-05-05T10:56:26</time>
      </trkpt>
      <trkpt lat="43.23444" lon="-0.56285">
        <ele>298</ele>
        <time>2016-05-05T10:56:31</time>
      </trkpt>
      <trkpt lat="43.23453" lon="-0.56287">
        <ele>301</ele>
        <time>2016-05-05T10:56:36</time>
      </trkpt>
      <trkpt lat="43.2346" lon="-0.56287">
        <ele>301</ele>
        <time>2016-05-05T10:56:41</time>
      </trkpt>
      <trkpt lat="43.23468" lon="-0.56287">
        <ele>301</ele>
        <time>2016-05-05T10:56:46</time>
      </trkpt>
      <trkpt lat="43.23476" lon="-0.56286">
        <ele>301</ele>
        <time>2016-05-05T10:56:51</time>
      </trkpt>
      <trkpt lat="43.23483" lon="-0.56283">
        <ele>301</ele>
        <time>2016-05-05T10:56:56</time>
      </trkpt>
      <trkpt lat="43.23491" lon="-0.56282">
        <ele>303</ele>
        <time>2016-05-05T10:57:01</time>
      </trkpt>
      <trkpt lat="43.235" lon="-0.5628">
        <ele>304</ele>
        <time>2016-05-05T10:57:06</time>
      </trkpt>
      <trkpt lat="43.23506" lon="-0.5628">
        <ele>305</ele>
        <time>2016-05-05T10:57:11</time>
      </trkpt>
      <trkpt lat="43.23513" lon="-0.56279">
        <ele>305</ele>
        <time>2016-05-05T10:57:16</time>
      </trkpt>
      <trkpt lat="43.23522" lon="-0.56277">
        <ele>306</ele>
        <time>2016-05-05T10:57:21</time>
      </trkpt>
      <trkpt lat="43.23532" lon="-0.56273">
        <ele>307</ele>
        <time>2016-05-05T10:57:26</time>
      </trkpt>
      <trkpt lat="43.23542" lon="-0.56271">
        <ele>307</ele>
        <time>2016-05-05T10:57:31</time>
      </trkpt>
      <trkpt lat="43.23552" lon="-0.56269">
        <ele>306</ele>
        <time>2016-05-05T10:57:36</time>
      </trkpt>
      <trkpt lat="43.23563" lon="-0.56267">
        <ele>308</ele>
        <time>2016-05-05T10:57:41</time>
      </trkpt>
      <trkpt lat="43.23576" lon="-0.56265">
        <ele>309</ele>
        <time>2016-05-05T10:57:46</time>
      </trkpt>
      <trkpt lat="43.23588" lon="-0.56264">
        <ele>310</ele>
        <time>2016-05-05T10:57:51</time>
      </trkpt>
      <trkpt lat="43.23599" lon="-0.56261">
        <ele>311</ele>
        <time>2016-05-05T10:57:57</time>
      </trkpt>
      <trkpt lat="43.23609" lon="-0.56256">
        <ele>311</ele>
        <time>2016-05-05T10:58:02</time>
      </trkpt>
      <trkpt lat="43.23619" lon="-0.56251">
        <ele>312</ele>
        <time>2016-05-05T10:58:07</time>
      </trkpt>
      <trkpt lat="43.23629" lon="-0.56246">
        <ele>313</ele>
        <time>2016-05-05T10:58:12</time>
      </trkpt>
      <trkpt lat="43.2364" lon="-0.56239">
        <ele>314</ele>
        <time>2016-05-05T10:58:17</time>
      </trkpt>
      <trkpt lat="43.23652" lon="-0.56234">
        <ele>316</ele>
        <time>2016-05-05T10:58:22</time>
      </trkpt>
      <trkpt lat="43.23663" lon="-0.56229">
        <ele>316</ele>
        <time>2016-05-05T10:58:27</time>
      </trkpt>
      <trkpt lat="43.23676" lon="-0.56225">
        <ele>316</ele>
        <time>2016-05-05T10:58:32</time>
      </trkpt>
      <trkpt lat="43.23687" lon="-0.5622">
        <ele>318</ele>
        <time>2016-05-05T10:58:37</time>
      </trkpt>
      <trkpt lat="43.23698" lon="-0.56214">
        <ele>317</ele>
        <time>2016-05-05T10:58:42</time>
      </trkpt>
      <trkpt lat="43.23709" lon="-0.56207">
        <ele>319</ele>
        <time>2016-05-05T10:58:47</time>
      </trkpt>
      <trkpt lat="43.2372" lon="-0.56197">
        <ele>317</ele>
        <time>2016-05-05T10:58:52</time>
      </trkpt>
      <trkpt lat="43.23728" lon="-0.56185">
        <ele>319</ele>
        <time>2016-05-05T10:58:57</time>
      </trkpt>
      <trkpt lat="43.23734" lon="-0.56171">
        <ele>321</ele>
        <time>2016-05-05T10:59:02</time>
      </trkpt>
      <trkpt lat="43.23737" lon="-0.56156">
        <ele>320</ele>
        <time>2016-05-05T10:59:07</time>
      </trkpt>
      <trkpt lat="43.23739" lon="-0.56139">
        <ele>322</ele>
        <time>2016-05-05T10:59:12</time>
      </trkpt>
      <trkpt lat="43.23737" lon="-0.56117">
        <ele>320</ele>
        <time>2016-05-05T10:59:17</time>
      </trkpt>
      <trkpt lat="43.23733" lon="-0.56092">
        <ele>321</ele>
        <time>2016-05-05T10:59:22</time>
      </trkpt>
      <trkpt lat="43.23727" lon="-0.56057">
        <ele>321</ele>
        <time>2016-05-05T10:59:27</time>
      </trkpt>
      <trkpt lat="43.23725" lon="-0.56027">
        <ele>320</ele>
        <time>2016-05-05T10:59:32</time>
      </trkpt>
      <trkpt lat="43.23723" lon="-0.55999">
        <ele>319</ele>
        <time>2016-05-05T10:59:37</time>
      </trkpt>
      <trkpt lat="43.23721" lon="-0.55971">
        <ele>320</ele>
        <time>2016-05-05T10:59:42</time>
      </trkpt>
      <trkpt lat="43.23721" lon="-0.55944">
        <ele>320</ele>
        <time>2016-05-05T10:59:47</time>
      </trkpt>
      <trkpt lat="43.23721" lon="-0.55917">
        <ele>321</ele>
        <time>2016-05-05T10:59:52</time>
      </trkpt>
      <trkpt lat="43.2373" lon="-0.55892">
        <ele>321</ele>
        <time>2016-05-05T10:59:57</time>
      </trkpt>
      <trkpt lat="43.23752" lon="-0.55863">
        <ele>322</ele>
        <time>2016-05-05T11:00:02</time>
      </trkpt>
      <trkpt lat="43.23769" lon="-0.5584">
        <ele>320</ele>
        <time>2016-05-05T11:00:07</time>
      </trkpt>
      <trkpt lat="43.23788" lon="-0.55822">
        <ele>321</ele>
        <time>2016-05-05T11:00:12</time>
      </trkpt>
      <trkpt lat="43.23807" lon="-0.55805">
        <ele>320</ele>
        <time>2016-05-05T11:00:17</time>
      </trkpt>
      <trkpt lat="43.23825" lon="-0.5579">
        <ele>321</ele>
        <time>2016-05-05T11:00:22</time>
      </trkpt>
      <trkpt lat="43.23841" lon="-0.55777">
        <ele>321</ele>
        <time>2016-05-05T11:00:27</time>
      </trkpt>
      <trkpt lat="43.23857" lon="-0.55764">
        <ele>323</ele>
        <time>2016-05-05T11:00:32</time>
      </trkpt>
      <trkpt lat="43.23873" lon="-0.55752">
        <ele>324</ele>
        <time>2016-05-05T11:00:38</time>
      </trkpt>
      <trkpt lat="43.23894" lon="-0.55745">
        <ele>323</ele>
        <time>2016-05-05T11:00:43</time>
      </trkpt>
      <trkpt lat="43.23919" lon="-0.55757">
        <ele>323</ele>
        <time>2016-05-05T11:00:48</time>
      </trkpt>
      <trkpt lat="43.2394" lon="-0.55774">
        <ele>321</ele>
        <time>2016-05-05T11:00:53</time>
      </trkpt>
      <trkpt lat="43.23958" lon="-0.55787">
        <ele>321</ele>
        <time>2016-05-05T11:00:58</time>
      </trkpt>
      <trkpt lat="43.23971" lon="-0.55785">
        <ele>321</ele>
        <time>2016-05-05T11:01:03</time>
      </trkpt>
      <trkpt lat="43.23998" lon="-0.55784">
        <ele>319</ele>
        <time>2016-05-05T11:01:08</time>
      </trkpt>
      <trkpt lat="43.24013" lon="-0.55784">
        <ele>319</ele>
        <time>2016-05-05T11:01:13</time>
      </trkpt>
      <trkpt lat="43.24031" lon="-0.55787">
        <ele>319</ele>
        <time>2016-05-05T11:01:18</time>
      </trkpt>
      <trkpt lat="43.24052" lon="-0.55787">
        <ele>317</ele>
        <time>2016-05-05T11:01:23</time>
      </trkpt>
      <trkpt lat="43.24075" lon="-0.5577">
        <ele>314</ele>
        <time>2016-05-05T11:01:28</time>
      </trkpt>
      <trkpt lat="43.24092" lon="-0.55739">
        <ele>309</ele>
        <time>2016-05-05T11:01:33</time>
      </trkpt>
      <trkpt lat="43.24099" lon="-0.55702">
        <ele>305</ele>
        <time>2016-05-05T11:01:38</time>
      </trkpt>
      <trkpt lat="43.24101" lon="-0.55664">
        <ele>303</ele>
        <time>2016-05-05T11:01:43</time>
      </trkpt>
      <trkpt lat="43.24102" lon="-0.55623">
        <ele>299</ele>
        <time>2016-05-05T11:01:48</time>
      </trkpt>
      <trkpt lat="43.24099" lon="-0.55576">
        <ele>294</ele>
        <time>2016-05-05T11:01:53</time>
      </trkpt>
      <trkpt lat="43.2411" lon="-0.55552">
        <ele>292</ele>
        <time>2016-05-05T11:01:58</time>
      </trkpt>
      <trkpt lat="43.24122" lon="-0.55537">
        <ele>292</ele>
        <time>2016-05-05T11:02:03</time>
      </trkpt>
      <trkpt lat="43.24126" lon="-0.55498">
        <ele>288</ele>
        <time>2016-05-05T11:02:08</time>
      </trkpt>
      <trkpt lat="43.24126" lon="-0.55451">
        <ele>282</ele>
        <time>2016-05-05T11:02:13</time>
      </trkpt>
      <trkpt lat="43.24134" lon="-0.55417">
        <ele>276</ele>
        <time>2016-05-05T11:02:18</time>
      </trkpt>
      <trkpt lat="43.24131" lon="-0.55392">
        <ele>270</ele>
        <time>2016-05-05T11:02:23</time>
      </trkpt>
      <trkpt lat="43.24117" lon="-0.55371">
        <ele>264</ele>
        <time>2016-05-05T11:02:28</time>
      </trkpt>
      <trkpt lat="43.24104" lon="-0.55349">
        <ele>257</ele>
        <time>2016-05-05T11:02:33</time>
      </trkpt>
      <trkpt lat="43.24101" lon="-0.5533">
        <ele>251</ele>
        <time>2016-05-05T11:02:38</time>
      </trkpt>
      <trkpt lat="43.24104" lon="-0.55322">
        <ele>251</ele>
        <time>2016-05-05T11:02:43</time>
      </trkpt>
      <trkpt lat="43.24109" lon="-0.55309">
        <ele>249</ele>
        <time>2016-05-05T11:02:48</time>
      </trkpt>
      <trkpt lat="43.2412" lon="-0.55292">
        <ele>249</ele>
        <time>2016-05-05T11:02:53</time>
      </trkpt>
      <trkpt lat="43.24131" lon="-0.5527">
        <ele>249</ele>
        <time>2016-05-05T11:02:58</time>
      </trkpt>
      <trkpt lat="43.24144" lon="-0.55259">
        <ele>246</ele>
        <time>2016-05-05T11:03:04</time>
      </trkpt>
      <trkpt lat="43.24161" lon="-0.55247">
        <ele>246</ele>
        <time>2016-05-05T11:03:09</time>
      </trkpt>
      <trkpt lat="43.24171" lon="-0.55238">
        <ele>245</ele>
        <time>2016-05-05T11:03:14</time>
      </trkpt>
      <trkpt lat="43.24175" lon="-0.55227">
        <ele>246</ele>
        <time>2016-05-05T11:03:19</time>
      </trkpt>
      <trkpt lat="43.24178" lon="-0.55222">
        <ele>245</ele>
        <time>2016-05-05T11:03:24</time>
      </trkpt>
      <trkpt lat="43.24182" lon="-0.55218">
        <ele>246</ele>
        <time>2016-05-05T11:03:29</time>
      </trkpt>
      <trkpt lat="43.24189" lon="-0.55213">
        <ele>246</ele>
        <time>2016-05-05T11:03:34</time>
      </trkpt>
      <trkpt lat="43.24202" lon="-0.55212">
        <ele>245</ele>
        <time>2016-05-05T11:03:39</time>
      </trkpt>
      <trkpt lat="43.24216" lon="-0.55205">
        <ele>245</ele>
        <time>2016-05-05T11:03:44</time>
      </trkpt>
      <trkpt lat="43.24228" lon="-0.55195">
        <ele>245</ele>
        <time>2016-05-05T11:03:49</time>
      </trkpt>
      <trkpt lat="43.24237" lon="-0.55189">
        <ele>245</ele>
        <time>2016-05-05T11:03:54</time>
      </trkpt>
      <trkpt lat="43.24251" lon="-0.55178">
        <ele>246</ele>
        <time>2016-05-05T11:03:59</time>
      </trkpt>
      <trkpt lat="43.24264" lon="-0.55178">
        <ele>243</ele>
        <time>2016-05-05T11:04:04</time>
      </trkpt>
      <trkpt lat="43.24278" lon="-0.55181">
        <ele>244</ele>
        <time>2016-05-05T11:04:09</time>
      </trkpt>
      <trkpt lat="43.24293" lon="-0.55172">
        <ele>243</ele>
        <time>2016-05-05T11:04:14</time>
      </trkpt>
      <trkpt lat="43.24301" lon="-0.5516">
        <ele>244</ele>
        <time>2016-05-05T11:04:19</time>
      </trkpt>
      <trkpt lat="43.24316" lon="-0.55149">
        <ele>243</ele>
        <time>2016-05-05T11:04:24</time>
      </trkpt>
      <trkpt lat="43.24326" lon="-0.55143">
        <ele>240</ele>
        <time>2016-05-05T11:04:29</time>
      </trkpt>
      <trkpt lat="43.24335" lon="-0.55136">
        <ele>241</ele>
        <time>2016-05-05T11:04:34</time>
      </trkpt>
      <trkpt lat="43.24342" lon="-0.55129">
        <ele>243</ele>
        <time>2016-05-05T11:04:39</time>
      </trkpt>
      <trkpt lat="43.24347" lon="-0.55117">
        <ele>240</ele>
        <time>2016-05-05T11:04:44</time>
      </trkpt>
      <trkpt lat="43.24349" lon="-0.55103">
        <ele>242</ele>
        <time>2016-05-05T11:04:49</time>
      </trkpt>
      <trkpt lat="43.24355" lon="-0.55093">
        <ele>242</ele>
        <time>2016-05-05T11:04:54</time>
      </trkpt>
      <trkpt lat="43.24362" lon="-0.5508">
        <ele>244</ele>
        <time>2016-05-05T11:05:00</time>
      </trkpt>
      <trkpt lat="43.24366" lon="-0.55066">
        <ele>244</ele>
        <time>2016-05-05T11:05:05</time>
      </trkpt>
      <trkpt lat="43.24372" lon="-0.55053">
        <ele>247</ele>
        <time>2016-05-05T11:05:10</time>
      </trkpt>
      <trkpt lat="43.24378" lon="-0.55041">
        <ele>247</ele>
        <time>2016-05-05T11:05:15</time>
      </trkpt>
      <trkpt lat="43.24387" lon="-0.55024">
        <ele>247</ele>
        <time>2016-05-05T11:05:20</time>
      </trkpt>
      <trkpt lat="43.24398" lon="-0.55006">
        <ele>247</ele>
        <time>2016-05-05T11:05:25</time>
      </trkpt>
      <trkpt lat="43.24409" lon="-0.54988">
        <ele>243</ele>
        <time>2016-05-05T11:05:30</time>
      </trkpt>
      <trkpt lat="43.24416" lon="-0.54969">
        <ele>243</ele>
        <time>2016-05-05T11:05:35</time>
      </trkpt>
      <trkpt lat="43.24421" lon="-0.54962">
        <ele>240</ele>
        <time>2016-05-05T11:05:40</time>
      </trkpt>
      <trkpt lat="43.24426" lon="-0.54952">
        <ele>242</ele>
        <time>2016-05-05T11:05:45</time>
      </trkpt>
      <trkpt lat="43.24428" lon="-0.54943">
        <ele>242</ele>
        <time>2016-05-05T11:05:50</time>
      </trkpt>
      <trkpt lat="43.24429" lon="-0.54936">
        <ele>243</ele>
        <time>2016-05-05T11:05:55</time>
      </trkpt>
      <trkpt lat="43.24434" lon="-0.54935">
        <ele>242</ele>
        <time>2016-05-05T11:06:00</time>
      </trkpt>
      <trkpt lat="43.24439" lon="-0.54933">
        <ele>242</ele>
        <time>2016-05-05T11:06:05</time>
      </trkpt>
      <trkpt lat="43.24443" lon="-0.5493">
        <ele>244</ele>
        <time>2016-05-05T11:06:10</time>
      </trkpt>
      <trkpt lat="43.24446" lon="-0.54926">
        <ele>243</ele>
        <time>2016-05-05T11:06:15</time>
      </trkpt>
      <trkpt lat="43.24452" lon="-0.54918">
        <ele>243</ele>
        <time>2016-05-05T11:06:20</time>
      </trkpt>
      <trkpt lat="43.24464" lon="-0.54911">
        <ele>244</ele>
        <time>2016-05-05T11:06:25</time>
      </trkpt>
      <trkpt lat="43.24469" lon="-0.54903">
        <ele>244</ele>
        <time>2016-05-05T11:06:30</time>
      </trkpt>
      <trkpt lat="43.24475" lon="-0.54893">
        <ele>244</ele>
        <time>2016-05-05T11:06:35</time>
      </trkpt>
      <trkpt lat="43.2448" lon="-0.54882">
        <ele>246</ele>
        <time>2016-05-05T11:06:40</time>
      </trkpt>
      <trkpt lat="43.24488" lon="-0.54873">
        <ele>246</ele>
        <time>2016-05-05T11:06:45</time>
      </trkpt>
      <trkpt lat="43.24493" lon="-0.54861">
        <ele>246</ele>
        <time>2016-05-05T11:06:50</time>
      </trkpt>
      <trkpt lat="43.24499" lon="-0.54853">
        <ele>246</ele>
        <time>2016-05-05T11:06:55</time>
      </trkpt>
      <trkpt lat="43.24502" lon="-0.54842">
        <ele>246</ele>
        <time>2016-05-05T11:07:00</time>
      </trkpt>
      <trkpt lat="43.24504" lon="-0.5483">
        <ele>248</ele>
        <time>2016-05-05T11:07:05</time>
      </trkpt>
      <trkpt lat="43.24508" lon="-0.54817">
        <ele>246</ele>
        <time>2016-05-05T11:07:10</time>
      </trkpt>
      <trkpt lat="43.24509" lon="-0.54803">
        <ele>250</ele>
        <time>2016-05-05T11:07:16</time>
      </trkpt>
      <trkpt lat="43.24511" lon="-0.54787">
        <ele>250</ele>
        <time>2016-05-05T11:07:21</time>
      </trkpt>
      <trkpt lat="43.24512" lon="-0.54774">
        <ele>249</ele>
        <time>2016-05-05T11:07:26</time>
      </trkpt>
      <trkpt lat="43.24512" lon="-0.54759">
        <ele>250</ele>
        <time>2016-05-05T11:07:31</time>
      </trkpt>
      <trkpt lat="43.24512" lon="-0.54747">
        <ele>249</ele>
        <time>2016-05-05T11:07:36</time>
      </trkpt>
      <trkpt lat="43.24513" lon="-0.54737">
        <ele>250</ele>
        <time>2016-05-05T11:07:41</time>
      </trkpt>
      <trkpt lat="43.24512" lon="-0.54724">
        <ele>251</ele>
        <time>2016-05-05T11:07:46</time>
      </trkpt>
      <trkpt lat="43.24512" lon="-0.54715">
        <ele>252</ele>
        <time>2016-05-05T11:07:51</time>
      </trkpt>
      <trkpt lat="43.24514" lon="-0.54708">
        <ele>251</ele>
        <time>2016-05-05T11:07:56</time>
      </trkpt>
      <trkpt lat="43.24516" lon="-0.54705">
        <ele>250</ele>
        <time>2016-05-05T11:08:01</time>
      </trkpt>
      <trkpt lat="43.24518" lon="-0.54702">
        <ele>250</ele>
        <time>2016-05-05T11:08:06</time>
      </trkpt>
      <trkpt lat="43.24522" lon="-0.54701">
        <ele>251</ele>
        <time>2016-05-05T11:08:11</time>
      </trkpt>
      <trkpt lat="43.24527" lon="-0.547">
        <ele>255</ele>
        <time>2016-05-05T11:08:16</time>
      </trkpt>
      <trkpt lat="43.24532" lon="-0.547">
        <ele>254</ele>
        <time>2016-05-05T11:08:21</time>
      </trkpt>
      <trkpt lat="43.24538" lon="-0.54701">
        <ele>255</ele>
        <time>2016-05-05T11:08:26</time>
      </trkpt>
      <trkpt lat="43.24543" lon="-0.547">
        <ele>256</ele>
        <time>2016-05-05T11:08:31</time>
      </trkpt>
      <trkpt lat="43.2455" lon="-0.54699">
        <ele>259</ele>
        <time>2016-05-05T11:08:36</time>
      </trkpt>
      <trkpt lat="43.2456" lon="-0.547">
        <ele>260</ele>
        <time>2016-05-05T11:08:41</time>
      </trkpt>
      <trkpt lat="43.24567" lon="-0.54703">
        <ele>261</ele>
        <time>2016-05-05T11:08:46</time>
      </trkpt>
      <trkpt lat="43.24574" lon="-0.54704">
        <ele>260</ele>
        <time>2016-05-05T11:08:51</time>
      </trkpt>
      <trkpt lat="43.24582" lon="-0.54704">
        <ele>262</ele>
        <time>2016-05-05T11:08:56</time>
      </trkpt>
      <trkpt lat="43.24589" lon="-0.54706">
        <ele>262</ele>
        <time>2016-05-05T11:09:01</time>
      </trkpt>
      <trkpt lat="43.24597" lon="-0.54705">
        <ele>264</ele>
        <time>2016-05-05T11:09:06</time>
      </trkpt>
      <trkpt lat="43.24603" lon="-0.54703">
        <ele>266</ele>
        <time>2016-05-05T11:09:11</time>
      </trkpt>
      <trkpt lat="43.24611" lon="-0.54703">
        <ele>264</ele>
        <time>2016-05-05T11:09:16</time>
      </trkpt>
      <trkpt lat="43.24617" lon="-0.54701">
        <ele>266</ele>
        <time>2016-05-05T11:09:21</time>
      </trkpt>
      <trkpt lat="43.24622" lon="-0.54699">
        <ele>269</ele>
        <time>2016-05-05T11:09:26</time>
      </trkpt>
      <trkpt lat="43.24629" lon="-0.54695">
        <ele>269</ele>
        <time>2016-05-05T11:09:32</time>
      </trkpt>
      <trkpt lat="43.24634" lon="-0.5469">
        <ele>271</ele>
        <time>2016-05-05T11:09:37</time>
      </trkpt>
      <trkpt lat="43.24639" lon="-0.54685">
        <ele>274</ele>
        <time>2016-05-05T11:09:42</time>
      </trkpt>
      <trkpt lat="43.24642" lon="-0.54683">
        <ele>273</ele>
        <time>2016-05-05T11:09:47</time>
      </trkpt>
      <trkpt lat="43.24645" lon="-0.54681">
        <ele>272</ele>
        <time>2016-05-05T11:09:52</time>
      </trkpt>
      <trkpt lat="43.24649" lon="-0.54674">
        <ele>275</ele>
        <time>2016-05-05T11:09:57</time>
      </trkpt>
      <trkpt lat="43.24653" lon="-0.54668">
        <ele>275</ele>
        <time>2016-05-05T11:10:02</time>
      </trkpt>
      <trkpt lat="43.24657" lon="-0.54663">
        <ele>276</ele>
        <time>2016-05-05T11:10:07</time>
      </trkpt>
      <trkpt lat="43.24658" lon="-0.54659">
        <ele>278</ele>
        <time>2016-05-05T11:10:12</time>
      </trkpt>
      <trkpt lat="43.24659" lon="-0.54655">
        <ele>280</ele>
        <time>2016-05-05T11:10:17</time>
      </trkpt>
      <trkpt lat="43.24662" lon="-0.5465">
        <ele>278</ele>
        <time>2016-05-05T11:10:22</time>
      </trkpt>
      <trkpt lat="43.24665" lon="-0.54643">
        <ele>281</ele>
        <time>2016-05-05T11:10:27</time>
      </trkpt>
      <trkpt lat="43.24668" lon="-0.54638">
        <ele>283</ele>
        <time>2016-05-05T11:10:32</time>
      </trkpt>
      <trkpt lat="43.2467" lon="-0.54634">
        <ele>282</ele>
        <time>2016-05-05T11:10:37</time>
      </trkpt>
      <trkpt lat="43.24671" lon="-0.54632">
        <ele>282</ele>
        <time>2016-05-05T11:10:42</time>
      </trkpt>
      <trkpt lat="43.24674" lon="-0.54627">
        <ele>285</ele>
        <time>2016-05-05T11:10:47</time>
      </trkpt>
      <trkpt lat="43.24677" lon="-0.54621">
        <ele>285</ele>
        <time>2016-05-05T11:10:52</time>
      </trkpt>
      <trkpt lat="43.2468" lon="-0.54614">
        <ele>285</ele>
        <time>2016-05-05T11:10:57</time>
      </trkpt>
      <trkpt lat="43.24684" lon="-0.54607">
        <ele>288</ele>
        <time>2016-05-05T11:11:02</time>
      </trkpt>
      <trkpt lat="43.24687" lon="-0.546">
        <ele>288</ele>
        <time>2016-05-05T11:11:07</time>
      </trkpt>
      <trkpt lat="43.24689" lon="-0.54593">
        <ele>291</ele>
        <time>2016-05-05T11:11:12</time>
      </trkpt>
      <trkpt lat="43.24691" lon="-0.54586">
        <ele>292</ele>
        <time>2016-05-05T11:11:17</time>
      </trkpt>
      <trkpt lat="43.24694" lon="-0.5458">
        <ele>291</ele>
        <time>2016-05-05T11:11:22</time>
      </trkpt>
      <trkpt lat="43.24696" lon="-0.54573">
        <ele>293</ele>
        <time>2016-05-05T11:11:27</time>
      </trkpt>
      <trkpt lat="43.24699" lon="-0.54567">
        <ele>295</ele>
        <time>2016-05-05T11:11:33</time>
      </trkpt>
      <trkpt lat="43.24704" lon="-0.54563">
        <ele>297</ele>
        <time>2016-05-05T11:11:38</time>
      </trkpt>
      <trkpt lat="43.24708" lon="-0.54566">
        <ele>296</ele>
        <time>2016-05-05T11:11:43</time>
      </trkpt>
      <trkpt lat="43.24713" lon="-0.5457">
        <ele>297</ele>
        <time>2016-05-05T11:11:48</time>
      </trkpt>
      <trkpt lat="43.24719" lon="-0.54579">
        <ele>297</ele>
        <time>2016-05-05T11:11:53</time>
      </trkpt>
      <trkpt lat="43.24724" lon="-0.54585">
        <ele>296</ele>
        <time>2016-05-05T11:11:58</time>
      </trkpt>
      <trkpt lat="43.24729" lon="-0.54593">
        <ele>296</ele>
        <time>2016-05-05T11:12:03</time>
      </trkpt>
      <trkpt lat="43.24731" lon="-0.54599">
        <ele>300</ele>
        <time>2016-05-05T11:12:08</time>
      </trkpt>
      <trkpt lat="43.24735" lon="-0.54608">
        <ele>297</ele>
        <time>2016-05-05T11:12:13</time>
      </trkpt>
      <trkpt lat="43.24739" lon="-0.54617">
        <ele>300</ele>
        <time>2016-05-05T11:12:18</time>
      </trkpt>
      <trkpt lat="43.24743" lon="-0.54628">
        <ele>298</ele>
        <time>2016-05-05T11:12:23</time>
      </trkpt>
      <trkpt lat="43.24746" lon="-0.5464">
        <ele>301</ele>
        <time>2016-05-05T11:12:28</time>
      </trkpt>
      <trkpt lat="43.24748" lon="-0.54653">
        <ele>300</ele>
        <time>2016-05-05T11:12:33</time>
      </trkpt>
      <trkpt lat="43.24752" lon="-0.54665">
        <ele>303</ele>
        <time>2016-05-05T11:12:38</time>
      </trkpt>
      <trkpt lat="43.24755" lon="-0.54676">
        <ele>304</ele>
        <time>2016-05-05T11:12:43</time>
      </trkpt>
      <trkpt lat="43.2476" lon="-0.54686">
        <ele>301</ele>
        <time>2016-05-05T11:12:48</time>
      </trkpt>
      <trkpt lat="43.24765" lon="-0.54698">
        <ele>304</ele>
        <time>2016-05-05T11:12:53</time>
      </trkpt>
      <trkpt lat="43.24768" lon="-0.5471">
        <ele>309</ele>
        <time>2016-05-05T11:12:58</time>
      </trkpt>
      <trkpt lat="43.24769" lon="-0.54724">
        <ele>305</ele>
        <time>2016-05-05T11:13:03</time>
      </trkpt>
      <trkpt lat="43.24765" lon="-0.54738">
        <ele>306</ele>
        <time>2016-05-05T11:13:08</time>
      </trkpt>
      <trkpt lat="43.24759" lon="-0.54755">
        <ele>307</ele>
        <time>2016-05-05T11:13:13</time>
      </trkpt>
      <trkpt lat="43.24757" lon="-0.54769">
        <ele>305</ele>
        <time>2016-05-05T11:13:18</time>
      </trkpt>
      <trkpt lat="43.24755" lon="-0.54783">
        <ele>305</ele>
        <time>2016-05-05T11:13:23</time>
      </trkpt>
      <trkpt lat="43.24753" lon="-0.54802">
        <ele>308</ele>
        <time>2016-05-05T11:13:28</time>
      </trkpt>
      <trkpt lat="43.24752" lon="-0.54817">
        <ele>307</ele>
        <time>2016-05-05T11:13:33</time>
      </trkpt>
      <trkpt lat="43.24752" lon="-0.54834">
        <ele>307</ele>
        <time>2016-05-05T11:13:39</time>
      </trkpt>
      <trkpt lat="43.24753" lon="-0.54849">
        <ele>307</ele>
        <time>2016-05-05T11:13:44</time>
      </trkpt>
      <trkpt lat="43.24757" lon="-0.54865">
        <ele>308</ele>
        <time>2016-05-05T11:13:49</time>
      </trkpt>
      <trkpt lat="43.24758" lon="-0.54881">
        <ele>307</ele>
        <time>2016-05-05T11:13:54</time>
      </trkpt>
      <trkpt lat="43.24763" lon="-0.54901">
        <ele>309</ele>
        <time>2016-05-05T11:13:59</time>
      </trkpt>
      <trkpt lat="43.24769" lon="-0.54917">
        <ele>309</ele>
        <time>2016-05-05T11:14:04</time>
      </trkpt>
      <trkpt lat="43.2477" lon="-0.5493">
        <ele>308</ele>
        <time>2016-05-05T11:14:09</time>
      </trkpt>
      <trkpt lat="43.2477" lon="-0.54933">
        <ele>309</ele>
        <time>2016-05-05T11:14:14</time>
      </trkpt>
      <trkpt lat="43.2477" lon="-0.54936">
        <ele>310</ele>
        <time>2016-05-05T11:14:19</time>
      </trkpt>
      <trkpt lat="43.24771" lon="-0.54935">
        <ele>310</ele>
        <time>2016-05-05T11:14:24</time>
      </trkpt>
      <trkpt lat="43.24774" lon="-0.54937">
        <ele>309</ele>
        <time>2016-05-05T11:14:29</time>
      </trkpt>
      <trkpt lat="43.24775" lon="-0.54936">
        <ele>307</ele>
        <time>2016-05-05T11:14:34</time>
      </trkpt>
      <trkpt lat="43.24778" lon="-0.54933">
        <ele>306</ele>
        <time>2016-05-05T11:14:39</time>
      </trkpt>
      <trkpt lat="43.24785" lon="-0.54929">
        <ele>305</ele>
        <time>2016-05-05T11:14:44</time>
      </trkpt>
      <trkpt lat="43.24795" lon="-0.54931">
        <ele>301</ele>
        <time>2016-05-05T11:14:49</time>
      </trkpt>
      <trkpt lat="43.24809" lon="-0.54926">
        <ele>296</ele>
        <time>2016-05-05T11:14:54</time>
      </trkpt>
      <trkpt lat="43.24819" lon="-0.54924">
        <ele>289</ele>
        <time>2016-05-05T11:14:59</time>
      </trkpt>
      <trkpt lat="43.24825" lon="-0.54922">
        <ele>288</ele>
        <time>2016-05-05T11:15:04</time>
      </trkpt>
      <trkpt lat="43.24828" lon="-0.54922">
        <ele>288</ele>
        <time>2016-05-05T11:15:09</time>
      </trkpt>
      <trkpt lat="43.24834" lon="-0.5492">
        <ele>288</ele>
        <time>2016-05-05T11:15:14</time>
      </trkpt>
      <trkpt lat="43.24844" lon="-0.54921">
        <ele>283</ele>
        <time>2016-05-05T11:15:19</time>
      </trkpt>
      <trkpt lat="43.24854" lon="-0.54916">
        <ele>278</ele>
        <time>2016-05-05T11:15:24</time>
      </trkpt>
      <trkpt lat="43.24869" lon="-0.54907">
        <ele>272</ele>
        <time>2016-05-05T11:15:29</time>
      </trkpt>
      <trkpt lat="43.24889" lon="-0.54909">
        <ele>266</ele>
        <time>2016-05-05T11:15:34</time>
      </trkpt>
      <trkpt lat="43.24911" lon="-0.54905">
        <ele>261</ele>
        <time>2016-05-05T11:15:39</time>
      </trkpt>
      <trkpt lat="43.24931" lon="-0.5491">
        <ele>256</ele>
        <time>2016-05-05T11:15:44</time>
      </trkpt>
      <trkpt lat="43.24945" lon="-0.54921">
        <ele>251</ele>
        <time>2016-05-05T11:15:49</time>
      </trkpt>
      <trkpt lat="43.24962" lon="-0.54928">
        <ele>246</ele>
        <time>2016-05-05T11:15:55</time>
      </trkpt>
      <trkpt lat="43.24978" lon="-0.5494">
        <ele>241</ele>
        <time>2016-05-05T11:16:00</time>
      </trkpt>
      <trkpt lat="43.24997" lon="-0.54941">
        <ele>236</ele>
        <time>2016-05-05T11:16:05</time>
      </trkpt>
      <trkpt lat="43.25017" lon="-0.54929">
        <ele>235</ele>
        <time>2016-05-05T11:16:10</time>
      </trkpt>
      <trkpt lat="43.25026" lon="-0.54924">
        <ele>231</ele>
        <time>2016-05-05T11:16:15</time>
      </trkpt>
      <trkpt lat="43.25037" lon="-0.54918">
        <ele>228</ele>
        <time>2016-05-05T11:16:20</time>
      </trkpt>
      <trkpt lat="43.2505" lon="-0.54907">
        <ele>230</ele>
        <time>2016-05-05T11:16:25</time>
      </trkpt>
      <trkpt lat="43.25057" lon="-0.54899">
        <ele>231</ele>
        <time>2016-05-05T11:16:30</time>
      </trkpt>
      <trkpt lat="43.25067" lon="-0.54887">
        <ele>231</ele>
        <time>2016-05-05T11:16:35</time>
      </trkpt>
      <trkpt lat="43.25075" lon="-0.5487">
        <ele>231</ele>
        <time>2016-05-05T11:16:40</time>
      </trkpt>
      <trkpt lat="43.25084" lon="-0.54855">
        <ele>231</ele>
        <time>2016-05-05T11:16:45</time>
      </trkpt>
      <trkpt lat="43.25093" lon="-0.54839">
        <ele>232</ele>
        <time>2016-05-05T11:16:50</time>
      </trkpt>
      <trkpt lat="43.25094" lon="-0.54823">
        <ele>231</ele>
        <time>2016-05-05T11:16:55</time>
      </trkpt>
      <trkpt lat="43.25096" lon="-0.54808">
        <ele>231</ele>
        <time>2016-05-05T11:17:00</time>
      </trkpt>
      <trkpt lat="43.25105" lon="-0.54782">
        <ele>231</ele>
        <time>2016-05-05T11:17:05</time>
      </trkpt>
      <trkpt lat="43.25119" lon="-0.54755">
        <ele>231</ele>
        <time>2016-05-05T11:17:10</time>
      </trkpt>
      <trkpt lat="43.25136" lon="-0.54723">
        <ele>228</ele>
        <time>2016-05-05T11:17:15</time>
      </trkpt>
      <trkpt lat="43.25148" lon="-0.54701">
        <ele>225</ele>
        <time>2016-05-05T11:17:20</time>
      </trkpt>
      <trkpt lat="43.25167" lon="-0.54689">
        <ele>220</ele>
        <time>2016-05-05T11:17:25</time>
      </trkpt>
      <trkpt lat="43.25177" lon="-0.54684">
        <ele>218</ele>
        <time>2016-05-05T11:17:30</time>
      </trkpt>
      <trkpt lat="43.25193" lon="-0.54671">
        <ele>217</ele>
        <time>2016-05-05T11:17:35</time>
      </trkpt>
      <trkpt lat="43.25212" lon="-0.54661">
        <ele>217</ele>
        <time>2016-05-05T11:17:40</time>
      </trkpt>
      <trkpt lat="43.25217" lon="-0.54657">
        <ele>216</ele>
        <time>2016-05-05T11:17:46</time>
      </trkpt>
      <trkpt lat="43.2523" lon="-0.54646">
        <ele>215</ele>
        <time>2016-05-05T11:17:51</time>
      </trkpt>
      <trkpt lat="43.25249" lon="-0.54635">
        <ele>214</ele>
        <time>2016-05-05T11:17:56</time>
      </trkpt>
      <trkpt lat="43.25271" lon="-0.54623">
        <ele>210</ele>
        <time>2016-05-05T11:18:01</time>
      </trkpt>
      <trkpt lat="43.25292" lon="-0.54597">
        <ele>207</ele>
        <time>2016-05-05T11:18:06</time>
      </trkpt>
      <trkpt lat="43.25312" lon="-0.54576">
        <ele>207</ele>
        <time>2016-05-05T11:18:11</time>
      </trkpt>
      <trkpt lat="43.2532" lon="-0.54564">
        <ele>204</ele>
        <time>2016-05-05T11:18:16</time>
      </trkpt>
      <trkpt lat="43.25325" lon="-0.54558">
        <ele>204</ele>
        <time>2016-05-05T11:18:21</time>
      </trkpt>
      <trkpt lat="43.25331" lon="-0.54551">
        <ele>202</ele>
        <time>2016-05-05T11:18:26</time>
      </trkpt>
      <trkpt lat="43.25339" lon="-0.54545">
        <ele>202</ele>
        <time>2016-05-05T11:18:31</time>
      </trkpt>
      <trkpt lat="43.25345" lon="-0.54539">
        <ele>204</ele>
        <time>2016-05-05T11:18:36</time>
      </trkpt>
      <trkpt lat="43.25354" lon="-0.5453">
        <ele>206</ele>
        <time>2016-05-05T11:18:41</time>
      </trkpt>
      <trkpt lat="43.25363" lon="-0.54522">
        <ele>206</ele>
        <time>2016-05-05T11:18:46</time>
      </trkpt>
      <trkpt lat="43.2537" lon="-0.5451">
        <ele>205</ele>
        <time>2016-05-05T11:18:51</time>
      </trkpt>
      <trkpt lat="43.25378" lon="-0.54497">
        <ele>206</ele>
        <time>2016-05-05T11:18:56</time>
      </trkpt>
      <trkpt lat="43.25386" lon="-0.54482">
        <ele>208</ele>
        <time>2016-05-05T11:19:01</time>
      </trkpt>
      <trkpt lat="43.25386" lon="-0.54467">
        <ele>207</ele>
        <time>2016-05-05T11:19:06</time>
      </trkpt>
      <trkpt lat="43.2538" lon="-0.54453">
        <ele>208</ele>
        <time>2016-05-05T11:19:11</time>
      </trkpt>
      <trkpt lat="43.2537" lon="-0.54437">
        <ele>209</ele>
        <time>2016-05-05T11:19:16</time>
      </trkpt>
      <trkpt lat="43.2536" lon="-0.54422">
        <ele>210</ele>
        <time>2016-05-05T11:19:21</time>
      </trkpt>
      <trkpt lat="43.25348" lon="-0.54401">
        <ele>210</ele>
        <time>2016-05-05T11:19:26</time>
      </trkpt>
      <trkpt lat="43.25336" lon="-0.54381">
        <ele>208</ele>
        <time>2016-05-05T11:19:31</time>
      </trkpt>
      <trkpt lat="43.25324" lon="-0.54362">
        <ele>209</ele>
        <time>2016-05-05T11:19:36</time>
      </trkpt>
      <trkpt lat="43.25312" lon="-0.54341">
        <ele>209</ele>
        <time>2016-05-05T11:19:41</time>
      </trkpt>
      <trkpt lat="43.25299" lon="-0.54321">
        <ele>209</ele>
        <time>2016-05-05T11:19:46</time>
      </trkpt>
      <trkpt lat="43.25286" lon="-0.54301">
        <ele>209</ele>
        <time>2016-05-05T11:19:51</time>
      </trkpt>
      <trkpt lat="43.25272" lon="-0.54281">
        <ele>210</ele>
        <time>2016-05-05T11:19:56</time>
      </trkpt>
      <trkpt lat="43.25259" lon="-0.54261">
        <ele>210</ele>
        <time>2016-05-05T11:20:01</time>
      </trkpt>
      <trkpt lat="43.25246" lon="-0.5424">
        <ele>210</ele>
        <time>2016-05-05T11:20:06</time>
      </trkpt>
      <trkpt lat="43.25232" lon="-0.5422">
        <ele>210</ele>
        <time>2016-05-05T11:20:12</time>
      </trkpt>
      <trkpt lat="43.2522" lon="-0.54203">
        <ele>210</ele>
        <time>2016-05-05T11:20:17</time>
      </trkpt>
      <trkpt lat="43.25206" lon="-0.54185">
        <ele>211</ele>
        <time>2016-05-05T11:20:22</time>
      </trkpt>
      <trkpt lat="43.25194" lon="-0.54165">
        <ele>213</ele>
        <time>2016-05-05T11:20:27</time>
      </trkpt>
      <trkpt lat="43.25179" lon="-0.54138">
        <ele>212</ele>
        <time>2016-05-05T11:20:32</time>
      </trkpt>
      <trkpt lat="43.25166" lon="-0.54114">
        <ele>212</ele>
        <time>2016-05-05T11:20:37</time>
      </trkpt>
      <trkpt lat="43.25154" lon="-0.5409">
        <ele>213</ele>
        <time>2016-05-05T11:20:42</time>
      </trkpt>
      <trkpt lat="43.25141" lon="-0.54068">
        <ele>213</ele>
        <time>2016-05-05T11:20:47</time>
      </trkpt>
      <trkpt lat="43.2513" lon="-0.54051">
        <ele>213</ele>
        <time>2016-05-05T11:20:52</time>
      </trkpt>
      <trkpt lat="43.25117" lon="-0.54029">
        <ele>213</ele>
        <time>2016-05-05T11:20:57</time>
      </trkpt>
      <trkpt lat="43.25105" lon="-0.54008">
        <ele>215</ele>
        <time>2016-05-05T11:21:02</time>
      </trkpt>
      <trkpt lat="43.25091" lon="-0.53987">
        <ele>216</ele>
        <time>2016-05-05T11:21:07</time>
      </trkpt>
      <trkpt lat="43.25078" lon="-0.53966">
        <ele>215</ele>
        <time>2016-05-05T11:21:12</time>
      </trkpt>
      <trkpt lat="43.25065" lon="-0.53945">
        <ele>215</ele>
        <time>2016-05-05T11:21:17</time>
      </trkpt>
      <trkpt lat="43.25053" lon="-0.53924">
        <ele>216</ele>
        <time>2016-05-05T11:21:22</time>
      </trkpt>
      <trkpt lat="43.2504" lon="-0.53904">
        <ele>216</ele>
        <time>2016-05-05T11:21:27</time>
      </trkpt>
      <trkpt lat="43.25027" lon="-0.53883">
        <ele>217</ele>
        <time>2016-05-05T11:21:32</time>
      </trkpt>
      <trkpt lat="43.25015" lon="-0.53863">
        <ele>217</ele>
        <time>2016-05-05T11:21:37</time>
      </trkpt>
      <trkpt lat="43.25" lon="-0.5384">
        <ele>218</ele>
        <time>2016-05-05T11:21:42</time>
      </trkpt>
      <trkpt lat="43.24989" lon="-0.53822">
        <ele>220</ele>
        <time>2016-05-05T11:21:47</time>
      </trkpt>
      <trkpt lat="43.24978" lon="-0.53805">
        <ele>220</ele>
        <time>2016-05-05T11:21:52</time>
      </trkpt>
      <trkpt lat="43.24968" lon="-0.53787">
        <ele>220</ele>
        <time>2016-05-05T11:21:57</time>
      </trkpt>
      <trkpt lat="43.24969" lon="-0.53769">
        <ele>220</ele>
        <time>2016-05-05T11:22:02</time>
      </trkpt>
      <trkpt lat="43.24979" lon="-0.53759">
        <ele>223</ele>
        <time>2016-05-05T11:22:07</time>
      </trkpt>
      <trkpt lat="43.24986" lon="-0.53748">
        <ele>222</ele>
        <time>2016-05-05T11:22:12</time>
      </trkpt>
      <trkpt lat="43.24995" lon="-0.53739">
        <ele>223</ele>
        <time>2016-05-05T11:22:17</time>
      </trkpt>
      <trkpt lat="43.25002" lon="-0.53734">
        <ele>224</ele>
        <time>2016-05-05T11:22:22</time>
      </trkpt>
      <trkpt lat="43.25007" lon="-0.53725">
        <ele>225</ele>
        <time>2016-05-05T11:22:27</time>
      </trkpt>
      <trkpt lat="43.25013" lon="-0.53719">
        <ele>225</ele>
        <time>2016-05-05T11:22:32</time>
      </trkpt>
      <trkpt lat="43.25018" lon="-0.53711">
        <ele>225</ele>
        <time>2016-05-05T11:22:38</time>
      </trkpt>
      <trkpt lat="43.25023" lon="-0.53706">
        <ele>227</ele>
        <time>2016-05-05T11:22:43</time>
      </trkpt>
      <trkpt lat="43.25028" lon="-0.53698">
        <ele>225</ele>
        <time>2016-05-05T11:22:48</time>
      </trkpt>
      <trkpt lat="43.25034" lon="-0.53692">
        <ele>229</ele>
        <time>2016-05-05T11:22:53</time>
      </trkpt>
      <trkpt lat="43.25038" lon="-0.53684">
        <ele>230</ele>
        <time>2016-05-05T11:22:58</time>
      </trkpt>
      <trkpt lat="43.25044" lon="-0.53678">
        <ele>231</ele>
        <time>2016-05-05T11:23:03</time>
      </trkpt>
      <trkpt lat="43.2505" lon="-0.53675">
        <ele>233</ele>
        <time>2016-05-05T11:23:08</time>
      </trkpt>
      <trkpt lat="43.25056" lon="-0.53668">
        <ele>231</ele>
        <time>2016-05-05T11:23:13</time>
      </trkpt>
      <trkpt lat="43.25062" lon="-0.53662">
        <ele>233</ele>
        <time>2016-05-05T11:23:18</time>
      </trkpt>
      <trkpt lat="43.25067" lon="-0.53656">
        <ele>233</ele>
        <time>2016-05-05T11:23:23</time>
      </trkpt>
      <trkpt lat="43.25071" lon="-0.5365">
        <ele>232</ele>
        <time>2016-05-05T11:23:28</time>
      </trkpt>
      <trkpt lat="43.25076" lon="-0.53643">
        <ele>234</ele>
        <time>2016-05-05T11:23:33</time>
      </trkpt>
      <trkpt lat="43.2508" lon="-0.53639">
        <ele>235</ele>
        <time>2016-05-05T11:23:38</time>
      </trkpt>
      <trkpt lat="43.25085" lon="-0.53633">
        <ele>237</ele>
        <time>2016-05-05T11:23:43</time>
      </trkpt>
      <trkpt lat="43.2509" lon="-0.53627">
        <ele>239</ele>
        <time>2016-05-05T11:23:48</time>
      </trkpt>
      <trkpt lat="43.25096" lon="-0.53626">
        <ele>238</ele>
        <time>2016-05-05T11:23:53</time>
      </trkpt>
      <trkpt lat="43.251" lon="-0.53627">
        <ele>239</ele>
        <time>2016-05-05T11:23:58</time>
      </trkpt>
      <trkpt lat="43.25102" lon="-0.5363">
        <ele>242</ele>
        <time>2016-05-05T11:24:03</time>
      </trkpt>
      <trkpt lat="43.25103" lon="-0.53636">
        <ele>241</ele>
        <time>2016-05-05T11:24:08</time>
      </trkpt>
      <trkpt lat="43.25103" lon="-0.53641">
        <ele>243</ele>
        <time>2016-05-05T11:24:13</time>
      </trkpt>
      <trkpt lat="43.25102" lon="-0.53645">
        <ele>242</ele>
        <time>2016-05-05T11:24:18</time>
      </trkpt>
      <trkpt lat="43.25102" lon="-0.5365">
        <ele>243</ele>
        <time>2016-05-05T11:24:23</time>
      </trkpt>
      <trkpt lat="43.25101" lon="-0.53655">
        <ele>243</ele>
        <time>2016-05-05T11:24:28</time>
      </trkpt>
      <trkpt lat="43.25101" lon="-0.53659">
        <ele>245</ele>
        <time>2016-05-05T11:24:33</time>
      </trkpt>
      <trkpt lat="43.25101" lon="-0.53662">
        <ele>246</ele>
        <time>2016-05-05T11:24:38</time>
      </trkpt>
      <trkpt lat="43.251" lon="-0.53666">
        <ele>246</ele>
        <time>2016-05-05T11:24:43</time>
      </trkpt>
      <trkpt lat="43.25098" lon="-0.5367">
        <ele>246</ele>
        <time>2016-05-05T11:24:48</time>
      </trkpt>
      <trkpt lat="43.25097" lon="-0.53675">
        <ele>247</ele>
        <time>2016-05-05T11:24:53</time>
      </trkpt>
      <trkpt lat="43.25097" lon="-0.53678">
        <ele>246</ele>
        <time>2016-05-05T11:24:59</time>
      </trkpt>
      <trkpt lat="43.25094" lon="-0.53687">
        <ele>247</ele>
        <time>2016-05-05T11:25:04</time>
      </trkpt>
      <trkpt lat="43.2509" lon="-0.53696">
        <ele>247</ele>
        <time>2016-05-05T11:25:09</time>
      </trkpt>
      <trkpt lat="43.25086" lon="-0.53704">
        <ele>249</ele>
        <time>2016-05-05T11:25:14</time>
      </trkpt>
      <trkpt lat="43.25084" lon="-0.53715">
        <ele>248</ele>
        <time>2016-05-05T11:25:19</time>
      </trkpt>
      <trkpt lat="43.25082" lon="-0.53726">
        <ele>249</ele>
        <time>2016-05-05T11:25:24</time>
      </trkpt>
      <trkpt lat="43.25085" lon="-0.53738">
        <ele>250</ele>
        <time>2016-05-05T11:25:29</time>
      </trkpt>
      <trkpt lat="43.25088" lon="-0.53747">
        <ele>254</ele>
        <time>2016-05-05T11:25:34</time>
      </trkpt>
      <trkpt lat="43.25091" lon="-0.53755">
        <ele>254</ele>
        <time>2016-05-05T11:25:39</time>
      </trkpt>
      <trkpt lat="43.25093" lon="-0.5376">
        <ele>253</ele>
        <time>2016-05-05T11:25:44</time>
      </trkpt>
      <trkpt lat="43.25095" lon="-0.53765">
        <ele>253</ele>
        <time>2016-05-05T11:25:49</time>
      </trkpt>
      <trkpt lat="43.25098" lon="-0.53771">
        <ele>255</ele>
        <time>2016-05-05T11:25:54</time>
      </trkpt>
      <trkpt lat="43.25099" lon="-0.53773">
        <ele>255</ele>
        <time>2016-05-05T11:25:59</time>
      </trkpt>
      <trkpt lat="43.25105" lon="-0.53778">
        <ele>255</ele>
        <time>2016-05-05T11:26:04</time>
      </trkpt>
      <trkpt lat="43.25112" lon="-0.53781">
        <ele>259</ele>
        <time>2016-05-05T11:26:09</time>
      </trkpt>
      <trkpt lat="43.25118" lon="-0.53784">
        <ele>259</ele>
        <time>2016-05-05T11:26:14</time>
      </trkpt>
      <trkpt lat="43.25124" lon="-0.53787">
        <ele>261</ele>
        <time>2016-05-05T11:26:19</time>
      </trkpt>
      <trkpt lat="43.25129" lon="-0.53791">
        <ele>261</ele>
        <time>2016-05-05T11:26:24</time>
      </trkpt>
      <trkpt lat="43.25135" lon="-0.53794">
        <ele>260</ele>
        <time>2016-05-05T11:26:29</time>
      </trkpt>
      <trkpt lat="43.25141" lon="-0.53797">
        <ele>260</ele>
        <time>2016-05-05T11:26:34</time>
      </trkpt>
      <trkpt lat="43.25146" lon="-0.53799">
        <ele>261</ele>
        <time>2016-05-05T11:26:39</time>
      </trkpt>
      <trkpt lat="43.25151" lon="-0.53801">
        <ele>263</ele>
        <time>2016-05-05T11:26:44</time>
      </trkpt>
      <trkpt lat="43.25155" lon="-0.53802">
        <ele>262</ele>
        <time>2016-05-05T11:26:49</time>
      </trkpt>
      <trkpt lat="43.25157" lon="-0.53804">
        <ele>263</ele>
        <time>2016-05-05T11:26:54</time>
      </trkpt>
      <trkpt lat="43.25158" lon="-0.53805">
        <ele>263</ele>
        <time>2016-05-05T11:27:00</time>
      </trkpt>
      <trkpt lat="43.25159" lon="-0.53807">
        <ele>262</ele>
        <time>2016-05-05T11:27:05</time>
      </trkpt>
      <trkpt lat="43.25163" lon="-0.53809">
        <ele>262</ele>
        <time>2016-05-05T11:27:10</time>
      </trkpt>
      <trkpt lat="43.25168" lon="-0.53811">
        <ele>265</ele>
        <time>2016-05-05T11:27:15</time>
      </trkpt>
      <trkpt lat="43.25169" lon="-0.53812">
        <ele>265</ele>
        <time>2016-05-05T11:27:20</time>
      </trkpt>
      <trkpt lat="43.25172" lon="-0.53812">
        <ele>264</ele>
        <time>2016-05-05T11:27:25</time>
      </trkpt>
      <trkpt lat="43.25175" lon="-0.53814">
        <ele>266</ele>
        <time>2016-05-05T11:27:30</time>
      </trkpt>
      <trkpt lat="43.2518" lon="-0.53816">
        <ele>267</ele>
        <time>2016-05-05T11:27:35</time>
      </trkpt>
      <trkpt lat="43.25184" lon="-0.53817">
        <ele>267</ele>
        <time>2016-05-05T11:27:40</time>
      </trkpt>
      <trkpt lat="43.25188" lon="-0.53814">
        <ele>269</ele>
        <time>2016-05-05T11:27:45</time>
      </trkpt>
      <trkpt lat="43.25192" lon="-0.53809">
        <ele>271</ele>
        <time>2016-05-05T11:27:50</time>
      </trkpt>
      <trkpt lat="43.25195" lon="-0.53804">
        <ele>272</ele>
        <time>2016-05-05T11:27:55</time>
      </trkpt>
      <trkpt lat="43.25199" lon="-0.53798">
        <ele>273</ele>
        <time>2016-05-05T11:28:00</time>
      </trkpt>
      <trkpt lat="43.25204" lon="-0.53792">
        <ele>275</ele>
        <time>2016-05-05T11:28:05</time>
      </trkpt>
      <trkpt lat="43.25208" lon="-0.53786">
        <ele>275</ele>
        <time>2016-05-05T11:28:10</time>
      </trkpt>
      <trkpt lat="43.25212" lon="-0.53781">
        <ele>274</ele>
        <time>2016-05-05T11:28:15</time>
      </trkpt>
      <trkpt lat="43.25217" lon="-0.53774">
        <ele>276</ele>
        <time>2016-05-05T11:28:20</time>
      </trkpt>
      <trkpt lat="43.2522" lon="-0.53767">
        <ele>279</ele>
        <time>2016-05-05T11:28:25</time>
      </trkpt>
      <trkpt lat="43.25224" lon="-0.53759">
        <ele>281</ele>
        <time>2016-05-05T11:28:30</time>
      </trkpt>
      <trkpt lat="43.25227" lon="-0.53753">
        <ele>279</ele>
        <time>2016-05-05T11:28:35</time>
      </trkpt>
      <trkpt lat="43.25229" lon="-0.53746">
        <ele>279</ele>
        <time>2016-05-05T11:28:40</time>
      </trkpt>
      <trkpt lat="43.2523" lon="-0.53738">
        <ele>281</ele>
        <time>2016-05-05T11:28:45</time>
      </trkpt>
      <trkpt lat="43.25232" lon="-0.53729">
        <ele>282</ele>
        <time>2016-05-05T11:28:50</time>
      </trkpt>
      <trkpt lat="43.25232" lon="-0.53722">
        <ele>285</ele>
        <time>2016-05-05T11:28:56</time>
      </trkpt>
      <trkpt lat="43.25235" lon="-0.53712">
        <ele>286</ele>
        <time>2016-05-05T11:29:01</time>
      </trkpt>
      <trkpt lat="43.25237" lon="-0.53702">
        <ele>287</ele>
        <time>2016-05-05T11:29:06</time>
      </trkpt>
      <trkpt lat="43.25238" lon="-0.53692">
        <ele>287</ele>
        <time>2016-05-05T11:29:11</time>
      </trkpt>
      <trkpt lat="43.25238" lon="-0.53683">
        <ele>288</ele>
        <time>2016-05-05T11:29:16</time>
      </trkpt>
      <trkpt lat="43.2524" lon="-0.53673">
        <ele>288</ele>
        <time>2016-05-05T11:29:21</time>
      </trkpt>
      <trkpt lat="43.25243" lon="-0.53662">
        <ele>288</ele>
        <time>2016-05-05T11:29:26</time>
      </trkpt>
      <trkpt lat="43.25245" lon="-0.53653">
        <ele>290</ele>
        <time>2016-05-05T11:29:31</time>
      </trkpt>
      <trkpt lat="43.25247" lon="-0.53643">
        <ele>292</ele>
        <time>2016-05-05T11:29:36</time>
      </trkpt>
      <trkpt lat="43.25248" lon="-0.53632">
        <ele>294</ele>
        <time>2016-05-05T11:29:41</time>
      </trkpt>
      <trkpt lat="43.25249" lon="-0.5362">
        <ele>294</ele>
        <time>2016-05-05T11:29:46</time>
      </trkpt>
      <trkpt lat="43.2525" lon="-0.53606">
        <ele>291</ele>
        <time>2016-05-05T11:29:51</time>
      </trkpt>
      <trkpt lat="43.25251" lon="-0.53592">
        <ele>293</ele>
        <time>2016-05-05T11:29:56</time>
      </trkpt>
      <trkpt lat="43.25251" lon="-0.53581">
        <ele>295</ele>
        <time>2016-05-05T11:30:01</time>
      </trkpt>
      <trkpt lat="43.25254" lon="-0.53566">
        <ele>294</ele>
        <time>2016-05-05T11:30:06</time>
      </trkpt>
      <trkpt lat="43.25256" lon="-0.5355">
        <ele>296</ele>
        <time>2016-05-05T11:30:11</time>
      </trkpt>
      <trkpt lat="43.25259" lon="-0.53535">
        <ele>295</ele>
        <time>2016-05-05T11:30:16</time>
      </trkpt>
      <trkpt lat="43.25262" lon="-0.5352">
        <ele>295</ele>
        <time>2016-05-05T11:30:21</time>
      </trkpt>
      <trkpt lat="43.25266" lon="-0.53507">
        <ele>296</ele>
        <time>2016-05-05T11:30:26</time>
      </trkpt>
      <trkpt lat="43.2527" lon="-0.53493">
        <ele>297</ele>
        <time>2016-05-05T11:30:31</time>
      </trkpt>
      <trkpt lat="43.25275" lon="-0.53477">
        <ele>297</ele>
        <time>2016-05-05T11:30:36</time>
      </trkpt>
      <trkpt lat="43.25276" lon="-0.53463">
        <ele>298</ele>
        <time>2016-05-05T11:30:41</time>
      </trkpt>
      <trkpt lat="43.25277" lon="-0.53449">
        <ele>299</ele>
        <time>2016-05-05T11:30:46</time>
      </trkpt>
      <trkpt lat="43.25279" lon="-0.53436">
        <ele>300</ele>
        <time>2016-05-05T11:30:51</time>
      </trkpt>
      <trkpt lat="43.25282" lon="-0.53424">
        <ele>301</ele>
        <time>2016-05-05T11:30:56</time>
      </trkpt>
      <trkpt lat="43.25282" lon="-0.53412">
        <ele>301</ele>
        <time>2016-05-05T11:31:01</time>
      </trkpt>
      <trkpt lat="43.25284" lon="-0.534">
        <ele>304</ele>
        <time>2016-05-05T11:31:06</time>
      </trkpt>
      <trkpt lat="43.25285" lon="-0.5339">
        <ele>305</ele>
        <time>2016-05-05T11:31:12</time>
      </trkpt>
      <trkpt lat="43.25286" lon="-0.5338">
        <ele>304</ele>
        <time>2016-05-05T11:31:17</time>
      </trkpt>
      <trkpt lat="43.25286" lon="-0.5337">
        <ele>305</ele>
        <time>2016-05-05T11:31:22</time>
      </trkpt>
      <trkpt lat="43.25288" lon="-0.5336">
        <ele>308</ele>
        <time>2016-05-05T11:31:27</time>
      </trkpt>
      <trkpt lat="43.2529" lon="-0.5335">
        <ele>308</ele>
        <time>2016-05-05T11:31:32</time>
      </trkpt>
      <trkpt lat="43.25293" lon="-0.53341">
        <ele>309</ele>
        <time>2016-05-05T11:31:37</time>
      </trkpt>
      <trkpt lat="43.25301" lon="-0.5333">
        <ele>309</ele>
        <time>2016-05-05T11:31:42</time>
      </trkpt>
      <trkpt lat="43.25307" lon="-0.53318">
        <ele>310</ele>
        <time>2016-05-05T11:31:47</time>
      </trkpt>
      <trkpt lat="43.25314" lon="-0.53303">
        <ele>309</ele>
        <time>2016-05-05T11:31:52</time>
      </trkpt>
      <trkpt lat="43.2532" lon="-0.53291">
        <ele>311</ele>
        <time>2016-05-05T11:31:57</time>
      </trkpt>
      <trkpt lat="43.25325" lon="-0.5328">
        <ele>312</ele>
        <time>2016-05-05T11:32:02</time>
      </trkpt>
      <trkpt lat="43.25335" lon="-0.53273">
        <ele>313</ele>
        <time>2016-05-05T11:32:07</time>
      </trkpt>
      <trkpt lat="43.25346" lon="-0.53271">
        <ele>314</ele>
        <time>2016-05-05T11:32:12</time>
      </trkpt>
      <trkpt lat="43.25355" lon="-0.53273">
        <ele>313</ele>
        <time>2016-05-05T11:32:17</time>
      </trkpt>
      <trkpt lat="43.25366" lon="-0.53274">
        <ele>315</ele>
        <time>2016-05-05T11:32:22</time>
      </trkpt>
      <trkpt lat="43.25377" lon="-0.53274">
        <ele>315</ele>
        <time>2016-05-05T11:32:27</time>
      </trkpt>
      <trkpt lat="43.2539" lon="-0.53275">
        <ele>316</ele>
        <time>2016-05-05T11:32:32</time>
      </trkpt>
      <trkpt lat="43.25401" lon="-0.53277">
        <ele>314</ele>
        <time>2016-05-05T11:32:37</time>
      </trkpt>
      <trkpt lat="43.25412" lon="-0.53279">
        <ele>316</ele>
        <time>2016-05-05T11:32:42</time>
      </trkpt>
      <trkpt lat="43.25425" lon="-0.53279">
        <ele>319</ele>
        <time>2016-05-05T11:32:47</time>
      </trkpt>
      <trkpt lat="43.25438" lon="-0.53275">
        <ele>319</ele>
        <time>2016-05-05T11:32:52</time>
      </trkpt>
      <trkpt lat="43.25448" lon="-0.53267">
        <ele>321</ele>
        <time>2016-05-05T11:32:57</time>
      </trkpt>
      <trkpt lat="43.25457" lon="-0.53257">
        <ele>321</ele>
        <time>2016-05-05T11:33:02</time>
      </trkpt>
      <trkpt lat="43.25466" lon="-0.53248">
        <ele>322</ele>
        <time>2016-05-05T11:33:07</time>
      </trkpt>
      <trkpt lat="43.25477" lon="-0.53238">
        <ele>322</ele>
        <time>2016-05-05T11:33:13</time>
      </trkpt>
      <trkpt lat="43.25489" lon="-0.53227">
        <ele>323</ele>
        <time>2016-05-05T11:33:18</time>
      </trkpt>
      <trkpt lat="43.255" lon="-0.53215">
        <ele>323</ele>
        <time>2016-05-05T11:33:23</time>
      </trkpt>
      <trkpt lat="43.25512" lon="-0.53203">
        <ele>323</ele>
        <time>2016-05-05T11:33:28</time>
      </trkpt>
      <trkpt lat="43.25525" lon="-0.53189">
        <ele>321</ele>
        <time>2016-05-05T11:33:33</time>
      </trkpt>
      <trkpt lat="43.25536" lon="-0.53176">
        <ele>323</ele>
        <time>2016-05-05T11:33:38</time>
      </trkpt>
      <trkpt lat="43.25547" lon="-0.53162">
        <ele>322</ele>
        <time>2016-05-05T11:33:43</time>
      </trkpt>
      <trkpt lat="43.25556" lon="-0.5315">
        <ele>324</ele>
        <time>2016-05-05T11:33:48</time>
      </trkpt>
      <trkpt lat="43.25569" lon="-0.53134">
        <ele>324</ele>
        <time>2016-05-05T11:33:53</time>
      </trkpt>
      <trkpt lat="43.25584" lon="-0.53128">
        <ele>326</ele>
        <time>2016-05-05T11:33:58</time>
      </trkpt>
      <trkpt lat="43.256" lon="-0.53128">
        <ele>324</ele>
        <time>2016-05-05T11:34:03</time>
      </trkpt>
      <trkpt lat="43.2561" lon="-0.53126">
        <ele>324</ele>
        <time>2016-05-05T11:34:08</time>
      </trkpt>
      <trkpt lat="43.25623" lon="-0.53121">
        <ele>324</ele>
        <time>2016-05-05T11:34:13</time>
      </trkpt>
      <trkpt lat="43.25638" lon="-0.53114">
        <ele>324</ele>
        <time>2016-05-05T11:34:18</time>
      </trkpt>
      <trkpt lat="43.25669" lon="-0.53113">
        <ele>322</ele>
        <time>2016-05-05T11:34:23</time>
      </trkpt>
      <trkpt lat="43.25708" lon="-0.53119">
        <ele>315</ele>
        <time>2016-05-05T11:34:28</time>
      </trkpt>
      <trkpt lat="43.25745" lon="-0.53094">
        <ele>315</ele>
        <time>2016-05-05T11:34:33</time>
      </trkpt>
      <trkpt lat="43.2576" lon="-0.53075">
        <ele>315</ele>
        <time>2016-05-05T11:34:38</time>
      </trkpt>
      <trkpt lat="43.25768" lon="-0.53062">
        <ele>317</ele>
        <time>2016-05-05T11:34:43</time>
      </trkpt>
      <trkpt lat="43.25775" lon="-0.53053">
        <ele>317</ele>
        <time>2016-05-05T11:34:48</time>
      </trkpt>
      <trkpt lat="43.25784" lon="-0.53038">
        <ele>319</ele>
        <time>2016-05-05T11:34:53</time>
      </trkpt>
      <trkpt lat="43.25795" lon="-0.5302">
        <ele>318</ele>
        <time>2016-05-05T11:34:58</time>
      </trkpt>
      <trkpt lat="43.25803" lon="-0.52998">
        <ele>319</ele>
        <time>2016-05-05T11:35:03</time>
      </trkpt>
      <trkpt lat="43.25811" lon="-0.52946">
        <ele>313</ele>
        <time>2016-05-05T11:35:08</time>
      </trkpt>
      <trkpt lat="43.25817" lon="-0.52887">
        <ele>307</ele>
        <time>2016-05-05T11:35:13</time>
      </trkpt>
      <trkpt lat="43.25819" lon="-0.52853">
        <ele>302</ele>
        <time>2016-05-05T11:35:18</time>
      </trkpt>
      <trkpt lat="43.25822" lon="-0.5284">
        <ele>302</ele>
        <time>2016-05-05T11:35:23</time>
      </trkpt>
      <trkpt lat="43.25824" lon="-0.52836">
        <ele>301</ele>
        <time>2016-05-05T11:35:28</time>
      </trkpt>
      <trkpt lat="43.25826" lon="-0.52832">
        <ele>302</ele>
        <time>2016-05-05T11:35:33</time>
      </trkpt>
      <trkpt lat="43.25829" lon="-0.52812">
        <ele>301</ele>
        <time>2016-05-05T11:35:38</time>
      </trkpt>
      <trkpt lat="43.25839" lon="-0.52781">
        <ele>299</ele>
        <time>2016-05-05T11:35:44</time>
      </trkpt>
      <trkpt lat="43.25857" lon="-0.52742">
        <ele>295</ele>
        <time>2016-05-05T11:35:49</time>
      </trkpt>
      <trkpt lat="43.25877" lon="-0.52702">
        <ele>290</ele>
        <time>2016-05-05T11:35:54</time>
      </trkpt>
      <trkpt lat="43.25896" lon="-0.52672">
        <ele>284</ele>
        <time>2016-05-05T11:35:59</time>
      </trkpt>
      <trkpt lat="43.25911" lon="-0.52647">
        <ele>277</ele>
        <time>2016-05-05T11:36:04</time>
      </trkpt>
      <trkpt lat="43.2592" lon="-0.52628">
        <ele>273</ele>
        <time>2016-05-05T11:36:09</time>
      </trkpt>
      <trkpt lat="43.2592" lon="-0.52595">
        <ele>267</ele>
        <time>2016-05-05T11:36:14</time>
      </trkpt>
      <trkpt lat="43.25934" lon="-0.52557">
        <ele>262</ele>
        <time>2016-05-05T11:36:19</time>
      </trkpt>
      <trkpt lat="43.25943" lon="-0.52513">
        <ele>257</ele>
        <time>2016-05-05T11:36:24</time>
      </trkpt>
      <trkpt lat="43.2595" lon="-0.52482">
        <ele>252</ele>
        <time>2016-05-05T11:36:29</time>
      </trkpt>
      <trkpt lat="43.2596" lon="-0.52468">
        <ele>251</ele>
        <time>2016-05-05T11:36:34</time>
      </trkpt>
      <trkpt lat="43.25969" lon="-0.52456">
        <ele>251</ele>
        <time>2016-05-05T11:36:39</time>
      </trkpt>
      <trkpt lat="43.25978" lon="-0.52441">
        <ele>251</ele>
        <time>2016-05-05T11:36:44</time>
      </trkpt>
      <trkpt lat="43.25992" lon="-0.52417">
        <ele>250</ele>
        <time>2016-05-05T11:36:49</time>
      </trkpt>
      <trkpt lat="43.2601" lon="-0.52392">
        <ele>250</ele>
        <time>2016-05-05T11:36:54</time>
      </trkpt>
      <trkpt lat="43.26025" lon="-0.52373">
        <ele>250</ele>
        <time>2016-05-05T11:36:59</time>
      </trkpt>
      <trkpt lat="43.26041" lon="-0.52355">
        <ele>251</ele>
        <time>2016-05-05T11:37:04</time>
      </trkpt>
      <trkpt lat="43.26057" lon="-0.52331">
        <ele>250</ele>
        <time>2016-05-05T11:37:09</time>
      </trkpt>
      <trkpt lat="43.26075" lon="-0.52309">
        <ele>249</ele>
        <time>2016-05-05T11:37:14</time>
      </trkpt>
      <trkpt lat="43.26091" lon="-0.52286">
        <ele>248</ele>
        <time>2016-05-05T11:37:19</time>
      </trkpt>
      <trkpt lat="43.26111" lon="-0.52258">
        <ele>248</ele>
        <time>2016-05-05T11:37:24</time>
      </trkpt>
      <trkpt lat="43.26135" lon="-0.52232">
        <ele>246</ele>
        <time>2016-05-05T11:37:29</time>
      </trkpt>
      <trkpt lat="43.2615" lon="-0.522">
        <ele>245</ele>
        <time>2016-05-05T11:37:34</time>
      </trkpt>
      <trkpt lat="43.26169" lon="-0.5217">
        <ele>244</ele>
        <time>2016-05-05T11:37:39</time>
      </trkpt>
      <trkpt lat="43.26189" lon="-0.5215">
        <ele>243</ele>
        <time>2016-05-05T11:37:44</time>
      </trkpt>
      <trkpt lat="43.26214" lon="-0.52131">
        <ele>242</ele>
        <time>2016-05-05T11:37:49</time>
      </trkpt>
      <trkpt lat="43.26238" lon="-0.52119">
        <ele>242</ele>
        <time>2016-05-05T11:37:54</time>
      </trkpt>
      <trkpt lat="43.26262" lon="-0.52104">
        <ele>243</ele>
        <time>2016-05-05T11:37:59</time>
      </trkpt>
      <trkpt lat="43.26282" lon="-0.52101">
        <ele>242</ele>
        <time>2016-05-05T11:38:04</time>
      </trkpt>
      <trkpt lat="43.26304" lon="-0.52093">
        <ele>242</ele>
        <time>2016-05-05T11:38:09</time>
      </trkpt>
      <trkpt lat="43.26323" lon="-0.5207">
        <ele>240</ele>
        <time>2016-05-05T11:38:14</time>
      </trkpt>
      <trkpt lat="43.2633" lon="-0.52046">
        <ele>238</ele>
        <time>2016-05-05T11:38:19</time>
      </trkpt>
      <trkpt lat="43.26334" lon="-0.52028">
        <ele>238</ele>
        <time>2016-05-05T11:38:25</time>
      </trkpt>
      <trkpt lat="43.26342" lon="-0.52006">
        <ele>238</ele>
        <time>2016-05-05T11:38:30</time>
      </trkpt>
      <trkpt lat="43.26345" lon="-0.51988">
        <ele>235</ele>
        <time>2016-05-05T11:38:35</time>
      </trkpt>
      <trkpt lat="43.26342" lon="-0.5198">
        <ele>234</ele>
        <time>2016-05-05T11:38:40</time>
      </trkpt>
      <trkpt lat="43.26347" lon="-0.51977">
        <ele>234</ele>
        <time>2016-05-05T11:38:45</time>
      </trkpt>
      <trkpt lat="43.26355" lon="-0.51973">
        <ele>236</ele>
        <time>2016-05-05T11:38:50</time>
      </trkpt>
      <trkpt lat="43.26363" lon="-0.51968">
        <ele>238</ele>
        <time>2016-05-05T11:38:55</time>
      </trkpt>
      <trkpt lat="43.26369" lon="-0.51964">
        <ele>239</ele>
        <time>2016-05-05T11:39:00</time>
      </trkpt>
      <trkpt lat="43.26376" lon="-0.5196">
        <ele>239</ele>
        <time>2016-05-05T11:39:05</time>
      </trkpt>
      <trkpt lat="43.26379" lon="-0.5196">
        <ele>242</ele>
        <time>2016-05-05T11:39:10</time>
      </trkpt>
      <trkpt lat="43.2638" lon="-0.51959">
        <ele>242</ele>
        <time>2016-05-05T11:39:15</time>
      </trkpt>
      <trkpt lat="43.26382" lon="-0.51959">
        <ele>242</ele>
        <time>2016-05-05T11:39:20</time>
      </trkpt>
      <trkpt lat="43.26384" lon="-0.51957">
        <ele>243</ele>
        <time>2016-05-05T11:39:25</time>
      </trkpt>
      <trkpt lat="43.26389" lon="-0.51954">
        <ele>243</ele>
        <time>2016-05-05T11:39:30</time>
      </trkpt>
      <trkpt lat="43.26395" lon="-0.5195">
        <ele>245</ele>
        <time>2016-05-05T11:39:35</time>
      </trkpt>
      <trkpt lat="43.26399" lon="-0.51947">
        <ele>246</ele>
        <time>2016-05-05T11:39:40</time>
      </trkpt>
      <trkpt lat="43.26404" lon="-0.51943">
        <ele>248</ele>
        <time>2016-05-05T11:39:45</time>
      </trkpt>
      <trkpt lat="43.2641" lon="-0.51941">
        <ele>250</ele>
        <time>2016-05-05T11:39:50</time>
      </trkpt>
      <trkpt lat="43.26416" lon="-0.51938">
        <ele>251</ele>
        <time>2016-05-05T11:39:55</time>
      </trkpt>
      <trkpt lat="43.26422" lon="-0.51935">
        <ele>251</ele>
        <time>2016-05-05T11:40:00</time>
      </trkpt>
      <trkpt lat="43.26429" lon="-0.51932">
        <ele>252</ele>
        <time>2016-05-05T11:40:05</time>
      </trkpt>
      <trkpt lat="43.26435" lon="-0.5193">
        <ele>253</ele>
        <time>2016-05-05T11:40:10</time>
      </trkpt>
      <trkpt lat="43.26441" lon="-0.51927">
        <ele>255</ele>
        <time>2016-05-05T11:40:15</time>
      </trkpt>
      <trkpt lat="43.26447" lon="-0.51924">
        <ele>255</ele>
        <time>2016-05-05T11:40:20</time>
      </trkpt>
      <trkpt lat="43.26454" lon="-0.51921">
        <ele>257</ele>
        <time>2016-05-05T11:40:26</time>
      </trkpt>
      <trkpt lat="43.2646" lon="-0.51917">
        <ele>256</ele>
        <time>2016-05-05T11:40:31</time>
      </trkpt>
      <trkpt lat="43.2646" lon="-0.51911">
        <ele>258</ele>
        <time>2016-05-05T11:40:36</time>
      </trkpt>
      <trkpt lat="43.2646" lon="-0.51905">
        <ele>261</ele>
        <time>2016-05-05T11:40:41</time>
      </trkpt>
      <trkpt lat="43.26456" lon="-0.519">
        <ele>263</ele>
        <time>2016-05-05T11:40:46</time>
      </trkpt>
      <trkpt lat="43.26453" lon="-0.51893">
        <ele>263</ele>
        <time>2016-05-05T11:40:51</time>
      </trkpt>
      <trkpt lat="43.26451" lon="-0.51885">
        <ele>265</ele>
        <time>2016-05-05T11:40:56</time>
      </trkpt>
      <trkpt lat="43.26448" lon="-0.51877">
        <ele>266</ele>
        <time>2016-05-05T11:41:01</time>
      </trkpt>
      <trkpt lat="43.26444" lon="-0.5187">
        <ele>269</ele>
        <time>2016-05-05T11:41:06</time>
      </trkpt>
      <trkpt lat="43.26441" lon="-0.51862">
        <ele>268</ele>
        <time>2016-05-05T11:41:11</time>
      </trkpt>
      <trkpt lat="43.26437" lon="-0.51856">
        <ele>271</ele>
        <time>2016-05-05T11:41:16</time>
      </trkpt>
      <trkpt lat="43.26435" lon="-0.51849">
        <ele>270</ele>
        <time>2016-05-05T11:41:21</time>
      </trkpt>
      <trkpt lat="43.26432" lon="-0.5184">
        <ele>271</ele>
        <time>2016-05-05T11:41:26</time>
      </trkpt>
      <trkpt lat="43.2643" lon="-0.51829">
        <ele>273</ele>
        <time>2016-05-05T11:41:31</time>
      </trkpt>
      <trkpt lat="43.26429" lon="-0.5182">
        <ele>273</ele>
        <time>2016-05-05T11:41:36</time>
      </trkpt>
      <trkpt lat="43.26432" lon="-0.51812">
        <ele>273</ele>
        <time>2016-05-05T11:41:41</time>
      </trkpt>
      <trkpt lat="43.26435" lon="-0.51804">
        <ele>275</ele>
        <time>2016-05-05T11:41:46</time>
      </trkpt>
      <trkpt lat="43.26437" lon="-0.51795">
        <ele>274</ele>
        <time>2016-05-05T11:41:51</time>
      </trkpt>
      <trkpt lat="43.26433" lon="-0.51785">
        <ele>276</ele>
        <time>2016-05-05T11:41:56</time>
      </trkpt>
      <trkpt lat="43.26429" lon="-0.51777">
        <ele>276</ele>
        <time>2016-05-05T11:42:01</time>
      </trkpt>
      <trkpt lat="43.26424" lon="-0.51765">
        <ele>274</ele>
        <time>2016-05-05T11:42:06</time>
      </trkpt>
      <trkpt lat="43.26425" lon="-0.51747">
        <ele>278</ele>
        <time>2016-05-05T11:42:11</time>
      </trkpt>
      <trkpt lat="43.26419" lon="-0.51723">
        <ele>276</ele>
        <time>2016-05-05T11:42:16</time>
      </trkpt>
      <trkpt lat="43.26419" lon="-0.51692">
        <ele>274</ele>
        <time>2016-05-05T11:42:22</time>
      </trkpt>
      <trkpt lat="43.26427" lon="-0.51672">
        <ele>271</ele>
        <time>2016-05-05T11:42:27</time>
      </trkpt>
      <trkpt lat="43.26423" lon="-0.5164">
        <ele>264</ele>
        <time>2016-05-05T11:42:32</time>
      </trkpt>
      <trkpt lat="43.26436" lon="-0.51625">
        <ele>260</ele>
        <time>2016-05-05T11:42:37</time>
      </trkpt>
      <trkpt lat="43.26461" lon="-0.51615">
        <ele>254</ele>
        <time>2016-05-05T11:42:42</time>
      </trkpt>
      <trkpt lat="43.2649" lon="-0.51595">
        <ele>246</ele>
        <time>2016-05-05T11:42:47</time>
      </trkpt>
      <trkpt lat="43.2651" lon="-0.51568">
        <ele>240</ele>
        <time>2016-05-05T11:42:52</time>
      </trkpt>
      <trkpt lat="43.26523" lon="-0.51533">
        <ele>232</ele>
        <time>2016-05-05T11:42:57</time>
      </trkpt>
      <trkpt lat="43.26539" lon="-0.51502">
        <ele>226</ele>
        <time>2016-05-05T11:43:02</time>
      </trkpt>
      <trkpt lat="43.26539" lon="-0.51459">
        <ele>218</ele>
        <time>2016-05-05T11:43:07</time>
      </trkpt>
      <trkpt lat="43.26537" lon="-0.51423">
        <ele>211</ele>
        <time>2016-05-05T11:43:12</time>
      </trkpt>
      <trkpt lat="43.26558" lon="-0.51415">
        <ele>209</ele>
        <time>2016-05-05T11:43:17</time>
      </trkpt>
      <trkpt lat="43.26582" lon="-0.51412">
        <ele>206</ele>
        <time>2016-05-05T11:43:22</time>
      </trkpt>
      <trkpt lat="43.2662" lon="-0.51427">
        <ele>204</ele>
        <time>2016-05-05T11:43:27</time>
      </trkpt>
      <trkpt lat="43.26654" lon="-0.51445">
        <ele>202</ele>
        <time>2016-05-05T11:43:32</time>
      </trkpt>
      <trkpt lat="43.26686" lon="-0.5145">
        <ele>201</ele>
        <time>2016-05-05T11:43:37</time>
      </trkpt>
      <trkpt lat="43.26727" lon="-0.51447">
        <ele>199</ele>
        <time>2016-05-05T11:43:42</time>
      </trkpt>
      <trkpt lat="43.2677" lon="-0.51438">
        <ele>196</ele>
        <time>2016-05-05T11:43:47</time>
      </trkpt>
      <trkpt lat="43.26792" lon="-0.51437">
        <ele>194</ele>
        <time>2016-05-05T11:43:52</time>
      </trkpt>
      <trkpt lat="43.26804" lon="-0.51434">
        <ele>194</ele>
        <time>2016-05-05T11:43:57</time>
      </trkpt>
      <trkpt lat="43.2682" lon="-0.5143">
        <ele>195</ele>
        <time>2016-05-05T11:44:02</time>
      </trkpt>
      <trkpt lat="43.2684" lon="-0.51433">
        <ele>197</ele>
        <time>2016-05-05T11:44:07</time>
      </trkpt>
      <trkpt lat="43.26861" lon="-0.51429">
        <ele>194</ele>
        <time>2016-05-05T11:44:12</time>
      </trkpt>
      <trkpt lat="43.26889" lon="-0.51417">
        <ele>193</ele>
        <time>2016-05-05T11:44:17</time>
      </trkpt>
      <trkpt lat="43.26925" lon="-0.51395">
        <ele>188</ele>
        <time>2016-05-05T11:44:22</time>
      </trkpt>
      <trkpt lat="43.26972" lon="-0.51368">
        <ele>189</ele>
        <time>2016-05-05T11:44:27</time>
      </trkpt>
      <trkpt lat="43.26999" lon="-0.51339">
        <ele>187</ele>
        <time>2016-05-05T11:44:32</time>
      </trkpt>
      <trkpt lat="43.27014" lon="-0.51306">
        <ele>185</ele>
        <time>2016-05-05T11:44:37</time>
      </trkpt>
      <trkpt lat="43.27027" lon="-0.51275">
        <ele>186</ele>
        <time>2016-05-05T11:44:42</time>
      </trkpt>
      <trkpt lat="43.27031" lon="-0.51237">
        <ele>185</ele>
        <time>2016-05-05T11:44:47</time>
      </trkpt>
      <trkpt lat="43.27042" lon="-0.51201">
        <ele>184</ele>
        <time>2016-05-05T11:44:52</time>
      </trkpt>
      <trkpt lat="43.27054" lon="-0.51168">
        <ele>184</ele>
        <time>2016-05-05T11:44:57</time>
      </trkpt>
      <trkpt lat="43.27064" lon="-0.51136">
        <ele>184</ele>
        <time>2016-05-05T11:45:03</time>
      </trkpt>
      <trkpt lat="43.27073" lon="-0.51105">
        <ele>183</ele>
        <time>2016-05-05T11:45:08</time>
      </trkpt>
      <trkpt lat="43.27088" lon="-0.51082">
        <ele>184</ele>
        <time>2016-05-05T11:45:13</time>
      </trkpt>
      <trkpt lat="43.27111" lon="-0.51078">
        <ele>184</ele>
        <time>2016-05-05T11:45:18</time>
      </trkpt>
      <trkpt lat="43.27132" lon="-0.51087">
        <ele>184</ele>
        <time>2016-05-05T11:45:23</time>
      </trkpt>
      <trkpt lat="43.27148" lon="-0.51096">
        <ele>185</ele>
        <time>2016-05-05T11:45:28</time>
      </trkpt>
      <trkpt lat="43.27165" lon="-0.51106">
        <ele>187</ele>
        <time>2016-05-05T11:45:33</time>
      </trkpt>
      <trkpt lat="43.27179" lon="-0.51115">
        <ele>188</ele>
        <time>2016-05-05T11:45:38</time>
      </trkpt>
      <trkpt lat="43.27193" lon="-0.51117">
        <ele>189</ele>
        <time>2016-05-05T11:45:43</time>
      </trkpt>
      <trkpt lat="43.27205" lon="-0.51094">
        <ele>190</ele>
        <time>2016-05-05T11:45:48</time>
      </trkpt>
      <trkpt lat="43.27217" lon="-0.5107">
        <ele>189</ele>
        <time>2016-05-05T11:45:53</time>
      </trkpt>
      <trkpt lat="43.27234" lon="-0.51044">
        <ele>188</ele>
        <time>2016-05-05T11:45:58</time>
      </trkpt>
      <trkpt lat="43.27255" lon="-0.51027">
        <ele>188</ele>
        <time>2016-05-05T11:46:03</time>
      </trkpt>
      <trkpt lat="43.27279" lon="-0.5101">
        <ele>187</ele>
        <time>2016-05-05T11:46:08</time>
      </trkpt>
      <trkpt lat="43.27302" lon="-0.50986">
        <ele>187</ele>
        <time>2016-05-05T11:46:13</time>
      </trkpt>
      <trkpt lat="43.27324" lon="-0.50962">
        <ele>185</ele>
        <time>2016-05-05T11:46:18</time>
      </trkpt>
      <trkpt lat="43.27348" lon="-0.50937">
        <ele>184</ele>
        <time>2016-05-05T11:46:23</time>
      </trkpt>
      <trkpt lat="43.27371" lon="-0.5091">
        <ele>183</ele>
        <time>2016-05-05T11:46:28</time>
      </trkpt>
      <trkpt lat="43.27394" lon="-0.50885">
        <ele>182</ele>
        <time>2016-05-05T11:46:33</time>
      </trkpt>
      <trkpt lat="43.27416" lon="-0.50863">
        <ele>181</ele>
        <time>2016-05-05T11:46:38</time>
      </trkpt>
      <trkpt lat="43.27443" lon="-0.50862">
        <ele>180</ele>
        <time>2016-05-05T11:46:43</time>
      </trkpt>
      <trkpt lat="43.27472" lon="-0.50876">
        <ele>179</ele>
        <time>2016-05-05T11:46:48</time>
      </trkpt>
      <trkpt lat="43.27512" lon="-0.50892">
        <ele>176</ele>
        <time>2016-05-05T11:46:53</time>
      </trkpt>
      <trkpt lat="43.27551" lon="-0.50905">
        <ele>175</ele>
        <time>2016-05-05T11:46:58</time>
      </trkpt>
      <trkpt lat="43.27577" lon="-0.50923">
        <ele>174</ele>
        <time>2016-05-05T11:47:03</time>
      </trkpt>
      <trkpt lat="43.27591" lon="-0.50934">
        <ele>176</ele>
        <time>2016-05-05T11:47:08</time>
      </trkpt>
      <trkpt lat="43.27604" lon="-0.50947">
        <ele>176</ele>
        <time>2016-05-05T11:47:13</time>
      </trkpt>
      <trkpt lat="43.27617" lon="-0.50958">
        <ele>180</ele>
        <time>2016-05-05T11:47:18</time>
      </trkpt>
      <trkpt lat="43.27631" lon="-0.50967">
        <ele>181</ele>
        <time>2016-05-05T11:47:23</time>
      </trkpt>
      <trkpt lat="43.27647" lon="-0.50959">
        <ele>181</ele>
        <time>2016-05-05T11:47:28</time>
      </trkpt>
      <trkpt lat="43.27662" lon="-0.50937">
        <ele>180</ele>
        <time>2016-05-05T11:47:33</time>
      </trkpt>
      <trkpt lat="43.27682" lon="-0.50915">
        <ele>181</ele>
        <time>2016-05-05T11:47:39</time>
      </trkpt>
      <trkpt lat="43.2771" lon="-0.50903">
        <ele>181</ele>
        <time>2016-05-05T11:47:44</time>
      </trkpt>
      <trkpt lat="43.27726" lon="-0.5086">
        <ele>178</ele>
        <time>2016-05-05T11:47:49</time>
      </trkpt>
      <trkpt lat="43.27746" lon="-0.50846">
        <ele>176</ele>
        <time>2016-05-05T11:47:54</time>
      </trkpt>
      <trkpt lat="43.27765" lon="-0.50839">
        <ele>174</ele>
        <time>2016-05-05T11:47:59</time>
      </trkpt>
      <trkpt lat="43.27784" lon="-0.50817">
        <ele>173</ele>
        <time>2016-05-05T11:48:04</time>
      </trkpt>
      <trkpt lat="43.27798" lon="-0.50797">
        <ele>171</ele>
        <time>2016-05-05T11:48:09</time>
      </trkpt>
      <trkpt lat="43.27809" lon="-0.50787">
        <ele>171</ele>
        <time>2016-05-05T11:48:14</time>
      </trkpt>
      <trkpt lat="43.27827" lon="-0.50793">
        <ele>170</ele>
        <time>2016-05-05T11:48:19</time>
      </trkpt>
      <trkpt lat="43.27845" lon="-0.50798">
        <ele>170</ele>
        <time>2016-05-05T11:48:24</time>
      </trkpt>
      <trkpt lat="43.27868" lon="-0.50797">
        <ele>170</ele>
        <time>2016-05-05T11:48:29</time>
      </trkpt>
      <trkpt lat="43.27888" lon="-0.50797">
        <ele>169</ele>
        <time>2016-05-05T11:48:34</time>
      </trkpt>
      <trkpt lat="43.27906" lon="-0.50785">
        <ele>170</ele>
        <time>2016-05-05T11:48:39</time>
      </trkpt>
      <trkpt lat="43.27915" lon="-0.50759">
        <ele>170</ele>
        <time>2016-05-05T11:48:44</time>
      </trkpt>
      <trkpt lat="43.27925" lon="-0.50729">
        <ele>169</ele>
        <time>2016-05-05T11:48:49</time>
      </trkpt>
      <trkpt lat="43.27945" lon="-0.50695">
        <ele>171</ele>
        <time>2016-05-05T11:48:54</time>
      </trkpt>
      <trkpt lat="43.27968" lon="-0.50683">
        <ele>169</ele>
        <time>2016-05-05T11:48:59</time>
      </trkpt>
      <trkpt lat="43.27989" lon="-0.50668">
        <ele>166</ele>
        <time>2016-05-05T11:49:04</time>
      </trkpt>
      <trkpt lat="43.2801" lon="-0.50648">
        <ele>167</ele>
        <time>2016-05-05T11:49:09</time>
      </trkpt>
      <trkpt lat="43.2803" lon="-0.5063">
        <ele>167</ele>
        <time>2016-05-05T11:49:14</time>
      </trkpt>
      <trkpt lat="43.28052" lon="-0.50615">
        <ele>167</ele>
        <time>2016-05-05T11:49:19</time>
      </trkpt>
      <trkpt lat="43.28075" lon="-0.50601">
        <ele>166</ele>
        <time>2016-05-05T11:49:24</time>
      </trkpt>
      <trkpt lat="43.28097" lon="-0.50586">
        <ele>167</ele>
        <time>2016-05-05T11:49:29</time>
      </trkpt>
      <trkpt lat="43.28114" lon="-0.50562">
        <ele>165</ele>
        <time>2016-05-05T11:49:34</time>
      </trkpt>
      <trkpt lat="43.2813" lon="-0.50533">
        <ele>167</ele>
        <time>2016-05-05T11:49:39</time>
      </trkpt>
      <trkpt lat="43.28148" lon="-0.50505">
        <ele>167</ele>
        <time>2016-05-05T11:49:44</time>
      </trkpt>
      <trkpt lat="43.28166" lon="-0.5049">
        <ele>165</ele>
        <time>2016-05-05T11:49:49</time>
      </trkpt>
      <trkpt lat="43.28189" lon="-0.50477">
        <ele>165</ele>
        <time>2016-05-05T11:49:54</time>
      </trkpt>
      <trkpt lat="43.28212" lon="-0.50467">
        <ele>164</ele>
        <time>2016-05-05T11:50:00</time>
      </trkpt>
      <trkpt lat="43.28242" lon="-0.50461">
        <ele>163</ele>
        <time>2016-05-05T11:50:05</time>
      </trkpt>
      <trkpt lat="43.28267" lon="-0.50458">
        <ele>163</ele>
        <time>2016-05-05T11:50:10</time>
      </trkpt>
      <trkpt lat="43.2829" lon="-0.50453">
        <ele>162</ele>
        <time>2016-05-05T11:50:15</time>
      </trkpt>
      <trkpt lat="43.28307" lon="-0.50449">
        <ele>161</ele>
        <time>2016-05-05T11:50:20</time>
      </trkpt>
      <trkpt lat="43.28327" lon="-0.50433">
        <ele>161</ele>
        <time>2016-05-05T11:50:25</time>
      </trkpt>
      <trkpt lat="43.28348" lon="-0.50419">
        <ele>162</ele>
        <time>2016-05-05T11:50:30</time>
      </trkpt>
      <trkpt lat="43.28367" lon="-0.50414">
        <ele>162</ele>
        <time>2016-05-05T11:50:35</time>
      </trkpt>
      <trkpt lat="43.28379" lon="-0.50433">
        <ele>162</ele>
        <time>2016-05-05T11:50:40</time>
      </trkpt>
      <trkpt lat="43.28388" lon="-0.50455">
        <ele>163</ele>
        <time>2016-05-05T11:50:45</time>
      </trkpt>
      <trkpt lat="43.28391" lon="-0.50484">
        <ele>163</ele>
        <time>2016-05-05T11:50:50</time>
      </trkpt>
      <trkpt lat="43.28394" lon="-0.50514">
        <ele>163</ele>
        <time>2016-05-05T11:50:55</time>
      </trkpt>
      <trkpt lat="43.28396" lon="-0.50543">
        <ele>163</ele>
        <time>2016-05-05T11:51:00</time>
      </trkpt>
      <trkpt lat="43.28398" lon="-0.50574">
        <ele>164</ele>
        <time>2016-05-05T11:51:05</time>
      </trkpt>
      <trkpt lat="43.28404" lon="-0.50609">
        <ele>164</ele>
        <time>2016-05-05T11:51:10</time>
      </trkpt>
      <trkpt lat="43.28422" lon="-0.50623">
        <ele>165</ele>
        <time>2016-05-05T11:51:15</time>
      </trkpt>
      <trkpt lat="43.28443" lon="-0.50635">
        <ele>164</ele>
        <time>2016-05-05T11:51:20</time>
      </trkpt>
      <trkpt lat="43.28466" lon="-0.50648">
        <ele>164</ele>
        <time>2016-05-05T11:51:25</time>
      </trkpt>
      <trkpt lat="43.28487" lon="-0.50665">
        <ele>165</ele>
        <time>2016-05-05T11:51:30</time>
      </trkpt>
      <trkpt lat="43.28508" lon="-0.50683">
        <ele>164</ele>
        <time>2016-05-05T11:51:35</time>
      </trkpt>
      <trkpt lat="43.28528" lon="-0.50698">
        <ele>165</ele>
        <time>2016-05-05T11:51:40</time>
      </trkpt>
      <trkpt lat="43.28545" lon="-0.5071">
        <ele>166</ele>
        <time>2016-05-05T11:51:45</time>
      </trkpt>
      <trkpt lat="43.28566" lon="-0.50725">
        <ele>166</ele>
        <time>2016-05-05T11:51:50</time>
      </trkpt>
      <trkpt lat="43.28576" lon="-0.50752">
        <ele>165</ele>
        <time>2016-05-05T11:51:55</time>
      </trkpt>
      <trkpt lat="43.28572" lon="-0.50783">
        <ele>165</ele>
        <time>2016-05-05T11:52:00</time>
      </trkpt>
      <trkpt lat="43.28569" lon="-0.50814">
        <ele>166</ele>
        <time>2016-05-05T11:52:05</time>
      </trkpt>
      <trkpt lat="43.28566" lon="-0.50845">
        <ele>167</ele>
        <time>2016-05-05T11:52:10</time>
      </trkpt>
      <trkpt lat="43.28562" lon="-0.50883">
        <ele>168</ele>
        <time>2016-05-05T11:52:15</time>
      </trkpt>
      <trkpt lat="43.28554" lon="-0.50911">
        <ele>169</ele>
        <time>2016-05-05T11:52:20</time>
      </trkpt>
      <trkpt lat="43.28547" lon="-0.50937">
        <ele>170</ele>
        <time>2016-05-05T11:52:25</time>
      </trkpt>
      <trkpt lat="43.28551" lon="-0.50959">
        <ele>170</ele>
        <time>2016-05-05T11:52:30</time>
      </trkpt>
      <trkpt lat="43.28565" lon="-0.50967">
        <ele>172</ele>
        <time>2016-05-05T11:52:35</time>
      </trkpt>
      <trkpt lat="43.28584" lon="-0.50968">
        <ele>172</ele>
        <time>2016-05-05T11:52:40</time>
      </trkpt>
      <trkpt lat="43.28608" lon="-0.50971">
        <ele>172</ele>
        <time>2016-05-05T11:52:46</time>
      </trkpt>
      <trkpt lat="43.28636" lon="-0.50972">
        <ele>171</ele>
        <time>2016-05-05T11:52:51</time>
      </trkpt>
      <trkpt lat="43.28664" lon="-0.5097">
        <ele>170</ele>
        <time>2016-05-05T11:52:56</time>
      </trkpt>
      <trkpt lat="43.28691" lon="-0.50968">
        <ele>169</ele>
        <time>2016-05-05T11:53:01</time>
      </trkpt>
      <trkpt lat="43.28718" lon="-0.50971">
        <ele>170</ele>
        <time>2016-05-05T11:53:06</time>
      </trkpt>
      <trkpt lat="43.28744" lon="-0.50975">
        <ele>169</ele>
        <time>2016-05-05T11:53:11</time>
      </trkpt>
      <trkpt lat="43.2877" lon="-0.50978">
        <ele>169</ele>
        <time>2016-05-05T11:53:16</time>
      </trkpt>
      <trkpt lat="43.28801" lon="-0.50977">
        <ele>169</ele>
        <time>2016-05-05T11:53:21</time>
      </trkpt>
      <trkpt lat="43.28827" lon="-0.50975">
        <ele>169</ele>
        <time>2016-05-05T11:53:26</time>
      </trkpt>
      <trkpt lat="43.28848" lon="-0.50973">
        <ele>168</ele>
        <time>2016-05-05T11:53:31</time>
      </trkpt>
      <trkpt lat="43.28875" lon="-0.5097">
        <ele>169</ele>
        <time>2016-05-05T11:53:36</time>
      </trkpt>
      <trkpt lat="43.28903" lon="-0.50966">
        <ele>168</ele>
        <time>2016-05-05T11:53:41</time>
      </trkpt>
      <trkpt lat="43.28929" lon="-0.50957">
        <ele>167</ele>
        <time>2016-05-05T11:53:46</time>
      </trkpt>
      <trkpt lat="43.28955" lon="-0.50941">
        <ele>166</ele>
        <time>2016-05-05T11:53:51</time>
      </trkpt>
      <trkpt lat="43.28981" lon="-0.50923">
        <ele>165</ele>
        <time>2016-05-05T11:53:56</time>
      </trkpt>
      <trkpt lat="43.29008" lon="-0.50904">
        <ele>165</ele>
        <time>2016-05-05T11:54:01</time>
      </trkpt>
      <trkpt lat="43.29034" lon="-0.50886">
        <ele>164</ele>
        <time>2016-05-05T11:54:06</time>
      </trkpt>
      <trkpt lat="43.2906" lon="-0.50868">
        <ele>163</ele>
        <time>2016-05-05T11:54:11</time>
      </trkpt>
      <trkpt lat="43.29075" lon="-0.50842">
        <ele>163</ele>
        <time>2016-05-05T11:54:16</time>
      </trkpt>
      <trkpt lat="43.29071" lon="-0.50801">
        <ele>161</ele>
        <time>2016-05-05T11:54:21</time>
      </trkpt>
      <trkpt lat="43.29066" lon="-0.50762">
        <ele>161</ele>
        <time>2016-05-05T11:54:26</time>
      </trkpt>
      <trkpt lat="43.2906" lon="-0.50721">
        <ele>161</ele>
        <time>2016-05-05T11:54:31</time>
      </trkpt>
      <trkpt lat="43.29054" lon="-0.5068">
        <ele>160</ele>
        <time>2016-05-05T11:54:36</time>
      </trkpt>
      <trkpt lat="43.29043" lon="-0.50646">
        <ele>161</ele>
        <time>2016-05-05T11:54:41</time>
      </trkpt>
      <trkpt lat="43.29032" lon="-0.50616">
        <ele>161</ele>
        <time>2016-05-05T11:54:46</time>
      </trkpt>
      <trkpt lat="43.29031" lon="-0.50584">
        <ele>160</ele>
        <time>2016-05-05T11:54:51</time>
      </trkpt>
      <trkpt lat="43.29026" lon="-0.5055">
        <ele>161</ele>
        <time>2016-05-05T11:54:56</time>
      </trkpt>
      <trkpt lat="43.2902" lon="-0.50515">
        <ele>160</ele>
        <time>2016-05-05T11:55:01</time>
      </trkpt>
      <trkpt lat="43.2902" lon="-0.50485">
        <ele>159</ele>
        <time>2016-05-05T11:55:06</time>
      </trkpt>
      <trkpt lat="43.29036" lon="-0.50477">
        <ele>162</ele>
        <time>2016-05-05T11:55:12</time>
      </trkpt>
      <trkpt lat="43.29057" lon="-0.50486">
        <ele>159</ele>
        <time>2016-05-05T11:55:17</time>
      </trkpt>
      <trkpt lat="43.29077" lon="-0.50497">
        <ele>159</ele>
        <time>2016-05-05T11:55:22</time>
      </trkpt>
      <trkpt lat="43.29099" lon="-0.50481">
        <ele>160</ele>
        <time>2016-05-05T11:55:27</time>
      </trkpt>
      <trkpt lat="43.29114" lon="-0.50457">
        <ele>159</ele>
        <time>2016-05-05T11:55:32</time>
      </trkpt>
      <trkpt lat="43.29124" lon="-0.50428">
        <ele>160</ele>
        <time>2016-05-05T11:55:37</time>
      </trkpt>
      <trkpt lat="43.29129" lon="-0.50397">
        <ele>160</ele>
        <time>2016-05-05T11:55:42</time>
      </trkpt>
      <trkpt lat="43.29139" lon="-0.50376">
        <ele>159</ele>
        <time>2016-05-05T11:55:47</time>
      </trkpt>
      <trkpt lat="43.29153" lon="-0.50349">
        <ele>161</ele>
        <time>2016-05-05T11:55:52</time>
      </trkpt>
      <trkpt lat="43.29166" lon="-0.50323">
        <ele>160</ele>
        <time>2016-05-05T11:55:57</time>
      </trkpt>
      <trkpt lat="43.2919" lon="-0.50319">
        <ele>160</ele>
        <time>2016-05-05T11:56:02</time>
      </trkpt>
      <trkpt lat="43.29213" lon="-0.50324">
        <ele>160</ele>
        <time>2016-05-05T11:56:07</time>
      </trkpt>
      <trkpt lat="43.29238" lon="-0.50325">
        <ele>161</ele>
        <time>2016-05-05T11:56:12</time>
      </trkpt>
      <trkpt lat="43.29262" lon="-0.50324">
        <ele>161</ele>
        <time>2016-05-05T11:56:17</time>
      </trkpt>
      <trkpt lat="43.29287" lon="-0.50326">
        <ele>160</ele>
        <time>2016-05-05T11:56:22</time>
      </trkpt>
      <trkpt lat="43.29311" lon="-0.50324">
        <ele>159</ele>
        <time>2016-05-05T11:56:27</time>
      </trkpt>
      <trkpt lat="43.29335" lon="-0.50319">
        <ele>162</ele>
        <time>2016-05-05T11:56:32</time>
      </trkpt>
      <trkpt lat="43.29362" lon="-0.50321">
        <ele>161</ele>
        <time>2016-05-05T11:56:37</time>
      </trkpt>
      <trkpt lat="43.29386" lon="-0.50315">
        <ele>161</ele>
        <time>2016-05-05T11:56:42</time>
      </trkpt>
      <trkpt lat="43.29408" lon="-0.50308">
        <ele>162</ele>
        <time>2016-05-05T11:56:47</time>
      </trkpt>
      <trkpt lat="43.29432" lon="-0.50299">
        <ele>162</ele>
        <time>2016-05-05T11:56:52</time>
      </trkpt>
      <trkpt lat="43.29455" lon="-0.50286">
        <ele>162</ele>
        <time>2016-05-05T11:56:57</time>
      </trkpt>
      <trkpt lat="43.29478" lon="-0.50275">
        <ele>161</ele>
        <time>2016-05-05T11:57:02</time>
      </trkpt>
      <trkpt lat="43.29502" lon="-0.50268">
        <ele>162</ele>
        <time>2016-05-05T11:57:07</time>
      </trkpt>
      <trkpt lat="43.29526" lon="-0.50264">
        <ele>162</ele>
        <time>2016-05-05T11:57:12</time>
      </trkpt>
      <trkpt lat="43.29549" lon="-0.50264">
        <ele>162</ele>
        <time>2016-05-05T11:57:17</time>
      </trkpt>
      <trkpt lat="43.29572" lon="-0.50263">
        <ele>163</ele>
        <time>2016-05-05T11:57:22</time>
      </trkpt>
      <trkpt lat="43.29594" lon="-0.50256">
        <ele>163</ele>
        <time>2016-05-05T11:57:28</time>
      </trkpt>
      <trkpt lat="43.29611" lon="-0.50235">
        <ele>162</ele>
        <time>2016-05-05T11:57:33</time>
      </trkpt>
      <trkpt lat="43.2963" lon="-0.50217">
        <ele>163</ele>
        <time>2016-05-05T11:57:38</time>
      </trkpt>
      <trkpt lat="43.29657" lon="-0.5021">
        <ele>165</ele>
        <time>2016-05-05T11:57:43</time>
      </trkpt>
      <trkpt lat="43.29678" lon="-0.50199">
        <ele>165</ele>
        <time>2016-05-05T11:57:48</time>
      </trkpt>
      <trkpt lat="43.29699" lon="-0.50187">
        <ele>165</ele>
        <time>2016-05-05T11:57:53</time>
      </trkpt>
      <trkpt lat="43.29713" lon="-0.50177">
        <ele>168</ele>
        <time>2016-05-05T11:57:58</time>
      </trkpt>
      <trkpt lat="43.29732" lon="-0.5017">
        <ele>168</ele>
        <time>2016-05-05T11:58:03</time>
      </trkpt>
      <trkpt lat="43.29752" lon="-0.50176">
        <ele>167</ele>
        <time>2016-05-05T11:58:08</time>
      </trkpt>
      <trkpt lat="43.29781" lon="-0.5018">
        <ele>167</ele>
        <time>2016-05-05T11:58:13</time>
      </trkpt>
      <trkpt lat="43.29814" lon="-0.50185">
        <ele>167</ele>
        <time>2016-05-05T11:58:18</time>
      </trkpt>
      <trkpt lat="43.29839" lon="-0.50196">
        <ele>164</ele>
        <time>2016-05-05T11:58:23</time>
      </trkpt>
      <trkpt lat="43.29855" lon="-0.50188">
        <ele>165</ele>
        <time>2016-05-05T11:58:28</time>
      </trkpt>
      <trkpt lat="43.29868" lon="-0.50185">
        <ele>164</ele>
        <time>2016-05-05T11:58:33</time>
      </trkpt>
      <trkpt lat="43.29882" lon="-0.50186">
        <ele>165</ele>
        <time>2016-05-05T11:58:38</time>
      </trkpt>
      <trkpt lat="43.29896" lon="-0.50192">
        <ele>166</ele>
        <time>2016-05-05T11:58:43</time>
      </trkpt>
      <trkpt lat="43.29911" lon="-0.50196">
        <ele>166</ele>
        <time>2016-05-05T11:58:48</time>
      </trkpt>
      <trkpt lat="43.29937" lon="-0.50205">
        <ele>166</ele>
        <time>2016-05-05T11:58:53</time>
      </trkpt>
      <trkpt lat="43.29956" lon="-0.50209">
        <ele>166</ele>
        <time>2016-05-05T11:58:58</time>
      </trkpt>
      <trkpt lat="43.29976" lon="-0.50213">
        <ele>166</ele>
        <time>2016-05-05T11:59:03</time>
      </trkpt>
      <trkpt lat="43.29995" lon="-0.50219">
        <ele>166</ele>
        <time>2016-05-05T11:59:08</time>
      </trkpt>
      <trkpt lat="43.30013" lon="-0.50223">
        <ele>166</ele>
        <time>2016-05-05T11:59:13</time>
      </trkpt>
      <trkpt lat="43.30029" lon="-0.50232">
        <ele>166</ele>
        <time>2016-05-05T11:59:18</time>
      </trkpt>
      <trkpt lat="43.30046" lon="-0.50246">
        <ele>167</ele>
        <time>2016-05-05T11:59:23</time>
      </trkpt>
      <trkpt lat="43.30062" lon="-0.50262">
        <ele>166</ele>
        <time>2016-05-05T11:59:28</time>
      </trkpt>
      <trkpt lat="43.30074" lon="-0.50282">
        <ele>166</ele>
        <time>2016-05-05T11:59:33</time>
      </trkpt>
      <trkpt lat="43.30086" lon="-0.50303">
        <ele>166</ele>
        <time>2016-05-05T11:59:38</time>
      </trkpt>
      <trkpt lat="43.30103" lon="-0.50321">
        <ele>166</ele>
        <time>2016-05-05T11:59:43</time>
      </trkpt>
      <trkpt lat="43.30118" lon="-0.50337">
        <ele>166</ele>
        <time>2016-05-05T11:59:49</time>
      </trkpt>
      <trkpt lat="43.30133" lon="-0.50351">
        <ele>165</ele>
        <time>2016-05-05T11:59:54</time>
      </trkpt>
      <trkpt lat="43.30147" lon="-0.50352">
        <ele>166</ele>
        <time>2016-05-05T11:59:59</time>
      </trkpt>
      <trkpt lat="43.3015" lon="-0.50339">
        <ele>165</ele>
        <time>2016-05-05T12:00:04</time>
      </trkpt>
      <trkpt lat="43.30153" lon="-0.50321">
        <ele>166</ele>
        <time>2016-05-05T12:00:09</time>
      </trkpt>
      <trkpt lat="43.30154" lon="-0.50303">
        <ele>167</ele>
        <time>2016-05-05T12:00:14</time>
      </trkpt>
      <trkpt lat="43.30156" lon="-0.50289">
        <ele>168</ele>
        <time>2016-05-05T12:00:19</time>
      </trkpt>
      <trkpt lat="43.30159" lon="-0.5027">
        <ele>169</ele>
        <time>2016-05-05T12:00:24</time>
      </trkpt>
      <trkpt lat="43.30163" lon="-0.50252">
        <ele>169</ele>
        <time>2016-05-05T12:00:29</time>
      </trkpt>
      <trkpt lat="43.30165" lon="-0.50234">
        <ele>169</ele>
        <time>2016-05-05T12:00:34</time>
      </trkpt>
      <trkpt lat="43.30168" lon="-0.50216">
        <ele>171</ele>
        <time>2016-05-05T12:00:39</time>
      </trkpt>
      <trkpt lat="43.3017" lon="-0.50199">
        <ele>171</ele>
        <time>2016-05-05T12:00:44</time>
      </trkpt>
      <trkpt lat="43.30171" lon="-0.50183">
        <ele>171</ele>
        <time>2016-05-05T12:00:49</time>
      </trkpt>
      <trkpt lat="43.30174" lon="-0.50167">
        <ele>171</ele>
        <time>2016-05-05T12:00:54</time>
      </trkpt>
      <trkpt lat="43.30181" lon="-0.50154">
        <ele>173</ele>
        <time>2016-05-05T12:00:59</time>
      </trkpt>
      <trkpt lat="43.3018" lon="-0.50134">
        <ele>173</ele>
        <time>2016-05-05T12:01:04</time>
      </trkpt>
      <trkpt lat="43.30178" lon="-0.50122">
        <ele>173</ele>
        <time>2016-05-05T12:01:09</time>
      </trkpt>
      <trkpt lat="43.30178" lon="-0.50113">
        <ele>176</ele>
        <time>2016-05-05T12:01:14</time>
      </trkpt>
      <trkpt lat="43.30176" lon="-0.50103">
        <ele>177</ele>
        <time>2016-05-05T12:01:19</time>
      </trkpt>
      <trkpt lat="43.30174" lon="-0.50093">
        <ele>177</ele>
        <time>2016-05-05T12:01:24</time>
      </trkpt>
      <trkpt lat="43.30169" lon="-0.50085">
        <ele>180</ele>
        <time>2016-05-05T12:01:29</time>
      </trkpt>
      <trkpt lat="43.30162" lon="-0.50079">
        <ele>181</ele>
        <time>2016-05-05T12:01:34</time>
      </trkpt>
      <trkpt lat="43.30155" lon="-0.50074">
        <ele>181</ele>
        <time>2016-05-05T12:01:39</time>
      </trkpt>
      <trkpt lat="43.30149" lon="-0.50069">
        <ele>182</ele>
        <time>2016-05-05T12:01:45</time>
      </trkpt>
      <trkpt lat="43.30145" lon="-0.50062">
        <ele>185</ele>
        <time>2016-05-05T12:01:50</time>
      </trkpt>
      <trkpt lat="43.30145" lon="-0.50053">
        <ele>185</ele>
        <time>2016-05-05T12:01:55</time>
      </trkpt>
      <trkpt lat="43.30146" lon="-0.50045">
        <ele>186</ele>
        <time>2016-05-05T12:02:00</time>
      </trkpt>
      <trkpt lat="43.30148" lon="-0.50038">
        <ele>187</ele>
        <time>2016-05-05T12:02:05</time>
      </trkpt>
      <trkpt lat="43.30149" lon="-0.50031">
        <ele>189</ele>
        <time>2016-05-05T12:02:10</time>
      </trkpt>
      <trkpt lat="43.30151" lon="-0.50022">
        <ele>190</ele>
        <time>2016-05-05T12:02:15</time>
      </trkpt>
      <trkpt lat="43.3015" lon="-0.50014">
        <ele>189</ele>
        <time>2016-05-05T12:02:20</time>
      </trkpt>
      <trkpt lat="43.30152" lon="-0.50005">
        <ele>190</ele>
        <time>2016-05-05T12:02:25</time>
      </trkpt>
      <trkpt lat="43.30154" lon="-0.49996">
        <ele>191</ele>
        <time>2016-05-05T12:02:30</time>
      </trkpt>
      <trkpt lat="43.30155" lon="-0.49988">
        <ele>192</ele>
        <time>2016-05-05T12:02:35</time>
      </trkpt>
      <trkpt lat="43.30156" lon="-0.49978">
        <ele>192</ele>
        <time>2016-05-05T12:02:40</time>
      </trkpt>
      <trkpt lat="43.30157" lon="-0.49968">
        <ele>194</ele>
        <time>2016-05-05T12:02:45</time>
      </trkpt>
      <trkpt lat="43.30156" lon="-0.49957">
        <ele>196</ele>
        <time>2016-05-05T12:02:50</time>
      </trkpt>
      <trkpt lat="43.30154" lon="-0.49947">
        <ele>194</ele>
        <time>2016-05-05T12:02:55</time>
      </trkpt>
      <trkpt lat="43.3015" lon="-0.49939">
        <ele>196</ele>
        <time>2016-05-05T12:03:00</time>
      </trkpt>
      <trkpt lat="43.30147" lon="-0.4993">
        <ele>197</ele>
        <time>2016-05-05T12:03:05</time>
      </trkpt>
      <trkpt lat="43.30145" lon="-0.49918">
        <ele>197</ele>
        <time>2016-05-05T12:03:10</time>
      </trkpt>
      <trkpt lat="43.30145" lon="-0.49903">
        <ele>197</ele>
        <time>2016-05-05T12:03:15</time>
      </trkpt>
      <trkpt lat="43.30144" lon="-0.49887">
        <ele>198</ele>
        <time>2016-05-05T12:03:20</time>
      </trkpt>
      <trkpt lat="43.30145" lon="-0.49869">
        <ele>198</ele>
        <time>2016-05-05T12:03:25</time>
      </trkpt>
      <trkpt lat="43.30147" lon="-0.49852">
        <ele>198</ele>
        <time>2016-05-05T12:03:30</time>
      </trkpt>
      <trkpt lat="43.30145" lon="-0.4984">
        <ele>199</ele>
        <time>2016-05-05T12:03:35</time>
      </trkpt>
      <trkpt lat="43.30145" lon="-0.49828">
        <ele>200</ele>
        <time>2016-05-05T12:03:40</time>
      </trkpt>
      <trkpt lat="43.30143" lon="-0.49818">
        <ele>201</ele>
        <time>2016-05-05T12:03:45</time>
      </trkpt>
      <trkpt lat="43.30141" lon="-0.49809">
        <ele>203</ele>
        <time>2016-05-05T12:03:50</time>
      </trkpt>
      <trkpt lat="43.30138" lon="-0.498">
        <ele>205</ele>
        <time>2016-05-05T12:03:55</time>
      </trkpt>
      <trkpt lat="43.30134" lon="-0.49788">
        <ele>206</ele>
        <time>2016-05-05T12:04:00</time>
      </trkpt>
      <trkpt lat="43.30131" lon="-0.49777">
        <ele>207</ele>
        <time>2016-05-05T12:04:06</time>
      </trkpt>
      <trkpt lat="43.30129" lon="-0.49768">
        <ele>207</ele>
        <time>2016-05-05T12:04:11</time>
      </trkpt>
      <trkpt lat="43.30124" lon="-0.49761">
        <ele>208</ele>
        <time>2016-05-05T12:04:16</time>
      </trkpt>
      <trkpt lat="43.30117" lon="-0.4976">
        <ele>210</ele>
        <time>2016-05-05T12:04:21</time>
      </trkpt>
      <trkpt lat="43.3011" lon="-0.49761">
        <ele>211</ele>
        <time>2016-05-05T12:04:26</time>
      </trkpt>
      <trkpt lat="43.30105" lon="-0.49765">
        <ele>211</ele>
        <time>2016-05-05T12:04:31</time>
      </trkpt>
      <trkpt lat="43.30101" lon="-0.49772">
        <ele>212</ele>
        <time>2016-05-05T12:04:36</time>
      </trkpt>
      <trkpt lat="43.30098" lon="-0.49779">
        <ele>214</ele>
        <time>2016-05-05T12:04:41</time>
      </trkpt>
      <trkpt lat="43.30093" lon="-0.49784">
        <ele>215</ele>
        <time>2016-05-05T12:04:46</time>
      </trkpt>
      <trkpt lat="43.30085" lon="-0.49789">
        <ele>217</ele>
        <time>2016-05-05T12:04:51</time>
      </trkpt>
      <trkpt lat="43.30079" lon="-0.49791">
        <ele>218</ele>
        <time>2016-05-05T12:04:56</time>
      </trkpt>
      <trkpt lat="43.30071" lon="-0.49793">
        <ele>218</ele>
        <time>2016-05-05T12:05:01</time>
      </trkpt>
      <trkpt lat="43.30062" lon="-0.49798">
        <ele>221</ele>
        <time>2016-05-05T12:05:06</time>
      </trkpt>
      <trkpt lat="43.30051" lon="-0.49807">
        <ele>220</ele>
        <time>2016-05-05T12:05:11</time>
      </trkpt>
      <trkpt lat="43.3004" lon="-0.49812">
        <ele>220</ele>
        <time>2016-05-05T12:05:16</time>
      </trkpt>
      <trkpt lat="43.30029" lon="-0.49814">
        <ele>221</ele>
        <time>2016-05-05T12:05:21</time>
      </trkpt>
      <trkpt lat="43.30022" lon="-0.49812">
        <ele>221</ele>
        <time>2016-05-05T12:05:26</time>
      </trkpt>
      <trkpt lat="43.30013" lon="-0.49808">
        <ele>224</ele>
        <time>2016-05-05T12:05:31</time>
      </trkpt>
      <trkpt lat="43.30005" lon="-0.49804">
        <ele>224</ele>
        <time>2016-05-05T12:05:36</time>
      </trkpt>
      <trkpt lat="43.29997" lon="-0.49802">
        <ele>227</ele>
        <time>2016-05-05T12:05:41</time>
      </trkpt>
      <trkpt lat="43.2999" lon="-0.49799">
        <ele>228</ele>
        <time>2016-05-05T12:05:46</time>
      </trkpt>
      <trkpt lat="43.29983" lon="-0.49795">
        <ele>230</ele>
        <time>2016-05-05T12:05:51</time>
      </trkpt>
      <trkpt lat="43.29976" lon="-0.49788">
        <ele>231</ele>
        <time>2016-05-05T12:05:56</time>
      </trkpt>
      <trkpt lat="43.29971" lon="-0.49784">
        <ele>231</ele>
        <time>2016-05-05T12:06:01</time>
      </trkpt>
      <trkpt lat="43.29966" lon="-0.4978">
        <ele>234</ele>
        <time>2016-05-05T12:06:07</time>
      </trkpt>
      <trkpt lat="43.29961" lon="-0.49777">
        <ele>234</ele>
        <time>2016-05-05T12:06:12</time>
      </trkpt>
      <trkpt lat="43.29956" lon="-0.49773">
        <ele>235</ele>
        <time>2016-05-05T12:06:17</time>
      </trkpt>
      <trkpt lat="43.29949" lon="-0.49767">
        <ele>236</ele>
        <time>2016-05-05T12:06:22</time>
      </trkpt>
      <trkpt lat="43.29941" lon="-0.4976">
        <ele>238</ele>
        <time>2016-05-05T12:06:27</time>
      </trkpt>
      <trkpt lat="43.29935" lon="-0.49751">
        <ele>239</ele>
        <time>2016-05-05T12:06:32</time>
      </trkpt>
      <trkpt lat="43.29928" lon="-0.4974">
        <ele>240</ele>
        <time>2016-05-05T12:06:37</time>
      </trkpt>
      <trkpt lat="43.29922" lon="-0.49731">
        <ele>242</ele>
        <time>2016-05-05T12:06:42</time>
      </trkpt>
      <trkpt lat="43.29916" lon="-0.49722">
        <ele>242</ele>
        <time>2016-05-05T12:06:47</time>
      </trkpt>
      <trkpt lat="43.2991" lon="-0.49715">
        <ele>243</ele>
        <time>2016-05-05T12:06:52</time>
      </trkpt>
      <trkpt lat="43.29902" lon="-0.49709">
        <ele>245</ele>
        <time>2016-05-05T12:06:57</time>
      </trkpt>
      <trkpt lat="43.29895" lon="-0.49706">
        <ele>245</ele>
        <time>2016-05-05T12:07:02</time>
      </trkpt>
      <trkpt lat="43.29887" lon="-0.49703">
        <ele>246</ele>
        <time>2016-05-05T12:07:07</time>
      </trkpt>
      <trkpt lat="43.29882" lon="-0.49699">
        <ele>249</ele>
        <time>2016-05-05T12:07:12</time>
      </trkpt>
      <trkpt lat="43.29876" lon="-0.49694">
        <ele>250</ele>
        <time>2016-05-05T12:07:17</time>
      </trkpt>
      <trkpt lat="43.29871" lon="-0.49688">
        <ele>250</ele>
        <time>2016-05-05T12:07:22</time>
      </trkpt>
      <trkpt lat="43.29874" lon="-0.49681">
        <ele>252</ele>
        <time>2016-05-05T12:07:27</time>
      </trkpt>
      <trkpt lat="43.29878" lon="-0.49676">
        <ele>252</ele>
        <time>2016-05-05T12:07:32</time>
      </trkpt>
      <trkpt lat="43.29884" lon="-0.49669">
        <ele>253</ele>
        <time>2016-05-05T12:07:37</time>
      </trkpt>
      <trkpt lat="43.29891" lon="-0.49659">
        <ele>253</ele>
        <time>2016-05-05T12:07:42</time>
      </trkpt>
      <trkpt lat="43.29899" lon="-0.49643">
        <ele>251</ele>
        <time>2016-05-05T12:07:47</time>
      </trkpt>
      <trkpt lat="43.29908" lon="-0.49624">
        <ele>251</ele>
        <time>2016-05-05T12:07:52</time>
      </trkpt>
      <trkpt lat="43.29917" lon="-0.49608">
        <ele>252</ele>
        <time>2016-05-05T12:07:57</time>
      </trkpt>
      <trkpt lat="43.29924" lon="-0.49595">
        <ele>252</ele>
        <time>2016-05-05T12:08:02</time>
      </trkpt>
      <trkpt lat="43.2993" lon="-0.49584">
        <ele>252</ele>
        <time>2016-05-05T12:08:07</time>
      </trkpt>
      <trkpt lat="43.29937" lon="-0.49566">
        <ele>251</ele>
        <time>2016-05-05T12:08:12</time>
      </trkpt>
      <trkpt lat="43.2995" lon="-0.4954">
        <ele>250</ele>
        <time>2016-05-05T12:08:17</time>
      </trkpt>
      <trkpt lat="43.29962" lon="-0.49523">
        <ele>249</ele>
        <time>2016-05-05T12:08:22</time>
      </trkpt>
      <trkpt lat="43.29971" lon="-0.49508">
        <ele>250</ele>
        <time>2016-05-05T12:08:28</time>
      </trkpt>
      <trkpt lat="43.29978" lon="-0.49494">
        <ele>250</ele>
        <time>2016-05-05T12:08:33</time>
      </trkpt>
      <trkpt lat="43.29985" lon="-0.49483">
        <ele>251</ele>
        <time>2016-05-05T12:08:38</time>
      </trkpt>
      <trkpt lat="43.2999" lon="-0.49474">
        <ele>251</ele>
        <time>2016-05-05T12:08:43</time>
      </trkpt>
      <trkpt lat="43.30001" lon="-0.49471">
        <ele>252</ele>
        <time>2016-05-05T12:08:48</time>
      </trkpt>
      <trkpt lat="43.30006" lon="-0.49469">
        <ele>254</ele>
        <time>2016-05-05T12:08:53</time>
      </trkpt>
      <trkpt lat="43.3001" lon="-0.49469">
        <ele>254</ele>
        <time>2016-05-05T12:08:58</time>
      </trkpt>
      <trkpt lat="43.30015" lon="-0.49469">
        <ele>254</ele>
        <time>2016-05-05T12:09:03</time>
      </trkpt>
      <trkpt lat="43.30021" lon="-0.49468">
        <ele>255</ele>
        <time>2016-05-05T12:09:08</time>
      </trkpt>
      <trkpt lat="43.30028" lon="-0.49466">
        <ele>260</ele>
        <time>2016-05-05T12:09:13</time>
      </trkpt>
      <trkpt lat="43.30035" lon="-0.49463">
        <ele>261</ele>
        <time>2016-05-05T12:09:18</time>
      </trkpt>
      <trkpt lat="43.30042" lon="-0.4946">
        <ele>262</ele>
        <time>2016-05-05T12:09:23</time>
      </trkpt>
      <trkpt lat="43.30049" lon="-0.49456">
        <ele>262</ele>
        <time>2016-05-05T12:09:28</time>
      </trkpt>
      <trkpt lat="43.30056" lon="-0.49448">
        <ele>262</ele>
        <time>2016-05-05T12:09:33</time>
      </trkpt>
      <trkpt lat="43.30063" lon="-0.4944">
        <ele>264</ele>
        <time>2016-05-05T12:09:38</time>
      </trkpt>
      <trkpt lat="43.30071" lon="-0.49431">
        <ele>265</ele>
        <time>2016-05-05T12:09:43</time>
      </trkpt>
      <trkpt lat="43.30077" lon="-0.49424">
        <ele>268</ele>
        <time>2016-05-05T12:09:48</time>
      </trkpt>
      <trkpt lat="43.30083" lon="-0.49414">
        <ele>269</ele>
        <time>2016-05-05T12:09:53</time>
      </trkpt>
      <trkpt lat="43.30088" lon="-0.49406">
        <ele>269</ele>
        <time>2016-05-05T12:09:58</time>
      </trkpt>
      <trkpt lat="43.30093" lon="-0.49398">
        <ele>269</ele>
        <time>2016-05-05T12:10:03</time>
      </trkpt>
      <trkpt lat="43.30098" lon="-0.4939">
        <ele>269</ele>
        <time>2016-05-05T12:10:08</time>
      </trkpt>
      <trkpt lat="43.30104" lon="-0.49382">
        <ele>271</ele>
        <time>2016-05-05T12:10:13</time>
      </trkpt>
      <trkpt lat="43.3011" lon="-0.49372">
        <ele>271</ele>
        <time>2016-05-05T12:10:18</time>
      </trkpt>
      <trkpt lat="43.30115" lon="-0.49363">
        <ele>274</ele>
        <time>2016-05-05T12:10:23</time>
      </trkpt>
      <trkpt lat="43.3012" lon="-0.49354">
        <ele>274</ele>
        <time>2016-05-05T12:10:28</time>
      </trkpt>
      <trkpt lat="43.30125" lon="-0.49346">
        <ele>274</ele>
        <time>2016-05-05T12:10:33</time>
      </trkpt>
      <trkpt lat="43.30131" lon="-0.49338">
        <ele>276</ele>
        <time>2016-05-05T12:10:38</time>
      </trkpt>
      <trkpt lat="43.30136" lon="-0.49331">
        <ele>276</ele>
        <time>2016-05-05T12:10:43</time>
      </trkpt>
      <trkpt lat="43.30141" lon="-0.49325">
        <ele>279</ele>
        <time>2016-05-05T12:10:48</time>
      </trkpt>
      <trkpt lat="43.30146" lon="-0.49319">
        <ele>279</ele>
        <time>2016-05-05T12:10:54</time>
      </trkpt>
      <trkpt lat="43.30153" lon="-0.49312">
        <ele>280</ele>
        <time>2016-05-05T12:10:59</time>
      </trkpt>
      <trkpt lat="43.30158" lon="-0.49305">
        <ele>283</ele>
        <time>2016-05-05T12:11:04</time>
      </trkpt>
      <trkpt lat="43.30164" lon="-0.49299">
        <ele>284</ele>
        <time>2016-05-05T12:11:09</time>
      </trkpt>
      <trkpt lat="43.30171" lon="-0.49294">
        <ele>283</ele>
        <time>2016-05-05T12:11:14</time>
      </trkpt>
      <trkpt lat="43.30183" lon="-0.49293">
        <ele>285</ele>
        <time>2016-05-05T12:11:19</time>
      </trkpt>
      <trkpt lat="43.30201" lon="-0.49294">
        <ele>284</ele>
        <time>2016-05-05T12:11:24</time>
      </trkpt>
      <trkpt lat="43.30237" lon="-0.49306">
        <ele>281</ele>
        <time>2016-05-05T12:11:29</time>
      </trkpt>
      <trkpt lat="43.30279" lon="-0.49321">
        <ele>279</ele>
        <time>2016-05-05T12:11:34</time>
      </trkpt>
      <trkpt lat="43.30313" lon="-0.49332">
        <ele>276</ele>
        <time>2016-05-05T12:11:39</time>
      </trkpt>
      <trkpt lat="43.30338" lon="-0.49345">
        <ele>276</ele>
        <time>2016-05-05T12:11:44</time>
      </trkpt>
      <trkpt lat="43.30365" lon="-0.49363">
        <ele>276</ele>
        <time>2016-05-05T12:11:49</time>
      </trkpt>
      <trkpt lat="43.30391" lon="-0.49384">
        <ele>275</ele>
        <time>2016-05-05T12:11:54</time>
      </trkpt>
      <trkpt lat="43.30406" lon="-0.49394">
        <ele>274</ele>
        <time>2016-05-05T12:11:59</time>
      </trkpt>
      <trkpt lat="43.30422" lon="-0.49403">
        <ele>277</ele>
        <time>2016-05-05T12:12:04</time>
      </trkpt>
      <trkpt lat="43.30433" lon="-0.4941">
        <ele>277</ele>
        <time>2016-05-05T12:12:09</time>
      </trkpt>
      <trkpt lat="43.30444" lon="-0.4941">
        <ele>280</ele>
        <time>2016-05-05T12:12:14</time>
      </trkpt>
      <trkpt lat="43.3047" lon="-0.494">
        <ele>280</ele>
        <time>2016-05-05T12:12:19</time>
      </trkpt>
      <trkpt lat="43.30512" lon="-0.49383">
        <ele>277</ele>
        <time>2016-05-05T12:12:24</time>
      </trkpt>
      <trkpt lat="43.30554" lon="-0.49383">
        <ele>271</ele>
        <time>2016-05-05T12:12:29</time>
      </trkpt>
      <trkpt lat="43.30582" lon="-0.49391">
        <ele>266</ele>
        <time>2016-05-05T12:12:34</time>
      </trkpt>
      <trkpt lat="43.30606" lon="-0.49398">
        <ele>258</ele>
        <time>2016-05-05T12:12:39</time>
      </trkpt>
      <trkpt lat="43.30623" lon="-0.49399">
        <ele>250</ele>
        <time>2016-05-05T12:12:44</time>
      </trkpt>
      <trkpt lat="43.30619" lon="-0.49387">
        <ele>244</ele>
        <time>2016-05-05T12:12:49</time>
      </trkpt>
      <trkpt lat="43.30613" lon="-0.49382">
        <ele>244</ele>
        <time>2016-05-05T12:12:54</time>
      </trkpt>
      <trkpt lat="43.30605" lon="-0.49371">
        <ele>246</ele>
        <time>2016-05-05T12:12:59</time>
      </trkpt>
      <trkpt lat="43.30598" lon="-0.49359">
        <ele>247</ele>
        <time>2016-05-05T12:13:04</time>
      </trkpt>
      <trkpt lat="43.30592" lon="-0.49345">
        <ele>247</ele>
        <time>2016-05-05T12:13:09</time>
      </trkpt>
      <trkpt lat="43.30584" lon="-0.49328">
        <ele>246</ele>
        <time>2016-05-05T12:13:14</time>
      </trkpt>
      <trkpt lat="43.30561" lon="-0.49303">
        <ele>243</ele>
        <time>2016-05-05T12:13:20</time>
      </trkpt>
      <trkpt lat="43.30544" lon="-0.49286">
        <ele>239</ele>
        <time>2016-05-05T12:13:25</time>
      </trkpt>
      <trkpt lat="43.30539" lon="-0.49272">
        <ele>236</ele>
        <time>2016-05-05T12:13:30</time>
      </trkpt>
      <trkpt lat="43.30539" lon="-0.49259">
        <ele>233</ele>
        <time>2016-05-05T12:13:35</time>
      </trkpt>
      <trkpt lat="43.30541" lon="-0.49251">
        <ele>236</ele>
        <time>2016-05-05T12:13:40</time>
      </trkpt>
      <trkpt lat="43.30545" lon="-0.49246">
        <ele>237</ele>
        <time>2016-05-05T12:13:45</time>
      </trkpt>
      <trkpt lat="43.30548" lon="-0.49236">
        <ele>237</ele>
        <time>2016-05-05T12:13:50</time>
      </trkpt>
      <trkpt lat="43.30553" lon="-0.49227">
        <ele>239</ele>
        <time>2016-05-05T12:13:55</time>
      </trkpt>
      <trkpt lat="43.30558" lon="-0.4922">
        <ele>240</ele>
        <time>2016-05-05T12:14:00</time>
      </trkpt>
      <trkpt lat="43.30561" lon="-0.49216">
        <ele>242</ele>
        <time>2016-05-05T12:14:05</time>
      </trkpt>
      <trkpt lat="43.30565" lon="-0.49212">
        <ele>243</ele>
        <time>2016-05-05T12:14:10</time>
      </trkpt>
      <trkpt lat="43.30569" lon="-0.49208">
        <ele>246</ele>
        <time>2016-05-05T12:14:15</time>
      </trkpt>
      <trkpt lat="43.30572" lon="-0.49201">
        <ele>246</ele>
        <time>2016-05-05T12:14:20</time>
      </trkpt>
      <trkpt lat="43.30576" lon="-0.49196">
        <ele>248</ele>
        <time>2016-05-05T12:14:25</time>
      </trkpt>
      <trkpt lat="43.30582" lon="-0.49191">
        <ele>250</ele>
        <time>2016-05-05T12:14:30</time>
      </trkpt>
      <trkpt lat="43.30587" lon="-0.49185">
        <ele>251</ele>
        <time>2016-05-05T12:14:35</time>
      </trkpt>
      <trkpt lat="43.3059" lon="-0.49178">
        <ele>252</ele>
        <time>2016-05-05T12:14:40</time>
      </trkpt>
      <trkpt lat="43.30593" lon="-0.49171">
        <ele>254</ele>
        <time>2016-05-05T12:14:45</time>
      </trkpt>
      <trkpt lat="43.30596" lon="-0.49165">
        <ele>255</ele>
        <time>2016-05-05T12:14:50</time>
      </trkpt>
      <trkpt lat="43.306" lon="-0.49158">
        <ele>256</ele>
        <time>2016-05-05T12:14:55</time>
      </trkpt>
      <trkpt lat="43.30601" lon="-0.49152">
        <ele>258</ele>
        <time>2016-05-05T12:15:00</time>
      </trkpt>
      <trkpt lat="43.30603" lon="-0.49147">
        <ele>259</ele>
        <time>2016-05-05T12:15:05</time>
      </trkpt>
      <trkpt lat="43.30605" lon="-0.49143">
        <ele>260</ele>
        <time>2016-05-05T12:15:10</time>
      </trkpt>
      <trkpt lat="43.30606" lon="-0.49142">
        <ele>261</ele>
        <time>2016-05-05T12:15:15</time>
      </trkpt>
      <trkpt lat="43.30606" lon="-0.4914">
        <ele>260</ele>
        <time>2016-05-05T12:15:20</time>
      </trkpt>
      <trkpt lat="43.30607" lon="-0.49137">
        <ele>260</ele>
        <time>2016-05-05T12:15:25</time>
      </trkpt>
      <trkpt lat="43.30609" lon="-0.49134">
        <ele>262</ele>
        <time>2016-05-05T12:15:30</time>
      </trkpt>
      <trkpt lat="43.30611" lon="-0.4913">
        <ele>263</ele>
        <time>2016-05-05T12:15:36</time>
      </trkpt>
      <trkpt lat="43.30614" lon="-0.49127">
        <ele>263</ele>
        <time>2016-05-05T12:15:41</time>
      </trkpt>
      <trkpt lat="43.30618" lon="-0.49124">
        <ele>265</ele>
        <time>2016-05-05T12:15:46</time>
      </trkpt>
      <trkpt lat="43.30622" lon="-0.49123">
        <ele>267</ele>
        <time>2016-05-05T12:15:51</time>
      </trkpt>
      <trkpt lat="43.30626" lon="-0.49121">
        <ele>268</ele>
        <time>2016-05-05T12:15:56</time>
      </trkpt>
      <trkpt lat="43.30629" lon="-0.49121">
        <ele>269</ele>
        <time>2016-05-05T12:16:01</time>
      </trkpt>
      <trkpt lat="43.30632" lon="-0.49118">
        <ele>269</ele>
        <time>2016-05-05T12:16:06</time>
      </trkpt>
      <trkpt lat="43.30636" lon="-0.49114">
        <ele>270</ele>
        <time>2016-05-05T12:16:11</time>
      </trkpt>
      <trkpt lat="43.3064" lon="-0.4911">
        <ele>272</ele>
        <time>2016-05-05T12:16:16</time>
      </trkpt>
      <trkpt lat="43.30644" lon="-0.49106">
        <ele>270</ele>
        <time>2016-05-05T12:16:21</time>
      </trkpt>
      <trkpt lat="43.30648" lon="-0.49103">
        <ele>273</ele>
        <time>2016-05-05T12:16:26</time>
      </trkpt>
      <trkpt lat="43.30651" lon="-0.49098">
        <ele>272</ele>
        <time>2016-05-05T12:16:31</time>
      </trkpt>
      <trkpt lat="43.30655" lon="-0.4909">
        <ele>275</ele>
        <time>2016-05-05T12:16:36</time>
      </trkpt>
      <trkpt lat="43.30658" lon="-0.49082">
        <ele>274</ele>
        <time>2016-05-05T12:16:41</time>
      </trkpt>
      <trkpt lat="43.3066" lon="-0.49074">
        <ele>274</ele>
        <time>2016-05-05T12:16:46</time>
      </trkpt>
      <trkpt lat="43.30662" lon="-0.49064">
        <ele>274</ele>
        <time>2016-05-05T12:16:51</time>
      </trkpt>
      <trkpt lat="43.30666" lon="-0.49054">
        <ele>275</ele>
        <time>2016-05-05T12:16:56</time>
      </trkpt>
      <trkpt lat="43.30668" lon="-0.49044">
        <ele>275</ele>
        <time>2016-05-05T12:17:01</time>
      </trkpt>
      <trkpt lat="43.30667" lon="-0.49033">
        <ele>276</ele>
        <time>2016-05-05T12:17:06</time>
      </trkpt>
      <trkpt lat="43.30665" lon="-0.49024">
        <ele>277</ele>
        <time>2016-05-05T12:17:11</time>
      </trkpt>
      <trkpt lat="43.30663" lon="-0.49014">
        <ele>279</ele>
        <time>2016-05-05T12:17:16</time>
      </trkpt>
      <trkpt lat="43.30659" lon="-0.49005">
        <ele>279</ele>
        <time>2016-05-05T12:17:21</time>
      </trkpt>
      <trkpt lat="43.30655" lon="-0.48996">
        <ele>282</ele>
        <time>2016-05-05T12:17:26</time>
      </trkpt>
      <trkpt lat="43.30653" lon="-0.4899">
        <ele>283</ele>
        <time>2016-05-05T12:17:31</time>
      </trkpt>
      <trkpt lat="43.30648" lon="-0.4898">
        <ele>285</ele>
        <time>2016-05-05T12:17:36</time>
      </trkpt>
      <trkpt lat="43.30647" lon="-0.48971">
        <ele>286</ele>
        <time>2016-05-05T12:17:41</time>
      </trkpt>
      <trkpt lat="43.30647" lon="-0.48961">
        <ele>287</ele>
        <time>2016-05-05T12:17:46</time>
      </trkpt>
      <trkpt lat="43.30647" lon="-0.48952">
        <ele>289</ele>
        <time>2016-05-05T12:17:51</time>
      </trkpt>
      <trkpt lat="43.30647" lon="-0.48942">
        <ele>289</ele>
        <time>2016-05-05T12:17:56</time>
      </trkpt>
      <trkpt lat="43.30647" lon="-0.4893">
        <ele>289</ele>
        <time>2016-05-05T12:18:02</time>
      </trkpt>
      <trkpt lat="43.30647" lon="-0.48921">
        <ele>289</ele>
        <time>2016-05-05T12:18:07</time>
      </trkpt>
      <trkpt lat="43.30647" lon="-0.48911">
        <ele>291</ele>
        <time>2016-05-05T12:18:12</time>
      </trkpt>
      <trkpt lat="43.3065" lon="-0.48902">
        <ele>290</ele>
        <time>2016-05-05T12:18:17</time>
      </trkpt>
      <trkpt lat="43.30662" lon="-0.48895">
        <ele>290</ele>
        <time>2016-05-05T12:18:22</time>
      </trkpt>
      <trkpt lat="43.30679" lon="-0.48891">
        <ele>288</ele>
        <time>2016-05-05T12:18:27</time>
      </trkpt>
      <trkpt lat="43.30698" lon="-0.48887">
        <ele>288</ele>
        <time>2016-05-05T12:18:32</time>
      </trkpt>
      <trkpt lat="43.30721" lon="-0.48885">
        <ele>288</ele>
        <time>2016-05-05T12:18:37</time>
      </trkpt>
      <trkpt lat="43.30738" lon="-0.48886">
        <ele>288</ele>
        <time>2016-05-05T12:18:42</time>
      </trkpt>
      <trkpt lat="43.30757" lon="-0.48889">
        <ele>289</ele>
        <time>2016-05-05T12:18:47</time>
      </trkpt>
      <trkpt lat="43.30775" lon="-0.48893">
        <ele>291</ele>
        <time>2016-05-05T12:18:52</time>
      </trkpt>
      <trkpt lat="43.3079" lon="-0.48895">
        <ele>292</ele>
        <time>2016-05-05T12:18:57</time>
      </trkpt>
      <trkpt lat="43.30806" lon="-0.48896">
        <ele>293</ele>
        <time>2016-05-05T12:19:02</time>
      </trkpt>
      <trkpt lat="43.30822" lon="-0.48899">
        <ele>294</ele>
        <time>2016-05-05T12:19:07</time>
      </trkpt>
      <trkpt lat="43.30835" lon="-0.48903">
        <ele>294</ele>
        <time>2016-05-05T12:19:12</time>
      </trkpt>
      <trkpt lat="43.30852" lon="-0.48906">
        <ele>293</ele>
        <time>2016-05-05T12:19:17</time>
      </trkpt>
      <trkpt lat="43.30869" lon="-0.48911">
        <ele>295</ele>
        <time>2016-05-05T12:19:22</time>
      </trkpt>
      <trkpt lat="43.30885" lon="-0.48915">
        <ele>294</ele>
        <time>2016-05-05T12:19:27</time>
      </trkpt>
      <trkpt lat="43.30901" lon="-0.48922">
        <ele>295</ele>
        <time>2016-05-05T12:19:32</time>
      </trkpt>
      <trkpt lat="43.30917" lon="-0.48932">
        <ele>296</ele>
        <time>2016-05-05T12:19:37</time>
      </trkpt>
      <trkpt lat="43.30936" lon="-0.4895">
        <ele>296</ele>
        <time>2016-05-05T12:19:42</time>
      </trkpt>
      <trkpt lat="43.30957" lon="-0.48966">
        <ele>295</ele>
        <time>2016-05-05T12:19:47</time>
      </trkpt>
      <trkpt lat="43.30986" lon="-0.48983">
        <ele>293</ele>
        <time>2016-05-05T12:19:52</time>
      </trkpt>
      <trkpt lat="43.31019" lon="-0.49004">
        <ele>290</ele>
        <time>2016-05-05T12:19:57</time>
      </trkpt>
      <trkpt lat="43.31055" lon="-0.49046">
        <ele>286</ele>
        <time>2016-05-05T12:20:02</time>
      </trkpt>
      <trkpt lat="43.31096" lon="-0.49104">
        <ele>282</ele>
        <time>2016-05-05T12:20:07</time>
      </trkpt>
      <trkpt lat="43.31145" lon="-0.49119">
        <ele>282</ele>
        <time>2016-05-05T12:20:12</time>
      </trkpt>
      <trkpt lat="43.31181" lon="-0.49128">
        <ele>282</ele>
        <time>2016-05-05T12:20:17</time>
      </trkpt>
      <trkpt lat="43.3121" lon="-0.49148">
        <ele>282</ele>
        <time>2016-05-05T12:20:23</time>
      </trkpt>
      <trkpt lat="43.31237" lon="-0.4917">
        <ele>280</ele>
        <time>2016-05-05T12:20:28</time>
      </trkpt>
      <trkpt lat="43.31252" lon="-0.49182">
        <ele>280</ele>
        <time>2016-05-05T12:20:33</time>
      </trkpt>
      <trkpt lat="43.31265" lon="-0.49191">
        <ele>283</ele>
        <time>2016-05-05T12:20:38</time>
      </trkpt>
      <trkpt lat="43.31279" lon="-0.49202">
        <ele>284</ele>
        <time>2016-05-05T12:20:43</time>
      </trkpt>
      <trkpt lat="43.31297" lon="-0.49217">
        <ele>284</ele>
        <time>2016-05-05T12:20:48</time>
      </trkpt>
      <trkpt lat="43.31313" lon="-0.49229">
        <ele>285</ele>
        <time>2016-05-05T12:20:53</time>
      </trkpt>
      <trkpt lat="43.3134" lon="-0.49221">
        <ele>279</ele>
        <time>2016-05-05T12:20:58</time>
      </trkpt>
      <trkpt lat="43.31381" lon="-0.49217">
        <ele>271</ele>
        <time>2016-05-05T12:21:03</time>
      </trkpt>
      <trkpt lat="43.31407" lon="-0.49211">
        <ele>271</ele>
        <time>2016-05-05T12:21:08</time>
      </trkpt>
      <trkpt lat="43.31416" lon="-0.49185">
        <ele>268</ele>
        <time>2016-05-05T12:21:13</time>
      </trkpt>
      <trkpt lat="43.31433" lon="-0.49153">
        <ele>265</ele>
        <time>2016-05-05T12:21:18</time>
      </trkpt>
      <trkpt lat="43.31462" lon="-0.4914">
        <ele>259</ele>
        <time>2016-05-05T12:21:23</time>
      </trkpt>
      <trkpt lat="43.31488" lon="-0.49149">
        <ele>252</ele>
        <time>2016-05-05T12:21:28</time>
      </trkpt>
      <trkpt lat="43.31507" lon="-0.4915">
        <ele>247</ele>
        <time>2016-05-05T12:21:33</time>
      </trkpt>
      <trkpt lat="43.3152" lon="-0.49143">
        <ele>247</ele>
        <time>2016-05-05T12:21:38</time>
      </trkpt>
      <trkpt lat="43.31536" lon="-0.4913">
        <ele>248</ele>
        <time>2016-05-05T12:21:43</time>
      </trkpt>
      <trkpt lat="43.31552" lon="-0.49115">
        <ele>246</ele>
        <time>2016-05-05T12:21:48</time>
      </trkpt>
      <trkpt lat="43.31564" lon="-0.49105">
        <ele>248</ele>
        <time>2016-05-05T12:21:53</time>
      </trkpt>
      <trkpt lat="43.31579" lon="-0.49106">
        <ele>245</ele>
        <time>2016-05-05T12:21:58</time>
      </trkpt>
      <trkpt lat="43.31588" lon="-0.49107">
        <ele>246</ele>
        <time>2016-05-05T12:22:03</time>
      </trkpt>
      <trkpt lat="43.31602" lon="-0.49112">
        <ele>245</ele>
        <time>2016-05-05T12:22:08</time>
      </trkpt>
      <trkpt lat="43.31612" lon="-0.49116">
        <ele>245</ele>
        <time>2016-05-05T12:22:13</time>
      </trkpt>
      <trkpt lat="43.3162" lon="-0.49122">
        <ele>244</ele>
        <time>2016-05-05T12:22:18</time>
      </trkpt>
      <trkpt lat="43.31627" lon="-0.49133">
        <ele>246</ele>
        <time>2016-05-05T12:22:23</time>
      </trkpt>
      <trkpt lat="43.31636" lon="-0.49132">
        <ele>248</ele>
        <time>2016-05-05T12:22:28</time>
      </trkpt>
      <trkpt lat="43.3165" lon="-0.49142">
        <ele>247</ele>
        <time>2016-05-05T12:22:33</time>
      </trkpt>
      <trkpt lat="43.31659" lon="-0.4915">
        <ele>248</ele>
        <time>2016-05-05T12:22:39</time>
      </trkpt>
      <trkpt lat="43.31669" lon="-0.49154">
        <ele>251</ele>
        <time>2016-05-05T12:22:44</time>
      </trkpt>
      <trkpt lat="43.3168" lon="-0.49156">
        <ele>251</ele>
        <time>2016-05-05T12:22:49</time>
      </trkpt>
      <trkpt lat="43.31687" lon="-0.49158">
        <ele>254</ele>
        <time>2016-05-05T12:22:54</time>
      </trkpt>
      <trkpt lat="43.31695" lon="-0.49159">
        <ele>255</ele>
        <time>2016-05-05T12:22:59</time>
      </trkpt>
      <trkpt lat="43.31703" lon="-0.4916">
        <ele>256</ele>
        <time>2016-05-05T12:23:04</time>
      </trkpt>
      <trkpt lat="43.31709" lon="-0.49159">
        <ele>258</ele>
        <time>2016-05-05T12:23:09</time>
      </trkpt>
      <trkpt lat="43.31716" lon="-0.49159">
        <ele>260</ele>
        <time>2016-05-05T12:23:14</time>
      </trkpt>
      <trkpt lat="43.31723" lon="-0.49158">
        <ele>261</ele>
        <time>2016-05-05T12:23:19</time>
      </trkpt>
      <trkpt lat="43.31728" lon="-0.49157">
        <ele>261</ele>
        <time>2016-05-05T12:23:24</time>
      </trkpt>
      <trkpt lat="43.31733" lon="-0.49156">
        <ele>262</ele>
        <time>2016-05-05T12:23:29</time>
      </trkpt>
      <trkpt lat="43.3174" lon="-0.49155">
        <ele>265</ele>
        <time>2016-05-05T12:23:34</time>
      </trkpt>
      <trkpt lat="43.31747" lon="-0.49155">
        <ele>265</ele>
        <time>2016-05-05T12:23:39</time>
      </trkpt>
      <trkpt lat="43.31753" lon="-0.49156">
        <ele>267</ele>
        <time>2016-05-05T12:23:44</time>
      </trkpt>
      <trkpt lat="43.31756" lon="-0.49164">
        <ele>267</ele>
        <time>2016-05-05T12:23:49</time>
      </trkpt>
      <trkpt lat="43.31759" lon="-0.49172">
        <ele>269</ele>
        <time>2016-05-05T12:23:54</time>
      </trkpt>
      <trkpt lat="43.31759" lon="-0.4918">
        <ele>270</ele>
        <time>2016-05-05T12:23:59</time>
      </trkpt>
      <trkpt lat="43.31762" lon="-0.49187">
        <ele>270</ele>
        <time>2016-05-05T12:24:04</time>
      </trkpt>
      <trkpt lat="43.31766" lon="-0.49192">
        <ele>270</ele>
        <time>2016-05-05T12:24:09</time>
      </trkpt>
      <trkpt lat="43.3177" lon="-0.49202">
        <ele>270</ele>
        <time>2016-05-05T12:24:14</time>
      </trkpt>
      <trkpt lat="43.31777" lon="-0.49216">
        <ele>269</ele>
        <time>2016-05-05T12:24:19</time>
      </trkpt>
      <trkpt lat="43.31781" lon="-0.49236">
        <ele>269</ele>
        <time>2016-05-05T12:24:24</time>
      </trkpt>
      <trkpt lat="43.31796" lon="-0.49239">
        <ele>266</ele>
        <time>2016-05-05T12:24:29</time>
      </trkpt>
      <trkpt lat="43.31808" lon="-0.49241">
        <ele>267</ele>
        <time>2016-05-05T12:24:34</time>
      </trkpt>
      <trkpt lat="43.31819" lon="-0.4924">
        <ele>267</ele>
        <time>2016-05-05T12:24:39</time>
      </trkpt>
      <trkpt lat="43.31829" lon="-0.49239">
        <ele>268</ele>
        <time>2016-05-05T12:24:44</time>
      </trkpt>
      <trkpt lat="43.31838" lon="-0.49239">
        <ele>270</ele>
        <time>2016-05-05T12:24:49</time>
      </trkpt>
      <trkpt lat="43.3185" lon="-0.49238">
        <ele>270</ele>
        <time>2016-05-05T12:24:54</time>
      </trkpt>
      <trkpt lat="43.31863" lon="-0.49238">
        <ele>271</ele>
        <time>2016-05-05T12:24:59</time>
      </trkpt>
      <trkpt lat="43.31876" lon="-0.49239">
        <ele>271</ele>
        <time>2016-05-05T12:25:05</time>
      </trkpt>
      <trkpt lat="43.31889" lon="-0.49239">
        <ele>271</ele>
        <time>2016-05-05T12:25:10</time>
      </trkpt>
      <trkpt lat="43.31901" lon="-0.49239">
        <ele>272</ele>
        <time>2016-05-05T12:25:15</time>
      </trkpt>
      <trkpt lat="43.31919" lon="-0.49242">
        <ele>272</ele>
        <time>2016-05-05T12:25:20</time>
      </trkpt>
      <trkpt lat="43.31936" lon="-0.49248">
        <ele>272</ele>
        <time>2016-05-05T12:25:25</time>
      </trkpt>
      <trkpt lat="43.31953" lon="-0.49254">
        <ele>272</ele>
        <time>2016-05-05T12:25:30</time>
      </trkpt>
      <trkpt lat="43.31959" lon="-0.49269">
        <ele>271</ele>
        <time>2016-05-05T12:25:35</time>
      </trkpt>
      <trkpt lat="43.31948" lon="-0.49286">
        <ele>270</ele>
        <time>2016-05-05T12:25:40</time>
      </trkpt>
      <trkpt lat="43.31915" lon="-0.49292">
        <ele>267</ele>
        <time>2016-05-05T12:25:45</time>
      </trkpt>
      <trkpt lat="43.31873" lon="-0.49304">
        <ele>257</ele>
        <time>2016-05-05T12:25:50</time>
      </trkpt>
      <trkpt lat="43.31837" lon="-0.49311">
        <ele>250</ele>
        <time>2016-05-05T12:25:55</time>
      </trkpt>
      <trkpt lat="43.31811" lon="-0.49334">
        <ele>242</ele>
        <time>2016-05-05T12:26:00</time>
      </trkpt>
      <trkpt lat="43.31794" lon="-0.49357">
        <ele>237</ele>
        <time>2016-05-05T12:26:05</time>
      </trkpt>
      <trkpt lat="43.31792" lon="-0.49363">
        <ele>235</ele>
        <time>2016-05-05T12:26:10</time>
      </trkpt>
      <trkpt lat="43.31791" lon="-0.49368">
        <ele>235</ele>
        <time>2016-05-05T12:26:15</time>
      </trkpt>
      <trkpt lat="43.31792" lon="-0.49371">
        <ele>237</ele>
        <time>2016-05-05T12:26:20</time>
      </trkpt>
      <trkpt lat="43.31794" lon="-0.49378">
        <ele>235</ele>
        <time>2016-05-05T12:26:25</time>
      </trkpt>
      <trkpt lat="43.31794" lon="-0.49385">
        <ele>237</ele>
        <time>2016-05-05T12:26:30</time>
      </trkpt>
      <trkpt lat="43.31794" lon="-0.49393">
        <ele>238</ele>
        <time>2016-05-05T12:26:35</time>
      </trkpt>
      <trkpt lat="43.31796" lon="-0.49402">
        <ele>239</ele>
        <time>2016-05-05T12:26:40</time>
      </trkpt>
      <trkpt lat="43.31796" lon="-0.49411">
        <ele>242</ele>
        <time>2016-05-05T12:26:45</time>
      </trkpt>
      <trkpt lat="43.31797" lon="-0.49422">
        <ele>242</ele>
        <time>2016-05-05T12:26:50</time>
      </trkpt>
      <trkpt lat="43.31797" lon="-0.4943">
        <ele>243</ele>
        <time>2016-05-05T12:26:55</time>
      </trkpt>
      <trkpt lat="43.31798" lon="-0.49441">
        <ele>244</ele>
        <time>2016-05-05T12:27:00</time>
      </trkpt>
      <trkpt lat="43.318" lon="-0.49446">
        <ele>244</ele>
        <time>2016-05-05T12:27:05</time>
      </trkpt>
      <trkpt lat="43.31804" lon="-0.4945">
        <ele>244</ele>
        <time>2016-05-05T12:27:10</time>
      </trkpt>
      <trkpt lat="43.31811" lon="-0.49458">
        <ele>244</ele>
        <time>2016-05-05T12:27:15</time>
      </trkpt>
      <trkpt lat="43.31819" lon="-0.49468">
        <ele>244</ele>
        <time>2016-05-05T12:27:20</time>
      </trkpt>
      <trkpt lat="43.31826" lon="-0.49474">
        <ele>244</ele>
        <time>2016-05-05T12:27:25</time>
      </trkpt>
      <trkpt lat="43.31836" lon="-0.49483">
        <ele>243</ele>
        <time>2016-05-05T12:27:31</time>
      </trkpt>
      <trkpt lat="43.31846" lon="-0.4949">
        <ele>244</ele>
        <time>2016-05-05T12:27:36</time>
      </trkpt>
      <trkpt lat="43.31858" lon="-0.49499">
        <ele>244</ele>
        <time>2016-05-05T12:27:41</time>
      </trkpt>
      <trkpt lat="43.31869" lon="-0.49506">
        <ele>244</ele>
        <time>2016-05-05T12:27:46</time>
      </trkpt>
      <trkpt lat="43.31882" lon="-0.49516">
        <ele>243</ele>
        <time>2016-05-05T12:27:51</time>
      </trkpt>
      <trkpt lat="43.31895" lon="-0.49531">
        <ele>245</ele>
        <time>2016-05-05T12:27:56</time>
      </trkpt>
      <trkpt lat="43.31911" lon="-0.49553">
        <ele>245</ele>
        <time>2016-05-05T12:28:01</time>
      </trkpt>
      <trkpt lat="43.31921" lon="-0.4957">
        <ele>245</ele>
        <time>2016-05-05T12:28:06</time>
      </trkpt>
      <trkpt lat="43.31924" lon="-0.49586">
        <ele>244</ele>
        <time>2016-05-05T12:28:11</time>
      </trkpt>
      <trkpt lat="43.31919" lon="-0.49599">
        <ele>244</ele>
        <time>2016-05-05T12:28:16</time>
      </trkpt>
      <trkpt lat="43.31911" lon="-0.49606">
        <ele>244</ele>
        <time>2016-05-05T12:28:21</time>
      </trkpt>
      <trkpt lat="43.31905" lon="-0.49613">
        <ele>244</ele>
        <time>2016-05-05T12:28:26</time>
      </trkpt>
      <trkpt lat="43.31898" lon="-0.49621">
        <ele>244</ele>
        <time>2016-05-05T12:28:31</time>
      </trkpt>
      <trkpt lat="43.3189" lon="-0.49625">
        <ele>244</ele>
        <time>2016-05-05T12:28:36</time>
      </trkpt>
      <trkpt lat="43.31883" lon="-0.49632">
        <ele>247</ele>
        <time>2016-05-05T12:28:41</time>
      </trkpt>
      <trkpt lat="43.31874" lon="-0.49639">
        <ele>247</ele>
        <time>2016-05-05T12:28:46</time>
      </trkpt>
      <trkpt lat="43.31865" lon="-0.49655">
        <ele>248</ele>
        <time>2016-05-05T12:28:51</time>
      </trkpt>
      <trkpt lat="43.31851" lon="-0.4967">
        <ele>245</ele>
        <time>2016-05-05T12:28:56</time>
      </trkpt>
      <trkpt lat="43.31838" lon="-0.4968">
        <ele>246</ele>
        <time>2016-05-05T12:29:01</time>
      </trkpt>
      <trkpt lat="43.31823" lon="-0.49686">
        <ele>250</ele>
        <time>2016-05-05T12:29:06</time>
      </trkpt>
      <trkpt lat="43.3181" lon="-0.49691">
        <ele>252</ele>
        <time>2016-05-05T12:29:11</time>
      </trkpt>
      <trkpt lat="43.31799" lon="-0.49699">
        <ele>253</ele>
        <time>2016-05-05T12:29:16</time>
      </trkpt>
      <trkpt lat="43.31787" lon="-0.49705">
        <ele>253</ele>
        <time>2016-05-05T12:29:21</time>
      </trkpt>
      <trkpt lat="43.31773" lon="-0.49717">
        <ele>252</ele>
        <time>2016-05-05T12:29:26</time>
      </trkpt>
      <trkpt lat="43.31752" lon="-0.49726">
        <ele>252</ele>
        <time>2016-05-05T12:29:32</time>
      </trkpt>
      <trkpt lat="43.31747" lon="-0.49732">
        <ele>251</ele>
        <time>2016-05-05T12:29:37</time>
      </trkpt>
      <trkpt lat="43.31749" lon="-0.49751">
        <ele>249</ele>
        <time>2016-05-05T12:29:42</time>
      </trkpt>
      <trkpt lat="43.31759" lon="-0.49773">
        <ele>248</ele>
        <time>2016-05-05T12:29:47</time>
      </trkpt>
      <trkpt lat="43.31755" lon="-0.49789">
        <ele>249</ele>
        <time>2016-05-05T12:29:52</time>
      </trkpt>
      <trkpt lat="43.3175" lon="-0.49799">
        <ele>249</ele>
        <time>2016-05-05T12:29:57</time>
      </trkpt>
      <trkpt lat="43.31744" lon="-0.4981">
        <ele>250</ele>
        <time>2016-05-05T12:30:02</time>
      </trkpt>
      <trkpt lat="43.3174" lon="-0.49818">
        <ele>251</ele>
        <time>2016-05-05T12:30:07</time>
      </trkpt>
      <trkpt lat="43.31736" lon="-0.49828">
        <ele>253</ele>
        <time>2016-05-05T12:30:12</time>
      </trkpt>
      <trkpt lat="43.31733" lon="-0.49837">
        <ele>257</ele>
        <time>2016-05-05T12:30:17</time>
      </trkpt>
      <trkpt lat="43.31731" lon="-0.49847">
        <ele>257</ele>
        <time>2016-05-05T12:30:22</time>
      </trkpt>
      <trkpt lat="43.31727" lon="-0.49857">
        <ele>258</ele>
        <time>2016-05-05T12:30:27</time>
      </trkpt>
      <trkpt lat="43.31725" lon="-0.49867">
        <ele>258</ele>
        <time>2016-05-05T12:30:32</time>
      </trkpt>
      <trkpt lat="43.31722" lon="-0.49877">
        <ele>260</ele>
        <time>2016-05-05T12:30:37</time>
      </trkpt>
      <trkpt lat="43.31719" lon="-0.49888">
        <ele>260</ele>
        <time>2016-05-05T12:30:42</time>
      </trkpt>
      <trkpt lat="43.31718" lon="-0.49896">
        <ele>261</ele>
        <time>2016-05-05T12:30:47</time>
      </trkpt>
      <trkpt lat="43.31715" lon="-0.49905">
        <ele>262</ele>
        <time>2016-05-05T12:30:52</time>
      </trkpt>
      <trkpt lat="43.31712" lon="-0.49916">
        <ele>264</ele>
        <time>2016-05-05T12:30:57</time>
      </trkpt>
      <trkpt lat="43.31713" lon="-0.49927">
        <ele>266</ele>
        <time>2016-05-05T12:31:02</time>
      </trkpt>
      <trkpt lat="43.31725" lon="-0.4994">
        <ele>266</ele>
        <time>2016-05-05T12:31:07</time>
      </trkpt>
      <trkpt lat="43.31746" lon="-0.49959">
        <ele>266</ele>
        <time>2016-05-05T12:31:12</time>
      </trkpt>
      <trkpt lat="43.31773" lon="-0.49983">
        <ele>261</ele>
        <time>2016-05-05T12:31:17</time>
      </trkpt>
      <trkpt lat="43.31764" lon="-0.50005">
        <ele>255</ele>
        <time>2016-05-05T12:31:22</time>
      </trkpt>
      <trkpt lat="43.31773" lon="-0.50045">
        <ele>254</ele>
        <time>2016-05-05T12:31:27</time>
      </trkpt>
      <trkpt lat="43.31791" lon="-0.50075">
        <ele>250</ele>
        <time>2016-05-05T12:31:32</time>
      </trkpt>
      <trkpt lat="43.31814" lon="-0.50099">
        <ele>243</ele>
        <time>2016-05-05T12:31:38</time>
      </trkpt>
      <trkpt lat="43.31834" lon="-0.50132">
        <ele>239</ele>
        <time>2016-05-05T12:31:43</time>
      </trkpt>
      <trkpt lat="43.31841" lon="-0.50138">
        <ele>237</ele>
        <time>2016-05-05T12:31:48</time>
      </trkpt>
      <trkpt lat="43.31851" lon="-0.50149">
        <ele>237</ele>
        <time>2016-05-05T12:31:53</time>
      </trkpt>
      <trkpt lat="43.31868" lon="-0.50172">
        <ele>237</ele>
        <time>2016-05-05T12:31:58</time>
      </trkpt>
      <trkpt lat="43.31881" lon="-0.50196">
        <ele>236</ele>
        <time>2016-05-05T12:32:03</time>
      </trkpt>
      <trkpt lat="43.31893" lon="-0.50216">
        <ele>236</ele>
        <time>2016-05-05T12:32:08</time>
      </trkpt>
      <trkpt lat="43.31911" lon="-0.5023">
        <ele>234</ele>
        <time>2016-05-05T12:32:13</time>
      </trkpt>
      <trkpt lat="43.31918" lon="-0.50252">
        <ele>235</ele>
        <time>2016-05-05T12:32:18</time>
      </trkpt>
      <trkpt lat="43.31924" lon="-0.50287">
        <ele>234</ele>
        <time>2016-05-05T12:32:23</time>
      </trkpt>
      <trkpt lat="43.31932" lon="-0.50329">
        <ele>233</ele>
        <time>2016-05-05T12:32:28</time>
      </trkpt>
      <trkpt lat="43.31945" lon="-0.50387">
        <ele>230</ele>
        <time>2016-05-05T12:32:33</time>
      </trkpt>
      <trkpt lat="43.3194" lon="-0.50429">
        <ele>227</ele>
        <time>2016-05-05T12:32:38</time>
      </trkpt>
      <trkpt lat="43.31908" lon="-0.50408">
        <ele>222</ele>
        <time>2016-05-05T12:32:43</time>
      </trkpt>
      <trkpt lat="43.31876" lon="-0.50382">
        <ele>219</ele>
        <time>2016-05-05T12:32:48</time>
      </trkpt>
      <trkpt lat="43.31831" lon="-0.50348">
        <ele>214</ele>
        <time>2016-05-05T12:32:53</time>
      </trkpt>
      <trkpt lat="43.31798" lon="-0.50335">
        <ele>206</ele>
        <time>2016-05-05T12:32:58</time>
      </trkpt>
      <trkpt lat="43.31799" lon="-0.5036">
        <ele>200</ele>
        <time>2016-05-05T12:33:03</time>
      </trkpt>
      <trkpt lat="43.31812" lon="-0.50404">
        <ele>198</ele>
        <time>2016-05-05T12:33:08</time>
      </trkpt>
      <trkpt lat="43.31823" lon="-0.50463">
        <ele>192</ele>
        <time>2016-05-05T12:33:13</time>
      </trkpt>
      <trkpt lat="43.31828" lon="-0.50511">
        <ele>187</ele>
        <time>2016-05-05T12:33:18</time>
      </trkpt>
      <trkpt lat="43.31827" lon="-0.50551">
        <ele>183</ele>
        <time>2016-05-05T12:33:23</time>
      </trkpt>
      <trkpt lat="43.31829" lon="-0.50581">
        <ele>177</ele>
        <time>2016-05-05T12:33:28</time>
      </trkpt>
      <trkpt lat="43.31827" lon="-0.50615">
        <ele>175</ele>
        <time>2016-05-05T12:33:33</time>
      </trkpt>
      <trkpt lat="43.31825" lon="-0.50634">
        <ele>171</ele>
        <time>2016-05-05T12:33:38</time>
      </trkpt>
      <trkpt lat="43.31828" lon="-0.5065">
        <ele>172</ele>
        <time>2016-05-05T12:33:43</time>
      </trkpt>
      <trkpt lat="43.31829" lon="-0.50661">
        <ele>170</ele>
        <time>2016-05-05T12:33:48</time>
      </trkpt>
      <trkpt lat="43.31828" lon="-0.50673">
        <ele>171</ele>
        <time>2016-05-05T12:33:53</time>
      </trkpt>
      <trkpt lat="43.31828" lon="-0.50682">
        <ele>173</ele>
        <time>2016-05-05T12:33:59</time>
      </trkpt>
      <trkpt lat="43.31827" lon="-0.50688">
        <ele>173</ele>
        <time>2016-05-05T12:34:04</time>
      </trkpt>
      <trkpt lat="43.31825" lon="-0.50694">
        <ele>174</ele>
        <time>2016-05-05T12:34:09</time>
      </trkpt>
      <trkpt lat="43.31823" lon="-0.50701">
        <ele>175</ele>
        <time>2016-05-05T12:34:14</time>
      </trkpt>
      <trkpt lat="43.31822" lon="-0.50709">
        <ele>176</ele>
        <time>2016-05-05T12:34:19</time>
      </trkpt>
      <trkpt lat="43.31821" lon="-0.5072">
        <ele>176</ele>
        <time>2016-05-05T12:34:24</time>
      </trkpt>
      <trkpt lat="43.3182" lon="-0.50729">
        <ele>177</ele>
        <time>2016-05-05T12:34:29</time>
      </trkpt>
      <trkpt lat="43.31818" lon="-0.50733">
        <ele>178</ele>
        <time>2016-05-05T12:34:34</time>
      </trkpt>
      <trkpt lat="43.31816" lon="-0.50737">
        <ele>178</ele>
        <time>2016-05-05T12:34:39</time>
      </trkpt>
      <trkpt lat="43.31815" lon="-0.50743">
        <ele>178</ele>
        <time>2016-05-05T12:34:44</time>
      </trkpt>
      <trkpt lat="43.31812" lon="-0.50748">
        <ele>178</ele>
        <time>2016-05-05T12:34:49</time>
      </trkpt>
      <trkpt lat="43.3181" lon="-0.50755">
        <ele>179</ele>
        <time>2016-05-05T12:34:54</time>
      </trkpt>
      <trkpt lat="43.31809" lon="-0.5076">
        <ele>180</ele>
        <time>2016-05-05T12:34:59</time>
      </trkpt>
      <trkpt lat="43.31807" lon="-0.50768">
        <ele>180</ele>
        <time>2016-05-05T12:35:04</time>
      </trkpt>
      <trkpt lat="43.31805" lon="-0.50775">
        <ele>180</ele>
        <time>2016-05-05T12:35:09</time>
      </trkpt>
      <trkpt lat="43.31804" lon="-0.50782">
        <ele>182</ele>
        <time>2016-05-05T12:35:14</time>
      </trkpt>
      <trkpt lat="43.31803" lon="-0.50791">
        <ele>182</ele>
        <time>2016-05-05T12:35:19</time>
      </trkpt>
      <trkpt lat="43.31804" lon="-0.508">
        <ele>181</ele>
        <time>2016-05-05T12:35:24</time>
      </trkpt>
      <trkpt lat="43.31804" lon="-0.50811">
        <ele>181</ele>
        <time>2016-05-05T12:35:29</time>
      </trkpt>
      <trkpt lat="43.31806" lon="-0.50827">
        <ele>181</ele>
        <time>2016-05-05T12:35:34</time>
      </trkpt>
      <trkpt lat="43.31809" lon="-0.50841">
        <ele>183</ele>
        <time>2016-05-05T12:35:39</time>
      </trkpt>
      <trkpt lat="43.31814" lon="-0.50857">
        <ele>182</ele>
        <time>2016-05-05T12:35:44</time>
      </trkpt>
      <trkpt lat="43.31821" lon="-0.50874">
        <ele>180</ele>
        <time>2016-05-05T12:35:49</time>
      </trkpt>
      <trkpt lat="43.31833" lon="-0.50896">
        <ele>181</ele>
        <time>2016-05-05T12:35:54</time>
      </trkpt>
      <trkpt lat="43.31844" lon="-0.50923">
        <ele>179</ele>
        <time>2016-05-05T12:35:59</time>
      </trkpt>
      <trkpt lat="43.31852" lon="-0.50947">
        <ele>178</ele>
        <time>2016-05-05T12:36:04</time>
      </trkpt>
      <trkpt lat="43.3186" lon="-0.50964">
        <ele>178</ele>
        <time>2016-05-05T12:36:09</time>
      </trkpt>
      <trkpt lat="43.31877" lon="-0.50988">
        <ele>176</ele>
        <time>2016-05-05T12:36:14</time>
      </trkpt>
      <trkpt lat="43.31887" lon="-0.51024">
        <ele>175</ele>
        <time>2016-05-05T12:36:19</time>
      </trkpt>
      <trkpt lat="43.31894" lon="-0.51067">
        <ele>171</ele>
        <time>2016-05-05T12:36:25</time>
      </trkpt>
      <trkpt lat="43.31896" lon="-0.51117">
        <ele>169</ele>
        <time>2016-05-05T12:36:30</time>
      </trkpt>
      <trkpt lat="43.31899" lon="-0.51175">
        <ele>167</ele>
        <time>2016-05-05T12:36:35</time>
      </trkpt>
      <trkpt lat="43.31902" lon="-0.51214">
        <ele>166</ele>
        <time>2016-05-05T12:36:40</time>
      </trkpt>
      <trkpt lat="43.31905" lon="-0.51241">
        <ele>166</ele>
        <time>2016-05-05T12:36:45</time>
      </trkpt>
      <trkpt lat="43.31906" lon="-0.51279">
        <ele>164</ele>
        <time>2016-05-05T12:36:50</time>
      </trkpt>
      <trkpt lat="43.31903" lon="-0.51311">
        <ele>163</ele>
        <time>2016-05-05T12:36:55</time>
      </trkpt>
      <trkpt lat="43.31907" lon="-0.51345">
        <ele>163</ele>
        <time>2016-05-05T12:37:00</time>
      </trkpt>
      <trkpt lat="43.31919" lon="-0.51382">
        <ele>161</ele>
        <time>2016-05-05T12:37:05</time>
      </trkpt>
      <trkpt lat="43.31944" lon="-0.51407">
        <ele>160</ele>
        <time>2016-05-05T12:37:10</time>
      </trkpt>
      <trkpt lat="43.31969" lon="-0.51422">
        <ele>160</ele>
        <time>2016-05-05T12:37:15</time>
      </trkpt>
      <trkpt lat="43.31985" lon="-0.51434">
        <ele>160</ele>
        <time>2016-05-05T12:37:20</time>
      </trkpt>
      <trkpt lat="43.32" lon="-0.51439">
        <ele>161</ele>
        <time>2016-05-05T12:37:25</time>
      </trkpt>
      <trkpt lat="43.32012" lon="-0.51442">
        <ele>162</ele>
        <time>2016-05-05T12:37:30</time>
      </trkpt>
      <trkpt lat="43.32022" lon="-0.51448">
        <ele>163</ele>
        <time>2016-05-05T12:37:35</time>
      </trkpt>
      <trkpt lat="43.32033" lon="-0.51454">
        <ele>163</ele>
        <time>2016-05-05T12:37:40</time>
      </trkpt>
      <trkpt lat="43.32041" lon="-0.51458">
        <ele>164</ele>
        <time>2016-05-05T12:37:45</time>
      </trkpt>
      <trkpt lat="43.32049" lon="-0.51462">
        <ele>165</ele>
        <time>2016-05-05T12:37:50</time>
      </trkpt>
      <trkpt lat="43.32056" lon="-0.51464">
        <ele>166</ele>
        <time>2016-05-05T12:37:55</time>
      </trkpt>
      <trkpt lat="43.32064" lon="-0.51467">
        <ele>167</ele>
        <time>2016-05-05T12:38:00</time>
      </trkpt>
      <trkpt lat="43.32072" lon="-0.51468">
        <ele>167</ele>
        <time>2016-05-05T12:38:05</time>
      </trkpt>
      <trkpt lat="43.3208" lon="-0.5147">
        <ele>169</ele>
        <time>2016-05-05T12:38:10</time>
      </trkpt>
      <trkpt lat="43.32089" lon="-0.51472">
        <ele>170</ele>
        <time>2016-05-05T12:38:15</time>
      </trkpt>
      <trkpt lat="43.32098" lon="-0.51474">
        <ele>171</ele>
        <time>2016-05-05T12:38:20</time>
      </trkpt>
      <trkpt lat="43.32108" lon="-0.51477">
        <ele>173</ele>
        <time>2016-05-05T12:38:25</time>
      </trkpt>
      <trkpt lat="43.32115" lon="-0.51479">
        <ele>173</ele>
        <time>2016-05-05T12:38:30</time>
      </trkpt>
      <trkpt lat="43.32122" lon="-0.5148">
        <ele>174</ele>
        <time>2016-05-05T12:38:35</time>
      </trkpt>
      <trkpt lat="43.3213" lon="-0.51482">
        <ele>175</ele>
        <time>2016-05-05T12:38:40</time>
      </trkpt>
      <trkpt lat="43.32138" lon="-0.51484">
        <ele>178</ele>
        <time>2016-05-05T12:38:45</time>
      </trkpt>
      <trkpt lat="43.32144" lon="-0.51485">
        <ele>178</ele>
        <time>2016-05-05T12:38:50</time>
      </trkpt>
      <trkpt lat="43.3215" lon="-0.51486">
        <ele>180</ele>
        <time>2016-05-05T12:38:56</time>
      </trkpt>
      <trkpt lat="43.32154" lon="-0.51487">
        <ele>182</ele>
        <time>2016-05-05T12:39:01</time>
      </trkpt>
      <trkpt lat="43.3216" lon="-0.51487">
        <ele>182</ele>
        <time>2016-05-05T12:39:06</time>
      </trkpt>
      <trkpt lat="43.32166" lon="-0.51485">
        <ele>181</ele>
        <time>2016-05-05T12:39:11</time>
      </trkpt>
      <trkpt lat="43.32172" lon="-0.51482">
        <ele>184</ele>
        <time>2016-05-05T12:39:16</time>
      </trkpt>
      <trkpt lat="43.32179" lon="-0.51479">
        <ele>186</ele>
        <time>2016-05-05T12:39:21</time>
      </trkpt>
      <trkpt lat="43.32182" lon="-0.51479">
        <ele>186</ele>
        <time>2016-05-05T12:39:26</time>
      </trkpt>
      <trkpt lat="43.32184" lon="-0.51479">
        <ele>186</ele>
        <time>2016-05-05T12:39:31</time>
      </trkpt>
      <trkpt lat="43.32185" lon="-0.5148">
        <ele>186</ele>
        <time>2016-05-05T12:39:36</time>
      </trkpt>
      <trkpt lat="43.32187" lon="-0.51481">
        <ele>186</ele>
        <time>2016-05-05T12:39:41</time>
      </trkpt>
      <trkpt lat="43.32191" lon="-0.51478">
        <ele>186</ele>
        <time>2016-05-05T12:39:46</time>
      </trkpt>
      <trkpt lat="43.32195" lon="-0.51474">
        <ele>187</ele>
        <time>2016-05-05T12:39:51</time>
      </trkpt>
      <trkpt lat="43.32198" lon="-0.51469">
        <ele>188</ele>
        <time>2016-05-05T12:39:56</time>
      </trkpt>
      <trkpt lat="43.32202" lon="-0.51464">
        <ele>189</ele>
        <time>2016-05-05T12:40:01</time>
      </trkpt>
      <trkpt lat="43.32204" lon="-0.51459">
        <ele>189</ele>
        <time>2016-05-05T12:40:06</time>
      </trkpt>
      <trkpt lat="43.32207" lon="-0.51454">
        <ele>190</ele>
        <time>2016-05-05T12:40:11</time>
      </trkpt>
      <trkpt lat="43.32209" lon="-0.5145">
        <ele>191</ele>
        <time>2016-05-05T12:40:16</time>
      </trkpt>
      <trkpt lat="43.32212" lon="-0.51445">
        <ele>192</ele>
        <time>2016-05-05T12:40:21</time>
      </trkpt>
      <trkpt lat="43.32214" lon="-0.51442">
        <ele>193</ele>
        <time>2016-05-05T12:40:26</time>
      </trkpt>
      <trkpt lat="43.32217" lon="-0.51439">
        <ele>194</ele>
        <time>2016-05-05T12:40:31</time>
      </trkpt>
      <trkpt lat="43.32217" lon="-0.51439">
        <ele>194</ele>
        <time>2016-05-05T12:40:36</time>
      </trkpt>
      <trkpt lat="43.32217" lon="-0.51439">
        <ele>195</ele>
        <time>2016-05-05T12:40:41</time>
      </trkpt>
      <trkpt lat="43.32217" lon="-0.5144">
        <ele>194</ele>
        <time>2016-05-05T12:40:46</time>
      </trkpt>
      <trkpt lat="43.32217" lon="-0.5144">
        <ele>194</ele>
        <time>2016-05-05T12:40:51</time>
      </trkpt>
      <trkpt lat="43.32219" lon="-0.51435">
        <ele>194</ele>
        <time>2016-05-05T12:40:56</time>
      </trkpt>
      <trkpt lat="43.32221" lon="-0.51427">
        <ele>195</ele>
        <time>2016-05-05T12:41:01</time>
      </trkpt>
      <trkpt lat="43.32224" lon="-0.51418">
        <ele>196</ele>
        <time>2016-05-05T12:41:06</time>
      </trkpt>
      <trkpt lat="43.32229" lon="-0.51411">
        <ele>197</ele>
        <time>2016-05-05T12:41:11</time>
      </trkpt>
      <trkpt lat="43.32234" lon="-0.51407">
        <ele>199</ele>
        <time>2016-05-05T12:41:16</time>
      </trkpt>
      <trkpt lat="43.32239" lon="-0.51402">
        <ele>200</ele>
        <time>2016-05-05T12:41:22</time>
      </trkpt>
      <trkpt lat="43.32246" lon="-0.51399">
        <ele>200</ele>
        <time>2016-05-05T12:41:27</time>
      </trkpt>
      <trkpt lat="43.32252" lon="-0.51396">
        <ele>202</ele>
        <time>2016-05-05T12:41:32</time>
      </trkpt>
      <trkpt lat="43.32259" lon="-0.51393">
        <ele>204</ele>
        <time>2016-05-05T12:41:37</time>
      </trkpt>
      <trkpt lat="43.32265" lon="-0.5139">
        <ele>204</ele>
        <time>2016-05-05T12:41:42</time>
      </trkpt>
      <trkpt lat="43.32271" lon="-0.51386">
        <ele>204</ele>
        <time>2016-05-05T12:41:47</time>
      </trkpt>
      <trkpt lat="43.32277" lon="-0.51381">
        <ele>206</ele>
        <time>2016-05-05T12:41:52</time>
      </trkpt>
      <trkpt lat="43.32285" lon="-0.51376">
        <ele>207</ele>
        <time>2016-05-05T12:41:57</time>
      </trkpt>
      <trkpt lat="43.32291" lon="-0.5137">
        <ele>207</ele>
        <time>2016-05-05T12:42:02</time>
      </trkpt>
      <trkpt lat="43.32297" lon="-0.51365">
        <ele>208</ele>
        <time>2016-05-05T12:42:07</time>
      </trkpt>
      <trkpt lat="43.32302" lon="-0.5136">
        <ele>210</ele>
        <time>2016-05-05T12:42:12</time>
      </trkpt>
      <trkpt lat="43.32308" lon="-0.51355">
        <ele>210</ele>
        <time>2016-05-05T12:42:17</time>
      </trkpt>
      <trkpt lat="43.32314" lon="-0.51349">
        <ele>212</ele>
        <time>2016-05-05T12:42:22</time>
      </trkpt>
      <trkpt lat="43.3232" lon="-0.51344">
        <ele>213</ele>
        <time>2016-05-05T12:42:27</time>
      </trkpt>
      <trkpt lat="43.32325" lon="-0.5134">
        <ele>213</ele>
        <time>2016-05-05T12:42:32</time>
      </trkpt>
      <trkpt lat="43.32331" lon="-0.51336">
        <ele>214</ele>
        <time>2016-05-05T12:42:37</time>
      </trkpt>
      <trkpt lat="43.32338" lon="-0.51333">
        <ele>215</ele>
        <time>2016-05-05T12:42:42</time>
      </trkpt>
      <trkpt lat="43.32344" lon="-0.51331">
        <ele>217</ele>
        <time>2016-05-05T12:42:47</time>
      </trkpt>
      <trkpt lat="43.3235" lon="-0.51328">
        <ele>219</ele>
        <time>2016-05-05T12:42:52</time>
      </trkpt>
      <trkpt lat="43.32356" lon="-0.51326">
        <ele>220</ele>
        <time>2016-05-05T12:42:57</time>
      </trkpt>
      <trkpt lat="43.32362" lon="-0.51324">
        <ele>221</ele>
        <time>2016-05-05T12:43:02</time>
      </trkpt>
      <trkpt lat="43.32368" lon="-0.51323">
        <ele>222</ele>
        <time>2016-05-05T12:43:07</time>
      </trkpt>
      <trkpt lat="43.32374" lon="-0.5132">
        <ele>222</ele>
        <time>2016-05-05T12:43:12</time>
      </trkpt>
      <trkpt lat="43.3238" lon="-0.51319">
        <ele>225</ele>
        <time>2016-05-05T12:43:17</time>
      </trkpt>
      <trkpt lat="43.32384" lon="-0.51322">
        <ele>226</ele>
        <time>2016-05-05T12:43:22</time>
      </trkpt>
      <trkpt lat="43.32391" lon="-0.51324">
        <ele>227</ele>
        <time>2016-05-05T12:43:27</time>
      </trkpt>
      <trkpt lat="43.32396" lon="-0.51326">
        <ele>229</ele>
        <time>2016-05-05T12:43:32</time>
      </trkpt>
      <trkpt lat="43.32402" lon="-0.51325">
        <ele>229</ele>
        <time>2016-05-05T12:43:38</time>
      </trkpt>
      <trkpt lat="43.32408" lon="-0.51327">
        <ele>230</ele>
        <time>2016-05-05T12:43:43</time>
      </trkpt>
      <trkpt lat="43.32415" lon="-0.5133">
        <ele>229</ele>
        <time>2016-05-05T12:43:48</time>
      </trkpt>
      <trkpt lat="43.32423" lon="-0.51334">
        <ele>231</ele>
        <time>2016-05-05T12:43:53</time>
      </trkpt>
      <trkpt lat="43.32433" lon="-0.51351">
        <ele>231</ele>
        <time>2016-05-05T12:43:58</time>
      </trkpt>
      <trkpt lat="43.32445" lon="-0.51371">
        <ele>228</ele>
        <time>2016-05-05T12:44:03</time>
      </trkpt>
      <trkpt lat="43.32456" lon="-0.51388">
        <ele>229</ele>
        <time>2016-05-05T12:44:08</time>
      </trkpt>
      <trkpt lat="43.32465" lon="-0.51401">
        <ele>228</ele>
        <time>2016-05-05T12:44:13</time>
      </trkpt>
      <trkpt lat="43.32473" lon="-0.51414">
        <ele>229</ele>
        <time>2016-05-05T12:44:18</time>
      </trkpt>
      <trkpt lat="43.32481" lon="-0.51424">
        <ele>229</ele>
        <time>2016-05-05T12:44:23</time>
      </trkpt>
      <trkpt lat="43.32488" lon="-0.51434">
        <ele>230</ele>
        <time>2016-05-05T12:44:28</time>
      </trkpt>
      <trkpt lat="43.32497" lon="-0.51442">
        <ele>230</ele>
        <time>2016-05-05T12:44:33</time>
      </trkpt>
      <trkpt lat="43.32504" lon="-0.51451">
        <ele>230</ele>
        <time>2016-05-05T12:44:38</time>
      </trkpt>
      <trkpt lat="43.3251" lon="-0.5146">
        <ele>230</ele>
        <time>2016-05-05T12:44:43</time>
      </trkpt>
      <trkpt lat="43.32521" lon="-0.51468">
        <ele>229</ele>
        <time>2016-05-05T12:44:48</time>
      </trkpt>
      <trkpt lat="43.32531" lon="-0.51472">
        <ele>230</ele>
        <time>2016-05-05T12:44:53</time>
      </trkpt>
      <trkpt lat="43.32543" lon="-0.51476">
        <ele>229</ele>
        <time>2016-05-05T12:44:58</time>
      </trkpt>
      <trkpt lat="43.32558" lon="-0.5148">
        <ele>228</ele>
        <time>2016-05-05T12:45:03</time>
      </trkpt>
      <trkpt lat="43.32566" lon="-0.51473">
        <ele>229</ele>
        <time>2016-05-05T12:45:08</time>
      </trkpt>
      <trkpt lat="43.32576" lon="-0.51471">
        <ele>229</ele>
        <time>2016-05-05T12:45:13</time>
      </trkpt>
      <trkpt lat="43.32587" lon="-0.51471">
        <ele>230</ele>
        <time>2016-05-05T12:45:18</time>
      </trkpt>
      <trkpt lat="43.32595" lon="-0.51467">
        <ele>230</ele>
        <time>2016-05-05T12:45:23</time>
      </trkpt>
      <trkpt lat="43.32603" lon="-0.51462">
        <ele>232</ele>
        <time>2016-05-05T12:45:28</time>
      </trkpt>
      <trkpt lat="43.32612" lon="-0.51457">
        <ele>230</ele>
        <time>2016-05-05T12:45:33</time>
      </trkpt>
      <trkpt lat="43.3262" lon="-0.51452">
        <ele>232</ele>
        <time>2016-05-05T12:45:38</time>
      </trkpt>
      <trkpt lat="43.32628" lon="-0.51452">
        <ele>233</ele>
        <time>2016-05-05T12:45:43</time>
      </trkpt>
      <trkpt lat="43.32636" lon="-0.5145">
        <ele>235</ele>
        <time>2016-05-05T12:45:48</time>
      </trkpt>
      <trkpt lat="43.3265" lon="-0.51455">
        <ele>233</ele>
        <time>2016-05-05T12:45:53</time>
      </trkpt>
      <trkpt lat="43.32663" lon="-0.51461">
        <ele>231</ele>
        <time>2016-05-05T12:45:58</time>
      </trkpt>
      <trkpt lat="43.32673" lon="-0.5147">
        <ele>230</ele>
        <time>2016-05-05T12:46:03</time>
      </trkpt>
      <trkpt lat="43.3268" lon="-0.51474">
        <ele>230</ele>
        <time>2016-05-05T12:46:09</time>
      </trkpt>
      <trkpt lat="43.32689" lon="-0.51481">
        <ele>229</ele>
        <time>2016-05-05T12:46:14</time>
      </trkpt>
      <trkpt lat="43.32695" lon="-0.51499">
        <ele>228</ele>
        <time>2016-05-05T12:46:19</time>
      </trkpt>
      <trkpt lat="43.32706" lon="-0.51513">
        <ele>226</ele>
        <time>2016-05-05T12:46:24</time>
      </trkpt>
      <trkpt lat="43.32719" lon="-0.5152">
        <ele>225</ele>
        <time>2016-05-05T12:46:29</time>
      </trkpt>
      <trkpt lat="43.32727" lon="-0.51523">
        <ele>225</ele>
        <time>2016-05-05T12:46:34</time>
      </trkpt>
      <trkpt lat="43.32734" lon="-0.51533">
        <ele>225</ele>
        <time>2016-05-05T12:46:39</time>
      </trkpt>
      <trkpt lat="43.3274" lon="-0.51548">
        <ele>224</ele>
        <time>2016-05-05T12:46:44</time>
      </trkpt>
      <trkpt lat="43.32745" lon="-0.51561">
        <ele>224</ele>
        <time>2016-05-05T12:46:49</time>
      </trkpt>
      <trkpt lat="43.32751" lon="-0.51571">
        <ele>225</ele>
        <time>2016-05-05T12:46:54</time>
      </trkpt>
      <trkpt lat="43.32756" lon="-0.51586">
        <ele>224</ele>
        <time>2016-05-05T12:46:59</time>
      </trkpt>
      <trkpt lat="43.32759" lon="-0.51602">
        <ele>225</ele>
        <time>2016-05-05T12:47:04</time>
      </trkpt>
      <trkpt lat="43.32762" lon="-0.51619">
        <ele>225</ele>
        <time>2016-05-05T12:47:09</time>
      </trkpt>
      <trkpt lat="43.32765" lon="-0.51644">
        <ele>224</ele>
        <time>2016-05-05T12:47:14</time>
      </trkpt>
      <trkpt lat="43.32768" lon="-0.51668">
        <ele>222</ele>
        <time>2016-05-05T12:47:19</time>
      </trkpt>
      <trkpt lat="43.32771" lon="-0.51685">
        <ele>222</ele>
        <time>2016-05-05T12:47:24</time>
      </trkpt>
      <trkpt lat="43.32774" lon="-0.51703">
        <ele>223</ele>
        <time>2016-05-05T12:47:29</time>
      </trkpt>
      <trkpt lat="43.32774" lon="-0.51716">
        <ele>225</ele>
        <time>2016-05-05T12:47:34</time>
      </trkpt>
      <trkpt lat="43.32776" lon="-0.5173">
        <ele>225</ele>
        <time>2016-05-05T12:47:39</time>
      </trkpt>
      <trkpt lat="43.32777" lon="-0.51751">
        <ele>226</ele>
        <time>2016-05-05T12:47:44</time>
      </trkpt>
      <trkpt lat="43.32782" lon="-0.51768">
        <ele>226</ele>
        <time>2016-05-05T12:47:49</time>
      </trkpt>
      <trkpt lat="43.32788" lon="-0.51782">
        <ele>226</ele>
        <time>2016-05-05T12:47:54</time>
      </trkpt>
      <trkpt lat="43.32793" lon="-0.51793">
        <ele>228</ele>
        <time>2016-05-05T12:47:59</time>
      </trkpt>
      <trkpt lat="43.32801" lon="-0.51801">
        <ele>228</ele>
        <time>2016-05-05T12:48:04</time>
      </trkpt>
      <trkpt lat="43.32808" lon="-0.51806">
        <ele>228</ele>
        <time>2016-05-05T12:48:09</time>
      </trkpt>
      <trkpt lat="43.32818" lon="-0.5181">
        <ele>230</ele>
        <time>2016-05-05T12:48:15</time>
      </trkpt>
      <trkpt lat="43.32829" lon="-0.51809">
        <ele>231</ele>
        <time>2016-05-05T12:48:20</time>
      </trkpt>
      <trkpt lat="43.32839" lon="-0.51809">
        <ele>232</ele>
        <time>2016-05-05T12:48:25</time>
      </trkpt>
      <trkpt lat="43.3285" lon="-0.51808">
        <ele>233</ele>
        <time>2016-05-05T12:48:30</time>
      </trkpt>
      <trkpt lat="43.32864" lon="-0.51806">
        <ele>232</ele>
        <time>2016-05-05T12:48:35</time>
      </trkpt>
      <trkpt lat="43.32881" lon="-0.51808">
        <ele>232</ele>
        <time>2016-05-05T12:48:40</time>
      </trkpt>
      <trkpt lat="43.32904" lon="-0.51808">
        <ele>231</ele>
        <time>2016-05-05T12:48:45</time>
      </trkpt>
      <trkpt lat="43.32935" lon="-0.51801">
        <ele>228</ele>
        <time>2016-05-05T12:48:50</time>
      </trkpt>
      <trkpt lat="43.32959" lon="-0.51797">
        <ele>229</ele>
        <time>2016-05-05T12:48:55</time>
      </trkpt>
      <trkpt lat="43.32977" lon="-0.51794">
        <ele>228</ele>
        <time>2016-05-05T12:49:00</time>
      </trkpt>
      <trkpt lat="43.32995" lon="-0.51788">
        <ele>229</ele>
        <time>2016-05-05T12:49:05</time>
      </trkpt>
      <trkpt lat="43.33008" lon="-0.51782">
        <ele>229</ele>
        <time>2016-05-05T12:49:10</time>
      </trkpt>
      <trkpt lat="43.33023" lon="-0.51774">
        <ele>229</ele>
        <time>2016-05-05T12:49:15</time>
      </trkpt>
      <trkpt lat="43.33035" lon="-0.51768">
        <ele>231</ele>
        <time>2016-05-05T12:49:20</time>
      </trkpt>
      <trkpt lat="43.33046" lon="-0.51765">
        <ele>231</ele>
        <time>2016-05-05T12:49:25</time>
      </trkpt>
      <trkpt lat="43.33059" lon="-0.51762">
        <ele>232</ele>
        <time>2016-05-05T12:49:30</time>
      </trkpt>
      <trkpt lat="43.33069" lon="-0.51758">
        <ele>233</ele>
        <time>2016-05-05T12:49:35</time>
      </trkpt>
      <trkpt lat="43.3308" lon="-0.51753">
        <ele>235</ele>
        <time>2016-05-05T12:49:40</time>
      </trkpt>
      <trkpt lat="43.33087" lon="-0.5175">
        <ele>235</ele>
        <time>2016-05-05T12:49:45</time>
      </trkpt>
      <trkpt lat="43.33094" lon="-0.51746">
        <ele>237</ele>
        <time>2016-05-05T12:49:50</time>
      </trkpt>
      <trkpt lat="43.33102" lon="-0.51742">
        <ele>239</ele>
        <time>2016-05-05T12:49:55</time>
      </trkpt>
      <trkpt lat="43.33109" lon="-0.5174">
        <ele>239</ele>
        <time>2016-05-05T12:50:00</time>
      </trkpt>
      <trkpt lat="43.33116" lon="-0.51737">
        <ele>242</ele>
        <time>2016-05-05T12:50:05</time>
      </trkpt>
      <trkpt lat="43.33123" lon="-0.51733">
        <ele>242</ele>
        <time>2016-05-05T12:50:10</time>
      </trkpt>
      <trkpt lat="43.33126" lon="-0.51727">
        <ele>243</ele>
        <time>2016-05-05T12:50:15</time>
      </trkpt>
      <trkpt lat="43.33131" lon="-0.51727">
        <ele>245</ele>
        <time>2016-05-05T12:50:21</time>
      </trkpt>
      <trkpt lat="43.33136" lon="-0.51729">
        <ele>248</ele>
        <time>2016-05-05T12:50:26</time>
      </trkpt>
      <trkpt lat="43.33141" lon="-0.5173">
        <ele>248</ele>
        <time>2016-05-05T12:50:31</time>
      </trkpt>
      <trkpt lat="43.33146" lon="-0.51733">
        <ele>248</ele>
        <time>2016-05-05T12:50:36</time>
      </trkpt>
      <trkpt lat="43.33151" lon="-0.51736">
        <ele>250</ele>
        <time>2016-05-05T12:50:41</time>
      </trkpt>
      <trkpt lat="43.33157" lon="-0.51738">
        <ele>252</ele>
        <time>2016-05-05T12:50:46</time>
      </trkpt>
      <trkpt lat="43.33163" lon="-0.5174">
        <ele>253</ele>
        <time>2016-05-05T12:50:51</time>
      </trkpt>
      <trkpt lat="43.33168" lon="-0.51744">
        <ele>253</ele>
        <time>2016-05-05T12:50:56</time>
      </trkpt>
      <trkpt lat="43.33173" lon="-0.51748">
        <ele>257</ele>
        <time>2016-05-05T12:51:01</time>
      </trkpt>
      <trkpt lat="43.33179" lon="-0.51752">
        <ele>257</ele>
        <time>2016-05-05T12:51:06</time>
      </trkpt>
      <trkpt lat="43.33186" lon="-0.51757">
        <ele>258</ele>
        <time>2016-05-05T12:51:11</time>
      </trkpt>
      <trkpt lat="43.33193" lon="-0.51762">
        <ele>257</ele>
        <time>2016-05-05T12:51:16</time>
      </trkpt>
      <trkpt lat="43.33199" lon="-0.51767">
        <ele>259</ele>
        <time>2016-05-05T12:51:21</time>
      </trkpt>
      <trkpt lat="43.33206" lon="-0.51772">
        <ele>259</ele>
        <time>2016-05-05T12:51:26</time>
      </trkpt>
      <trkpt lat="43.33215" lon="-0.51786">
        <ele>259</ele>
        <time>2016-05-05T12:51:31</time>
      </trkpt>
      <trkpt lat="43.33222" lon="-0.51804">
        <ele>259</ele>
        <time>2016-05-05T12:51:36</time>
      </trkpt>
      <trkpt lat="43.33228" lon="-0.51816">
        <ele>259</ele>
        <time>2016-05-05T12:51:41</time>
      </trkpt>
      <trkpt lat="43.33234" lon="-0.51836">
        <ele>260</ele>
        <time>2016-05-05T12:51:46</time>
      </trkpt>
      <trkpt lat="43.33239" lon="-0.51855">
        <ele>258</ele>
        <time>2016-05-05T12:51:51</time>
      </trkpt>
      <trkpt lat="43.33247" lon="-0.51877">
        <ele>259</ele>
        <time>2016-05-05T12:51:56</time>
      </trkpt>
      <trkpt lat="43.33252" lon="-0.51897">
        <ele>258</ele>
        <time>2016-05-05T12:52:01</time>
      </trkpt>
      <trkpt lat="43.33255" lon="-0.51917">
        <ele>258</ele>
        <time>2016-05-05T12:52:07</time>
      </trkpt>
      <trkpt lat="43.33261" lon="-0.5194">
        <ele>258</ele>
        <time>2016-05-05T12:52:12</time>
      </trkpt>
      <trkpt lat="43.33266" lon="-0.51965">
        <ele>259</ele>
        <time>2016-05-05T12:52:17</time>
      </trkpt>
      <trkpt lat="43.3327" lon="-0.51991">
        <ele>258</ele>
        <time>2016-05-05T12:52:22</time>
      </trkpt>
      <trkpt lat="43.33273" lon="-0.52017">
        <ele>260</ele>
        <time>2016-05-05T12:52:27</time>
      </trkpt>
      <trkpt lat="43.33275" lon="-0.52041">
        <ele>258</ele>
        <time>2016-05-05T12:52:32</time>
      </trkpt>
      <trkpt lat="43.33274" lon="-0.52058">
        <ele>260</ele>
        <time>2016-05-05T12:52:37</time>
      </trkpt>
      <trkpt lat="43.33274" lon="-0.52076">
        <ele>262</ele>
        <time>2016-05-05T12:52:42</time>
      </trkpt>
      <trkpt lat="43.33274" lon="-0.52094">
        <ele>262</ele>
        <time>2016-05-05T12:52:47</time>
      </trkpt>
      <trkpt lat="43.33272" lon="-0.52114">
        <ele>263</ele>
        <time>2016-05-05T12:52:52</time>
      </trkpt>
      <trkpt lat="43.33274" lon="-0.52134">
        <ele>264</ele>
        <time>2016-05-05T12:52:57</time>
      </trkpt>
      <trkpt lat="43.33278" lon="-0.52163">
        <ele>263</ele>
        <time>2016-05-05T12:53:02</time>
      </trkpt>
      <trkpt lat="43.33282" lon="-0.52191">
        <ele>264</ele>
        <time>2016-05-05T12:53:07</time>
      </trkpt>
      <trkpt lat="43.33291" lon="-0.52225">
        <ele>263</ele>
        <time>2016-05-05T12:53:12</time>
      </trkpt>
      <trkpt lat="43.33306" lon="-0.52269">
        <ele>261</ele>
        <time>2016-05-05T12:53:17</time>
      </trkpt>
      <trkpt lat="43.33324" lon="-0.52328">
        <ele>259</ele>
        <time>2016-05-05T12:53:22</time>
      </trkpt>
      <trkpt lat="43.33348" lon="-0.52398">
        <ele>255</ele>
        <time>2016-05-05T12:53:27</time>
      </trkpt>
      <trkpt lat="43.33366" lon="-0.52443">
        <ele>246</ele>
        <time>2016-05-05T12:53:32</time>
      </trkpt>
      <trkpt lat="43.33374" lon="-0.52482">
        <ele>245</ele>
        <time>2016-05-05T12:53:37</time>
      </trkpt>
      <trkpt lat="43.33387" lon="-0.52496">
        <ele>244</ele>
        <time>2016-05-05T12:53:42</time>
      </trkpt>
      <trkpt lat="43.33397" lon="-0.52497">
        <ele>237</ele>
        <time>2016-05-05T12:53:47</time>
      </trkpt>
      <trkpt lat="43.33424" lon="-0.52508">
        <ele>236</ele>
        <time>2016-05-05T12:53:52</time>
      </trkpt>
      <trkpt lat="43.33458" lon="-0.52492">
        <ele>229</ele>
        <time>2016-05-05T12:53:57</time>
      </trkpt>
      <trkpt lat="43.3349" lon="-0.52483">
        <ele>222</ele>
        <time>2016-05-05T12:54:02</time>
      </trkpt>
      <trkpt lat="43.33521" lon="-0.52475">
        <ele>211</ele>
        <time>2016-05-05T12:54:07</time>
      </trkpt>
      <trkpt lat="43.33528" lon="-0.5246">
        <ele>206</ele>
        <time>2016-05-05T12:54:12</time>
      </trkpt>
      <trkpt lat="43.33523" lon="-0.5244">
        <ele>206</ele>
        <time>2016-05-05T12:54:17</time>
      </trkpt>
      <trkpt lat="43.33522" lon="-0.52417">
        <ele>206</ele>
        <time>2016-05-05T12:54:22</time>
      </trkpt>
      <trkpt lat="43.33521" lon="-0.52397">
        <ele>208</ele>
        <time>2016-05-05T12:54:27</time>
      </trkpt>
      <trkpt lat="43.33524" lon="-0.52377">
        <ele>209</ele>
        <time>2016-05-05T12:54:32</time>
      </trkpt>
      <trkpt lat="43.33523" lon="-0.52354">
        <ele>208</ele>
        <time>2016-05-05T12:54:37</time>
      </trkpt>
      <trkpt lat="43.33517" lon="-0.52329">
        <ele>208</ele>
        <time>2016-05-05T12:54:42</time>
      </trkpt>
      <trkpt lat="43.33511" lon="-0.523">
        <ele>209</ele>
        <time>2016-05-05T12:54:48</time>
      </trkpt>
      <trkpt lat="43.33517" lon="-0.52271">
        <ele>208</ele>
        <time>2016-05-05T12:54:53</time>
      </trkpt>
      <trkpt lat="43.33518" lon="-0.52252">
        <ele>206</ele>
        <time>2016-05-05T12:54:58</time>
      </trkpt>
      <trkpt lat="43.33517" lon="-0.52227">
        <ele>208</ele>
        <time>2016-05-05T12:55:03</time>
      </trkpt>
      <trkpt lat="43.33516" lon="-0.52193">
        <ele>204</ele>
        <time>2016-05-05T12:55:08</time>
      </trkpt>
      <trkpt lat="43.33517" lon="-0.5217">
        <ele>205</ele>
        <time>2016-05-05T12:55:13</time>
      </trkpt>
      <trkpt lat="43.33521" lon="-0.52143">
        <ele>205</ele>
        <time>2016-05-05T12:55:18</time>
      </trkpt>
      <trkpt lat="43.33526" lon="-0.52108">
        <ele>204</ele>
        <time>2016-05-05T12:55:23</time>
      </trkpt>
      <trkpt lat="43.3353" lon="-0.52072">
        <ele>203</ele>
        <time>2016-05-05T12:55:28</time>
      </trkpt>
      <trkpt lat="43.33523" lon="-0.52037">
        <ele>202</ele>
        <time>2016-05-05T12:55:33</time>
      </trkpt>
      <trkpt lat="43.33526" lon="-0.52003">
        <ele>202</ele>
        <time>2016-05-05T12:55:38</time>
      </trkpt>
      <trkpt lat="43.33529" lon="-0.51973">
        <ele>202</ele>
        <time>2016-05-05T12:55:43</time>
      </trkpt>
      <trkpt lat="43.33538" lon="-0.51926">
        <ele>198</ele>
        <time>2016-05-05T12:55:48</time>
      </trkpt>
      <trkpt lat="43.33531" lon="-0.51872">
        <ele>193</ele>
        <time>2016-05-05T12:55:53</time>
      </trkpt>
      <trkpt lat="43.33521" lon="-0.51839">
        <ele>192</ele>
        <time>2016-05-05T12:55:58</time>
      </trkpt>
      <trkpt lat="43.33517" lon="-0.51815">
        <ele>192</ele>
        <time>2016-05-05T12:56:03</time>
      </trkpt>
      <trkpt lat="43.33513" lon="-0.51795">
        <ele>191</ele>
        <time>2016-05-05T12:56:08</time>
      </trkpt>
      <trkpt lat="43.33507" lon="-0.51775">
        <ele>193</ele>
        <time>2016-05-05T12:56:13</time>
      </trkpt>
      <trkpt lat="43.33504" lon="-0.51758">
        <ele>195</ele>
        <time>2016-05-05T12:56:18</time>
      </trkpt>
      <trkpt lat="43.33501" lon="-0.51743">
        <ele>196</ele>
        <time>2016-05-05T12:56:23</time>
      </trkpt>
      <trkpt lat="43.33495" lon="-0.51728">
        <ele>196</ele>
        <time>2016-05-05T12:56:28</time>
      </trkpt>
      <trkpt lat="43.33489" lon="-0.51713">
        <ele>196</ele>
        <time>2016-05-05T12:56:33</time>
      </trkpt>
      <trkpt lat="43.33483" lon="-0.51697">
        <ele>197</ele>
        <time>2016-05-05T12:56:38</time>
      </trkpt>
      <trkpt lat="43.33474" lon="-0.51683">
        <ele>198</ele>
        <time>2016-05-05T12:56:44</time>
      </trkpt>
      <trkpt lat="43.33464" lon="-0.51673">
        <ele>199</ele>
        <time>2016-05-05T12:56:49</time>
      </trkpt>
      <trkpt lat="43.33455" lon="-0.51663">
        <ele>201</ele>
        <time>2016-05-05T12:56:54</time>
      </trkpt>
      <trkpt lat="43.33446" lon="-0.51652">
        <ele>201</ele>
        <time>2016-05-05T12:56:59</time>
      </trkpt>
      <trkpt lat="43.33438" lon="-0.5164">
        <ele>202</ele>
        <time>2016-05-05T12:57:04</time>
      </trkpt>
      <trkpt lat="43.3343" lon="-0.5163">
        <ele>201</ele>
        <time>2016-05-05T12:57:09</time>
      </trkpt>
      <trkpt lat="43.3342" lon="-0.51621">
        <ele>202</ele>
        <time>2016-05-05T12:57:14</time>
      </trkpt>
      <trkpt lat="43.3342" lon="-0.5161">
        <ele>204</ele>
        <time>2016-05-05T12:57:19</time>
      </trkpt>
      <trkpt lat="43.33428" lon="-0.51608">
        <ele>204</ele>
        <time>2016-05-05T12:57:24</time>
      </trkpt>
      <trkpt lat="43.33435" lon="-0.51607">
        <ele>206</ele>
        <time>2016-05-05T12:57:29</time>
      </trkpt>
      <trkpt lat="43.33441" lon="-0.51605">
        <ele>206</ele>
        <time>2016-05-05T12:57:34</time>
      </trkpt>
      <trkpt lat="43.33448" lon="-0.51606">
        <ele>207</ele>
        <time>2016-05-05T12:57:39</time>
      </trkpt>
      <trkpt lat="43.33456" lon="-0.51608">
        <ele>209</ele>
        <time>2016-05-05T12:57:44</time>
      </trkpt>
      <trkpt lat="43.33464" lon="-0.5161">
        <ele>209</ele>
        <time>2016-05-05T12:57:49</time>
      </trkpt>
      <trkpt lat="43.3347" lon="-0.51614">
        <ele>211</ele>
        <time>2016-05-05T12:57:54</time>
      </trkpt>
      <trkpt lat="43.33476" lon="-0.5162">
        <ele>212</ele>
        <time>2016-05-05T12:57:59</time>
      </trkpt>
      <trkpt lat="43.33484" lon="-0.51625">
        <ele>213</ele>
        <time>2016-05-05T12:58:04</time>
      </trkpt>
      <trkpt lat="43.33492" lon="-0.51629">
        <ele>213</ele>
        <time>2016-05-05T12:58:09</time>
      </trkpt>
      <trkpt lat="43.33498" lon="-0.51632">
        <ele>214</ele>
        <time>2016-05-05T12:58:14</time>
      </trkpt>
      <trkpt lat="43.33509" lon="-0.51634">
        <ele>215</ele>
        <time>2016-05-05T12:58:19</time>
      </trkpt>
      <trkpt lat="43.33519" lon="-0.51634">
        <ele>216</ele>
        <time>2016-05-05T12:58:24</time>
      </trkpt>
      <trkpt lat="43.33532" lon="-0.51637">
        <ele>216</ele>
        <time>2016-05-05T12:58:29</time>
      </trkpt>
      <trkpt lat="43.33542" lon="-0.51641">
        <ele>217</ele>
        <time>2016-05-05T12:58:34</time>
      </trkpt>
      <trkpt lat="43.33552" lon="-0.51645">
        <ele>219</ele>
        <time>2016-05-05T12:58:39</time>
      </trkpt>
      <trkpt lat="43.33563" lon="-0.51647">
        <ele>219</ele>
        <time>2016-05-05T12:58:44</time>
      </trkpt>
      <trkpt lat="43.33572" lon="-0.51649">
        <ele>220</ele>
        <time>2016-05-05T12:58:49</time>
      </trkpt>
      <trkpt lat="43.33581" lon="-0.51654">
        <ele>221</ele>
        <time>2016-05-05T12:58:55</time>
      </trkpt>
      <trkpt lat="43.3359" lon="-0.51658">
        <ele>223</ele>
        <time>2016-05-05T12:59:00</time>
      </trkpt>
      <trkpt lat="43.336" lon="-0.51664">
        <ele>223</ele>
        <time>2016-05-05T12:59:05</time>
      </trkpt>
      <trkpt lat="43.33614" lon="-0.51676">
        <ele>223</ele>
        <time>2016-05-05T12:59:10</time>
      </trkpt>
      <trkpt lat="43.33626" lon="-0.51684">
        <ele>223</ele>
        <time>2016-05-05T12:59:15</time>
      </trkpt>
      <trkpt lat="43.33638" lon="-0.51691">
        <ele>223</ele>
        <time>2016-05-05T12:59:20</time>
      </trkpt>
      <trkpt lat="43.3365" lon="-0.51698">
        <ele>225</ele>
        <time>2016-05-05T12:59:25</time>
      </trkpt>
      <trkpt lat="43.33661" lon="-0.51705">
        <ele>224</ele>
        <time>2016-05-05T12:59:30</time>
      </trkpt>
      <trkpt lat="43.33673" lon="-0.51716">
        <ele>225</ele>
        <time>2016-05-05T12:59:35</time>
      </trkpt>
      <trkpt lat="43.33684" lon="-0.51729">
        <ele>227</ele>
        <time>2016-05-05T12:59:40</time>
      </trkpt>
      <trkpt lat="43.33697" lon="-0.51746">
        <ele>225</ele>
        <time>2016-05-05T12:59:45</time>
      </trkpt>
      <trkpt lat="43.33708" lon="-0.51758">
        <ele>225</ele>
        <time>2016-05-05T12:59:50</time>
      </trkpt>
      <trkpt lat="43.33719" lon="-0.51772">
        <ele>226</ele>
        <time>2016-05-05T12:59:55</time>
      </trkpt>
      <trkpt lat="43.3373" lon="-0.51785">
        <ele>227</ele>
        <time>2016-05-05T13:00:00</time>
      </trkpt>
      <trkpt lat="43.33741" lon="-0.51799">
        <ele>228</ele>
        <time>2016-05-05T13:00:05</time>
      </trkpt>
      <trkpt lat="43.33754" lon="-0.51809">
        <ele>228</ele>
        <time>2016-05-05T13:00:10</time>
      </trkpt>
      <trkpt lat="43.33763" lon="-0.51819">
        <ele>229</ele>
        <time>2016-05-05T13:00:15</time>
      </trkpt>
      <trkpt lat="43.33769" lon="-0.51835">
        <ele>229</ele>
        <time>2016-05-05T13:00:20</time>
      </trkpt>
      <trkpt lat="43.33777" lon="-0.51856">
        <ele>229</ele>
        <time>2016-05-05T13:00:25</time>
      </trkpt>
      <trkpt lat="43.33784" lon="-0.51872">
        <ele>228</ele>
        <time>2016-05-05T13:00:30</time>
      </trkpt>
      <trkpt lat="43.33792" lon="-0.51886">
        <ele>231</ele>
        <time>2016-05-05T13:00:35</time>
      </trkpt>
      <trkpt lat="43.338" lon="-0.519">
        <ele>231</ele>
        <time>2016-05-05T13:00:40</time>
      </trkpt>
      <trkpt lat="43.33805" lon="-0.51917">
        <ele>232</ele>
        <time>2016-05-05T13:00:45</time>
      </trkpt>
      <trkpt lat="43.3381" lon="-0.51943">
        <ele>232</ele>
        <time>2016-05-05T13:00:50</time>
      </trkpt>
      <trkpt lat="43.33812" lon="-0.51964">
        <ele>230</ele>
        <time>2016-05-05T13:00:55</time>
      </trkpt>
      <trkpt lat="43.33813" lon="-0.51989">
        <ele>232</ele>
        <time>2016-05-05T13:01:00</time>
      </trkpt>
      <trkpt lat="43.33818" lon="-0.52016">
        <ele>231</ele>
        <time>2016-05-05T13:01:05</time>
      </trkpt>
      <trkpt lat="43.33831" lon="-0.52042">
        <ele>231</ele>
        <time>2016-05-05T13:01:10</time>
      </trkpt>
      <trkpt lat="43.33846" lon="-0.52062">
        <ele>230</ele>
        <time>2016-05-05T13:01:15</time>
      </trkpt>
      <trkpt lat="43.33858" lon="-0.52078">
        <ele>230</ele>
        <time>2016-05-05T13:01:21</time>
      </trkpt>
      <trkpt lat="43.33869" lon="-0.52096">
        <ele>231</ele>
        <time>2016-05-05T13:01:26</time>
      </trkpt>
      <trkpt lat="43.33884" lon="-0.52116">
        <ele>230</ele>
        <time>2016-05-05T13:01:31</time>
      </trkpt>
      <trkpt lat="43.33895" lon="-0.52128">
        <ele>233</ele>
        <time>2016-05-05T13:01:36</time>
      </trkpt>
      <trkpt lat="43.33907" lon="-0.52138">
        <ele>232</ele>
        <time>2016-05-05T13:01:41</time>
      </trkpt>
      <trkpt lat="43.33926" lon="-0.52148">
        <ele>233</ele>
        <time>2016-05-05T13:01:46</time>
      </trkpt>
      <trkpt lat="43.33947" lon="-0.52152">
        <ele>232</ele>
        <time>2016-05-05T13:01:51</time>
      </trkpt>
      <trkpt lat="43.33976" lon="-0.52155">
        <ele>231</ele>
        <time>2016-05-05T13:01:56</time>
      </trkpt>
      <trkpt lat="43.34008" lon="-0.52174">
        <ele>230</ele>
        <time>2016-05-05T13:02:01</time>
      </trkpt>
      <trkpt lat="43.34037" lon="-0.52191">
        <ele>229</ele>
        <time>2016-05-05T13:02:06</time>
      </trkpt>
      <trkpt lat="43.3406" lon="-0.52201">
        <ele>228</ele>
        <time>2016-05-05T13:02:11</time>
      </trkpt>
      <trkpt lat="43.34073" lon="-0.5221">
        <ele>227</ele>
        <time>2016-05-05T13:02:16</time>
      </trkpt>
      <trkpt lat="43.34084" lon="-0.52222">
        <ele>229</ele>
        <time>2016-05-05T13:02:21</time>
      </trkpt>
      <trkpt lat="43.34094" lon="-0.52236">
        <ele>230</ele>
        <time>2016-05-05T13:02:26</time>
      </trkpt>
      <trkpt lat="43.34101" lon="-0.52245">
        <ele>230</ele>
        <time>2016-05-05T13:02:31</time>
      </trkpt>
      <trkpt lat="43.34108" lon="-0.52254">
        <ele>231</ele>
        <time>2016-05-05T13:02:36</time>
      </trkpt>
      <trkpt lat="43.34112" lon="-0.52262">
        <ele>233</ele>
        <time>2016-05-05T13:02:41</time>
      </trkpt>
      <trkpt lat="43.34116" lon="-0.52271">
        <ele>233</ele>
        <time>2016-05-05T13:02:46</time>
      </trkpt>
      <trkpt lat="43.34121" lon="-0.52283">
        <ele>235</ele>
        <time>2016-05-05T13:02:51</time>
      </trkpt>
      <trkpt lat="43.34126" lon="-0.5229">
        <ele>236</ele>
        <time>2016-05-05T13:02:56</time>
      </trkpt>
      <trkpt lat="43.3413" lon="-0.52296">
        <ele>237</ele>
        <time>2016-05-05T13:03:01</time>
      </trkpt>
      <trkpt lat="43.34136" lon="-0.52302">
        <ele>238</ele>
        <time>2016-05-05T13:03:06</time>
      </trkpt>
      <trkpt lat="43.3414" lon="-0.52309">
        <ele>240</ele>
        <time>2016-05-05T13:03:11</time>
      </trkpt>
      <trkpt lat="43.34142" lon="-0.52312">
        <ele>242</ele>
        <time>2016-05-05T13:03:16</time>
      </trkpt>
      <trkpt lat="43.34144" lon="-0.52315">
        <ele>241</ele>
        <time>2016-05-05T13:03:21</time>
      </trkpt>
      <trkpt lat="43.34146" lon="-0.52318">
        <ele>241</ele>
        <time>2016-05-05T13:03:26</time>
      </trkpt>
      <trkpt lat="43.34149" lon="-0.52324">
        <ele>243</ele>
        <time>2016-05-05T13:03:32</time>
      </trkpt>
      <trkpt lat="43.34153" lon="-0.52332">
        <ele>243</ele>
        <time>2016-05-05T13:03:37</time>
      </trkpt>
      <trkpt lat="43.34157" lon="-0.52338">
        <ele>243</ele>
        <time>2016-05-05T13:03:42</time>
      </trkpt>
      <trkpt lat="43.34163" lon="-0.52342">
        <ele>246</ele>
        <time>2016-05-05T13:03:47</time>
      </trkpt>
      <trkpt lat="43.34166" lon="-0.52349">
        <ele>246</ele>
        <time>2016-05-05T13:03:52</time>
      </trkpt>
      <trkpt lat="43.34169" lon="-0.52356">
        <ele>248</ele>
        <time>2016-05-05T13:03:57</time>
      </trkpt>
      <trkpt lat="43.34175" lon="-0.52363">
        <ele>249</ele>
        <time>2016-05-05T13:04:02</time>
      </trkpt>
      <trkpt lat="43.34182" lon="-0.52367">
        <ele>250</ele>
        <time>2016-05-05T13:04:07</time>
      </trkpt>
      <trkpt lat="43.3419" lon="-0.52369">
        <ele>252</ele>
        <time>2016-05-05T13:04:12</time>
      </trkpt>
      <trkpt lat="43.34195" lon="-0.52375">
        <ele>253</ele>
        <time>2016-05-05T13:04:17</time>
      </trkpt>
      <trkpt lat="43.342" lon="-0.52381">
        <ele>253</ele>
        <time>2016-05-05T13:04:22</time>
      </trkpt>
      <trkpt lat="43.34204" lon="-0.52391">
        <ele>254</ele>
        <time>2016-05-05T13:04:27</time>
      </trkpt>
      <trkpt lat="43.34207" lon="-0.52406">
        <ele>253</ele>
        <time>2016-05-05T13:04:32</time>
      </trkpt>
      <trkpt lat="43.34221" lon="-0.52429">
        <ele>251</ele>
        <time>2016-05-05T13:04:37</time>
      </trkpt>
      <trkpt lat="43.3424" lon="-0.52451">
        <ele>245</ele>
        <time>2016-05-05T13:04:42</time>
      </trkpt>
      <trkpt lat="43.3424" lon="-0.52471">
        <ele>241</ele>
        <time>2016-05-05T13:04:47</time>
      </trkpt>
      <trkpt lat="43.34246" lon="-0.52484">
        <ele>240</ele>
        <time>2016-05-05T13:04:52</time>
      </trkpt>
      <trkpt lat="43.34251" lon="-0.52493">
        <ele>241</ele>
        <time>2016-05-05T13:04:57</time>
      </trkpt>
      <trkpt lat="43.34256" lon="-0.525">
        <ele>243</ele>
        <time>2016-05-05T13:05:02</time>
      </trkpt>
      <trkpt lat="43.3426" lon="-0.52507">
        <ele>244</ele>
        <time>2016-05-05T13:05:07</time>
      </trkpt>
      <trkpt lat="43.34265" lon="-0.52512">
        <ele>244</ele>
        <time>2016-05-05T13:05:12</time>
      </trkpt>
      <trkpt lat="43.34269" lon="-0.52518">
        <ele>247</ele>
        <time>2016-05-05T13:05:17</time>
      </trkpt>
      <trkpt lat="43.34275" lon="-0.52523">
        <ele>247</ele>
        <time>2016-05-05T13:05:22</time>
      </trkpt>
      <trkpt lat="43.3428" lon="-0.52528">
        <ele>249</ele>
        <time>2016-05-05T13:05:27</time>
      </trkpt>
      <trkpt lat="43.34284" lon="-0.52533">
        <ele>249</ele>
        <time>2016-05-05T13:05:32</time>
      </trkpt>
      <trkpt lat="43.34289" lon="-0.52537">
        <ele>250</ele>
        <time>2016-05-05T13:05:37</time>
      </trkpt>
      <trkpt lat="43.34294" lon="-0.52544">
        <ele>249</ele>
        <time>2016-05-05T13:05:42</time>
      </trkpt>
      <trkpt lat="43.34296" lon="-0.52553">
        <ele>251</ele>
        <time>2016-05-05T13:05:48</time>
      </trkpt>
      <trkpt lat="43.34297" lon="-0.52562">
        <ele>252</ele>
        <time>2016-05-05T13:05:53</time>
      </trkpt>
      <trkpt lat="43.34298" lon="-0.52572">
        <ele>253</ele>
        <time>2016-05-05T13:05:58</time>
      </trkpt>
      <trkpt lat="43.34298" lon="-0.52582">
        <ele>255</ele>
        <time>2016-05-05T13:06:03</time>
      </trkpt>
      <trkpt lat="43.34298" lon="-0.52591">
        <ele>256</ele>
        <time>2016-05-05T13:06:08</time>
      </trkpt>
      <trkpt lat="43.34296" lon="-0.52599">
        <ele>258</ele>
        <time>2016-05-05T13:06:13</time>
      </trkpt>
      <trkpt lat="43.34292" lon="-0.52604">
        <ele>259</ele>
        <time>2016-05-05T13:06:18</time>
      </trkpt>
      <trkpt lat="43.34287" lon="-0.52608">
        <ele>258</ele>
        <time>2016-05-05T13:06:23</time>
      </trkpt>
      <trkpt lat="43.34281" lon="-0.52612">
        <ele>258</ele>
        <time>2016-05-05T13:06:28</time>
      </trkpt>
      <trkpt lat="43.34275" lon="-0.52617">
        <ele>259</ele>
        <time>2016-05-05T13:06:33</time>
      </trkpt>
      <trkpt lat="43.34269" lon="-0.52623">
        <ele>260</ele>
        <time>2016-05-05T13:06:38</time>
      </trkpt>
      <trkpt lat="43.34263" lon="-0.52629">
        <ele>262</ele>
        <time>2016-05-05T13:06:43</time>
      </trkpt>
      <trkpt lat="43.34259" lon="-0.52636">
        <ele>262</ele>
        <time>2016-05-05T13:06:48</time>
      </trkpt>
      <trkpt lat="43.34256" lon="-0.52643">
        <ele>263</ele>
        <time>2016-05-05T13:06:53</time>
      </trkpt>
      <trkpt lat="43.34254" lon="-0.52649">
        <ele>263</ele>
        <time>2016-05-05T13:06:58</time>
      </trkpt>
      <trkpt lat="43.3425" lon="-0.52657">
        <ele>265</ele>
        <time>2016-05-05T13:07:03</time>
      </trkpt>
      <trkpt lat="43.34247" lon="-0.52665">
        <ele>266</ele>
        <time>2016-05-05T13:07:08</time>
      </trkpt>
      <trkpt lat="43.34243" lon="-0.52673">
        <ele>267</ele>
        <time>2016-05-05T13:07:13</time>
      </trkpt>
      <trkpt lat="43.34239" lon="-0.52681">
        <ele>268</ele>
        <time>2016-05-05T13:07:18</time>
      </trkpt>
      <trkpt lat="43.34235" lon="-0.52691">
        <ele>268</ele>
        <time>2016-05-05T13:07:23</time>
      </trkpt>
      <trkpt lat="43.34232" lon="-0.52703">
        <ele>269</ele>
        <time>2016-05-05T13:07:28</time>
      </trkpt>
      <trkpt lat="43.34224" lon="-0.52712">
        <ele>272</ele>
        <time>2016-05-05T13:07:33</time>
      </trkpt>
      <trkpt lat="43.34216" lon="-0.52721">
        <ele>272</ele>
        <time>2016-05-05T13:07:38</time>
      </trkpt>
      <trkpt lat="43.34201" lon="-0.52736">
        <ele>271</ele>
        <time>2016-05-05T13:07:43</time>
      </trkpt>
      <trkpt lat="43.34191" lon="-0.52733">
        <ele>267</ele>
        <time>2016-05-05T13:07:48</time>
      </trkpt>
      <trkpt lat="43.34171" lon="-0.52742">
        <ele>263</ele>
        <time>2016-05-05T13:07:53</time>
      </trkpt>
      <trkpt lat="43.34148" lon="-0.52754">
        <ele>261</ele>
        <time>2016-05-05T13:07:58</time>
      </trkpt>
      <trkpt lat="43.34127" lon="-0.52763">
        <ele>260</ele>
        <time>2016-05-05T13:08:03</time>
      </trkpt>
      <trkpt lat="43.34106" lon="-0.52772">
        <ele>256</ele>
        <time>2016-05-05T13:08:09</time>
      </trkpt>
      <trkpt lat="43.34098" lon="-0.52758">
        <ele>252</ele>
        <time>2016-05-05T13:08:14</time>
      </trkpt>
      <trkpt lat="43.34091" lon="-0.52743">
        <ele>251</ele>
        <time>2016-05-05T13:08:19</time>
      </trkpt>
      <trkpt lat="43.34085" lon="-0.52733">
        <ele>244</ele>
        <time>2016-05-05T13:08:24</time>
      </trkpt>
      <trkpt lat="43.34077" lon="-0.52713">
        <ele>238</ele>
        <time>2016-05-05T13:08:29</time>
      </trkpt>
      <trkpt lat="43.34058" lon="-0.52672">
        <ele>229</ele>
        <time>2016-05-05T13:08:34</time>
      </trkpt>
      <trkpt lat="43.34047" lon="-0.52658">
        <ele>224</ele>
        <time>2016-05-05T13:08:39</time>
      </trkpt>
      <trkpt lat="43.34033" lon="-0.52663">
        <ele>222</ele>
        <time>2016-05-05T13:08:44</time>
      </trkpt>
      <trkpt lat="43.34025" lon="-0.52671">
        <ele>223</ele>
        <time>2016-05-05T13:08:49</time>
      </trkpt>
      <trkpt lat="43.34017" lon="-0.52683">
        <ele>224</ele>
        <time>2016-05-05T13:08:54</time>
      </trkpt>
      <trkpt lat="43.34011" lon="-0.52698">
        <ele>225</ele>
        <time>2016-05-05T13:08:59</time>
      </trkpt>
      <trkpt lat="43.34006" lon="-0.52713">
        <ele>226</ele>
        <time>2016-05-05T13:09:04</time>
      </trkpt>
      <trkpt lat="43.33998" lon="-0.52731">
        <ele>225</ele>
        <time>2016-05-05T13:09:09</time>
      </trkpt>
      <trkpt lat="43.3399" lon="-0.5275">
        <ele>224</ele>
        <time>2016-05-05T13:09:14</time>
      </trkpt>
      <trkpt lat="43.33981" lon="-0.52771">
        <ele>225</ele>
        <time>2016-05-05T13:09:19</time>
      </trkpt>
      <trkpt lat="43.33972" lon="-0.52801">
        <ele>222</ele>
        <time>2016-05-05T13:09:24</time>
      </trkpt>
      <trkpt lat="43.33963" lon="-0.52852">
        <ele>219</ele>
        <time>2016-05-05T13:09:29</time>
      </trkpt>
      <trkpt lat="43.33954" lon="-0.529">
        <ele>218</ele>
        <time>2016-05-05T13:09:34</time>
      </trkpt>
      <trkpt lat="43.3395" lon="-0.52944">
        <ele>219</ele>
        <time>2016-05-05T13:09:39</time>
      </trkpt>
      <trkpt lat="43.33951" lon="-0.52982">
        <ele>219</ele>
        <time>2016-05-05T13:09:44</time>
      </trkpt>
      <trkpt lat="43.33953" lon="-0.5301">
        <ele>217</ele>
        <time>2016-05-05T13:09:49</time>
      </trkpt>
      <trkpt lat="43.33956" lon="-0.53034">
        <ele>217</ele>
        <time>2016-05-05T13:09:54</time>
      </trkpt>
      <trkpt lat="43.33958" lon="-0.53055">
        <ele>217</ele>
        <time>2016-05-05T13:09:59</time>
      </trkpt>
      <trkpt lat="43.33958" lon="-0.53078">
        <ele>218</ele>
        <time>2016-05-05T13:10:04</time>
      </trkpt>
      <trkpt lat="43.33959" lon="-0.531">
        <ele>218</ele>
        <time>2016-05-05T13:10:09</time>
      </trkpt>
      <trkpt lat="43.33962" lon="-0.53119">
        <ele>218</ele>
        <time>2016-05-05T13:10:14</time>
      </trkpt>
      <trkpt lat="43.33969" lon="-0.53134">
        <ele>218</ele>
        <time>2016-05-05T13:10:19</time>
      </trkpt>
      <trkpt lat="43.33976" lon="-0.53147">
        <ele>221</ele>
        <time>2016-05-05T13:10:25</time>
      </trkpt>
      <trkpt lat="43.33985" lon="-0.53156">
        <ele>221</ele>
        <time>2016-05-05T13:10:30</time>
      </trkpt>
      <trkpt lat="43.33987" lon="-0.53171">
        <ele>221</ele>
        <time>2016-05-05T13:10:35</time>
      </trkpt>
      <trkpt lat="43.33978" lon="-0.53196">
        <ele>217</ele>
        <time>2016-05-05T13:10:40</time>
      </trkpt>
      <trkpt lat="43.33958" lon="-0.53212">
        <ele>210</ele>
        <time>2016-05-05T13:10:45</time>
      </trkpt>
      <trkpt lat="43.33942" lon="-0.53211">
        <ele>208</ele>
        <time>2016-05-05T13:10:50</time>
      </trkpt>
      <trkpt lat="43.33926" lon="-0.53206">
        <ele>207</ele>
        <time>2016-05-05T13:10:55</time>
      </trkpt>
      <trkpt lat="43.33917" lon="-0.53191">
        <ele>206</ele>
        <time>2016-05-05T13:11:00</time>
      </trkpt>
      <trkpt lat="43.33907" lon="-0.53192">
        <ele>206</ele>
        <time>2016-05-05T13:11:05</time>
      </trkpt>
      <trkpt lat="43.33886" lon="-0.53197">
        <ele>206</ele>
        <time>2016-05-05T13:11:10</time>
      </trkpt>
      <trkpt lat="43.33875" lon="-0.53192">
        <ele>204</ele>
        <time>2016-05-05T13:11:15</time>
      </trkpt>
      <trkpt lat="43.33862" lon="-0.53188">
        <ele>201</ele>
        <time>2016-05-05T13:11:20</time>
      </trkpt>
      <trkpt lat="43.33855" lon="-0.53177">
        <ele>201</ele>
        <time>2016-05-05T13:11:25</time>
      </trkpt>
      <trkpt lat="43.33846" lon="-0.53168">
        <ele>201</ele>
        <time>2016-05-05T13:11:30</time>
      </trkpt>
      <trkpt lat="43.33826" lon="-0.53162">
        <ele>201</ele>
        <time>2016-05-05T13:11:35</time>
      </trkpt>
      <trkpt lat="43.33808" lon="-0.5316">
        <ele>198</ele>
        <time>2016-05-05T13:11:40</time>
      </trkpt>
      <trkpt lat="43.33783" lon="-0.53157">
        <ele>192</ele>
        <time>2016-05-05T13:11:45</time>
      </trkpt>
      <trkpt lat="43.3376" lon="-0.5317">
        <ele>186</ele>
        <time>2016-05-05T13:11:50</time>
      </trkpt>
      <trkpt lat="43.3373" lon="-0.53146">
        <ele>182</ele>
        <time>2016-05-05T13:11:55</time>
      </trkpt>
      <trkpt lat="43.33697" lon="-0.53133">
        <ele>176</ele>
        <time>2016-05-05T13:12:00</time>
      </trkpt>
      <trkpt lat="43.33671" lon="-0.53157">
        <ele>176</ele>
        <time>2016-05-05T13:12:05</time>
      </trkpt>
      <trkpt lat="43.33638" lon="-0.5316">
        <ele>168</ele>
        <time>2016-05-05T13:12:10</time>
      </trkpt>
      <trkpt lat="43.33619" lon="-0.53175">
        <ele>168</ele>
        <time>2016-05-05T13:12:15</time>
      </trkpt>
      <trkpt lat="43.33589" lon="-0.53163">
        <ele>166</ele>
        <time>2016-05-05T13:12:20</time>
      </trkpt>
      <trkpt lat="43.33562" lon="-0.53182">
        <ele>165</ele>
        <time>2016-05-05T13:12:25</time>
      </trkpt>
      <trkpt lat="43.33538" lon="-0.532">
        <ele>163</ele>
        <time>2016-05-05T13:12:30</time>
      </trkpt>
      <trkpt lat="43.33511" lon="-0.53214">
        <ele>159</ele>
        <time>2016-05-05T13:12:35</time>
      </trkpt>
      <trkpt lat="43.33507" lon="-0.53221">
        <ele>156</ele>
        <time>2016-05-05T13:12:40</time>
      </trkpt>
      <trkpt lat="43.3351" lon="-0.53219">
        <ele>158</ele>
        <time>2016-05-05T13:12:45</time>
      </trkpt>
      <trkpt lat="43.33514" lon="-0.53221">
        <ele>158</ele>
        <time>2016-05-05T13:12:51</time>
      </trkpt>
      <trkpt lat="43.3352" lon="-0.53225">
        <ele>159</ele>
        <time>2016-05-05T13:12:56</time>
      </trkpt>
      <trkpt lat="43.33527" lon="-0.53228">
        <ele>158</ele>
        <time>2016-05-05T13:13:01</time>
      </trkpt>
      <trkpt lat="43.33533" lon="-0.5323">
        <ele>161</ele>
        <time>2016-05-05T13:13:06</time>
      </trkpt>
      <trkpt lat="43.3354" lon="-0.53231">
        <ele>161</ele>
        <time>2016-05-05T13:13:11</time>
      </trkpt>
      <trkpt lat="43.33547" lon="-0.53233">
        <ele>162</ele>
        <time>2016-05-05T13:13:16</time>
      </trkpt>
      <trkpt lat="43.33553" lon="-0.53235">
        <ele>162</ele>
        <time>2016-05-05T13:13:21</time>
      </trkpt>
      <trkpt lat="43.33559" lon="-0.53238">
        <ele>164</ele>
        <time>2016-05-05T13:13:26</time>
      </trkpt>
      <trkpt lat="43.33565" lon="-0.5324">
        <ele>165</ele>
        <time>2016-05-05T13:13:31</time>
      </trkpt>
      <trkpt lat="43.33572" lon="-0.53242">
        <ele>166</ele>
        <time>2016-05-05T13:13:36</time>
      </trkpt>
      <trkpt lat="43.33578" lon="-0.53243">
        <ele>167</ele>
        <time>2016-05-05T13:13:41</time>
      </trkpt>
      <trkpt lat="43.33585" lon="-0.53242">
        <ele>168</ele>
        <time>2016-05-05T13:13:46</time>
      </trkpt>
      <trkpt lat="43.33593" lon="-0.53244">
        <ele>169</ele>
        <time>2016-05-05T13:13:51</time>
      </trkpt>
      <trkpt lat="43.33601" lon="-0.53245">
        <ele>169</ele>
        <time>2016-05-05T13:13:56</time>
      </trkpt>
      <trkpt lat="43.33607" lon="-0.53247">
        <ele>170</ele>
        <time>2016-05-05T13:14:01</time>
      </trkpt>
      <trkpt lat="43.33614" lon="-0.53248">
        <ele>171</ele>
        <time>2016-05-05T13:14:06</time>
      </trkpt>
      <trkpt lat="43.33621" lon="-0.53251">
        <ele>173</ele>
        <time>2016-05-05T13:14:11</time>
      </trkpt>
      <trkpt lat="43.33628" lon="-0.53254">
        <ele>173</ele>
        <time>2016-05-05T13:14:16</time>
      </trkpt>
      <trkpt lat="43.33635" lon="-0.53259">
        <ele>174</ele>
        <time>2016-05-05T13:14:21</time>
      </trkpt>
      <trkpt lat="43.33643" lon="-0.53264">
        <ele>175</ele>
        <time>2016-05-05T13:14:26</time>
      </trkpt>
      <trkpt lat="43.3365" lon="-0.53269">
        <ele>175</ele>
        <time>2016-05-05T13:14:31</time>
      </trkpt>
      <trkpt lat="43.33658" lon="-0.53276">
        <ele>175</ele>
        <time>2016-05-05T13:14:36</time>
      </trkpt>
      <trkpt lat="43.33664" lon="-0.53281">
        <ele>175</ele>
        <time>2016-05-05T13:14:41</time>
      </trkpt>
      <trkpt lat="43.33671" lon="-0.53289">
        <ele>176</ele>
        <time>2016-05-05T13:14:46</time>
      </trkpt>
      <trkpt lat="43.33678" lon="-0.53295">
        <ele>177</ele>
        <time>2016-05-05T13:14:51</time>
      </trkpt>
      <trkpt lat="43.33686" lon="-0.53304">
        <ele>177</ele>
        <time>2016-05-05T13:14:56</time>
      </trkpt>
      <trkpt lat="43.33692" lon="-0.5331">
        <ele>177</ele>
        <time>2016-05-05T13:15:01</time>
      </trkpt>
      <trkpt lat="43.337" lon="-0.53313">
        <ele>179</ele>
        <time>2016-05-05T13:15:06</time>
      </trkpt>
      <trkpt lat="43.33708" lon="-0.53314">
        <ele>178</ele>
        <time>2016-05-05T13:15:12</time>
      </trkpt>
      <trkpt lat="43.33715" lon="-0.53312">
        <ele>180</ele>
        <time>2016-05-05T13:15:17</time>
      </trkpt>
      <trkpt lat="43.33721" lon="-0.53309">
        <ele>180</ele>
        <time>2016-05-05T13:15:22</time>
      </trkpt>
      <trkpt lat="43.33728" lon="-0.53306">
        <ele>181</ele>
        <time>2016-05-05T13:15:27</time>
      </trkpt>
      <trkpt lat="43.33734" lon="-0.53305">
        <ele>182</ele>
        <time>2016-05-05T13:15:32</time>
      </trkpt>
      <trkpt lat="43.33741" lon="-0.53306">
        <ele>182</ele>
        <time>2016-05-05T13:15:37</time>
      </trkpt>
      <trkpt lat="43.33747" lon="-0.53306">
        <ele>184</ele>
        <time>2016-05-05T13:15:42</time>
      </trkpt>
      <trkpt lat="43.33753" lon="-0.53306">
        <ele>184</ele>
        <time>2016-05-05T13:15:47</time>
      </trkpt>
      <trkpt lat="43.33759" lon="-0.53309">
        <ele>185</ele>
        <time>2016-05-05T13:15:52</time>
      </trkpt>
      <trkpt lat="43.33764" lon="-0.5331">
        <ele>185</ele>
        <time>2016-05-05T13:15:57</time>
      </trkpt>
      <trkpt lat="43.33767" lon="-0.53312">
        <ele>186</ele>
        <time>2016-05-05T13:16:02</time>
      </trkpt>
      <trkpt lat="43.33768" lon="-0.53313">
        <ele>186</ele>
        <time>2016-05-05T13:16:07</time>
      </trkpt>
      <trkpt lat="43.33773" lon="-0.53312">
        <ele>185</ele>
        <time>2016-05-05T13:16:12</time>
      </trkpt>
      <trkpt lat="43.33777" lon="-0.53312">
        <ele>187</ele>
        <time>2016-05-05T13:16:17</time>
      </trkpt>
      <trkpt lat="43.33783" lon="-0.53312">
        <ele>187</ele>
        <time>2016-05-05T13:16:22</time>
      </trkpt>
      <trkpt lat="43.33791" lon="-0.53313">
        <ele>188</ele>
        <time>2016-05-05T13:16:27</time>
      </trkpt>
      <trkpt lat="43.33799" lon="-0.53312">
        <ele>189</ele>
        <time>2016-05-05T13:16:32</time>
      </trkpt>
      <trkpt lat="43.33807" lon="-0.53313">
        <ele>191</ele>
        <time>2016-05-05T13:16:37</time>
      </trkpt>
      <trkpt lat="43.33814" lon="-0.53313">
        <ele>191</ele>
        <time>2016-05-05T13:16:42</time>
      </trkpt>
      <trkpt lat="43.33822" lon="-0.53313">
        <ele>192</ele>
        <time>2016-05-05T13:16:47</time>
      </trkpt>
      <trkpt lat="43.33829" lon="-0.53315">
        <ele>194</ele>
        <time>2016-05-05T13:16:52</time>
      </trkpt>
      <trkpt lat="43.33835" lon="-0.53316">
        <ele>195</ele>
        <time>2016-05-05T13:16:57</time>
      </trkpt>
      <trkpt lat="43.33843" lon="-0.53316">
        <ele>196</ele>
        <time>2016-05-05T13:17:02</time>
      </trkpt>
      <trkpt lat="43.33851" lon="-0.53316">
        <ele>196</ele>
        <time>2016-05-05T13:17:07</time>
      </trkpt>
      <trkpt lat="43.33862" lon="-0.53319">
        <ele>196</ele>
        <time>2016-05-05T13:17:12</time>
      </trkpt>
      <trkpt lat="43.3387" lon="-0.5332">
        <ele>197</ele>
        <time>2016-05-05T13:17:17</time>
      </trkpt>
      <trkpt lat="43.33878" lon="-0.53319">
        <ele>198</ele>
        <time>2016-05-05T13:17:22</time>
      </trkpt>
      <trkpt lat="43.33884" lon="-0.53321">
        <ele>199</ele>
        <time>2016-05-05T13:17:27</time>
      </trkpt>
      <trkpt lat="43.33892" lon="-0.53324">
        <ele>200</ele>
        <time>2016-05-05T13:17:32</time>
      </trkpt>
      <trkpt lat="43.339" lon="-0.53327">
        <ele>199</ele>
        <time>2016-05-05T13:17:38</time>
      </trkpt>
      <trkpt lat="43.33909" lon="-0.53329">
        <ele>199</ele>
        <time>2016-05-05T13:17:43</time>
      </trkpt>
      <trkpt lat="43.33916" lon="-0.5333">
        <ele>201</ele>
        <time>2016-05-05T13:17:48</time>
      </trkpt>
      <trkpt lat="43.33923" lon="-0.53329">
        <ele>201</ele>
        <time>2016-05-05T13:17:53</time>
      </trkpt>
      <trkpt lat="43.33931" lon="-0.53325">
        <ele>202</ele>
        <time>2016-05-05T13:17:58</time>
      </trkpt>
      <trkpt lat="43.33938" lon="-0.53322">
        <ele>203</ele>
        <time>2016-05-05T13:18:03</time>
      </trkpt>
      <trkpt lat="43.33945" lon="-0.53319">
        <ele>205</ele>
        <time>2016-05-05T13:18:08</time>
      </trkpt>
      <trkpt lat="43.33955" lon="-0.53319">
        <ele>206</ele>
        <time>2016-05-05T13:18:13</time>
      </trkpt>
      <trkpt lat="43.33963" lon="-0.53321">
        <ele>205</ele>
        <time>2016-05-05T13:18:18</time>
      </trkpt>
      <trkpt lat="43.33971" lon="-0.53323">
        <ele>206</ele>
        <time>2016-05-05T13:18:23</time>
      </trkpt>
      <trkpt lat="43.33979" lon="-0.53323">
        <ele>206</ele>
        <time>2016-05-05T13:18:28</time>
      </trkpt>
      <trkpt lat="43.33986" lon="-0.53321">
        <ele>208</ele>
        <time>2016-05-05T13:18:33</time>
      </trkpt>
      <trkpt lat="43.33994" lon="-0.53321">
        <ele>208</ele>
        <time>2016-05-05T13:18:38</time>
      </trkpt>
      <trkpt lat="43.34002" lon="-0.5332">
        <ele>209</ele>
        <time>2016-05-05T13:18:43</time>
      </trkpt>
      <trkpt lat="43.34009" lon="-0.5332">
        <ele>209</ele>
        <time>2016-05-05T13:18:48</time>
      </trkpt>
      <trkpt lat="43.34018" lon="-0.53319">
        <ele>210</ele>
        <time>2016-05-05T13:18:53</time>
      </trkpt>
      <trkpt lat="43.34026" lon="-0.53316">
        <ele>212</ele>
        <time>2016-05-05T13:18:58</time>
      </trkpt>
      <trkpt lat="43.34032" lon="-0.53312">
        <ele>212</ele>
        <time>2016-05-05T13:19:03</time>
      </trkpt>
      <trkpt lat="43.34038" lon="-0.53307">
        <ele>213</ele>
        <time>2016-05-05T13:19:08</time>
      </trkpt>
      <trkpt lat="43.34044" lon="-0.533">
        <ele>214</ele>
        <time>2016-05-05T13:19:13</time>
      </trkpt>
      <trkpt lat="43.34052" lon="-0.53293">
        <ele>216</ele>
        <time>2016-05-05T13:19:18</time>
      </trkpt>
      <trkpt lat="43.34061" lon="-0.53287">
        <ele>215</ele>
        <time>2016-05-05T13:19:23</time>
      </trkpt>
      <trkpt lat="43.34068" lon="-0.53283">
        <ele>216</ele>
        <time>2016-05-05T13:19:28</time>
      </trkpt>
      <trkpt lat="43.34074" lon="-0.53279">
        <ele>218</ele>
        <time>2016-05-05T13:19:33</time>
      </trkpt>
      <trkpt lat="43.34081" lon="-0.53273">
        <ele>217</ele>
        <time>2016-05-05T13:19:38</time>
      </trkpt>
      <trkpt lat="43.34086" lon="-0.53267">
        <ele>219</ele>
        <time>2016-05-05T13:19:44</time>
      </trkpt>
      <trkpt lat="43.34092" lon="-0.5326">
        <ele>221</ele>
        <time>2016-05-05T13:19:49</time>
      </trkpt>
      <trkpt lat="43.34098" lon="-0.53255">
        <ele>221</ele>
        <time>2016-05-05T13:19:54</time>
      </trkpt>
      <trkpt lat="43.34105" lon="-0.53247">
        <ele>223</ele>
        <time>2016-05-05T13:19:59</time>
      </trkpt>
      <trkpt lat="43.34109" lon="-0.53238">
        <ele>223</ele>
        <time>2016-05-05T13:20:04</time>
      </trkpt>
      <trkpt lat="43.34114" lon="-0.53228">
        <ele>224</ele>
        <time>2016-05-05T13:20:09</time>
      </trkpt>
      <trkpt lat="43.34118" lon="-0.5322">
        <ele>225</ele>
        <time>2016-05-05T13:20:14</time>
      </trkpt>
      <trkpt lat="43.34122" lon="-0.53212">
        <ele>227</ele>
        <time>2016-05-05T13:20:19</time>
      </trkpt>
      <trkpt lat="43.34124" lon="-0.53203">
        <ele>228</ele>
        <time>2016-05-05T13:20:24</time>
      </trkpt>
      <trkpt lat="43.3413" lon="-0.53197">
        <ele>231</ele>
        <time>2016-05-05T13:20:29</time>
      </trkpt>
      <trkpt lat="43.34137" lon="-0.53196">
        <ele>230</ele>
        <time>2016-05-05T13:20:34</time>
      </trkpt>
      <trkpt lat="43.34144" lon="-0.53194">
        <ele>230</ele>
        <time>2016-05-05T13:20:39</time>
      </trkpt>
      <trkpt lat="43.34151" lon="-0.53193">
        <ele>230</ele>
        <time>2016-05-05T13:20:44</time>
      </trkpt>
      <trkpt lat="43.3416" lon="-0.5319">
        <ele>231</ele>
        <time>2016-05-05T13:20:49</time>
      </trkpt>
      <trkpt lat="43.34167" lon="-0.53184">
        <ele>231</ele>
        <time>2016-05-05T13:20:54</time>
      </trkpt>
      <trkpt lat="43.34177" lon="-0.53175">
        <ele>233</ele>
        <time>2016-05-05T13:20:59</time>
      </trkpt>
      <trkpt lat="43.34192" lon="-0.5316">
        <ele>232</ele>
        <time>2016-05-05T13:21:04</time>
      </trkpt>
      <trkpt lat="43.34211" lon="-0.53138">
        <ele>230</ele>
        <time>2016-05-05T13:21:09</time>
      </trkpt>
      <trkpt lat="43.34224" lon="-0.53123">
        <ele>230</ele>
        <time>2016-05-05T13:21:14</time>
      </trkpt>
      <trkpt lat="43.34233" lon="-0.53112">
        <ele>230</ele>
        <time>2016-05-05T13:21:19</time>
      </trkpt>
      <trkpt lat="43.34243" lon="-0.53099">
        <ele>231</ele>
        <time>2016-05-05T13:21:24</time>
      </trkpt>
      <trkpt lat="43.34252" lon="-0.53084">
        <ele>230</ele>
        <time>2016-05-05T13:21:29</time>
      </trkpt>
      <trkpt lat="43.34262" lon="-0.53066">
        <ele>232</ele>
        <time>2016-05-05T13:21:34</time>
      </trkpt>
      <trkpt lat="43.34271" lon="-0.53053">
        <ele>232</ele>
        <time>2016-05-05T13:21:39</time>
      </trkpt>
      <trkpt lat="43.3428" lon="-0.53044">
        <ele>232</ele>
        <time>2016-05-05T13:21:44</time>
      </trkpt>
      <trkpt lat="43.34288" lon="-0.53035">
        <ele>234</ele>
        <time>2016-05-05T13:21:50</time>
      </trkpt>
      <trkpt lat="43.34306" lon="-0.53024">
        <ele>232</ele>
        <time>2016-05-05T13:21:55</time>
      </trkpt>
      <trkpt lat="43.34329" lon="-0.53012">
        <ele>230</ele>
        <time>2016-05-05T13:22:00</time>
      </trkpt>
      <trkpt lat="43.34354" lon="-0.53003">
        <ele>229</ele>
        <time>2016-05-05T13:22:05</time>
      </trkpt>
      <trkpt lat="43.34377" lon="-0.53015">
        <ele>229</ele>
        <time>2016-05-05T13:22:10</time>
      </trkpt>
      <trkpt lat="43.34386" lon="-0.53023">
        <ele>229</ele>
        <time>2016-05-05T13:22:15</time>
      </trkpt>
      <trkpt lat="43.34392" lon="-0.53035">
        <ele>232</ele>
        <time>2016-05-05T13:22:20</time>
      </trkpt>
      <trkpt lat="43.344" lon="-0.53048">
        <ele>232</ele>
        <time>2016-05-05T13:22:25</time>
      </trkpt>
      <trkpt lat="43.34408" lon="-0.53064">
        <ele>232</ele>
        <time>2016-05-05T13:22:30</time>
      </trkpt>
      <trkpt lat="43.34412" lon="-0.53078">
        <ele>234</ele>
        <time>2016-05-05T13:22:35</time>
      </trkpt>
      <trkpt lat="43.34415" lon="-0.53097">
        <ele>232</ele>
        <time>2016-05-05T13:22:40</time>
      </trkpt>
      <trkpt lat="43.34414" lon="-0.53125">
        <ele>232</ele>
        <time>2016-05-05T13:22:45</time>
      </trkpt>
      <trkpt lat="43.34415" lon="-0.53147">
        <ele>231</ele>
        <time>2016-05-05T13:22:50</time>
      </trkpt>
      <trkpt lat="43.34421" lon="-0.53178">
        <ele>232</ele>
        <time>2016-05-05T13:22:55</time>
      </trkpt>
      <trkpt lat="43.34431" lon="-0.53203">
        <ele>232</ele>
        <time>2016-05-05T13:23:00</time>
      </trkpt>
      <trkpt lat="43.34437" lon="-0.53219">
        <ele>232</ele>
        <time>2016-05-05T13:23:05</time>
      </trkpt>
      <trkpt lat="43.34444" lon="-0.53234">
        <ele>232</ele>
        <time>2016-05-05T13:23:10</time>
      </trkpt>
      <trkpt lat="43.34452" lon="-0.53252">
        <ele>232</ele>
        <time>2016-05-05T13:23:15</time>
      </trkpt>
      <trkpt lat="43.34458" lon="-0.53263">
        <ele>232</ele>
        <time>2016-05-05T13:23:20</time>
      </trkpt>
      <trkpt lat="43.34465" lon="-0.53276">
        <ele>233</ele>
        <time>2016-05-05T13:23:25</time>
      </trkpt>
      <trkpt lat="43.34474" lon="-0.53288">
        <ele>233</ele>
        <time>2016-05-05T13:23:30</time>
      </trkpt>
      <trkpt lat="43.34482" lon="-0.53302">
        <ele>233</ele>
        <time>2016-05-05T13:23:35</time>
      </trkpt>
      <trkpt lat="43.34488" lon="-0.53315">
        <ele>234</ele>
        <time>2016-05-05T13:23:40</time>
      </trkpt>
      <trkpt lat="43.34489" lon="-0.53341">
        <ele>234</ele>
        <time>2016-05-05T13:23:45</time>
      </trkpt>
      <trkpt lat="43.34502" lon="-0.53399">
        <ele>230</ele>
        <time>2016-05-05T13:23:50</time>
      </trkpt>
      <trkpt lat="43.3452" lon="-0.5344">
        <ele>229</ele>
        <time>2016-05-05T13:23:55</time>
      </trkpt>
      <trkpt lat="43.34527" lon="-0.53472">
        <ele>228</ele>
        <time>2016-05-05T13:24:00</time>
      </trkpt>
      <trkpt lat="43.34528" lon="-0.53497">
        <ele>230</ele>
        <time>2016-05-05T13:24:05</time>
      </trkpt>
      <trkpt lat="43.34529" lon="-0.5352">
        <ele>229</ele>
        <time>2016-05-05T13:24:10</time>
      </trkpt>
      <trkpt lat="43.34531" lon="-0.53543">
        <ele>230</ele>
        <time>2016-05-05T13:24:15</time>
      </trkpt>
      <trkpt lat="43.34532" lon="-0.53566">
        <ele>229</ele>
        <time>2016-05-05T13:24:20</time>
      </trkpt>
      <trkpt lat="43.34534" lon="-0.53587">
        <ele>230</ele>
        <time>2016-05-05T13:24:26</time>
      </trkpt>
      <trkpt lat="43.34538" lon="-0.53603">
        <ele>230</ele>
        <time>2016-05-05T13:24:31</time>
      </trkpt>
      <trkpt lat="43.34544" lon="-0.53615">
        <ele>232</ele>
        <time>2016-05-05T13:24:36</time>
      </trkpt>
      <trkpt lat="43.34548" lon="-0.53624">
        <ele>232</ele>
        <time>2016-05-05T13:24:41</time>
      </trkpt>
      <trkpt lat="43.34553" lon="-0.53633">
        <ele>234</ele>
        <time>2016-05-05T13:24:46</time>
      </trkpt>
      <trkpt lat="43.34559" lon="-0.53639">
        <ele>234</ele>
        <time>2016-05-05T13:24:51</time>
      </trkpt>
      <trkpt lat="43.34565" lon="-0.53642">
        <ele>235</ele>
        <time>2016-05-05T13:24:56</time>
      </trkpt>
      <trkpt lat="43.34571" lon="-0.53641">
        <ele>235</ele>
        <time>2016-05-05T13:25:01</time>
      </trkpt>
      <trkpt lat="43.34579" lon="-0.53637">
        <ele>235</ele>
        <time>2016-05-05T13:25:06</time>
      </trkpt>
      <trkpt lat="43.34594" lon="-0.53624">
        <ele>234</ele>
        <time>2016-05-05T13:25:11</time>
      </trkpt>
      <trkpt lat="43.34614" lon="-0.53597">
        <ele>232</ele>
        <time>2016-05-05T13:25:16</time>
      </trkpt>
      <trkpt lat="43.34626" lon="-0.53561">
        <ele>230</ele>
        <time>2016-05-05T13:25:21</time>
      </trkpt>
      <trkpt lat="43.34644" lon="-0.53509">
        <ele>229</ele>
        <time>2016-05-05T13:25:26</time>
      </trkpt>
      <trkpt lat="43.34664" lon="-0.53467">
        <ele>225</ele>
        <time>2016-05-05T13:25:31</time>
      </trkpt>
      <trkpt lat="43.34686" lon="-0.53415">
        <ele>224</ele>
        <time>2016-05-05T13:25:36</time>
      </trkpt>
      <trkpt lat="43.34696" lon="-0.53364">
        <ele>221</ele>
        <time>2016-05-05T13:25:41</time>
      </trkpt>
      <trkpt lat="43.34708" lon="-0.53321">
        <ele>222</ele>
        <time>2016-05-05T13:25:46</time>
      </trkpt>
      <trkpt lat="43.3472" lon="-0.53287">
        <ele>220</ele>
        <time>2016-05-05T13:25:51</time>
      </trkpt>
      <trkpt lat="43.34735" lon="-0.53259">
        <ele>220</ele>
        <time>2016-05-05T13:25:56</time>
      </trkpt>
      <trkpt lat="43.3475" lon="-0.53232">
        <ele>219</ele>
        <time>2016-05-05T13:26:01</time>
      </trkpt>
      <trkpt lat="43.34782" lon="-0.53192">
        <ele>218</ele>
        <time>2016-05-05T13:26:06</time>
      </trkpt>
      <trkpt lat="43.34809" lon="-0.53174">
        <ele>215</ele>
        <time>2016-05-05T13:26:11</time>
      </trkpt>
      <trkpt lat="43.34813" lon="-0.53142">
        <ele>213</ele>
        <time>2016-05-05T13:26:16</time>
      </trkpt>
      <trkpt lat="43.34802" lon="-0.53094">
        <ele>208</ele>
        <time>2016-05-05T13:26:21</time>
      </trkpt>
      <trkpt lat="43.34779" lon="-0.53036">
        <ele>201</ele>
        <time>2016-05-05T13:26:26</time>
      </trkpt>
      <trkpt lat="43.34754" lon="-0.52983">
        <ele>195</ele>
        <time>2016-05-05T13:26:31</time>
      </trkpt>
      <trkpt lat="43.34748" lon="-0.52925">
        <ele>192</ele>
        <time>2016-05-05T13:26:36</time>
      </trkpt>
      <trkpt lat="43.34736" lon="-0.52873">
        <ele>190</ele>
        <time>2016-05-05T13:26:41</time>
      </trkpt>
      <trkpt lat="43.34717" lon="-0.52827">
        <ele>190</ele>
        <time>2016-05-05T13:26:46</time>
      </trkpt>
      <trkpt lat="43.34699" lon="-0.52785">
        <ele>186</ele>
        <time>2016-05-05T13:26:52</time>
      </trkpt>
      <trkpt lat="43.34678" lon="-0.52753">
        <ele>186</ele>
        <time>2016-05-05T13:26:57</time>
      </trkpt>
      <trkpt lat="43.34664" lon="-0.5271">
        <ele>183</ele>
        <time>2016-05-05T13:27:02</time>
      </trkpt>
      <trkpt lat="43.34672" lon="-0.52657">
        <ele>178</ele>
        <time>2016-05-05T13:27:07</time>
      </trkpt>
      <trkpt lat="43.34696" lon="-0.5265">
        <ele>174</ele>
        <time>2016-05-05T13:27:12</time>
      </trkpt>
      <trkpt lat="43.34717" lon="-0.52684">
        <ele>172</ele>
        <time>2016-05-05T13:27:17</time>
      </trkpt>
      <trkpt lat="43.34742" lon="-0.52722">
        <ele>169</ele>
        <time>2016-05-05T13:27:22</time>
      </trkpt>
      <trkpt lat="43.34768" lon="-0.52729">
        <ele>167</ele>
        <time>2016-05-05T13:27:27</time>
      </trkpt>
      <trkpt lat="43.34807" lon="-0.5275">
        <ele>161</ele>
        <time>2016-05-05T13:27:32</time>
      </trkpt>
      <trkpt lat="43.34834" lon="-0.52798">
        <ele>158</ele>
        <time>2016-05-05T13:27:37</time>
      </trkpt>
      <trkpt lat="43.34863" lon="-0.52817">
        <ele>158</ele>
        <time>2016-05-05T13:27:42</time>
      </trkpt>
      <trkpt lat="43.34884" lon="-0.5284">
        <ele>158</ele>
        <time>2016-05-05T13:27:47</time>
      </trkpt>
      <trkpt lat="43.34911" lon="-0.52847">
        <ele>158</ele>
        <time>2016-05-05T13:27:52</time>
      </trkpt>
      <trkpt lat="43.3494" lon="-0.52852">
        <ele>156</ele>
        <time>2016-05-05T13:27:57</time>
      </trkpt>
      <trkpt lat="43.34959" lon="-0.52866">
        <ele>155</ele>
        <time>2016-05-05T13:28:02</time>
      </trkpt>
      <trkpt lat="43.34979" lon="-0.52875">
        <ele>156</ele>
        <time>2016-05-05T13:28:07</time>
      </trkpt>
      <trkpt lat="43.34999" lon="-0.52879">
        <ele>154</ele>
        <time>2016-05-05T13:28:12</time>
      </trkpt>
      <trkpt lat="43.35019" lon="-0.52872">
        <ele>155</ele>
        <time>2016-05-05T13:28:17</time>
      </trkpt>
      <trkpt lat="43.3503" lon="-0.52838">
        <ele>155</ele>
        <time>2016-05-05T13:28:22</time>
      </trkpt>
      <trkpt lat="43.35045" lon="-0.52789">
        <ele>153</ele>
        <time>2016-05-05T13:28:27</time>
      </trkpt>
      <trkpt lat="43.35065" lon="-0.52745">
        <ele>150</ele>
        <time>2016-05-05T13:28:32</time>
      </trkpt>
      <trkpt lat="43.35082" lon="-0.52711">
        <ele>150</ele>
        <time>2016-05-05T13:28:37</time>
      </trkpt>
      <trkpt lat="43.35096" lon="-0.52683">
        <ele>149</ele>
        <time>2016-05-05T13:28:42</time>
      </trkpt>
      <trkpt lat="43.35111" lon="-0.52658">
        <ele>149</ele>
        <time>2016-05-05T13:28:47</time>
      </trkpt>
      <trkpt lat="43.35125" lon="-0.52633">
        <ele>149</ele>
        <time>2016-05-05T13:28:52</time>
      </trkpt>
      <trkpt lat="43.35133" lon="-0.52606">
        <ele>150</ele>
        <time>2016-05-05T13:28:57</time>
      </trkpt>
      <trkpt lat="43.3514" lon="-0.52577">
        <ele>149</ele>
        <time>2016-05-05T13:29:02</time>
      </trkpt>
      <trkpt lat="43.35162" lon="-0.52572">
        <ele>151</ele>
        <time>2016-05-05T13:29:07</time>
      </trkpt>
      <trkpt lat="43.35182" lon="-0.52584">
        <ele>151</ele>
        <time>2016-05-05T13:29:12</time>
      </trkpt>
      <trkpt lat="43.35201" lon="-0.526">
        <ele>149</ele>
        <time>2016-05-05T13:29:18</time>
      </trkpt>
      <trkpt lat="43.35221" lon="-0.52627">
        <ele>150</ele>
        <time>2016-05-05T13:29:23</time>
      </trkpt>
      <trkpt lat="43.35238" lon="-0.52649">
        <ele>148</ele>
        <time>2016-05-05T13:29:28</time>
      </trkpt>
      <trkpt lat="43.35255" lon="-0.52671">
        <ele>149</ele>
        <time>2016-05-05T13:29:33</time>
      </trkpt>
      <trkpt lat="43.35271" lon="-0.52695">
        <ele>149</ele>
        <time>2016-05-05T13:29:38</time>
      </trkpt>
      <trkpt lat="43.35285" lon="-0.52713">
        <ele>149</ele>
        <time>2016-05-05T13:29:43</time>
      </trkpt>
      <trkpt lat="43.35302" lon="-0.52736">
        <ele>148</ele>
        <time>2016-05-05T13:29:48</time>
      </trkpt>
      <trkpt lat="43.3532" lon="-0.52759">
        <ele>148</ele>
        <time>2016-05-05T13:29:53</time>
      </trkpt>
      <trkpt lat="43.35337" lon="-0.52783">
        <ele>147</ele>
        <time>2016-05-05T13:29:58</time>
      </trkpt>
      <trkpt lat="43.35355" lon="-0.52808">
        <ele>148</ele>
        <time>2016-05-05T13:30:03</time>
      </trkpt>
      <trkpt lat="43.35374" lon="-0.52831">
        <ele>148</ele>
        <time>2016-05-05T13:30:08</time>
      </trkpt>
      <trkpt lat="43.35392" lon="-0.52854">
        <ele>147</ele>
        <time>2016-05-05T13:30:13</time>
      </trkpt>
      <trkpt lat="43.3541" lon="-0.52878">
        <ele>148</ele>
        <time>2016-05-05T13:30:18</time>
      </trkpt>
      <trkpt lat="43.35429" lon="-0.52902">
        <ele>147</ele>
        <time>2016-05-05T13:30:23</time>
      </trkpt>
      <trkpt lat="43.35447" lon="-0.52926">
        <ele>147</ele>
        <time>2016-05-05T13:30:28</time>
      </trkpt>
      <trkpt lat="43.3547" lon="-0.52956">
        <ele>148</ele>
        <time>2016-05-05T13:30:33</time>
      </trkpt>
      <trkpt lat="43.35488" lon="-0.52981">
        <ele>146</ele>
        <time>2016-05-05T13:30:38</time>
      </trkpt>
      <trkpt lat="43.35506" lon="-0.53005">
        <ele>147</ele>
        <time>2016-05-05T13:30:43</time>
      </trkpt>
      <trkpt lat="43.35522" lon="-0.53032">
        <ele>147</ele>
        <time>2016-05-05T13:30:48</time>
      </trkpt>
      <trkpt lat="43.35534" lon="-0.53062">
        <ele>147</ele>
        <time>2016-05-05T13:30:53</time>
      </trkpt>
      <trkpt lat="43.35543" lon="-0.53095">
        <ele>146</ele>
        <time>2016-05-05T13:30:58</time>
      </trkpt>
      <trkpt lat="43.3555" lon="-0.5313">
        <ele>146</ele>
        <time>2016-05-05T13:31:03</time>
      </trkpt>
      <trkpt lat="43.35556" lon="-0.53166">
        <ele>146</ele>
        <time>2016-05-05T13:31:08</time>
      </trkpt>
      <trkpt lat="43.35564" lon="-0.53202">
        <ele>148</ele>
        <time>2016-05-05T13:31:13</time>
      </trkpt>
      <trkpt lat="43.35572" lon="-0.53237">
        <ele>147</ele>
        <time>2016-05-05T13:31:18</time>
      </trkpt>
      <trkpt lat="43.35579" lon="-0.53266">
        <ele>147</ele>
        <time>2016-05-05T13:31:23</time>
      </trkpt>
      <trkpt lat="43.35593" lon="-0.533">
        <ele>146</ele>
        <time>2016-05-05T13:31:28</time>
      </trkpt>
      <trkpt lat="43.3561" lon="-0.53332">
        <ele>145</ele>
        <time>2016-05-05T13:31:33</time>
      </trkpt>
      <trkpt lat="43.3563" lon="-0.53369">
        <ele>147</ele>
        <time>2016-05-05T13:31:38</time>
      </trkpt>
      <trkpt lat="43.35648" lon="-0.53399">
        <ele>146</ele>
        <time>2016-05-05T13:31:44</time>
      </trkpt>
      <trkpt lat="43.35664" lon="-0.53429">
        <ele>146</ele>
        <time>2016-05-05T13:31:49</time>
      </trkpt>
      <trkpt lat="43.3568" lon="-0.53458">
        <ele>146</ele>
        <time>2016-05-05T13:31:54</time>
      </trkpt>
      <trkpt lat="43.35694" lon="-0.53491">
        <ele>146</ele>
        <time>2016-05-05T13:31:59</time>
      </trkpt>
      <trkpt lat="43.35704" lon="-0.53527">
        <ele>145</ele>
        <time>2016-05-05T13:32:04</time>
      </trkpt>
      <trkpt lat="43.35709" lon="-0.53565">
        <ele>146</ele>
        <time>2016-05-05T13:32:09</time>
      </trkpt>
      <trkpt lat="43.35712" lon="-0.53603">
        <ele>146</ele>
        <time>2016-05-05T13:32:14</time>
      </trkpt>
      <trkpt lat="43.35715" lon="-0.53641">
        <ele>145</ele>
        <time>2016-05-05T13:32:19</time>
      </trkpt>
      <trkpt lat="43.35717" lon="-0.5368">
        <ele>145</ele>
        <time>2016-05-05T13:32:24</time>
      </trkpt>
      <trkpt lat="43.35725" lon="-0.53717">
        <ele>145</ele>
        <time>2016-05-05T13:32:29</time>
      </trkpt>
      <trkpt lat="43.35742" lon="-0.53755">
        <ele>144</ele>
        <time>2016-05-05T13:32:34</time>
      </trkpt>
      <trkpt lat="43.35757" lon="-0.53779">
        <ele>145</ele>
        <time>2016-05-05T13:32:39</time>
      </trkpt>
      <trkpt lat="43.35767" lon="-0.53795">
        <ele>145</ele>
        <time>2016-05-05T13:32:44</time>
      </trkpt>
      <trkpt lat="43.35767" lon="-0.53797">
        <ele>145</ele>
        <time>2016-05-05T13:32:49</time>
      </trkpt>
      <trkpt lat="43.35767" lon="-0.53798">
        <ele>145</ele>
        <time>2016-05-05T13:32:54</time>
      </trkpt>
      <trkpt lat="43.35766" lon="-0.53798">
        <ele>145</ele>
        <time>2016-05-05T13:32:59</time>
      </trkpt>
      <trkpt lat="43.35766" lon="-0.53798">
        <ele>145</ele>
        <time>2016-05-05T13:33:04</time>
      </trkpt>
      <trkpt lat="43.35765" lon="-0.53798">
        <ele>144</ele>
        <time>2016-05-05T13:33:09</time>
      </trkpt>
      <trkpt lat="43.35765" lon="-0.53798">
        <ele>145</ele>
        <time>2016-05-05T13:33:14</time>
      </trkpt>
      <trkpt lat="43.35765" lon="-0.53798">
        <ele>145</ele>
        <time>2016-05-05T13:33:19</time>
      </trkpt>
      <trkpt lat="43.35765" lon="-0.53798">
        <ele>146</ele>
        <time>2016-05-05T13:33:24</time>
      </trkpt>
      <trkpt lat="43.35765" lon="-0.53798">
        <ele>144</ele>
        <time>2016-05-05T13:33:27</time>
      </trkpt>
    </trkseg>
  </trk>
</gpx>